<?xml version='1.0' encoding='UTF-8'?><gpx version="1.1" creator="JPX - https://github.com/jenetics/jpx" xmlns="http://www.topografix.com/GPX/1/1"><trk><trkseg><trkpt lat="43.3294915" lon="10.6730428"><ele>37.0</ele><time>2026-04-03T07:57:27.761Z</time></trkpt><trkpt lat="43.3295517" lon="10.6729463"><ele>37.0</ele><time>2026-04-03T07:57:30.875Z</time></trkpt><trkpt lat="43.3296053" lon="10.6728705"><ele>37.0</ele><time>2026-04-03T07:57:33.807Z</time></trkpt><trkpt lat="43.3296215" lon="10.672759"><ele>37.0</ele><time>2026-04-03T07:57:36.894Z</time></trkpt><trkpt lat="43.3295965" lon="10.6725371"><ele>37.0</ele><time>2026-04-03T07:57:38.883Z</time></trkpt><trkpt lat="43.329582" lon="10.6723758"><ele>37.142857142857146</ele><time>2026-04-03T07:57:40.88Z</time></trkpt><trkpt lat="43.3295746" lon="10.6722876"><ele>37.285714285714285</ele><time>2026-04-03T07:57:41.877Z</time></trkpt><trkpt lat="43.3295631" lon="10.6721962"><ele>37.42857142857143</ele><time>2026-04-03T07:57:42.884Z</time></trkpt><trkpt lat="43.3295494" lon="10.6720992"><ele>37.57142857142857</ele><time>2026-04-03T07:57:43.89Z</time></trkpt><trkpt lat="43.3295342" lon="10.6719988"><ele>37.714285714285715</ele><time>2026-04-03T07:57:44.881Z</time></trkpt><trkpt lat="43.3295186" lon="10.6718952"><ele>37.857142857142854</ele><time>2026-04-03T07:57:45.878Z</time></trkpt><trkpt lat="43.3295022" lon="10.6717858"><ele>38.0</ele><time>2026-04-03T07:57:46.866Z</time></trkpt><trkpt lat="43.3294847" lon="10.6716737"><ele>38.0</ele><time>2026-04-03T07:57:47.884Z</time></trkpt><trkpt lat="43.3294663" lon="10.6715596"><ele>38.0</ele><time>2026-04-03T07:57:48.878Z</time></trkpt><trkpt lat="43.3294482" lon="10.6714508"><ele>38.0</ele><time>2026-04-03T07:57:49.873Z</time></trkpt><trkpt lat="43.3294316" lon="10.6713497"><ele>38.0</ele><time>2026-04-03T07:57:50.892Z</time></trkpt><trkpt lat="43.3294148" lon="10.6712488"><ele>38.0</ele><time>2026-04-03T07:57:51.868Z</time></trkpt><trkpt lat="43.3293977" lon="10.671144"><ele>38.0</ele><time>2026-04-03T07:57:52.877Z</time></trkpt><trkpt lat="43.3293808" lon="10.6710359"><ele>37.83333333333333</ele><time>2026-04-03T07:57:53.877Z</time></trkpt><trkpt lat="43.329365" lon="10.6709253"><ele>37.666666666666664</ele><time>2026-04-03T07:57:54.878Z</time></trkpt><trkpt lat="43.3293513" lon="10.6708141"><ele>37.5</ele><time>2026-04-03T07:57:55.88Z</time></trkpt><trkpt lat="43.3293453" lon="10.6707029"><ele>37.333333333333336</ele><time>2026-04-03T07:57:56.878Z</time></trkpt><trkpt lat="43.3293457" lon="10.6705928"><ele>37.16666666666667</ele><time>2026-04-03T07:57:57.876Z</time></trkpt><trkpt lat="43.3293443" lon="10.6704906"><ele>37.0</ele><time>2026-04-03T07:57:58.874Z</time></trkpt><trkpt lat="43.3293277" lon="10.670388"><ele>37.0</ele><time>2026-04-03T07:57:59.869Z</time></trkpt><trkpt lat="43.3292933" lon="10.6703043"><ele>37.0</ele><time>2026-04-03T07:58:00.88Z</time></trkpt><trkpt lat="43.3292424" lon="10.670252"><ele>37.0</ele><time>2026-04-03T07:58:01.881Z</time></trkpt><trkpt lat="43.32918" lon="10.6702348"><ele>37.0</ele><time>2026-04-03T07:58:02.87Z</time></trkpt><trkpt lat="43.3291155" lon="10.6702569"><ele>37.0</ele><time>2026-04-03T07:58:03.872Z</time></trkpt><trkpt lat="43.3290543" lon="10.6703045"><ele>37.0</ele><time>2026-04-03T07:58:04.879Z</time></trkpt><trkpt lat="43.3289941" lon="10.6703559"><ele>37.0</ele><time>2026-04-03T07:58:05.889Z</time></trkpt><trkpt lat="43.3289335" lon="10.6704062"><ele>36.85714285714286</ele><time>2026-04-03T07:58:06.882Z</time></trkpt><trkpt lat="43.3288725" lon="10.6704552"><ele>36.714285714285715</ele><time>2026-04-03T07:58:07.87Z</time></trkpt><trkpt lat="43.3288078" lon="10.6704977"><ele>36.57142857142857</ele><time>2026-04-03T07:58:08.892Z</time></trkpt><trkpt lat="43.3287384" lon="10.6705301"><ele>36.42857142857143</ele><time>2026-04-03T07:58:09.885Z</time></trkpt><trkpt lat="43.3286664" lon="10.6705564"><ele>36.285714285714285</ele><time>2026-04-03T07:58:10.875Z</time></trkpt><trkpt lat="43.3285904" lon="10.670575"><ele>36.142857142857146</ele><time>2026-04-03T07:58:11.878Z</time></trkpt><trkpt lat="43.3285129" lon="10.6705805"><ele>36.0</ele><time>2026-04-03T07:58:12.876Z</time></trkpt><trkpt lat="43.3284338" lon="10.6705756"><ele>36.0</ele><time>2026-04-03T07:58:13.878Z</time></trkpt><trkpt lat="43.3283544" lon="10.6705643"><ele>36.0</ele><time>2026-04-03T07:58:14.884Z</time></trkpt><trkpt lat="43.3282744" lon="10.6705492"><ele>36.0</ele><time>2026-04-03T07:58:15.878Z</time></trkpt><trkpt lat="43.3281934" lon="10.6705327"><ele>36.0</ele><time>2026-04-03T07:58:16.882Z</time></trkpt><trkpt lat="43.3281113" lon="10.6705161"><ele>36.0</ele><time>2026-04-03T07:58:17.879Z</time></trkpt><trkpt lat="43.3280282" lon="10.6705009"><ele>36.0</ele><time>2026-04-03T07:58:18.883Z</time></trkpt><trkpt lat="43.3279443" lon="10.6704849"><ele>36.166666666666664</ele><time>2026-04-03T07:58:19.885Z</time></trkpt><trkpt lat="43.3278586" lon="10.6704695"><ele>36.333333333333336</ele><time>2026-04-03T07:58:20.884Z</time></trkpt><trkpt lat="43.3277721" lon="10.6704529"><ele>36.5</ele><time>2026-04-03T07:58:21.905Z</time></trkpt><trkpt lat="43.3276839" lon="10.6704339"><ele>36.66666666666667</ele><time>2026-04-03T07:58:22.879Z</time></trkpt><trkpt lat="43.3275944" lon="10.6704149"><ele>36.833333333333336</ele><time>2026-04-03T07:58:23.886Z</time></trkpt><trkpt lat="43.327504" lon="10.6703965"><ele>37.0</ele><time>2026-04-03T07:58:24.883Z</time></trkpt><trkpt lat="43.327412" lon="10.6703793"><ele>37.0</ele><time>2026-04-03T07:58:25.89Z</time></trkpt><trkpt lat="43.3273183" lon="10.6703621"><ele>37.0</ele><time>2026-04-03T07:58:26.875Z</time></trkpt><trkpt lat="43.3272237" lon="10.6703446"><ele>37.0</ele><time>2026-04-03T07:58:27.895Z</time></trkpt><trkpt lat="43.3271288" lon="10.6703268"><ele>37.0</ele><time>2026-04-03T07:58:28.888Z</time></trkpt><trkpt lat="43.3270353" lon="10.6703085"><ele>37.0</ele><time>2026-04-03T07:58:29.895Z</time></trkpt><trkpt lat="43.3269402" lon="10.6702897"><ele>36.6</ele><time>2026-04-03T07:58:30.891Z</time></trkpt><trkpt lat="43.3268432" lon="10.6702717"><ele>36.2</ele><time>2026-04-03T07:58:31.885Z</time></trkpt><trkpt lat="43.3267452" lon="10.6702535"><ele>35.8</ele><time>2026-04-03T07:58:32.881Z</time></trkpt><trkpt lat="43.3266457" lon="10.6702345"><ele>35.4</ele><time>2026-04-03T07:58:33.891Z</time></trkpt><trkpt lat="43.3265447" lon="10.6702148"><ele>35.0</ele><time>2026-04-03T07:58:34.889Z</time></trkpt><trkpt lat="43.3264423" lon="10.6701954"><ele>35.2</ele><time>2026-04-03T07:58:35.884Z</time></trkpt><trkpt lat="43.3263385" lon="10.6701748"><ele>35.4</ele><time>2026-04-03T07:58:36.882Z</time></trkpt><trkpt lat="43.3262344" lon="10.6701531"><ele>35.6</ele><time>2026-04-03T07:58:37.895Z</time></trkpt><trkpt lat="43.3261304" lon="10.6701322"><ele>35.8</ele><time>2026-04-03T07:58:38.878Z</time></trkpt><trkpt lat="43.3260258" lon="10.6701125"><ele>36.0</ele><time>2026-04-03T07:58:39.893Z</time></trkpt><trkpt lat="43.3259207" lon="10.670093"><ele>36.0</ele><time>2026-04-03T07:58:40.901Z</time></trkpt><trkpt lat="43.3258154" lon="10.670072"><ele>36.0</ele><time>2026-04-03T07:58:41.884Z</time></trkpt><trkpt lat="43.3257096" lon="10.6700514"><ele>36.0</ele><time>2026-04-03T07:58:42.881Z</time></trkpt><trkpt lat="43.3256041" lon="10.670033"><ele>36.0</ele><time>2026-04-03T07:58:43.884Z</time></trkpt><trkpt lat="43.325499" lon="10.6700147"><ele>36.0</ele><time>2026-04-03T07:58:44.884Z</time></trkpt><trkpt lat="43.3253939" lon="10.6699938"><ele>36.0</ele><time>2026-04-03T07:58:45.885Z</time></trkpt><trkpt lat="43.3252891" lon="10.6699716"><ele>36.0</ele><time>2026-04-03T07:58:46.881Z</time></trkpt><trkpt lat="43.3251847" lon="10.6699493"><ele>36.0</ele><time>2026-04-03T07:58:47.882Z</time></trkpt><trkpt lat="43.3250809" lon="10.669928"><ele>36.0</ele><time>2026-04-03T07:58:48.881Z</time></trkpt><trkpt lat="43.3249771" lon="10.6699121"><ele>36.0</ele><time>2026-04-03T07:58:49.881Z</time></trkpt><trkpt lat="43.3248763" lon="10.6698981"><ele>36.0</ele><time>2026-04-03T07:58:50.891Z</time></trkpt><trkpt lat="43.3247803" lon="10.6698823"><ele>36.0</ele><time>2026-04-03T07:58:51.887Z</time></trkpt><trkpt lat="43.3246893" lon="10.669863"><ele>36.0</ele><time>2026-04-03T07:58:52.883Z</time></trkpt><trkpt lat="43.3246003" lon="10.6698438"><ele>36.0</ele><time>2026-04-03T07:58:53.879Z</time></trkpt><trkpt lat="43.3245109" lon="10.6698306"><ele>36.0</ele><time>2026-04-03T07:58:54.893Z</time></trkpt><trkpt lat="43.3244213" lon="10.6698236"><ele>36.0</ele><time>2026-04-03T07:58:55.873Z</time></trkpt><trkpt lat="43.3243376" lon="10.6698182"><ele>36.0</ele><time>2026-04-03T07:58:56.896Z</time></trkpt><trkpt lat="43.3242629" lon="10.6698145"><ele>36.0</ele><time>2026-04-03T07:58:57.891Z</time></trkpt><trkpt lat="43.3241531" lon="10.6698016"><ele>36.0</ele><time>2026-04-03T07:58:59.892Z</time></trkpt><trkpt lat="43.3240824" lon="10.6697714"><ele>36.0</ele><time>2026-04-03T08:04:19.867Z</time></trkpt><trkpt lat="43.3239672" lon="10.6698025"><ele>35.5</ele><time>2026-04-03T08:04:21.877Z</time></trkpt><trkpt lat="43.3238626" lon="10.6698121"><ele>35.0</ele><time>2026-04-03T08:04:22.875Z</time></trkpt><trkpt lat="43.3237424" lon="10.6698205"><ele>34.5</ele><time>2026-04-03T08:04:23.884Z</time></trkpt><trkpt lat="43.3236114" lon="10.669829"><ele>34.0</ele><time>2026-04-03T08:04:24.885Z</time></trkpt><trkpt lat="43.3234784" lon="10.6698338"><ele>34.0</ele><time>2026-04-03T08:04:25.882Z</time></trkpt><trkpt lat="43.3233392" lon="10.6698341"><ele>34.0</ele><time>2026-04-03T08:04:26.88Z</time></trkpt><trkpt lat="43.3232129" lon="10.6698367"><ele>34.0</ele><time>2026-04-03T08:04:27.885Z</time></trkpt><trkpt lat="43.3230838" lon="10.6698411"><ele>34.0</ele><time>2026-04-03T08:04:28.883Z</time></trkpt><trkpt lat="43.3229575" lon="10.6698455"><ele>35.0</ele><time>2026-04-03T08:04:29.89Z</time></trkpt><trkpt lat="43.3228348" lon="10.6698502"><ele>36.0</ele><time>2026-04-03T08:04:30.887Z</time></trkpt><trkpt lat="43.3227103" lon="10.6698523"><ele>37.0</ele><time>2026-04-03T08:04:31.881Z</time></trkpt><trkpt lat="43.3225816" lon="10.6698511"><ele>38.0</ele><time>2026-04-03T08:04:32.892Z</time></trkpt><trkpt lat="43.3224517" lon="10.6698483"><ele>38.0</ele><time>2026-04-03T08:04:33.882Z</time></trkpt><trkpt lat="43.3223181" lon="10.6698461"><ele>38.0</ele><time>2026-04-03T08:04:34.889Z</time></trkpt><trkpt lat="43.3221849" lon="10.6698448"><ele>38.0</ele><time>2026-04-03T08:04:35.881Z</time></trkpt><trkpt lat="43.32205" lon="10.669844"><ele>38.0</ele><time>2026-04-03T08:04:36.885Z</time></trkpt><trkpt lat="43.3219128" lon="10.6698428"><ele>37.75</ele><time>2026-04-03T08:04:37.892Z</time></trkpt><trkpt lat="43.3217732" lon="10.6698439"><ele>37.5</ele><time>2026-04-03T08:04:38.885Z</time></trkpt><trkpt lat="43.321633" lon="10.6698454"><ele>37.25</ele><time>2026-04-03T08:04:39.882Z</time></trkpt><trkpt lat="43.3214926" lon="10.6698473"><ele>37.0</ele><time>2026-04-03T08:04:40.883Z</time></trkpt><trkpt lat="43.3213512" lon="10.6698521"><ele>37.0</ele><time>2026-04-03T08:04:41.88Z</time></trkpt><trkpt lat="43.3212133" lon="10.6698585"><ele>37.0</ele><time>2026-04-03T08:04:42.884Z</time></trkpt><trkpt lat="43.3210766" lon="10.6698684"><ele>37.0</ele><time>2026-04-03T08:04:43.878Z</time></trkpt><trkpt lat="43.3209369" lon="10.669878"><ele>37.0</ele><time>2026-04-03T08:04:44.88Z</time></trkpt><trkpt lat="43.3207973" lon="10.6698914"><ele>37.0</ele><time>2026-04-03T08:04:45.877Z</time></trkpt><trkpt lat="43.3206583" lon="10.6699069"><ele>37.0</ele><time>2026-04-03T08:04:46.886Z</time></trkpt><trkpt lat="43.3205255" lon="10.6699283"><ele>37.0</ele><time>2026-04-03T08:04:47.883Z</time></trkpt><trkpt lat="43.3203985" lon="10.6699491"><ele>37.0</ele><time>2026-04-03T08:04:48.881Z</time></trkpt><trkpt lat="43.3202734" lon="10.6699701"><ele>37.0</ele><time>2026-04-03T08:04:49.879Z</time></trkpt><trkpt lat="43.320148" lon="10.6699959"><ele>37.0</ele><time>2026-04-03T08:04:50.878Z</time></trkpt><trkpt lat="43.3200171" lon="10.6700243"><ele>37.0</ele><time>2026-04-03T08:04:51.878Z</time></trkpt><trkpt lat="43.3198801" lon="10.6700564"><ele>37.0</ele><time>2026-04-03T08:04:52.881Z</time></trkpt><trkpt lat="43.3197389" lon="10.6700926"><ele>36.75</ele><time>2026-04-03T08:04:53.885Z</time></trkpt><trkpt lat="43.3195949" lon="10.6701337"><ele>36.5</ele><time>2026-04-03T08:04:54.885Z</time></trkpt><trkpt lat="43.3194487" lon="10.6701792"><ele>36.25</ele><time>2026-04-03T08:04:55.874Z</time></trkpt><trkpt lat="43.3193012" lon="10.6702295"><ele>36.0</ele><time>2026-04-03T08:04:56.894Z</time></trkpt><trkpt lat="43.3191533" lon="10.670284"><ele>36.0</ele><time>2026-04-03T08:04:57.878Z</time></trkpt><trkpt lat="43.3190057" lon="10.6703446"><ele>36.0</ele><time>2026-04-03T08:04:58.895Z</time></trkpt><trkpt lat="43.318859" lon="10.6704077"><ele>36.0</ele><time>2026-04-03T08:04:59.878Z</time></trkpt><trkpt lat="43.3187144" lon="10.6704739"><ele>36.0</ele><time>2026-04-03T08:05:00.889Z</time></trkpt><trkpt lat="43.3185713" lon="10.6705427"><ele>36.0</ele><time>2026-04-03T08:05:01.876Z</time></trkpt><trkpt lat="43.3184306" lon="10.6706153"><ele>36.0</ele><time>2026-04-03T08:05:02.882Z</time></trkpt><trkpt lat="43.3182901" lon="10.6706933"><ele>36.0</ele><time>2026-04-03T08:05:03.882Z</time></trkpt><trkpt lat="43.3181505" lon="10.6707747"><ele>36.0</ele><time>2026-04-03T08:05:04.881Z</time></trkpt><trkpt lat="43.3180106" lon="10.6708594"><ele>36.0</ele><time>2026-04-03T08:05:05.878Z</time></trkpt><trkpt lat="43.3178707" lon="10.6709511"><ele>36.333333333333336</ele><time>2026-04-03T08:05:06.879Z</time></trkpt><trkpt lat="43.3177289" lon="10.6710501"><ele>36.66666666666667</ele><time>2026-04-03T08:05:07.884Z</time></trkpt><trkpt lat="43.3175877" lon="10.6711537"><ele>37.0</ele><time>2026-04-03T08:05:08.882Z</time></trkpt><trkpt lat="43.3174458" lon="10.6712606"><ele>37.333333333333336</ele><time>2026-04-03T08:05:09.881Z</time></trkpt><trkpt lat="43.3173034" lon="10.6713701"><ele>37.666666666666664</ele><time>2026-04-03T08:05:10.881Z</time></trkpt><trkpt lat="43.3171621" lon="10.6714856"><ele>38.0</ele><time>2026-04-03T08:05:11.884Z</time></trkpt><trkpt lat="43.3170212" lon="10.6716053"><ele>38.33333333333333</ele><time>2026-04-03T08:05:12.883Z</time></trkpt><trkpt lat="43.3168797" lon="10.6717271"><ele>38.666666666666664</ele><time>2026-04-03T08:05:13.877Z</time></trkpt><trkpt lat="43.3167377" lon="10.6718483"><ele>39.0</ele><time>2026-04-03T08:05:14.877Z</time></trkpt><trkpt lat="43.3165945" lon="10.6719699"><ele>39.0</ele><time>2026-04-03T08:05:15.882Z</time></trkpt><trkpt lat="43.3164503" lon="10.672093"><ele>39.0</ele><time>2026-04-03T08:05:16.877Z</time></trkpt><trkpt lat="43.3163053" lon="10.6722185"><ele>39.0</ele><time>2026-04-03T08:05:17.883Z</time></trkpt><trkpt lat="43.31616" lon="10.6723487"><ele>39.0</ele><time>2026-04-03T08:05:18.881Z</time></trkpt><trkpt lat="43.316011" lon="10.6724824"><ele>39.0</ele><time>2026-04-03T08:05:19.887Z</time></trkpt><trkpt lat="43.3158599" lon="10.6726165"><ele>39.0</ele><time>2026-04-03T08:05:20.881Z</time></trkpt><trkpt lat="43.3157057" lon="10.6727492"><ele>39.666666666666664</ele><time>2026-04-03T08:05:21.895Z</time></trkpt><trkpt lat="43.3155494" lon="10.672882"><ele>40.33333333333333</ele><time>2026-04-03T08:05:22.873Z</time></trkpt><trkpt lat="43.3153926" lon="10.6730169"><ele>41.0</ele><time>2026-04-03T08:05:23.888Z</time></trkpt><trkpt lat="43.315236" lon="10.6731548"><ele>41.0</ele><time>2026-04-03T08:05:24.875Z</time></trkpt><trkpt lat="43.3150781" lon="10.6732931"><ele>41.0</ele><time>2026-04-03T08:05:25.885Z</time></trkpt><trkpt lat="43.3149184" lon="10.6734335"><ele>41.0</ele><time>2026-04-03T08:05:26.884Z</time></trkpt><trkpt lat="43.3147589" lon="10.6735804"><ele>40.0</ele><time>2026-04-03T08:05:27.886Z</time></trkpt><trkpt lat="43.3145984" lon="10.6737372"><ele>39.0</ele><time>2026-04-03T08:05:28.883Z</time></trkpt><trkpt lat="43.314438" lon="10.673907"><ele>38.0</ele><time>2026-04-03T08:05:29.882Z</time></trkpt><trkpt lat="43.3142778" lon="10.6740852"><ele>38.0</ele><time>2026-04-03T08:05:30.879Z</time></trkpt><trkpt lat="43.3141193" lon="10.6742665"><ele>38.0</ele><time>2026-04-03T08:05:31.882Z</time></trkpt><trkpt lat="43.3139628" lon="10.6744501"><ele>38.0</ele><time>2026-04-03T08:05:32.888Z</time></trkpt><trkpt lat="43.3138069" lon="10.6746352"><ele>39.0</ele><time>2026-04-03T08:05:33.885Z</time></trkpt><trkpt lat="43.3136509" lon="10.6748192"><ele>40.0</ele><time>2026-04-03T08:05:34.884Z</time></trkpt><trkpt lat="43.3134972" lon="10.6750017"><ele>41.0</ele><time>2026-04-03T08:05:35.881Z</time></trkpt><trkpt lat="43.313347" lon="10.6751833"><ele>40.666666666666664</ele><time>2026-04-03T08:05:36.884Z</time></trkpt><trkpt lat="43.3131981" lon="10.6753628"><ele>40.333333333333336</ele><time>2026-04-03T08:05:37.884Z</time></trkpt><trkpt lat="43.3130484" lon="10.6755418"><ele>40.0</ele><time>2026-04-03T08:05:38.889Z</time></trkpt><trkpt lat="43.3128979" lon="10.6757199"><ele>39.66666666666667</ele><time>2026-04-03T08:05:39.895Z</time></trkpt><trkpt lat="43.3127466" lon="10.6758974"><ele>39.333333333333336</ele><time>2026-04-03T08:05:40.885Z</time></trkpt><trkpt lat="43.3125946" lon="10.6760747"><ele>39.0</ele><time>2026-04-03T08:05:41.875Z</time></trkpt><trkpt lat="43.3124422" lon="10.6762539"><ele>39.0</ele><time>2026-04-03T08:05:42.88Z</time></trkpt><trkpt lat="43.3122901" lon="10.6764346"><ele>39.0</ele><time>2026-04-03T08:05:43.88Z</time></trkpt><trkpt lat="43.3121381" lon="10.676616"><ele>39.0</ele><time>2026-04-03T08:05:44.883Z</time></trkpt><trkpt lat="43.3119843" lon="10.6767985"><ele>38.333333333333336</ele><time>2026-04-03T08:05:45.891Z</time></trkpt><trkpt lat="43.3118287" lon="10.6769808"><ele>37.66666666666667</ele><time>2026-04-03T08:05:46.88Z</time></trkpt><trkpt lat="43.311672" lon="10.6771629"><ele>37.0</ele><time>2026-04-03T08:05:47.879Z</time></trkpt><trkpt lat="43.3115155" lon="10.677346"><ele>37.333333333333336</ele><time>2026-04-03T08:05:48.88Z</time></trkpt><trkpt lat="43.3113598" lon="10.677532"><ele>37.666666666666664</ele><time>2026-04-03T08:05:49.886Z</time></trkpt><trkpt lat="43.3112044" lon="10.6777203"><ele>38.0</ele><time>2026-04-03T08:05:50.89Z</time></trkpt><trkpt lat="43.3110467" lon="10.6779088"><ele>38.0</ele><time>2026-04-03T08:05:51.885Z</time></trkpt><trkpt lat="43.3108882" lon="10.6780969"><ele>38.0</ele><time>2026-04-03T08:05:52.879Z</time></trkpt><trkpt lat="43.3107282" lon="10.678284"><ele>38.0</ele><time>2026-04-03T08:05:53.885Z</time></trkpt><trkpt lat="43.3105688" lon="10.6784709"><ele>38.33333333333333</ele><time>2026-04-03T08:05:54.884Z</time></trkpt><trkpt lat="43.3104128" lon="10.6786561"><ele>38.666666666666664</ele><time>2026-04-03T08:05:55.878Z</time></trkpt><trkpt lat="43.3102635" lon="10.6788356"><ele>39.0</ele><time>2026-04-03T08:05:56.883Z</time></trkpt><trkpt lat="43.3101231" lon="10.6790047"><ele>39.0</ele><time>2026-04-03T08:05:57.88Z</time></trkpt><trkpt lat="43.3099909" lon="10.6791629"><ele>39.0</ele><time>2026-04-03T08:05:58.881Z</time></trkpt><trkpt lat="43.3098664" lon="10.6793092"><ele>39.0</ele><time>2026-04-03T08:05:59.879Z</time></trkpt><trkpt lat="43.3097437" lon="10.6794507"><ele>39.333333333333336</ele><time>2026-04-03T08:06:00.884Z</time></trkpt><trkpt lat="43.3096224" lon="10.6795881"><ele>39.66666666666667</ele><time>2026-04-03T08:06:01.88Z</time></trkpt><trkpt lat="43.3095046" lon="10.6797253"><ele>40.0</ele><time>2026-04-03T08:06:02.884Z</time></trkpt><trkpt lat="43.3093885" lon="10.6798631"><ele>40.0</ele><time>2026-04-03T08:06:03.888Z</time></trkpt><trkpt lat="43.3092711" lon="10.6800047"><ele>40.0</ele><time>2026-04-03T08:06:04.881Z</time></trkpt><trkpt lat="43.3091516" lon="10.68015"><ele>40.0</ele><time>2026-04-03T08:06:05.88Z</time></trkpt><trkpt lat="43.3090272" lon="10.6802973"><ele>41.0</ele><time>2026-04-03T08:06:06.883Z</time></trkpt><trkpt lat="43.3089004" lon="10.680446"><ele>42.0</ele><time>2026-04-03T08:06:07.878Z</time></trkpt><trkpt lat="43.308773" lon="10.6805954"><ele>43.0</ele><time>2026-04-03T08:06:08.887Z</time></trkpt><trkpt lat="43.3086452" lon="10.6807478"><ele>43.0</ele><time>2026-04-03T08:06:09.888Z</time></trkpt><trkpt lat="43.3085162" lon="10.6809021"><ele>43.0</ele><time>2026-04-03T08:06:10.884Z</time></trkpt><trkpt lat="43.3083864" lon="10.6810605"><ele>43.0</ele><time>2026-04-03T08:06:11.881Z</time></trkpt><trkpt lat="43.3082563" lon="10.6812251"><ele>43.0</ele><time>2026-04-03T08:06:12.883Z</time></trkpt><trkpt lat="43.3081278" lon="10.6813975"><ele>43.0</ele><time>2026-04-03T08:06:13.875Z</time></trkpt><trkpt lat="43.3080044" lon="10.6815768"><ele>43.0</ele><time>2026-04-03T08:06:14.888Z</time></trkpt><trkpt lat="43.30789" lon="10.6817607"><ele>45.0</ele><time>2026-04-03T08:06:15.878Z</time></trkpt><trkpt lat="43.3077839" lon="10.6819441"><ele>47.0</ele><time>2026-04-03T08:06:16.884Z</time></trkpt><trkpt lat="43.307678" lon="10.6821392"><ele>49.0</ele><time>2026-04-03T08:06:17.874Z</time></trkpt><trkpt lat="43.3075682" lon="10.6823464"><ele>49.0</ele><time>2026-04-03T08:06:18.887Z</time></trkpt><trkpt lat="43.3074569" lon="10.6825549"><ele>49.0</ele><time>2026-04-03T08:06:19.878Z</time></trkpt><trkpt lat="43.3073472" lon="10.682762"><ele>49.0</ele><time>2026-04-03T08:06:20.887Z</time></trkpt><trkpt lat="43.3072385" lon="10.6829691"><ele>47.0</ele><time>2026-04-03T08:06:21.875Z</time></trkpt><trkpt lat="43.30713" lon="10.6831757"><ele>45.0</ele><time>2026-04-03T08:06:22.878Z</time></trkpt><trkpt lat="43.3070216" lon="10.6833803"><ele>43.0</ele><time>2026-04-03T08:06:23.879Z</time></trkpt><trkpt lat="43.3069117" lon="10.6835822"><ele>43.333333333333336</ele><time>2026-04-03T08:06:24.888Z</time></trkpt><trkpt lat="43.3068007" lon="10.683782"><ele>43.666666666666664</ele><time>2026-04-03T08:06:25.878Z</time></trkpt><trkpt lat="43.306691" lon="10.6839826"><ele>44.0</ele><time>2026-04-03T08:06:26.877Z</time></trkpt><trkpt lat="43.3065817" lon="10.6841833"><ele>44.0</ele><time>2026-04-03T08:06:27.886Z</time></trkpt><trkpt lat="43.3064748" lon="10.6843848"><ele>44.0</ele><time>2026-04-03T08:06:28.888Z</time></trkpt><trkpt lat="43.3063687" lon="10.6845856"><ele>44.0</ele><time>2026-04-03T08:06:29.888Z</time></trkpt><trkpt lat="43.3062624" lon="10.6847856"><ele>43.666666666666664</ele><time>2026-04-03T08:06:30.881Z</time></trkpt><trkpt lat="43.3061564" lon="10.6849843"><ele>43.333333333333336</ele><time>2026-04-03T08:06:31.883Z</time></trkpt><trkpt lat="43.3060499" lon="10.6851809"><ele>43.0</ele><time>2026-04-03T08:06:32.873Z</time></trkpt><trkpt lat="43.3059429" lon="10.6853745"><ele>43.66666666666667</ele><time>2026-04-03T08:06:33.883Z</time></trkpt><trkpt lat="43.3058341" lon="10.6855632"><ele>44.333333333333336</ele><time>2026-04-03T08:06:34.884Z</time></trkpt><trkpt lat="43.3057198" lon="10.6857445"><ele>45.0</ele><time>2026-04-03T08:06:35.893Z</time></trkpt><trkpt lat="43.3055989" lon="10.6859183"><ele>45.333333333333336</ele><time>2026-04-03T08:06:36.881Z</time></trkpt><trkpt lat="43.3054717" lon="10.6860856"><ele>45.66666666666667</ele><time>2026-04-03T08:06:37.89Z</time></trkpt><trkpt lat="43.3053377" lon="10.6862464"><ele>46.0</ele><time>2026-04-03T08:06:38.882Z</time></trkpt><trkpt lat="43.3051982" lon="10.6864012"><ele>46.0</ele><time>2026-04-03T08:06:39.879Z</time></trkpt><trkpt lat="43.3050558" lon="10.6865533"><ele>46.0</ele><time>2026-04-03T08:06:40.894Z</time></trkpt><trkpt lat="43.3049131" lon="10.6867051"><ele>46.0</ele><time>2026-04-03T08:06:41.88Z</time></trkpt><trkpt lat="43.3047708" lon="10.6868557"><ele>46.66666666666667</ele><time>2026-04-03T08:06:42.882Z</time></trkpt><trkpt lat="43.3046312" lon="10.6870034"><ele>47.333333333333336</ele><time>2026-04-03T08:06:43.881Z</time></trkpt><trkpt lat="43.3044939" lon="10.6871481"><ele>48.0</ele><time>2026-04-03T08:06:44.886Z</time></trkpt><trkpt lat="43.304359" lon="10.6872921"><ele>48.0</ele><time>2026-04-03T08:06:45.877Z</time></trkpt><trkpt lat="43.3042261" lon="10.6874367"><ele>48.0</ele><time>2026-04-03T08:06:46.882Z</time></trkpt><trkpt lat="43.3040934" lon="10.6875804"><ele>48.0</ele><time>2026-04-03T08:06:47.885Z</time></trkpt><trkpt lat="43.3039591" lon="10.6877213"><ele>47.333333333333336</ele><time>2026-04-03T08:06:48.88Z</time></trkpt><trkpt lat="43.3038244" lon="10.6878627"><ele>46.66666666666667</ele><time>2026-04-03T08:06:49.885Z</time></trkpt><trkpt lat="43.3036897" lon="10.6880043"><ele>46.0</ele><time>2026-04-03T08:06:50.883Z</time></trkpt><trkpt lat="43.3035548" lon="10.688146"><ele>46.0</ele><time>2026-04-03T08:06:51.878Z</time></trkpt><trkpt lat="43.3034196" lon="10.6882883"><ele>46.0</ele><time>2026-04-03T08:06:52.884Z</time></trkpt><trkpt lat="43.3032858" lon="10.6884313"><ele>46.0</ele><time>2026-04-03T08:06:53.892Z</time></trkpt><trkpt lat="43.3031522" lon="10.6885737"><ele>46.0</ele><time>2026-04-03T08:06:54.885Z</time></trkpt><trkpt lat="43.3030184" lon="10.6887155"><ele>46.0</ele><time>2026-04-03T08:06:55.884Z</time></trkpt><trkpt lat="43.302884" lon="10.6888569"><ele>46.0</ele><time>2026-04-03T08:06:56.88Z</time></trkpt><trkpt lat="43.3027491" lon="10.6889998"><ele>46.0</ele><time>2026-04-03T08:06:57.879Z</time></trkpt><trkpt lat="43.3026152" lon="10.6891479"><ele>46.0</ele><time>2026-04-03T08:06:58.887Z</time></trkpt><trkpt lat="43.3024839" lon="10.6893049"><ele>46.0</ele><time>2026-04-03T08:06:59.881Z</time></trkpt><trkpt lat="43.3023569" lon="10.6894727"><ele>45.333333333333336</ele><time>2026-04-03T08:07:00.885Z</time></trkpt><trkpt lat="43.3022333" lon="10.6896504"><ele>44.666666666666664</ele><time>2026-04-03T08:07:01.881Z</time></trkpt><trkpt lat="43.3021119" lon="10.6898384"><ele>44.0</ele><time>2026-04-03T08:07:02.881Z</time></trkpt><trkpt lat="43.3019913" lon="10.6900357"><ele>44.0</ele><time>2026-04-03T08:07:03.881Z</time></trkpt><trkpt lat="43.3018685" lon="10.6902364"><ele>44.0</ele><time>2026-04-03T08:07:04.881Z</time></trkpt><trkpt lat="43.3017442" lon="10.6904387"><ele>44.0</ele><time>2026-04-03T08:07:05.884Z</time></trkpt><trkpt lat="43.3016217" lon="10.6906417"><ele>44.33333333333333</ele><time>2026-04-03T08:07:06.883Z</time></trkpt><trkpt lat="43.3014997" lon="10.6908455"><ele>44.666666666666664</ele><time>2026-04-03T08:07:07.883Z</time></trkpt><trkpt lat="43.3013787" lon="10.6910482"><ele>45.0</ele><time>2026-04-03T08:07:08.878Z</time></trkpt><trkpt lat="43.3012588" lon="10.6912495"><ele>46.33333333333333</ele><time>2026-04-03T08:07:09.882Z</time></trkpt><trkpt lat="43.3011412" lon="10.6914479"><ele>47.666666666666664</ele><time>2026-04-03T08:07:10.882Z</time></trkpt><trkpt lat="43.3010228" lon="10.6916425"><ele>49.0</ele><time>2026-04-03T08:07:11.876Z</time></trkpt><trkpt lat="43.300898" lon="10.6918289"><ele>48.33333333333333</ele><time>2026-04-03T08:07:12.874Z</time></trkpt><trkpt lat="43.3007664" lon="10.6920064"><ele>47.666666666666664</ele><time>2026-04-03T08:07:13.886Z</time></trkpt><trkpt lat="43.3006299" lon="10.6921742"><ele>47.0</ele><time>2026-04-03T08:07:14.882Z</time></trkpt><trkpt lat="43.3004885" lon="10.6923308"><ele>47.0</ele><time>2026-04-03T08:07:15.88Z</time></trkpt><trkpt lat="43.3003431" lon="10.6924772"><ele>47.0</ele><time>2026-04-03T08:07:16.878Z</time></trkpt><trkpt lat="43.3001947" lon="10.6926179"><ele>47.0</ele><time>2026-04-03T08:07:17.879Z</time></trkpt><trkpt lat="43.3000436" lon="10.6927551"><ele>46.666666666666664</ele><time>2026-04-03T08:07:18.876Z</time></trkpt><trkpt lat="43.2998908" lon="10.6928912"><ele>46.333333333333336</ele><time>2026-04-03T08:07:19.876Z</time></trkpt><trkpt lat="43.299737" lon="10.6930267"><ele>46.0</ele><time>2026-04-03T08:07:20.878Z</time></trkpt><trkpt lat="43.2995829" lon="10.6931622"><ele>46.0</ele><time>2026-04-03T08:07:21.886Z</time></trkpt><trkpt lat="43.2994289" lon="10.6932989"><ele>46.0</ele><time>2026-04-03T08:07:22.882Z</time></trkpt><trkpt lat="43.299276" lon="10.6934387"><ele>46.0</ele><time>2026-04-03T08:07:23.877Z</time></trkpt><trkpt lat="43.2991232" lon="10.6935782"><ele>46.0</ele><time>2026-04-03T08:07:24.882Z</time></trkpt><trkpt lat="43.2989698" lon="10.6937168"><ele>46.0</ele><time>2026-04-03T08:07:25.883Z</time></trkpt><trkpt lat="43.2988164" lon="10.6938552"><ele>46.0</ele><time>2026-04-03T08:07:26.874Z</time></trkpt><trkpt lat="43.2986634" lon="10.6939942"><ele>46.0</ele><time>2026-04-03T08:07:27.88Z</time></trkpt><trkpt lat="43.2985038" lon="10.6941147"><ele>46.0</ele><time>2026-04-03T08:07:28.883Z</time></trkpt><trkpt lat="43.2983455" lon="10.6942489"><ele>46.0</ele><time>2026-04-03T08:07:29.877Z</time></trkpt><trkpt lat="43.2981887" lon="10.6943836"><ele>47.333333333333336</ele><time>2026-04-03T08:07:30.895Z</time></trkpt><trkpt lat="43.2980324" lon="10.6945225"><ele>48.66666666666667</ele><time>2026-04-03T08:07:31.881Z</time></trkpt><trkpt lat="43.2978738" lon="10.6946618"><ele>50.0</ele><time>2026-04-03T08:07:32.877Z</time></trkpt><trkpt lat="43.2977173" lon="10.6948008"><ele>50.0</ele><time>2026-04-03T08:07:33.874Z</time></trkpt><trkpt lat="43.2975595" lon="10.6949418"><ele>50.0</ele><time>2026-04-03T08:07:34.877Z</time></trkpt><trkpt lat="43.2974035" lon="10.695085"><ele>50.0</ele><time>2026-04-03T08:07:35.884Z</time></trkpt><trkpt lat="43.297247" lon="10.6952299"><ele>50.0</ele><time>2026-04-03T08:07:36.879Z</time></trkpt><trkpt lat="43.297091" lon="10.6953728"><ele>50.0</ele><time>2026-04-03T08:07:37.878Z</time></trkpt><trkpt lat="43.2969346" lon="10.6955148"><ele>50.0</ele><time>2026-04-03T08:07:38.875Z</time></trkpt><trkpt lat="43.2967783" lon="10.6956557"><ele>50.0</ele><time>2026-04-03T08:07:39.882Z</time></trkpt><trkpt lat="43.2966234" lon="10.6957952"><ele>50.0</ele><time>2026-04-03T08:07:40.882Z</time></trkpt><trkpt lat="43.2964695" lon="10.6959328"><ele>50.0</ele><time>2026-04-03T08:07:41.874Z</time></trkpt><trkpt lat="43.2963174" lon="10.6960705"><ele>50.66666666666667</ele><time>2026-04-03T08:07:42.889Z</time></trkpt><trkpt lat="43.2961662" lon="10.6962086"><ele>51.33333333333333</ele><time>2026-04-03T08:07:43.882Z</time></trkpt><trkpt lat="43.296014" lon="10.6963476"><ele>52.0</ele><time>2026-04-03T08:07:44.872Z</time></trkpt><trkpt lat="43.2958572" lon="10.6964876"><ele>52.0</ele><time>2026-04-03T08:07:45.879Z</time></trkpt><trkpt lat="43.2956967" lon="10.6966312"><ele>52.0</ele><time>2026-04-03T08:07:46.881Z</time></trkpt><trkpt lat="43.2955367" lon="10.6967748"><ele>52.0</ele><time>2026-04-03T08:07:47.888Z</time></trkpt><trkpt lat="43.2953763" lon="10.6969209"><ele>51.666666666666664</ele><time>2026-04-03T08:07:48.882Z</time></trkpt><trkpt lat="43.2952153" lon="10.6970665"><ele>51.33333333333333</ele><time>2026-04-03T08:07:49.874Z</time></trkpt><trkpt lat="43.2950559" lon="10.6972106"><ele>51.0</ele><time>2026-04-03T08:07:50.882Z</time></trkpt><trkpt lat="43.2948977" lon="10.6973548"><ele>51.0</ele><time>2026-04-03T08:07:51.882Z</time></trkpt><trkpt lat="43.2947388" lon="10.6974994"><ele>51.0</ele><time>2026-04-03T08:07:52.871Z</time></trkpt><trkpt lat="43.294581" lon="10.6976434"><ele>51.0</ele><time>2026-04-03T08:07:53.894Z</time></trkpt><trkpt lat="43.2944251" lon="10.6977848"><ele>51.0</ele><time>2026-04-03T08:07:54.896Z</time></trkpt><trkpt lat="43.2942817" lon="10.6979149"><ele>51.0</ele><time>2026-04-03T08:07:55.893Z</time></trkpt><trkpt lat="43.2941571" lon="10.6980276"><ele>51.0</ele><time>2026-04-03T08:07:56.879Z</time></trkpt><trkpt lat="43.2940444" lon="10.6981266"><ele>51.0</ele><time>2026-04-03T08:07:57.877Z</time></trkpt><trkpt lat="43.2939422" lon="10.6982103"><ele>51.0</ele><time>2026-04-03T08:07:58.898Z</time></trkpt><trkpt lat="43.2938473" lon="10.6982801"><ele>51.0</ele><time>2026-04-03T08:07:59.879Z</time></trkpt><trkpt lat="43.2937589" lon="10.698341"><ele>51.0</ele><time>2026-04-03T08:08:00.889Z</time></trkpt><trkpt lat="43.2936743" lon="10.6983934"><ele>51.0</ele><time>2026-04-03T08:08:01.886Z</time></trkpt><trkpt lat="43.2936015" lon="10.6984383"><ele>51.0</ele><time>2026-04-03T08:08:02.881Z</time></trkpt><trkpt lat="43.2935461" lon="10.6984956"><ele>51.0</ele><time>2026-04-03T08:08:03.878Z</time></trkpt><trkpt lat="43.293509" lon="10.698567"><ele>51.0</ele><time>2026-04-03T08:08:04.882Z</time></trkpt><trkpt lat="43.2934978" lon="10.6986666"><ele>51.0</ele><time>2026-04-03T08:08:05.894Z</time></trkpt><trkpt lat="43.2934955" lon="10.6987987"><ele>51.0</ele><time>2026-04-03T08:08:06.884Z</time></trkpt><trkpt lat="43.2935002" lon="10.6989412"><ele>51.0</ele><time>2026-04-03T08:08:07.88Z</time></trkpt><trkpt lat="43.2934993" lon="10.6990911"><ele>52.5</ele><time>2026-04-03T08:08:08.887Z</time></trkpt><trkpt lat="43.2935048" lon="10.6992515"><ele>54.0</ele><time>2026-04-03T08:08:09.889Z</time></trkpt><trkpt lat="43.2935072" lon="10.699425"><ele>55.5</ele><time>2026-04-03T08:08:10.891Z</time></trkpt><trkpt lat="43.2935356" lon="10.6996166"><ele>57.0</ele><time>2026-04-03T08:08:11.875Z</time></trkpt><trkpt lat="43.2935805" lon="10.6998247"><ele>58.66666666666667</ele><time>2026-04-03T08:08:12.884Z</time></trkpt><trkpt lat="43.2936176" lon="10.7000422"><ele>60.333333333333336</ele><time>2026-04-03T08:08:13.882Z</time></trkpt><trkpt lat="43.2936455" lon="10.7002503"><ele>62.0</ele><time>2026-04-03T08:08:14.884Z</time></trkpt><trkpt lat="43.2936712" lon="10.7004553"><ele>62.25</ele><time>2026-04-03T08:08:15.876Z</time></trkpt><trkpt lat="43.2936966" lon="10.7006586"><ele>62.5</ele><time>2026-04-03T08:08:16.878Z</time></trkpt><trkpt lat="43.2937285" lon="10.7008589"><ele>62.75</ele><time>2026-04-03T08:08:17.878Z</time></trkpt><trkpt lat="43.2937558" lon="10.7010499"><ele>63.0</ele><time>2026-04-03T08:08:18.884Z</time></trkpt><trkpt lat="43.2937806" lon="10.7012219"><ele>63.0</ele><time>2026-04-03T08:08:19.882Z</time></trkpt><trkpt lat="43.2938051" lon="10.7013778"><ele>63.0</ele><time>2026-04-03T08:08:20.882Z</time></trkpt><trkpt lat="43.2938237" lon="10.7015177"><ele>63.0</ele><time>2026-04-03T08:08:21.883Z</time></trkpt><trkpt lat="43.2938314" lon="10.7016197"><ele>63.0</ele><time>2026-04-03T08:08:22.879Z</time></trkpt><trkpt lat="43.2938393" lon="10.7017423"><ele>63.0</ele><time>2026-04-03T08:08:24.881Z</time></trkpt><trkpt lat="43.2938199" lon="10.7018424"><ele>62.666666666666664</ele><time>2026-04-03T08:10:15.886Z</time></trkpt><trkpt lat="43.2938211" lon="10.7019498"><ele>62.33333333333333</ele><time>2026-04-03T08:10:17.887Z</time></trkpt><trkpt lat="43.293812" lon="10.7020378"><ele>62.0</ele><time>2026-04-03T08:10:20.881Z</time></trkpt><trkpt lat="43.2937758" lon="10.702203"><ele>61.666666666666664</ele><time>2026-04-03T08:56:50.881Z</time></trkpt><trkpt lat="43.293749" lon="10.7022971"><ele>61.33333333333333</ele><time>2026-04-03T08:56:51.881Z</time></trkpt><trkpt lat="43.2937249" lon="10.7023958"><ele>61.0</ele><time>2026-04-03T08:56:52.873Z</time></trkpt><trkpt lat="43.2937009" lon="10.7024975"><ele>61.0</ele><time>2026-04-03T08:56:53.886Z</time></trkpt><trkpt lat="43.2936766" lon="10.7026046"><ele>60.99999999999999</ele><time>2026-04-03T08:56:54.873Z</time></trkpt><trkpt lat="43.2936482" lon="10.7027159"><ele>60.99999999999999</ele><time>2026-04-03T08:56:55.877Z</time></trkpt><trkpt lat="43.293619" lon="10.7028292"><ele>61.0</ele><time>2026-04-03T08:56:56.872Z</time></trkpt><trkpt lat="43.2935878" lon="10.7029493"><ele>61.0</ele><time>2026-04-03T08:56:57.892Z</time></trkpt><trkpt lat="43.2935562" lon="10.7030874"><ele>61.199999999999996</ele><time>2026-04-03T08:56:58.883Z</time></trkpt><trkpt lat="43.2935246" lon="10.7032253"><ele>61.39999999999999</ele><time>2026-04-03T08:56:59.877Z</time></trkpt><trkpt lat="43.293489" lon="10.7033629"><ele>61.6</ele><time>2026-04-03T08:57:00.882Z</time></trkpt><trkpt lat="43.2934526" lon="10.7035033"><ele>61.8</ele><time>2026-04-03T08:57:01.875Z</time></trkpt><trkpt lat="43.2934163" lon="10.703643"><ele>62.0</ele><time>2026-04-03T08:57:02.884Z</time></trkpt><trkpt lat="43.2933817" lon="10.7037834"><ele>62.25</ele><time>2026-04-03T08:57:03.883Z</time></trkpt><trkpt lat="43.2933436" lon="10.7039291"><ele>62.5</ele><time>2026-04-03T08:57:04.878Z</time></trkpt><trkpt lat="43.2933056" lon="10.7040858"><ele>62.75</ele><time>2026-04-03T08:57:05.88Z</time></trkpt><trkpt lat="43.2932626" lon="10.7042577"><ele>63.0</ele><time>2026-04-03T08:57:06.892Z</time></trkpt><trkpt lat="43.2932201" lon="10.7044315"><ele>63.0</ele><time>2026-04-03T08:57:07.881Z</time></trkpt><trkpt lat="43.293176" lon="10.7046075"><ele>63.0</ele><time>2026-04-03T08:57:08.88Z</time></trkpt><trkpt lat="43.2931309" lon="10.7047802"><ele>63.0</ele><time>2026-04-03T08:57:09.88Z</time></trkpt><trkpt lat="43.2930815" lon="10.7049429"><ele>63.0</ele><time>2026-04-03T08:57:10.882Z</time></trkpt><trkpt lat="43.2930175" lon="10.7050993"><ele>64.25</ele><time>2026-04-03T08:57:11.874Z</time></trkpt><trkpt lat="43.2929378" lon="10.7052507"><ele>65.5</ele><time>2026-04-03T08:57:12.884Z</time></trkpt><trkpt lat="43.2928488" lon="10.7054103"><ele>66.75</ele><time>2026-04-03T08:57:13.881Z</time></trkpt><trkpt lat="43.2927504" lon="10.7055812"><ele>68.0</ele><time>2026-04-03T08:57:14.874Z</time></trkpt><trkpt lat="43.2926482" lon="10.705758"><ele>68.0</ele><time>2026-04-03T08:57:15.88Z</time></trkpt><trkpt lat="43.292546" lon="10.7059349"><ele>68.0</ele><time>2026-04-03T08:57:16.874Z</time></trkpt><trkpt lat="43.2924421" lon="10.7061122"><ele>68.0</ele><time>2026-04-03T08:57:17.877Z</time></trkpt><trkpt lat="43.2923429" lon="10.7062831"><ele>67.6</ele><time>2026-04-03T08:57:18.879Z</time></trkpt><trkpt lat="43.292259" lon="10.7064414"><ele>67.19999999999999</ele><time>2026-04-03T08:57:19.882Z</time></trkpt><trkpt lat="43.2922047" lon="10.7065693"><ele>66.8</ele><time>2026-04-03T08:57:20.882Z</time></trkpt><trkpt lat="43.2921812" lon="10.7066774"><ele>66.39999999999999</ele><time>2026-04-03T08:57:21.88Z</time></trkpt><trkpt lat="43.2921918" lon="10.706786"><ele>66.0</ele><time>2026-04-03T08:57:22.879Z</time></trkpt><trkpt lat="43.292232" lon="10.7068934"><ele>66.25</ele><time>2026-04-03T08:57:23.879Z</time></trkpt><trkpt lat="43.2923029" lon="10.7069962"><ele>66.5</ele><time>2026-04-03T08:57:24.884Z</time></trkpt><trkpt lat="43.2923998" lon="10.7070886"><ele>66.75</ele><time>2026-04-03T08:57:25.884Z</time></trkpt><trkpt lat="43.2925192" lon="10.7071693"><ele>67.0</ele><time>2026-04-03T08:57:26.88Z</time></trkpt><trkpt lat="43.2926562" lon="10.7072386"><ele>67.0</ele><time>2026-04-03T08:57:27.878Z</time></trkpt><trkpt lat="43.292802" lon="10.7073074"><ele>67.0</ele><time>2026-04-03T08:57:28.884Z</time></trkpt><trkpt lat="43.2929527" lon="10.7073848"><ele>67.0</ele><time>2026-04-03T08:57:29.882Z</time></trkpt><trkpt lat="43.2931044" lon="10.7074709"><ele>66.33333333333333</ele><time>2026-04-03T08:57:30.89Z</time></trkpt><trkpt lat="43.2932491" lon="10.707564"><ele>65.66666666666667</ele><time>2026-04-03T08:57:31.891Z</time></trkpt><trkpt lat="43.2933934" lon="10.7076493"><ele>65.0</ele><time>2026-04-03T08:57:32.877Z</time></trkpt><trkpt lat="43.2935243" lon="10.7077253"><ele>66.75</ele><time>2026-04-03T08:57:33.883Z</time></trkpt><trkpt lat="43.2936138" lon="10.7078243"><ele>68.5</ele><time>2026-04-03T08:57:34.881Z</time></trkpt><trkpt lat="43.2936795" lon="10.7079447"><ele>70.25</ele><time>2026-04-03T08:57:35.886Z</time></trkpt><trkpt lat="43.2937331" lon="10.7080836"><ele>72.0</ele><time>2026-04-03T08:57:36.878Z</time></trkpt><trkpt lat="43.293782" lon="10.708237"><ele>72.0</ele><time>2026-04-03T08:57:37.88Z</time></trkpt><trkpt lat="43.2938177" lon="10.7083992"><ele>72.0</ele><time>2026-04-03T08:57:38.881Z</time></trkpt><trkpt lat="43.2938509" lon="10.7085727"><ele>72.0</ele><time>2026-04-03T08:57:39.877Z</time></trkpt><trkpt lat="43.2938779" lon="10.7087475"><ele>72.0</ele><time>2026-04-03T08:57:40.879Z</time></trkpt><trkpt lat="43.2939001" lon="10.7089246"><ele>74.5</ele><time>2026-04-03T08:57:41.877Z</time></trkpt><trkpt lat="43.293919" lon="10.7091"><ele>77.0</ele><time>2026-04-03T08:57:42.889Z</time></trkpt><trkpt lat="43.2939371" lon="10.70928"><ele>79.5</ele><time>2026-04-03T08:57:43.883Z</time></trkpt><trkpt lat="43.2939453" lon="10.7094634"><ele>82.0</ele><time>2026-04-03T08:57:44.878Z</time></trkpt><trkpt lat="43.2939407" lon="10.7096434"><ele>84.8</ele><time>2026-04-03T08:57:45.877Z</time></trkpt><trkpt lat="43.293945" lon="10.7097996"><ele>87.6</ele><time>2026-04-03T08:57:46.874Z</time></trkpt><trkpt lat="43.2939734" lon="10.7099387"><ele>90.39999999999999</ele><time>2026-04-03T08:57:47.881Z</time></trkpt><trkpt lat="43.2940293" lon="10.7100752"><ele>93.19999999999999</ele><time>2026-04-03T08:57:48.879Z</time></trkpt><trkpt lat="43.2941131" lon="10.7101803"><ele>96.0</ele><time>2026-04-03T08:57:49.878Z</time></trkpt><trkpt lat="43.2942128" lon="10.7103138"><ele>98.0</ele><time>2026-04-03T08:57:50.884Z</time></trkpt><trkpt lat="43.2943187" lon="10.7104526"><ele>100.0</ele><time>2026-04-03T08:57:51.878Z</time></trkpt><trkpt lat="43.2944345" lon="10.710607"><ele>102.0</ele><time>2026-04-03T08:57:52.871Z</time></trkpt><trkpt lat="43.2945678" lon="10.7107602"><ele>102.0</ele><time>2026-04-03T08:57:53.887Z</time></trkpt><trkpt lat="43.294698" lon="10.7108871"><ele>102.0</ele><time>2026-04-03T08:57:54.88Z</time></trkpt><trkpt lat="43.2948149" lon="10.7109924"><ele>102.0</ele><time>2026-04-03T08:57:55.899Z</time></trkpt><trkpt lat="43.2949174" lon="10.7110986"><ele>102.0</ele><time>2026-04-03T08:57:56.885Z</time></trkpt><trkpt lat="43.2949841" lon="10.7112035"><ele>103.39999999999999</ele><time>2026-04-03T08:57:57.888Z</time></trkpt><trkpt lat="43.2950293" lon="10.711307"><ele>104.8</ele><time>2026-04-03T08:57:58.881Z</time></trkpt><trkpt lat="43.2950419" lon="10.7114151"><ele>106.2</ele><time>2026-04-03T08:57:59.88Z</time></trkpt><trkpt lat="43.2950367" lon="10.7115457"><ele>107.6</ele><time>2026-04-03T08:58:00.89Z</time></trkpt><trkpt lat="43.2950187" lon="10.7116831"><ele>109.0</ele><time>2026-04-03T08:58:01.876Z</time></trkpt><trkpt lat="43.2950262" lon="10.7118081"><ele>109.2</ele><time>2026-04-03T08:58:02.879Z</time></trkpt><trkpt lat="43.2950664" lon="10.7119257"><ele>109.4</ele><time>2026-04-03T08:58:03.871Z</time></trkpt><trkpt lat="43.2951411" lon="10.7120215"><ele>109.6</ele><time>2026-04-03T08:58:04.873Z</time></trkpt><trkpt lat="43.2952325" lon="10.7121102"><ele>109.8</ele><time>2026-04-03T08:58:05.88Z</time></trkpt><trkpt lat="43.2953561" lon="10.7121667"><ele>110.0</ele><time>2026-04-03T08:58:06.876Z</time></trkpt><trkpt lat="43.2954846" lon="10.7121988"><ele>114.25</ele><time>2026-04-03T08:58:07.876Z</time></trkpt><trkpt lat="43.2956241" lon="10.7122109"><ele>118.5</ele><time>2026-04-03T08:58:08.877Z</time></trkpt><trkpt lat="43.2957698" lon="10.7121953"><ele>122.75</ele><time>2026-04-03T08:58:09.879Z</time></trkpt><trkpt lat="43.2959213" lon="10.7121561"><ele>127.0</ele><time>2026-04-03T08:58:10.88Z</time></trkpt><trkpt lat="43.296047" lon="10.7121138"><ele>127.0</ele><time>2026-04-03T08:58:11.874Z</time></trkpt><trkpt lat="43.2961631" lon="10.7120797"><ele>126.99999999999999</ele><time>2026-04-03T08:58:12.88Z</time></trkpt><trkpt lat="43.2962613" lon="10.7120512"><ele>126.99999999999999</ele><time>2026-04-03T08:58:13.881Z</time></trkpt><trkpt lat="43.296356" lon="10.7120681"><ele>127.0</ele><time>2026-04-03T08:58:14.882Z</time></trkpt><trkpt lat="43.2964156" lon="10.7121155"><ele>127.0</ele><time>2026-04-03T08:58:15.879Z</time></trkpt><trkpt lat="43.296457" lon="10.7122221"><ele>129.79999999999998</ele><time>2026-04-03T08:58:16.874Z</time></trkpt><trkpt lat="43.2964826" lon="10.7123403"><ele>132.6</ele><time>2026-04-03T08:58:17.878Z</time></trkpt><trkpt lat="43.2964784" lon="10.7124836"><ele>135.39999999999998</ele><time>2026-04-03T08:58:18.88Z</time></trkpt><trkpt lat="43.2964726" lon="10.7126343"><ele>138.2</ele><time>2026-04-03T08:58:19.881Z</time></trkpt><trkpt lat="43.2964655" lon="10.7127921"><ele>141.0</ele><time>2026-04-03T08:58:20.891Z</time></trkpt><trkpt lat="43.2964681" lon="10.7129718"><ele>143.33333333333334</ele><time>2026-04-03T08:58:21.878Z</time></trkpt><trkpt lat="43.2964855" lon="10.7131737"><ele>145.66666666666669</ele><time>2026-04-03T08:58:22.873Z</time></trkpt><trkpt lat="43.296515" lon="10.7133827"><ele>148.0</ele><time>2026-04-03T08:58:23.876Z</time></trkpt><trkpt lat="43.2965483" lon="10.7136132"><ele>149.66666666666669</ele><time>2026-04-03T08:58:24.882Z</time></trkpt><trkpt lat="43.2965902" lon="10.7138673"><ele>151.33333333333334</ele><time>2026-04-03T08:58:25.881Z</time></trkpt><trkpt lat="43.2966369" lon="10.7141276"><ele>153.0</ele><time>2026-04-03T08:58:26.883Z</time></trkpt><trkpt lat="43.2966941" lon="10.7143703"><ele>154.0</ele><time>2026-04-03T08:58:27.884Z</time></trkpt><trkpt lat="43.296751" lon="10.7145874"><ele>155.0</ele><time>2026-04-03T08:58:28.879Z</time></trkpt><trkpt lat="43.2968171" lon="10.7147838"><ele>156.0</ele><time>2026-04-03T08:58:29.876Z</time></trkpt><trkpt lat="43.2968855" lon="10.7149438"><ele>156.0</ele><time>2026-04-03T08:58:30.874Z</time></trkpt><trkpt lat="43.2969428" lon="10.7151162"><ele>156.0</ele><time>2026-04-03T08:58:31.873Z</time></trkpt><trkpt lat="43.2969655" lon="10.7152927"><ele>156.0</ele><time>2026-04-03T08:58:32.874Z</time></trkpt><trkpt lat="43.296959" lon="10.715481"><ele>156.0</ele><time>2026-04-03T08:58:33.881Z</time></trkpt><trkpt lat="43.2969339" lon="10.7156938"><ele>157.66666666666666</ele><time>2026-04-03T08:58:34.883Z</time></trkpt><trkpt lat="43.2969081" lon="10.7159359"><ele>159.33333333333331</ele><time>2026-04-03T08:58:35.882Z</time></trkpt><trkpt lat="43.2968775" lon="10.7162041"><ele>161.0</ele><time>2026-04-03T08:58:36.877Z</time></trkpt><trkpt lat="43.2968549" lon="10.7164618"><ele>161.66666666666666</ele><time>2026-04-03T08:58:37.882Z</time></trkpt><trkpt lat="43.2968351" lon="10.716699"><ele>162.33333333333334</ele><time>2026-04-03T08:58:38.88Z</time></trkpt><trkpt lat="43.2968229" lon="10.7169385"><ele>163.0</ele><time>2026-04-03T08:58:39.876Z</time></trkpt><trkpt lat="43.2968177" lon="10.7171639"><ele>164.25</ele><time>2026-04-03T08:58:40.879Z</time></trkpt><trkpt lat="43.2968098" lon="10.7173508"><ele>165.5</ele><time>2026-04-03T08:58:41.882Z</time></trkpt><trkpt lat="43.2968118" lon="10.7175169"><ele>166.75</ele><time>2026-04-03T08:58:42.876Z</time></trkpt><trkpt lat="43.2968414" lon="10.7176813"><ele>168.0</ele><time>2026-04-03T08:58:43.878Z</time></trkpt><trkpt lat="43.2969002" lon="10.7178617"><ele>169.0</ele><time>2026-04-03T08:58:44.874Z</time></trkpt><trkpt lat="43.2969868" lon="10.718056"><ele>170.0</ele><time>2026-04-03T08:58:45.884Z</time></trkpt><trkpt lat="43.2971019" lon="10.7182519"><ele>171.0</ele><time>2026-04-03T08:58:46.882Z</time></trkpt><trkpt lat="43.2972378" lon="10.718449"><ele>170.66666666666666</ele><time>2026-04-03T08:58:47.883Z</time></trkpt><trkpt lat="43.2973777" lon="10.7186579"><ele>170.33333333333331</ele><time>2026-04-03T08:58:48.878Z</time></trkpt><trkpt lat="43.2975015" lon="10.7188573"><ele>170.0</ele><time>2026-04-03T08:58:49.882Z</time></trkpt><trkpt lat="43.2976143" lon="10.7190299"><ele>170.0</ele><time>2026-04-03T08:58:50.884Z</time></trkpt><trkpt lat="43.2977169" lon="10.7191885"><ele>170.0</ele><time>2026-04-03T08:58:51.883Z</time></trkpt><trkpt lat="43.297804" lon="10.7193302"><ele>170.0</ele><time>2026-04-03T08:58:52.876Z</time></trkpt><trkpt lat="43.2978696" lon="10.7194516"><ele>170.0</ele><time>2026-04-03T08:58:53.881Z</time></trkpt><trkpt lat="43.2978995" lon="10.7195611"><ele>171.0</ele><time>2026-04-03T08:58:54.881Z</time></trkpt><trkpt lat="43.2978913" lon="10.7196685"><ele>172.0</ele><time>2026-04-03T08:58:55.879Z</time></trkpt><trkpt lat="43.2978453" lon="10.7197619"><ele>173.0</ele><time>2026-04-03T08:58:56.886Z</time></trkpt><trkpt lat="43.2977691" lon="10.7198645"><ele>174.0</ele><time>2026-04-03T08:58:57.889Z</time></trkpt><trkpt lat="43.297669" lon="10.7199898"><ele>175.0</ele><time>2026-04-03T08:58:58.887Z</time></trkpt><trkpt lat="43.2975605" lon="10.7201253"><ele>173.66666666666669</ele><time>2026-04-03T08:58:59.88Z</time></trkpt><trkpt lat="43.2974395" lon="10.7202804"><ele>172.33333333333334</ele><time>2026-04-03T08:59:00.889Z</time></trkpt><trkpt lat="43.297313" lon="10.7204394"><ele>171.0</ele><time>2026-04-03T08:59:01.893Z</time></trkpt><trkpt lat="43.2971809" lon="10.7206087"><ele>172.33333333333334</ele><time>2026-04-03T08:59:02.884Z</time></trkpt><trkpt lat="43.2970432" lon="10.7207875"><ele>173.66666666666669</ele><time>2026-04-03T08:59:03.879Z</time></trkpt><trkpt lat="43.296914" lon="10.7209516"><ele>175.0</ele><time>2026-04-03T08:59:04.885Z</time></trkpt><trkpt lat="43.2968004" lon="10.7210918"><ele>175.0</ele><time>2026-04-03T08:59:05.883Z</time></trkpt><trkpt lat="43.2967093" lon="10.721217"><ele>175.0</ele><time>2026-04-03T08:59:06.878Z</time></trkpt><trkpt lat="43.2966159" lon="10.721291"><ele>175.0</ele><time>2026-04-03T08:59:07.886Z</time></trkpt><trkpt lat="43.2965796" lon="10.7214155"><ele>175.0</ele><time>2026-04-03T08:59:08.884Z</time></trkpt><trkpt lat="43.2965864" lon="10.7215524"><ele>175.0</ele><time>2026-04-03T08:59:09.882Z</time></trkpt><trkpt lat="43.2966066" lon="10.7217169"><ele>175.0</ele><time>2026-04-03T08:59:10.888Z</time></trkpt><trkpt lat="43.2966658" lon="10.7218854"><ele>175.0</ele><time>2026-04-03T08:59:11.886Z</time></trkpt><trkpt lat="43.2966971" lon="10.7220769"><ele>175.0</ele><time>2026-04-03T08:59:12.885Z</time></trkpt><trkpt lat="43.2967408" lon="10.7222637"><ele>175.0</ele><time>2026-04-03T08:59:13.887Z</time></trkpt><trkpt lat="43.2967885" lon="10.7224223"><ele>176.5</ele><time>2026-04-03T08:59:14.881Z</time></trkpt><trkpt lat="43.296881" lon="10.7225434"><ele>178.0</ele><time>2026-04-03T08:59:15.878Z</time></trkpt><trkpt lat="43.2969805" lon="10.7226616"><ele>179.5</ele><time>2026-04-03T08:59:16.88Z</time></trkpt><trkpt lat="43.2971018" lon="10.7227661"><ele>181.0</ele><time>2026-04-03T08:59:17.877Z</time></trkpt><trkpt lat="43.2971845" lon="10.7229029"><ele>180.0</ele><time>2026-04-03T08:59:18.876Z</time></trkpt><trkpt lat="43.2972309" lon="10.7230418"><ele>179.0</ele><time>2026-04-03T08:59:19.884Z</time></trkpt><trkpt lat="43.2972524" lon="10.723204"><ele>178.0</ele><time>2026-04-03T08:59:20.9Z</time></trkpt><trkpt lat="43.2972595" lon="10.723362"><ele>177.0</ele><time>2026-04-03T08:59:21.888Z</time></trkpt><trkpt lat="43.2972653" lon="10.7235165"><ele>179.5</ele><time>2026-04-03T08:59:22.876Z</time></trkpt><trkpt lat="43.2972855" lon="10.7236562"><ele>182.0</ele><time>2026-04-03T08:59:23.882Z</time></trkpt><trkpt lat="43.2973496" lon="10.7237964"><ele>184.5</ele><time>2026-04-03T08:59:24.876Z</time></trkpt><trkpt lat="43.2974369" lon="10.7239511"><ele>187.0</ele><time>2026-04-03T08:59:25.879Z</time></trkpt><trkpt lat="43.297515" lon="10.7241042"><ele>187.0</ele><time>2026-04-03T08:59:26.882Z</time></trkpt><trkpt lat="43.2975816" lon="10.7242438"><ele>187.0</ele><time>2026-04-03T08:59:27.873Z</time></trkpt><trkpt lat="43.2976475" lon="10.7243693"><ele>187.0</ele><time>2026-04-03T08:59:28.881Z</time></trkpt><trkpt lat="43.2976899" lon="10.7244786"><ele>187.0</ele><time>2026-04-03T08:59:29.879Z</time></trkpt><trkpt lat="43.2976895" lon="10.7246115"><ele>187.0</ele><time>2026-04-03T08:59:31.882Z</time></trkpt><trkpt lat="43.2976375" lon="10.7246643"><ele>186.5</ele><time>2026-04-03T08:59:32.88Z</time></trkpt><trkpt lat="43.2975468" lon="10.7247079"><ele>186.0</ele><time>2026-04-03T08:59:33.889Z</time></trkpt><trkpt lat="43.297428" lon="10.7247464"><ele>185.5</ele><time>2026-04-03T08:59:34.88Z</time></trkpt><trkpt lat="43.2973051" lon="10.7247845"><ele>185.0</ele><time>2026-04-03T08:59:35.88Z</time></trkpt><trkpt lat="43.2971749" lon="10.7248386"><ele>185.0</ele><time>2026-04-03T08:59:36.882Z</time></trkpt><trkpt lat="43.2970329" lon="10.7249033"><ele>185.0</ele><time>2026-04-03T08:59:37.882Z</time></trkpt><trkpt lat="43.2968998" lon="10.7249605"><ele>185.0</ele><time>2026-04-03T08:59:38.883Z</time></trkpt><trkpt lat="43.2967729" lon="10.7250353"><ele>185.0</ele><time>2026-04-03T08:59:39.882Z</time></trkpt><trkpt lat="43.2966527" lon="10.7251303"><ele>186.0</ele><time>2026-04-03T08:59:40.882Z</time></trkpt><trkpt lat="43.2965462" lon="10.7252662"><ele>187.0</ele><time>2026-04-03T08:59:41.877Z</time></trkpt><trkpt lat="43.2964635" lon="10.7254278"><ele>188.0</ele><time>2026-04-03T08:59:42.886Z</time></trkpt><trkpt lat="43.2964138" lon="10.7255809"><ele>189.0</ele><time>2026-04-03T08:59:43.877Z</time></trkpt><trkpt lat="43.2963992" lon="10.725718"><ele>189.0</ele><time>2026-04-03T08:59:44.88Z</time></trkpt><trkpt lat="43.296424" lon="10.7258528"><ele>189.0</ele><time>2026-04-03T08:59:45.872Z</time></trkpt><trkpt lat="43.2964809" lon="10.7259855"><ele>189.0</ele><time>2026-04-03T08:59:46.879Z</time></trkpt><trkpt lat="43.2965261" lon="10.7261132"><ele>189.0</ele><time>2026-04-03T08:59:47.88Z</time></trkpt><trkpt lat="43.2965369" lon="10.7262445"><ele>189.0</ele><time>2026-04-03T08:59:48.882Z</time></trkpt><trkpt lat="43.2965067" lon="10.7263811"><ele>191.0</ele><time>2026-04-03T08:59:49.875Z</time></trkpt><trkpt lat="43.2964536" lon="10.7265333"><ele>193.0</ele><time>2026-04-03T08:59:50.884Z</time></trkpt><trkpt lat="43.2964053" lon="10.7267127"><ele>195.0</ele><time>2026-04-03T08:59:51.877Z</time></trkpt><trkpt lat="43.2963896" lon="10.7268901"><ele>197.0</ele><time>2026-04-03T08:59:52.882Z</time></trkpt><trkpt lat="43.2963776" lon="10.7270398"><ele>200.8</ele><time>2026-04-03T08:59:53.873Z</time></trkpt><trkpt lat="43.2963626" lon="10.7271292"><ele>204.6</ele><time>2026-04-03T08:59:54.883Z</time></trkpt><trkpt lat="43.2962449" lon="10.7271632"><ele>208.40000000000003</ele><time>2026-04-03T08:59:56.891Z</time></trkpt><trkpt lat="43.2961771" lon="10.7271273"><ele>212.20000000000002</ele><time>2026-04-03T08:59:57.883Z</time></trkpt><trkpt lat="43.2960754" lon="10.727006"><ele>216.0</ele><time>2026-04-03T08:59:58.885Z</time></trkpt><trkpt lat="43.2959697" lon="10.7269005"><ele>215.4</ele><time>2026-04-03T08:59:59.879Z</time></trkpt><trkpt lat="43.2958507" lon="10.7268139"><ele>214.8</ele><time>2026-04-03T09:00:00.876Z</time></trkpt><trkpt lat="43.2957511" lon="10.7267402"><ele>214.20000000000002</ele><time>2026-04-03T09:00:01.887Z</time></trkpt><trkpt lat="43.2956624" lon="10.726715"><ele>213.60000000000002</ele><time>2026-04-03T09:00:02.889Z</time></trkpt><trkpt lat="43.2955715" lon="10.726736"><ele>213.0</ele><time>2026-04-03T09:00:03.879Z</time></trkpt><trkpt lat="43.2954739" lon="10.7268129"><ele>213.5</ele><time>2026-04-03T09:00:04.887Z</time></trkpt><trkpt lat="43.2953975" lon="10.7269014"><ele>214.0</ele><time>2026-04-03T09:00:05.879Z</time></trkpt><trkpt lat="43.295361" lon="10.7269907"><ele>214.5</ele><time>2026-04-03T09:00:06.879Z</time></trkpt><trkpt lat="43.2953698" lon="10.7270825"><ele>215.0</ele><time>2026-04-03T09:00:07.874Z</time></trkpt><trkpt lat="43.2954155" lon="10.7271706"><ele>215.5</ele><time>2026-04-03T09:00:08.877Z</time></trkpt><trkpt lat="43.2954962" lon="10.7272603"><ele>216.0</ele><time>2026-04-03T09:00:09.886Z</time></trkpt><trkpt lat="43.2955907" lon="10.7273659"><ele>216.0</ele><time>2026-04-03T09:00:10.876Z</time></trkpt><trkpt lat="43.2956844" lon="10.7274677"><ele>216.00000000000003</ele><time>2026-04-03T09:00:11.896Z</time></trkpt><trkpt lat="43.2957646" lon="10.7275736"><ele>216.00000000000003</ele><time>2026-04-03T09:00:12.879Z</time></trkpt><trkpt lat="43.2958271" lon="10.7276978"><ele>216.0</ele><time>2026-04-03T09:00:13.878Z</time></trkpt><trkpt lat="43.295879" lon="10.7278194"><ele>216.0</ele><time>2026-04-03T09:00:14.891Z</time></trkpt><trkpt lat="43.2958569" lon="10.7279483"><ele>217.25</ele><time>2026-04-03T09:00:15.882Z</time></trkpt><trkpt lat="43.2958034" lon="10.7280902"><ele>218.5</ele><time>2026-04-03T09:00:16.878Z</time></trkpt><trkpt lat="43.2957337" lon="10.7282449"><ele>219.75</ele><time>2026-04-03T09:00:17.881Z</time></trkpt><trkpt lat="43.2956548" lon="10.7284081"><ele>221.0</ele><time>2026-04-03T09:00:18.877Z</time></trkpt><trkpt lat="43.2955744" lon="10.7285811"><ele>228.66666666666669</ele><time>2026-04-03T09:00:19.876Z</time></trkpt><trkpt lat="43.2954686" lon="10.7287434"><ele>236.33333333333331</ele><time>2026-04-03T09:00:20.879Z</time></trkpt><trkpt lat="43.2953616" lon="10.7289082"><ele>244.0</ele><time>2026-04-03T09:00:21.874Z</time></trkpt><trkpt lat="43.2952449" lon="10.7290578"><ele>244.0</ele><time>2026-04-03T09:00:22.872Z</time></trkpt><trkpt lat="43.2950756" lon="10.7291689"><ele>244.0</ele><time>2026-04-03T09:00:23.874Z</time></trkpt><trkpt lat="43.2949307" lon="10.7292597"><ele>244.0</ele><time>2026-04-03T09:00:24.877Z</time></trkpt><trkpt lat="43.2948306" lon="10.729342"><ele>242.83333333333331</ele><time>2026-04-03T09:00:25.881Z</time></trkpt><trkpt lat="43.2947562" lon="10.7294291"><ele>241.66666666666666</ele><time>2026-04-03T09:00:26.874Z</time></trkpt><trkpt lat="43.2947101" lon="10.7295283"><ele>240.5</ele><time>2026-04-03T09:00:27.873Z</time></trkpt><trkpt lat="43.2947178" lon="10.7296357"><ele>239.33333333333331</ele><time>2026-04-03T09:00:28.879Z</time></trkpt><trkpt lat="43.2947125" lon="10.7297336"><ele>238.16666666666666</ele><time>2026-04-03T09:00:29.881Z</time></trkpt><trkpt lat="43.2946596" lon="10.7298397"><ele>237.0</ele><time>2026-04-03T09:00:31.87Z</time></trkpt><trkpt lat="43.2945549" lon="10.7297383"><ele>240.39999999999998</ele><time>2026-04-03T09:00:33.886Z</time></trkpt><trkpt lat="43.294481" lon="10.7296895"><ele>243.79999999999998</ele><time>2026-04-03T09:00:34.886Z</time></trkpt><trkpt lat="43.2944145" lon="10.7296584"><ele>247.2</ele><time>2026-04-03T09:00:35.88Z</time></trkpt><trkpt lat="43.2943378" lon="10.7296664"><ele>250.6</ele><time>2026-04-03T09:00:36.879Z</time></trkpt><trkpt lat="43.2942394" lon="10.7297018"><ele>254.0</ele><time>2026-04-03T09:00:37.883Z</time></trkpt><trkpt lat="43.2941263" lon="10.729756"><ele>254.0</ele><time>2026-04-03T09:00:38.887Z</time></trkpt><trkpt lat="43.2940211" lon="10.7298272"><ele>254.0</ele><time>2026-04-03T09:00:39.881Z</time></trkpt><trkpt lat="43.2939092" lon="10.7298872"><ele>254.0</ele><time>2026-04-03T09:00:40.873Z</time></trkpt><trkpt lat="43.2938006" lon="10.7299182"><ele>254.0</ele><time>2026-04-03T09:00:41.88Z</time></trkpt><trkpt lat="43.2936994" lon="10.7299519"><ele>254.50000000000003</ele><time>2026-04-03T09:00:42.881Z</time></trkpt><trkpt lat="43.2936169" lon="10.7299743"><ele>255.0</ele><time>2026-04-03T09:00:43.882Z</time></trkpt><trkpt lat="43.2935252" lon="10.730016"><ele>255.5</ele><time>2026-04-03T09:00:44.879Z</time></trkpt><trkpt lat="43.2934565" lon="10.7300759"><ele>256.0</ele><time>2026-04-03T09:00:45.876Z</time></trkpt><trkpt lat="43.2934078" lon="10.7301575"><ele>256.5</ele><time>2026-04-03T09:00:46.881Z</time></trkpt><trkpt lat="43.2933636" lon="10.7302515"><ele>257.0</ele><time>2026-04-03T09:00:47.881Z</time></trkpt><trkpt lat="43.2933251" lon="10.7303565"><ele>257.0</ele><time>2026-04-03T09:00:48.885Z</time></trkpt><trkpt lat="43.2932877" lon="10.7304756"><ele>257.0</ele><time>2026-04-03T09:00:49.887Z</time></trkpt><trkpt lat="43.2932462" lon="10.7306186"><ele>257.0</ele><time>2026-04-03T09:00:50.887Z</time></trkpt><trkpt lat="43.2932005" lon="10.7307756"><ele>257.0</ele><time>2026-04-03T09:00:51.878Z</time></trkpt><trkpt lat="43.2931708" lon="10.7309278"><ele>257.0</ele><time>2026-04-03T09:00:52.879Z</time></trkpt><trkpt lat="43.2931353" lon="10.7310453"><ele>256.83333333333337</ele><time>2026-04-03T09:00:53.882Z</time></trkpt><trkpt lat="43.2930898" lon="10.7311536"><ele>256.6666666666667</ele><time>2026-04-03T09:00:54.878Z</time></trkpt><trkpt lat="43.2930379" lon="10.7312229"><ele>256.5</ele><time>2026-04-03T09:00:55.879Z</time></trkpt><trkpt lat="43.29299" lon="10.7313115"><ele>256.3333333333333</ele><time>2026-04-03T09:00:56.879Z</time></trkpt><trkpt lat="43.2929535" lon="10.7314133"><ele>256.16666666666663</ele><time>2026-04-03T09:00:57.884Z</time></trkpt><trkpt lat="43.2929683" lon="10.7315174"><ele>256.0</ele><time>2026-04-03T09:00:58.881Z</time></trkpt><trkpt lat="43.2930091" lon="10.7316467"><ele>255.99999999999997</ele><time>2026-04-03T09:00:59.886Z</time></trkpt><trkpt lat="43.2930647" lon="10.7317671"><ele>256.0</ele><time>2026-04-03T09:01:00.875Z</time></trkpt><trkpt lat="43.2931248" lon="10.7318743"><ele>256.0</ele><time>2026-04-03T09:01:01.871Z</time></trkpt><trkpt lat="43.2931716" lon="10.7319735"><ele>256.0</ele><time>2026-04-03T09:01:02.88Z</time></trkpt><trkpt lat="43.2931977" lon="10.7320765"><ele>255.99999999999997</ele><time>2026-04-03T09:01:03.878Z</time></trkpt><trkpt lat="43.2931933" lon="10.732166"><ele>256.0</ele><time>2026-04-03T09:01:04.878Z</time></trkpt><trkpt lat="43.2931688" lon="10.7322877"><ele>257.8333333333333</ele><time>2026-04-03T09:01:05.879Z</time></trkpt><trkpt lat="43.2931398" lon="10.732395"><ele>259.66666666666663</ele><time>2026-04-03T09:01:06.88Z</time></trkpt><trkpt lat="43.2931047" lon="10.7325057"><ele>261.5</ele><time>2026-04-03T09:01:07.89Z</time></trkpt><trkpt lat="43.2931047" lon="10.732603"><ele>263.3333333333333</ele><time>2026-04-03T09:01:08.875Z</time></trkpt><trkpt lat="43.2931167" lon="10.732692"><ele>265.1666666666667</ele><time>2026-04-03T09:01:09.875Z</time></trkpt><trkpt lat="43.2931314" lon="10.7327858"><ele>267.0</ele><time>2026-04-03T09:01:10.878Z</time></trkpt><trkpt lat="43.2930593" lon="10.7328908"><ele>267.6</ele><time>2026-04-03T09:01:12.878Z</time></trkpt><trkpt lat="43.292977" lon="10.7329111"><ele>268.2</ele><time>2026-04-03T09:01:13.874Z</time></trkpt><trkpt lat="43.2928825" lon="10.7328572"><ele>268.8</ele><time>2026-04-03T09:01:14.885Z</time></trkpt><trkpt lat="43.292785" lon="10.732843"><ele>269.4</ele><time>2026-04-03T09:01:15.879Z</time></trkpt><trkpt lat="43.2926573" lon="10.7329098"><ele>270.0</ele><time>2026-04-03T09:01:16.888Z</time></trkpt><trkpt lat="43.2925525" lon="10.7329411"><ele>270.0</ele><time>2026-04-03T09:01:17.882Z</time></trkpt><trkpt lat="43.2924639" lon="10.7329787"><ele>270.0</ele><time>2026-04-03T09:01:18.879Z</time></trkpt><trkpt lat="43.2923812" lon="10.7330158"><ele>270.0</ele><time>2026-04-03T09:01:19.879Z</time></trkpt><trkpt lat="43.2923454" lon="10.7330886"><ele>270.0</ele><time>2026-04-03T09:01:20.873Z</time></trkpt><trkpt lat="43.292333" lon="10.7331897"><ele>270.0</ele><time>2026-04-03T09:01:21.891Z</time></trkpt><trkpt lat="43.2923209" lon="10.7333165"><ele>270.0</ele><time>2026-04-03T09:01:22.883Z</time></trkpt><trkpt lat="43.2923067" lon="10.7334599"><ele>270.5</ele><time>2026-04-03T09:01:23.88Z</time></trkpt><trkpt lat="43.29229" lon="10.7336196"><ele>271.0</ele><time>2026-04-03T09:01:24.881Z</time></trkpt><trkpt lat="43.292281" lon="10.7337603"><ele>271.5</ele><time>2026-04-03T09:01:25.886Z</time></trkpt><trkpt lat="43.2922787" lon="10.7339074"><ele>272.0</ele><time>2026-04-03T09:01:26.874Z</time></trkpt><trkpt lat="43.2922354" lon="10.7340751"><ele>272.0</ele><time>2026-04-03T09:01:27.88Z</time></trkpt><trkpt lat="43.292167" lon="10.7342575"><ele>272.0</ele><time>2026-04-03T09:01:28.876Z</time></trkpt><trkpt lat="43.2921227" lon="10.7344154"><ele>272.0</ele><time>2026-04-03T09:01:29.878Z</time></trkpt><trkpt lat="43.2920956" lon="10.7345177"><ele>272.0</ele><time>2026-04-03T09:01:30.879Z</time></trkpt><trkpt lat="43.292057" lon="10.7346235"><ele>272.0</ele><time>2026-04-03T09:01:31.873Z</time></trkpt><trkpt lat="43.2920003" lon="10.7347411"><ele>274.8</ele><time>2026-04-03T09:01:32.88Z</time></trkpt><trkpt lat="43.2919061" lon="10.7348497"><ele>277.6</ele><time>2026-04-03T09:01:33.878Z</time></trkpt><trkpt lat="43.2918316" lon="10.7349415"><ele>280.40000000000003</ele><time>2026-04-03T09:01:34.878Z</time></trkpt><trkpt lat="43.2917612" lon="10.7349992"><ele>283.2</ele><time>2026-04-03T09:01:35.881Z</time></trkpt><trkpt lat="43.2916905" lon="10.7350001"><ele>286.0</ele><time>2026-04-03T09:01:36.877Z</time></trkpt><trkpt lat="43.2915895" lon="10.7348884"><ele>286.0</ele><time>2026-04-03T09:01:38.874Z</time></trkpt><trkpt lat="43.2915883" lon="10.7347595"><ele>286.0</ele><time>2026-04-03T09:01:39.874Z</time></trkpt><trkpt lat="43.2915773" lon="10.7346339"><ele>286.0</ele><time>2026-04-03T09:01:40.887Z</time></trkpt><trkpt lat="43.2915376" lon="10.7344798"><ele>286.0</ele><time>2026-04-03T09:01:41.875Z</time></trkpt><trkpt lat="43.2914639" lon="10.7343375"><ele>286.0</ele><time>2026-04-03T09:01:42.887Z</time></trkpt><trkpt lat="43.2913831" lon="10.7342348"><ele>286.40000000000003</ele><time>2026-04-03T09:01:43.878Z</time></trkpt><trkpt lat="43.2913012" lon="10.7341553"><ele>286.8</ele><time>2026-04-03T09:01:44.889Z</time></trkpt><trkpt lat="43.2912152" lon="10.7341069"><ele>287.20000000000005</ele><time>2026-04-03T09:01:45.886Z</time></trkpt><trkpt lat="43.2911206" lon="10.7340783"><ele>287.6</ele><time>2026-04-03T09:01:46.889Z</time></trkpt><trkpt lat="43.291002" lon="10.7340784"><ele>288.0</ele><time>2026-04-03T09:01:47.873Z</time></trkpt><trkpt lat="43.2908844" lon="10.7340718"><ele>288.0</ele><time>2026-04-03T09:01:48.88Z</time></trkpt><trkpt lat="43.2907806" lon="10.7340451"><ele>288.0</ele><time>2026-04-03T09:01:49.883Z</time></trkpt><trkpt lat="43.2907027" lon="10.7340062"><ele>288.0</ele><time>2026-04-03T09:01:50.889Z</time></trkpt><trkpt lat="43.2906398" lon="10.7339154"><ele>288.0</ele><time>2026-04-03T09:01:51.879Z</time></trkpt><trkpt lat="43.290632" lon="10.7338194"><ele>288.0</ele><time>2026-04-03T09:01:52.893Z</time></trkpt><trkpt lat="43.2906304" lon="10.7337061"><ele>288.0</ele><time>2026-04-03T09:01:53.889Z</time></trkpt><trkpt lat="43.2905957" lon="10.7335963"><ele>286.5</ele><time>2026-04-03T09:01:54.878Z</time></trkpt><trkpt lat="43.2905174" lon="10.7334917"><ele>285.0</ele><time>2026-04-03T09:01:55.891Z</time></trkpt><trkpt lat="43.2904091" lon="10.7334169"><ele>283.5</ele><time>2026-04-03T09:01:56.882Z</time></trkpt><trkpt lat="43.2902844" lon="10.7333421"><ele>282.0</ele><time>2026-04-03T09:01:57.892Z</time></trkpt><trkpt lat="43.2901812" lon="10.7333125"><ele>282.0</ele><time>2026-04-03T09:01:58.88Z</time></trkpt><trkpt lat="43.2900553" lon="10.7333107"><ele>282.0</ele><time>2026-04-03T09:01:59.882Z</time></trkpt><trkpt lat="43.2899481" lon="10.7333244"><ele>282.0</ele><time>2026-04-03T09:02:00.892Z</time></trkpt><trkpt lat="43.2898553" lon="10.7333454"><ele>282.0</ele><time>2026-04-03T09:02:01.882Z</time></trkpt><trkpt lat="43.2897775" lon="10.7334017"><ele>282.0</ele><time>2026-04-03T09:02:02.877Z</time></trkpt><trkpt lat="43.2896976" lon="10.733486"><ele>281.75</ele><time>2026-04-03T09:02:03.887Z</time></trkpt><trkpt lat="43.289628" lon="10.7336399"><ele>281.5</ele><time>2026-04-03T09:02:04.879Z</time></trkpt><trkpt lat="43.2895528" lon="10.7337958"><ele>281.25</ele><time>2026-04-03T09:02:05.883Z</time></trkpt><trkpt lat="43.2894287" lon="10.7339444"><ele>281.0</ele><time>2026-04-03T09:02:06.884Z</time></trkpt><trkpt lat="43.2893055" lon="10.7340692"><ele>281.0</ele><time>2026-04-03T09:02:07.881Z</time></trkpt><trkpt lat="43.2892114" lon="10.7341715"><ele>281.0</ele><time>2026-04-03T09:02:08.877Z</time></trkpt><trkpt lat="43.2891383" lon="10.7342679"><ele>281.0</ele><time>2026-04-03T09:02:09.889Z</time></trkpt><trkpt lat="43.2890948" lon="10.7344256"><ele>281.0</ele><time>2026-04-03T09:02:11.877Z</time></trkpt><trkpt lat="43.2891189" lon="10.7345248"><ele>281.0</ele><time>2026-04-03T09:02:12.886Z</time></trkpt><trkpt lat="43.289164" lon="10.7346552"><ele>282.2</ele><time>2026-04-03T09:02:13.879Z</time></trkpt><trkpt lat="43.2891975" lon="10.7347932"><ele>283.40000000000003</ele><time>2026-04-03T09:02:14.88Z</time></trkpt><trkpt lat="43.2892117" lon="10.7349351"><ele>284.6</ele><time>2026-04-03T09:02:15.878Z</time></trkpt><trkpt lat="43.2892037" lon="10.7350776"><ele>285.8</ele><time>2026-04-03T09:02:16.89Z</time></trkpt><trkpt lat="43.2891893" lon="10.7352201"><ele>287.0</ele><time>2026-04-03T09:02:17.874Z</time></trkpt><trkpt lat="43.2891855" lon="10.7353497"><ele>287.0</ele><time>2026-04-03T09:02:18.881Z</time></trkpt><trkpt lat="43.2891879" lon="10.7354794"><ele>287.0</ele><time>2026-04-03T09:02:19.888Z</time></trkpt><trkpt lat="43.2892353" lon="10.7355865"><ele>287.0</ele><time>2026-04-03T09:02:20.898Z</time></trkpt><trkpt lat="43.2893055" lon="10.7356668"><ele>287.0</ele><time>2026-04-03T09:02:21.877Z</time></trkpt><trkpt lat="43.2894091" lon="10.7357407"><ele>287.0</ele><time>2026-04-03T09:02:22.876Z</time></trkpt><trkpt lat="43.2895316" lon="10.7357988"><ele>287.0</ele><time>2026-04-03T09:02:23.893Z</time></trkpt><trkpt lat="43.2896649" lon="10.7358519"><ele>287.0</ele><time>2026-04-03T09:02:24.877Z</time></trkpt><trkpt lat="43.2898128" lon="10.735865"><ele>287.0</ele><time>2026-04-03T09:02:25.889Z</time></trkpt><trkpt lat="43.2899294" lon="10.7358963"><ele>287.0</ele><time>2026-04-03T09:02:26.879Z</time></trkpt><trkpt lat="43.2900084" lon="10.7359436"><ele>290.2</ele><time>2026-04-03T09:02:27.891Z</time></trkpt><trkpt lat="43.2900861" lon="10.7359492"><ele>293.4</ele><time>2026-04-03T09:02:28.89Z</time></trkpt><trkpt lat="43.2901509" lon="10.7359565"><ele>296.6</ele><time>2026-04-03T09:02:29.888Z</time></trkpt><trkpt lat="43.290222" lon="10.7360279"><ele>299.8</ele><time>2026-04-03T09:02:30.891Z</time></trkpt><trkpt lat="43.2902951" lon="10.7361605"><ele>303.0</ele><time>2026-04-03T09:02:31.884Z</time></trkpt><trkpt lat="43.2903337" lon="10.7362954"><ele>303.0</ele><time>2026-04-03T09:02:32.882Z</time></trkpt><trkpt lat="43.2903612" lon="10.7364215"><ele>303.0</ele><time>2026-04-03T09:02:33.88Z</time></trkpt><trkpt lat="43.2903887" lon="10.7365421"><ele>303.0</ele><time>2026-04-03T09:02:34.878Z</time></trkpt><trkpt lat="43.2903947" lon="10.736646"><ele>303.0</ele><time>2026-04-03T09:02:35.877Z</time></trkpt><trkpt lat="43.2903786" lon="10.7367735"><ele>303.0</ele><time>2026-04-03T09:02:36.885Z</time></trkpt><trkpt lat="43.2903263" lon="10.7368981"><ele>305.8</ele><time>2026-04-03T09:02:37.879Z</time></trkpt><trkpt lat="43.2902488" lon="10.7370237"><ele>308.6</ele><time>2026-04-03T09:02:38.883Z</time></trkpt><trkpt lat="43.2901972" lon="10.7371508"><ele>311.4</ele><time>2026-04-03T09:02:39.882Z</time></trkpt><trkpt lat="43.2901484" lon="10.7372474"><ele>314.2</ele><time>2026-04-03T09:02:40.883Z</time></trkpt><trkpt lat="43.2900777" lon="10.7373605"><ele>317.0</ele><time>2026-04-03T09:02:41.884Z</time></trkpt><trkpt lat="43.2899885" lon="10.7374542"><ele>317.0</ele><time>2026-04-03T09:02:42.898Z</time></trkpt><trkpt lat="43.2898972" lon="10.7375507"><ele>317.0</ele><time>2026-04-03T09:02:43.895Z</time></trkpt><trkpt lat="43.2897848" lon="10.737661"><ele>317.0</ele><time>2026-04-03T09:02:44.879Z</time></trkpt><trkpt lat="43.2896827" lon="10.7377715"><ele>317.0</ele><time>2026-04-03T09:02:45.882Z</time></trkpt><trkpt lat="43.2896051" lon="10.7378724"><ele>319.0</ele><time>2026-04-03T09:02:46.888Z</time></trkpt><trkpt lat="43.2895414" lon="10.7379615"><ele>321.0</ele><time>2026-04-03T09:02:47.874Z</time></trkpt><trkpt lat="43.2894564" lon="10.7380184"><ele>323.0</ele><time>2026-04-03T09:02:48.878Z</time></trkpt><trkpt lat="43.2893443" lon="10.7380795"><ele>325.0</ele><time>2026-04-03T09:02:49.885Z</time></trkpt><trkpt lat="43.2892192" lon="10.7381455"><ele>327.0</ele><time>2026-04-03T09:02:50.874Z</time></trkpt><trkpt lat="43.2890855" lon="10.7382556"><ele>327.0</ele><time>2026-04-03T09:02:51.879Z</time></trkpt><trkpt lat="43.2889773" lon="10.738364"><ele>327.0</ele><time>2026-04-03T09:02:52.887Z</time></trkpt><trkpt lat="43.288879" lon="10.7384114"><ele>327.0</ele><time>2026-04-03T09:02:53.872Z</time></trkpt><trkpt lat="43.288767" lon="10.7384675"><ele>327.0</ele><time>2026-04-03T09:02:54.894Z</time></trkpt><trkpt lat="43.2886614" lon="10.738546"><ele>327.75</ele><time>2026-04-03T09:02:55.885Z</time></trkpt><trkpt lat="43.2885575" lon="10.7386488"><ele>328.5</ele><time>2026-04-03T09:02:56.886Z</time></trkpt><trkpt lat="43.2884663" lon="10.7387496"><ele>329.25</ele><time>2026-04-03T09:02:57.878Z</time></trkpt><trkpt lat="43.2883775" lon="10.7388587"><ele>330.0</ele><time>2026-04-03T09:02:58.882Z</time></trkpt><trkpt lat="43.2883165" lon="10.7389653"><ele>330.0</ele><time>2026-04-03T09:02:59.88Z</time></trkpt><trkpt lat="43.2882505" lon="10.7390796"><ele>330.0</ele><time>2026-04-03T09:03:00.883Z</time></trkpt><trkpt lat="43.2881936" lon="10.739219"><ele>330.0</ele><time>2026-04-03T09:03:01.874Z</time></trkpt><trkpt lat="43.2881523" lon="10.7393318"><ele>330.0</ele><time>2026-04-03T09:03:02.872Z</time></trkpt><trkpt lat="43.2881167" lon="10.739438"><ele>330.0</ele><time>2026-04-03T09:03:03.879Z</time></trkpt><trkpt lat="43.2881027" lon="10.7395335"><ele>331.6</ele><time>2026-04-03T09:03:04.878Z</time></trkpt><trkpt lat="43.288085" lon="10.7396209"><ele>333.2</ele><time>2026-04-03T09:03:05.869Z</time></trkpt><trkpt lat="43.2879997" lon="10.7397109"><ele>334.79999999999995</ele><time>2026-04-03T09:03:07.875Z</time></trkpt><trkpt lat="43.2878846" lon="10.7396146"><ele>336.4</ele><time>2026-04-03T09:03:09.871Z</time></trkpt><trkpt lat="43.2878488" lon="10.7394903"><ele>338.0</ele><time>2026-04-03T09:03:10.873Z</time></trkpt><trkpt lat="43.2877934" lon="10.7393937"><ele>338.0</ele><time>2026-04-03T09:03:11.883Z</time></trkpt><trkpt lat="43.2877135" lon="10.7393203"><ele>338.0</ele><time>2026-04-03T09:03:12.878Z</time></trkpt><trkpt lat="43.2876261" lon="10.7393213"><ele>338.0</ele><time>2026-04-03T09:03:13.878Z</time></trkpt><trkpt lat="43.2875259" lon="10.7393597"><ele>338.0</ele><time>2026-04-03T09:03:14.883Z</time></trkpt><trkpt lat="43.28745" lon="10.7394503"><ele>338.0</ele><time>2026-04-03T09:03:15.877Z</time></trkpt><trkpt lat="43.2873864" lon="10.7395581"><ele>338.0</ele><time>2026-04-03T09:03:16.884Z</time></trkpt><trkpt lat="43.2873263" lon="10.7396952"><ele>338.0</ele><time>2026-04-03T09:03:17.881Z</time></trkpt><trkpt lat="43.2872887" lon="10.7398301"><ele>338.0</ele><time>2026-04-03T09:03:18.884Z</time></trkpt><trkpt lat="43.2872514" lon="10.739929"><ele>338.0</ele><time>2026-04-03T09:03:19.885Z</time></trkpt><trkpt lat="43.2871758" lon="10.7400332"><ele>338.0</ele><time>2026-04-03T09:03:20.881Z</time></trkpt><trkpt lat="43.2870831" lon="10.740128"><ele>336.0</ele><time>2026-04-03T09:03:21.882Z</time></trkpt><trkpt lat="43.286999" lon="10.740222"><ele>334.0</ele><time>2026-04-03T09:03:22.87Z</time></trkpt><trkpt lat="43.2869349" lon="10.7403509"><ele>332.0</ele><time>2026-04-03T09:03:23.877Z</time></trkpt><trkpt lat="43.2868907" lon="10.7405067"><ele>330.0</ele><time>2026-04-03T09:03:24.882Z</time></trkpt><trkpt lat="43.286831" lon="10.7406922"><ele>330.0</ele><time>2026-04-03T09:03:25.878Z</time></trkpt><trkpt lat="43.2867718" lon="10.740883"><ele>330.0</ele><time>2026-04-03T09:03:26.879Z</time></trkpt><trkpt lat="43.286724" lon="10.7410529"><ele>330.0</ele><time>2026-04-03T09:03:27.873Z</time></trkpt><trkpt lat="43.2866912" lon="10.7412061"><ele>330.0</ele><time>2026-04-03T09:03:28.883Z</time></trkpt><trkpt lat="43.2866602" lon="10.7413571"><ele>334.75</ele><time>2026-04-03T09:03:29.878Z</time></trkpt><trkpt lat="43.2866031" lon="10.7414994"><ele>339.5</ele><time>2026-04-03T09:03:30.87Z</time></trkpt><trkpt lat="43.2865478" lon="10.7416378"><ele>344.25</ele><time>2026-04-03T09:03:31.874Z</time></trkpt><trkpt lat="43.2865002" lon="10.7417816"><ele>349.0</ele><time>2026-04-03T09:03:32.871Z</time></trkpt><trkpt lat="43.2864522" lon="10.7419156"><ele>348.79999999999995</ele><time>2026-04-03T09:03:33.871Z</time></trkpt><trkpt lat="43.2864062" lon="10.7420299"><ele>348.59999999999997</ele><time>2026-04-03T09:03:34.881Z</time></trkpt><trkpt lat="43.2863571" lon="10.7421377"><ele>348.4</ele><time>2026-04-03T09:03:35.869Z</time></trkpt><trkpt lat="43.2863125" lon="10.7422493"><ele>348.2</ele><time>2026-04-03T09:03:36.875Z</time></trkpt><trkpt lat="43.2863038" lon="10.7423851"><ele>348.0</ele><time>2026-04-03T09:03:37.878Z</time></trkpt><trkpt lat="43.2862643" lon="10.7425279"><ele>348.0</ele><time>2026-04-03T09:03:38.866Z</time></trkpt><trkpt lat="43.2862217" lon="10.7426906"><ele>348.0</ele><time>2026-04-03T09:03:39.874Z</time></trkpt><trkpt lat="43.2861758" lon="10.7428252"><ele>348.0</ele><time>2026-04-03T09:03:40.877Z</time></trkpt><trkpt lat="43.2861207" lon="10.7429522"><ele>348.0</ele><time>2026-04-03T09:03:41.873Z</time></trkpt><trkpt lat="43.2860382" lon="10.7430657"><ele>350.2</ele><time>2026-04-03T09:03:42.881Z</time></trkpt><trkpt lat="43.2859624" lon="10.7431796"><ele>352.4</ele><time>2026-04-03T09:03:43.88Z</time></trkpt><trkpt lat="43.2859227" lon="10.7432836"><ele>354.59999999999997</ele><time>2026-04-03T09:03:44.882Z</time></trkpt><trkpt lat="43.2858866" lon="10.7433827"><ele>356.79999999999995</ele><time>2026-04-03T09:03:45.874Z</time></trkpt><trkpt lat="43.2858889" lon="10.7435151"><ele>359.0</ele><time>2026-04-03T09:03:46.878Z</time></trkpt><trkpt lat="43.2859041" lon="10.743664"><ele>360.6</ele><time>2026-04-03T09:03:47.88Z</time></trkpt><trkpt lat="43.2859077" lon="10.7438025"><ele>362.2</ele><time>2026-04-03T09:03:48.871Z</time></trkpt><trkpt lat="43.2859132" lon="10.7438901"><ele>363.8</ele><time>2026-04-03T09:03:49.881Z</time></trkpt><trkpt lat="43.2858346" lon="10.7439832"><ele>365.40000000000003</ele><time>2026-04-03T09:03:51.873Z</time></trkpt><trkpt lat="43.2857388" lon="10.7438868"><ele>367.0</ele><time>2026-04-03T09:03:53.878Z</time></trkpt><trkpt lat="43.2857056" lon="10.7437787"><ele>367.0</ele><time>2026-04-03T09:03:54.875Z</time></trkpt><trkpt lat="43.2856713" lon="10.7436386"><ele>367.0</ele><time>2026-04-03T09:03:55.879Z</time></trkpt><trkpt lat="43.2856238" lon="10.7435185"><ele>367.0</ele><time>2026-04-03T09:03:56.876Z</time></trkpt><trkpt lat="43.2855583" lon="10.7434331"><ele>367.0</ele><time>2026-04-03T09:03:57.874Z</time></trkpt><trkpt lat="43.2854802" lon="10.7433934"><ele>367.0</ele><time>2026-04-03T09:03:58.874Z</time></trkpt><trkpt lat="43.2853907" lon="10.7433729"><ele>366.8</ele><time>2026-04-03T09:03:59.872Z</time></trkpt><trkpt lat="43.2852841" lon="10.7433656"><ele>366.6</ele><time>2026-04-03T09:04:00.882Z</time></trkpt><trkpt lat="43.285202" lon="10.7433154"><ele>366.40000000000003</ele><time>2026-04-03T09:04:01.871Z</time></trkpt><trkpt lat="43.2851038" lon="10.7432033"><ele>366.20000000000005</ele><time>2026-04-03T09:04:02.877Z</time></trkpt><trkpt lat="43.2850293" lon="10.7431112"><ele>366.0</ele><time>2026-04-03T09:04:03.885Z</time></trkpt><trkpt lat="43.2849558" lon="10.7430277"><ele>366.0</ele><time>2026-04-03T09:04:04.878Z</time></trkpt><trkpt lat="43.2848943" lon="10.7429854"><ele>366.0</ele><time>2026-04-03T09:04:05.873Z</time></trkpt><trkpt lat="43.284787" lon="10.7429655"><ele>366.0</ele><time>2026-04-03T09:04:07.879Z</time></trkpt><trkpt lat="43.2846662" lon="10.7430028"><ele>366.0</ele><time>2026-04-03T09:04:09.883Z</time></trkpt><trkpt lat="43.2846086" lon="10.7430407"><ele>366.0</ele><time>2026-04-03T09:04:10.88Z</time></trkpt><trkpt lat="43.2845212" lon="10.7430887"><ele>367.6</ele><time>2026-04-03T09:04:11.874Z</time></trkpt><trkpt lat="43.2844341" lon="10.7431041"><ele>369.20000000000005</ele><time>2026-04-03T09:04:12.886Z</time></trkpt><trkpt lat="43.2843409" lon="10.7430888"><ele>370.79999999999995</ele><time>2026-04-03T09:04:13.874Z</time></trkpt><trkpt lat="43.2842473" lon="10.7430338"><ele>372.4</ele><time>2026-04-03T09:04:14.878Z</time></trkpt><trkpt lat="43.2841484" lon="10.7429682"><ele>374.0</ele><time>2026-04-03T09:04:15.878Z</time></trkpt><trkpt lat="43.2840433" lon="10.7429399"><ele>374.0</ele><time>2026-04-03T09:04:16.874Z</time></trkpt><trkpt lat="43.2839336" lon="10.7429114"><ele>374.0</ele><time>2026-04-03T09:04:17.888Z</time></trkpt><trkpt lat="43.2838437" lon="10.7428652"><ele>374.0</ele><time>2026-04-03T09:04:18.891Z</time></trkpt><trkpt lat="43.2837709" lon="10.7427999"><ele>374.0</ele><time>2026-04-03T09:04:19.887Z</time></trkpt><trkpt lat="43.2836842" lon="10.7427056"><ele>374.0</ele><time>2026-04-03T09:04:20.879Z</time></trkpt><trkpt lat="43.283607" lon="10.742633"><ele>373.33333333333337</ele><time>2026-04-03T09:04:21.877Z</time></trkpt><trkpt lat="43.2835347" lon="10.7425683"><ele>372.6666666666667</ele><time>2026-04-03T09:04:22.891Z</time></trkpt><trkpt lat="43.2834528" lon="10.7425582"><ele>372.0</ele><time>2026-04-03T09:04:23.878Z</time></trkpt><trkpt lat="43.2833831" lon="10.7425889"><ele>371.3333333333333</ele><time>2026-04-03T09:04:24.891Z</time></trkpt><trkpt lat="43.283316" lon="10.7426489"><ele>370.66666666666663</ele><time>2026-04-03T09:04:25.887Z</time></trkpt><trkpt lat="43.2832554" lon="10.7427334"><ele>370.0</ele><time>2026-04-03T09:04:26.874Z</time></trkpt><trkpt lat="43.2831804" lon="10.7427989"><ele>370.2</ele><time>2026-04-03T09:04:27.883Z</time></trkpt><trkpt lat="43.283098" lon="10.7428318"><ele>370.4</ele><time>2026-04-03T09:04:28.876Z</time></trkpt><trkpt lat="43.2830271" lon="10.7428561"><ele>370.6</ele><time>2026-04-03T09:04:29.871Z</time></trkpt><trkpt lat="43.2829181" lon="10.7429318"><ele>370.8</ele><time>2026-04-03T09:04:31.882Z</time></trkpt><trkpt lat="43.2829012" lon="10.7430311"><ele>371.0</ele><time>2026-04-03T09:04:32.879Z</time></trkpt><trkpt lat="43.2829261" lon="10.7431631"><ele>371.0</ele><time>2026-04-03T09:04:33.872Z</time></trkpt><trkpt lat="43.2829351" lon="10.7432999"><ele>371.0</ele><time>2026-04-03T09:04:34.885Z</time></trkpt><trkpt lat="43.2829665" lon="10.7434243"><ele>371.0</ele><time>2026-04-03T09:04:35.885Z</time></trkpt><trkpt lat="43.2829826" lon="10.7435582"><ele>371.0</ele><time>2026-04-03T09:04:36.873Z</time></trkpt><trkpt lat="43.2830503" lon="10.7436803"><ele>371.0</ele><time>2026-04-03T09:04:37.877Z</time></trkpt><trkpt lat="43.2831266" lon="10.7438198"><ele>374.75</ele><time>2026-04-03T09:04:38.881Z</time></trkpt><trkpt lat="43.2832239" lon="10.7439784"><ele>378.5</ele><time>2026-04-03T09:04:39.879Z</time></trkpt><trkpt lat="43.2833171" lon="10.7441381"><ele>382.25</ele><time>2026-04-03T09:04:40.871Z</time></trkpt><trkpt lat="43.2833974" lon="10.7442833"><ele>386.0</ele><time>2026-04-03T09:04:41.878Z</time></trkpt><trkpt lat="43.2834616" lon="10.7444103"><ele>386.75</ele><time>2026-04-03T09:04:42.874Z</time></trkpt><trkpt lat="43.2835149" lon="10.7445455"><ele>387.5</ele><time>2026-04-03T09:04:43.877Z</time></trkpt><trkpt lat="43.2835645" lon="10.7446914"><ele>388.25</ele><time>2026-04-03T09:04:44.876Z</time></trkpt><trkpt lat="43.2836165" lon="10.7448344"><ele>389.0</ele><time>2026-04-03T09:04:45.88Z</time></trkpt><trkpt lat="43.2836718" lon="10.7449712"><ele>388.99999999999994</ele><time>2026-04-03T09:04:46.876Z</time></trkpt><trkpt lat="43.2837124" lon="10.7450989"><ele>389.0</ele><time>2026-04-03T09:04:47.879Z</time></trkpt><trkpt lat="43.2837256" lon="10.7452091"><ele>389.0</ele><time>2026-04-03T09:04:48.875Z</time></trkpt><trkpt lat="43.2837249" lon="10.745321"><ele>389.0</ele><time>2026-04-03T09:04:49.874Z</time></trkpt><trkpt lat="43.2837032" lon="10.7454332"><ele>388.99999999999994</ele><time>2026-04-03T09:04:50.885Z</time></trkpt><trkpt lat="43.2836749" lon="10.7455414"><ele>389.0</ele><time>2026-04-03T09:04:51.88Z</time></trkpt><trkpt lat="43.2836043" lon="10.7456537"><ele>390.0</ele><time>2026-04-03T09:04:52.877Z</time></trkpt><trkpt lat="43.2835396" lon="10.7457586"><ele>391.0</ele><time>2026-04-03T09:04:53.875Z</time></trkpt><trkpt lat="43.2834717" lon="10.7459068"><ele>392.0</ele><time>2026-04-03T09:04:54.875Z</time></trkpt><trkpt lat="43.2834069" lon="10.7460482"><ele>393.0</ele><time>2026-04-03T09:04:55.872Z</time></trkpt><trkpt lat="43.2833701" lon="10.7461882"><ele>394.79999999999995</ele><time>2026-04-03T09:04:56.882Z</time></trkpt><trkpt lat="43.2833689" lon="10.7463222"><ele>396.6</ele><time>2026-04-03T09:04:57.879Z</time></trkpt><trkpt lat="43.2833799" lon="10.746437"><ele>398.4</ele><time>2026-04-03T09:04:58.876Z</time></trkpt><trkpt lat="43.2834358" lon="10.7465905"><ele>400.20000000000005</ele><time>2026-04-03T09:05:00.87Z</time></trkpt><trkpt lat="43.2834893" lon="10.7466559"><ele>402.0</ele><time>2026-04-03T09:05:01.871Z</time></trkpt><trkpt lat="43.2835729" lon="10.7466935"><ele>402.0</ele><time>2026-04-03T09:05:02.871Z</time></trkpt><trkpt lat="43.2836643" lon="10.7467216"><ele>402.0</ele><time>2026-04-03T09:05:03.877Z</time></trkpt><trkpt lat="43.2837261" lon="10.7467751"><ele>402.0</ele><time>2026-04-03T09:05:04.874Z</time></trkpt><trkpt lat="43.2837517" lon="10.7468846"><ele>402.0</ele><time>2026-04-03T09:05:05.872Z</time></trkpt><trkpt lat="43.2837451" lon="10.7469795"><ele>402.0</ele><time>2026-04-03T09:05:06.872Z</time></trkpt><trkpt lat="43.2837129" lon="10.7470644"><ele>402.0</ele><time>2026-04-03T09:05:07.878Z</time></trkpt><trkpt lat="43.2836446" lon="10.7471166"><ele>404.40000000000003</ele><time>2026-04-03T09:05:08.869Z</time></trkpt><trkpt lat="43.283563" lon="10.7471291"><ele>406.8</ele><time>2026-04-03T09:05:09.869Z</time></trkpt><trkpt lat="43.2834546" lon="10.7471164"><ele>409.2</ele><time>2026-04-03T09:05:10.877Z</time></trkpt><trkpt lat="43.2833392" lon="10.747102"><ele>411.6</ele><time>2026-04-03T09:05:11.875Z</time></trkpt><trkpt lat="43.2832567" lon="10.7471227"><ele>414.0</ele><time>2026-04-03T09:05:12.875Z</time></trkpt><trkpt lat="43.283192" lon="10.7471768"><ele>414.0</ele><time>2026-04-03T09:05:13.873Z</time></trkpt><trkpt lat="43.2831373" lon="10.7472249"><ele>414.0</ele><time>2026-04-03T09:05:14.882Z</time></trkpt><trkpt lat="43.2831059" lon="10.7473144"><ele>414.0</ele><time>2026-04-03T09:05:15.867Z</time></trkpt><trkpt lat="43.2830867" lon="10.7474427"><ele>414.0</ele><time>2026-04-03T09:05:16.879Z</time></trkpt><trkpt lat="43.2830827" lon="10.7475571"><ele>414.0</ele><time>2026-04-03T09:05:17.875Z</time></trkpt><trkpt lat="43.2830458" lon="10.7476345"><ele>414.0</ele><time>2026-04-03T09:05:18.88Z</time></trkpt><trkpt lat="43.2829124" lon="10.7476822"><ele>414.6</ele><time>2026-04-03T09:05:20.876Z</time></trkpt><trkpt lat="43.2828486" lon="10.7476701"><ele>415.2</ele><time>2026-04-03T09:05:21.875Z</time></trkpt><trkpt lat="43.2827905" lon="10.7477456"><ele>415.8</ele><time>2026-04-03T09:05:22.882Z</time></trkpt><trkpt lat="43.2827132" lon="10.7478378"><ele>416.40000000000003</ele><time>2026-04-03T09:05:23.877Z</time></trkpt><trkpt lat="43.2826211" lon="10.7479356"><ele>417.0</ele><time>2026-04-03T09:05:24.881Z</time></trkpt><trkpt lat="43.2825401" lon="10.7480203"><ele>417.0</ele><time>2026-04-03T09:05:25.884Z</time></trkpt><trkpt lat="43.2824753" lon="10.7481008"><ele>417.0</ele><time>2026-04-03T09:05:26.875Z</time></trkpt><trkpt lat="43.2824147" lon="10.7482226"><ele>417.0</ele><time>2026-04-03T09:05:27.88Z</time></trkpt><trkpt lat="43.2823539" lon="10.748346"><ele>417.0</ele><time>2026-04-03T09:05:28.876Z</time></trkpt><trkpt lat="43.2823103" lon="10.7484457"><ele>417.0</ele><time>2026-04-03T09:05:29.87Z</time></trkpt><trkpt lat="43.282292" lon="10.7486402"><ele>417.5</ele><time>2026-04-03T09:05:31.878Z</time></trkpt><trkpt lat="43.282335" lon="10.7487637"><ele>418.0</ele><time>2026-04-03T09:05:32.877Z</time></trkpt><trkpt lat="43.2823717" lon="10.7488733"><ele>418.5</ele><time>2026-04-03T09:05:33.876Z</time></trkpt><trkpt lat="43.2823579" lon="10.7489729"><ele>419.0</ele><time>2026-04-03T09:05:34.881Z</time></trkpt><trkpt lat="43.2823428" lon="10.7490713"><ele>419.5</ele><time>2026-04-03T09:05:35.868Z</time></trkpt><trkpt lat="43.2822764" lon="10.7491276"><ele>420.0</ele><time>2026-04-03T09:05:36.886Z</time></trkpt><trkpt lat="43.2821794" lon="10.7491326"><ele>420.0</ele><time>2026-04-03T09:05:37.882Z</time></trkpt><trkpt lat="43.2820739" lon="10.7491263"><ele>420.0</ele><time>2026-04-03T09:05:38.874Z</time></trkpt><trkpt lat="43.281988" lon="10.7491329"><ele>420.0</ele><time>2026-04-03T09:05:39.88Z</time></trkpt><trkpt lat="43.281921" lon="10.7491681"><ele>420.0</ele><time>2026-04-03T09:05:40.883Z</time></trkpt><trkpt lat="43.2818635" lon="10.7492445"><ele>420.0</ele><time>2026-04-03T09:05:41.876Z</time></trkpt><trkpt lat="43.2818174" lon="10.7493792"><ele>423.0</ele><time>2026-04-03T09:05:42.877Z</time></trkpt><trkpt lat="43.2817476" lon="10.7495432"><ele>426.0</ele><time>2026-04-03T09:05:43.883Z</time></trkpt><trkpt lat="43.2816821" lon="10.7496991"><ele>429.0</ele><time>2026-04-03T09:05:44.883Z</time></trkpt><trkpt lat="43.2816274" lon="10.7498584"><ele>432.0</ele><time>2026-04-03T09:05:45.879Z</time></trkpt><trkpt lat="43.2815949" lon="10.7500038"><ele>432.0</ele><time>2026-04-03T09:05:46.878Z</time></trkpt><trkpt lat="43.281568" lon="10.75013"><ele>432.00000000000006</ele><time>2026-04-03T09:05:47.881Z</time></trkpt><trkpt lat="43.2815647" lon="10.7502478"><ele>432.00000000000006</ele><time>2026-04-03T09:05:48.868Z</time></trkpt><trkpt lat="43.2816065" lon="10.7503859"><ele>432.0</ele><time>2026-04-03T09:05:49.871Z</time></trkpt><trkpt lat="43.2816482" lon="10.7505153"><ele>432.0</ele><time>2026-04-03T09:05:50.87Z</time></trkpt><trkpt lat="43.2817008" lon="10.7506247"><ele>433.0</ele><time>2026-04-03T09:05:51.878Z</time></trkpt><trkpt lat="43.2817469" lon="10.7507203"><ele>434.00000000000006</ele><time>2026-04-03T09:05:52.873Z</time></trkpt><trkpt lat="43.2817843" lon="10.7508079"><ele>435.00000000000006</ele><time>2026-04-03T09:05:53.883Z</time></trkpt><trkpt lat="43.2817901" lon="10.7509226"><ele>436.0</ele><time>2026-04-03T09:05:54.878Z</time></trkpt><trkpt lat="43.2817639" lon="10.7510733"><ele>437.0</ele><time>2026-04-03T09:05:55.878Z</time></trkpt><trkpt lat="43.2817429" lon="10.7512481"><ele>438.0</ele><time>2026-04-03T09:05:56.874Z</time></trkpt><trkpt lat="43.2817583" lon="10.7514032"><ele>439.00000000000006</ele><time>2026-04-03T09:05:57.883Z</time></trkpt><trkpt lat="43.2817574" lon="10.7515403"><ele>440.00000000000006</ele><time>2026-04-03T09:05:58.874Z</time></trkpt><trkpt lat="43.2817257" lon="10.7516527"><ele>441.0</ele><time>2026-04-03T09:05:59.872Z</time></trkpt><trkpt lat="43.2816941" lon="10.7517558"><ele>442.0</ele><time>2026-04-03T09:06:00.891Z</time></trkpt><trkpt lat="43.2816553" lon="10.7518576"><ele>442.6</ele><time>2026-04-03T09:06:01.873Z</time></trkpt><trkpt lat="43.2816056" lon="10.7519498"><ele>443.20000000000005</ele><time>2026-04-03T09:06:02.885Z</time></trkpt><trkpt lat="43.2815446" lon="10.7520218"><ele>443.8</ele><time>2026-04-03T09:06:03.885Z</time></trkpt><trkpt lat="43.2814684" lon="10.7520711"><ele>444.4</ele><time>2026-04-03T09:06:04.886Z</time></trkpt><trkpt lat="43.2813749" lon="10.7521085"><ele>445.0</ele><time>2026-04-03T09:06:05.874Z</time></trkpt><trkpt lat="43.2812587" lon="10.7521291"><ele>446.5</ele><time>2026-04-03T09:06:06.873Z</time></trkpt><trkpt lat="43.2811138" lon="10.7521513"><ele>448.0</ele><time>2026-04-03T09:06:07.872Z</time></trkpt><trkpt lat="43.2809647" lon="10.7521746"><ele>449.5</ele><time>2026-04-03T09:06:08.875Z</time></trkpt><trkpt lat="43.2808277" lon="10.7521871"><ele>451.0</ele><time>2026-04-03T09:06:09.878Z</time></trkpt><trkpt lat="43.2807015" lon="10.7522073"><ele>451.25</ele><time>2026-04-03T09:06:10.88Z</time></trkpt><trkpt lat="43.2805711" lon="10.7522547"><ele>451.5</ele><time>2026-04-03T09:06:11.882Z</time></trkpt><trkpt lat="43.2804427" lon="10.7523141"><ele>451.75</ele><time>2026-04-03T09:06:12.876Z</time></trkpt><trkpt lat="43.2803188" lon="10.7523737"><ele>452.0</ele><time>2026-04-03T09:06:13.875Z</time></trkpt><trkpt lat="43.2802043" lon="10.7523954"><ele>451.99999999999994</ele><time>2026-04-03T09:06:14.881Z</time></trkpt><trkpt lat="43.2801031" lon="10.7524281"><ele>452.0</ele><time>2026-04-03T09:06:15.88Z</time></trkpt><trkpt lat="43.2800116" lon="10.7524616"><ele>452.0</ele><time>2026-04-03T09:06:16.884Z</time></trkpt><trkpt lat="43.2799366" lon="10.7525077"><ele>452.0</ele><time>2026-04-03T09:06:17.878Z</time></trkpt><trkpt lat="43.2798852" lon="10.7525834"><ele>451.99999999999994</ele><time>2026-04-03T09:06:18.877Z</time></trkpt><trkpt lat="43.2798445" lon="10.7526792"><ele>452.0</ele><time>2026-04-03T09:06:19.875Z</time></trkpt><trkpt lat="43.2798198" lon="10.752817"><ele>451.25</ele><time>2026-04-03T09:06:20.879Z</time></trkpt><trkpt lat="43.2798078" lon="10.7529955"><ele>450.5</ele><time>2026-04-03T09:06:21.884Z</time></trkpt><trkpt lat="43.2797687" lon="10.7532029"><ele>449.75</ele><time>2026-04-03T09:06:22.884Z</time></trkpt><trkpt lat="43.2797279" lon="10.7533984"><ele>449.0</ele><time>2026-04-03T09:06:23.883Z</time></trkpt><trkpt lat="43.2796708" lon="10.753591"><ele>450.5</ele><time>2026-04-03T09:06:24.89Z</time></trkpt><trkpt lat="43.2796257" lon="10.7537825"><ele>452.0</ele><time>2026-04-03T09:06:25.882Z</time></trkpt><trkpt lat="43.2795934" lon="10.7539594"><ele>453.5</ele><time>2026-04-03T09:06:26.874Z</time></trkpt><trkpt lat="43.2795672" lon="10.7541211"><ele>455.0</ele><time>2026-04-03T09:06:27.89Z</time></trkpt><trkpt lat="43.2795466" lon="10.7542599"><ele>455.6</ele><time>2026-04-03T09:06:28.878Z</time></trkpt><trkpt lat="43.2795208" lon="10.7543788"><ele>456.2</ele><time>2026-04-03T09:06:29.875Z</time></trkpt><trkpt lat="43.2794813" lon="10.7544938"><ele>456.79999999999995</ele><time>2026-04-03T09:06:30.873Z</time></trkpt><trkpt lat="43.2794162" lon="10.7546016"><ele>457.4</ele><time>2026-04-03T09:06:31.883Z</time></trkpt><trkpt lat="43.2793325" lon="10.7547045"><ele>458.0</ele><time>2026-04-03T09:06:32.876Z</time></trkpt><trkpt lat="43.2792523" lon="10.7547948"><ele>458.0</ele><time>2026-04-03T09:06:33.88Z</time></trkpt><trkpt lat="43.279182" lon="10.7548885"><ele>457.99999999999994</ele><time>2026-04-03T09:06:34.875Z</time></trkpt><trkpt lat="43.2791318" lon="10.7549883"><ele>457.99999999999994</ele><time>2026-04-03T09:06:35.876Z</time></trkpt><trkpt lat="43.2791023" lon="10.7550976"><ele>458.0</ele><time>2026-04-03T09:06:36.877Z</time></trkpt><trkpt lat="43.2790762" lon="10.7552073"><ele>458.0</ele><time>2026-04-03T09:06:37.895Z</time></trkpt><trkpt lat="43.2790937" lon="10.7553536"><ele>458.75</ele><time>2026-04-03T09:06:38.881Z</time></trkpt><trkpt lat="43.2791254" lon="10.7555242"><ele>459.5</ele><time>2026-04-03T09:06:39.889Z</time></trkpt><trkpt lat="43.2791431" lon="10.7556793"><ele>460.25</ele><time>2026-04-03T09:06:40.876Z</time></trkpt><trkpt lat="43.2791359" lon="10.7558245"><ele>461.0</ele><time>2026-04-03T09:06:41.886Z</time></trkpt><trkpt lat="43.2791294" lon="10.7559657"><ele>461.0</ele><time>2026-04-03T09:06:42.884Z</time></trkpt><trkpt lat="43.2790781" lon="10.7561237"><ele>461.0</ele><time>2026-04-03T09:06:43.878Z</time></trkpt><trkpt lat="43.2790275" lon="10.7562779"><ele>461.0</ele><time>2026-04-03T09:06:44.876Z</time></trkpt><trkpt lat="43.2789725" lon="10.7564003"><ele>461.0</ele><time>2026-04-03T09:06:45.877Z</time></trkpt><trkpt lat="43.2789094" lon="10.7564867"><ele>461.0</ele><time>2026-04-03T09:06:46.871Z</time></trkpt><trkpt lat="43.2788481" lon="10.7565172"><ele>462.0</ele><time>2026-04-03T09:06:47.885Z</time></trkpt><trkpt lat="43.2787249" lon="10.7564826"><ele>463.0</ele><time>2026-04-03T09:06:49.881Z</time></trkpt><trkpt lat="43.278645" lon="10.7564056"><ele>464.0</ele><time>2026-04-03T09:06:50.875Z</time></trkpt><trkpt lat="43.2785686" lon="10.7562454"><ele>465.0</ele><time>2026-04-03T09:06:51.883Z</time></trkpt><trkpt lat="43.2784976" lon="10.7560704"><ele>465.3333333333333</ele><time>2026-04-03T09:06:52.886Z</time></trkpt><trkpt lat="43.2784416" lon="10.7559262"><ele>465.66666666666663</ele><time>2026-04-03T09:06:53.874Z</time></trkpt><trkpt lat="43.2783883" lon="10.7558178"><ele>466.0</ele><time>2026-04-03T09:06:54.881Z</time></trkpt><trkpt lat="43.2783321" lon="10.7557436"><ele>466.3333333333333</ele><time>2026-04-03T09:06:55.883Z</time></trkpt><trkpt lat="43.2782683" lon="10.7556927"><ele>466.66666666666663</ele><time>2026-04-03T09:06:56.88Z</time></trkpt><trkpt lat="43.2781986" lon="10.7556653"><ele>467.0</ele><time>2026-04-03T09:06:57.875Z</time></trkpt><trkpt lat="43.2781327" lon="10.7556643"><ele>469.0</ele><time>2026-04-03T09:06:58.885Z</time></trkpt><trkpt lat="43.2780221" lon="10.7557619"><ele>471.0</ele><time>2026-04-03T09:07:00.886Z</time></trkpt><trkpt lat="43.2779709" lon="10.7558712"><ele>473.0</ele><time>2026-04-03T09:07:01.874Z</time></trkpt><trkpt lat="43.2779132" lon="10.7560167"><ele>475.0</ele><time>2026-04-03T09:07:02.878Z</time></trkpt><trkpt lat="43.2778388" lon="10.7561887"><ele>475.0</ele><time>2026-04-03T09:07:03.88Z</time></trkpt><trkpt lat="43.2777611" lon="10.756348"><ele>475.0</ele><time>2026-04-03T09:07:04.877Z</time></trkpt><trkpt lat="43.2776882" lon="10.7564781"><ele>475.0</ele><time>2026-04-03T09:07:05.878Z</time></trkpt><trkpt lat="43.2776166" lon="10.7565822"><ele>475.0</ele><time>2026-04-03T09:07:06.89Z</time></trkpt><trkpt lat="43.2775303" lon="10.7566683"><ele>475.0</ele><time>2026-04-03T09:07:07.893Z</time></trkpt><trkpt lat="43.2774189" lon="10.756737"><ele>475.0</ele><time>2026-04-03T09:07:08.883Z</time></trkpt><trkpt lat="43.2772811" lon="10.7567948"><ele>475.0</ele><time>2026-04-03T09:07:09.885Z</time></trkpt><trkpt lat="43.2771328" lon="10.7568506"><ele>475.0</ele><time>2026-04-03T09:07:10.88Z</time></trkpt><trkpt lat="43.2769905" lon="10.7569026"><ele>475.25</ele><time>2026-04-03T09:07:11.885Z</time></trkpt><trkpt lat="43.2768585" lon="10.7569457"><ele>475.5</ele><time>2026-04-03T09:07:12.886Z</time></trkpt><trkpt lat="43.2767374" lon="10.7569709"><ele>475.75</ele><time>2026-04-03T09:07:13.882Z</time></trkpt><trkpt lat="43.2766285" lon="10.7569762"><ele>476.0</ele><time>2026-04-03T09:07:14.888Z</time></trkpt><trkpt lat="43.2765327" lon="10.7569877"><ele>476.0</ele><time>2026-04-03T09:07:15.883Z</time></trkpt><trkpt lat="43.2764521" lon="10.7570236"><ele>476.0</ele><time>2026-04-03T09:07:16.876Z</time></trkpt><trkpt lat="43.2763812" lon="10.7570865"><ele>476.0</ele><time>2026-04-03T09:07:17.882Z</time></trkpt><trkpt lat="43.276312" lon="10.7571829"><ele>476.0</ele><time>2026-04-03T09:07:18.877Z</time></trkpt><trkpt lat="43.2762434" lon="10.7573101"><ele>476.0</ele><time>2026-04-03T09:07:19.887Z</time></trkpt><trkpt lat="43.2761726" lon="10.7574576"><ele>479.25</ele><time>2026-04-03T09:07:20.887Z</time></trkpt><trkpt lat="43.2761183" lon="10.7575953"><ele>482.5</ele><time>2026-04-03T09:07:21.879Z</time></trkpt><trkpt lat="43.2760819" lon="10.7577454"><ele>485.75</ele><time>2026-04-03T09:07:22.882Z</time></trkpt><trkpt lat="43.2760566" lon="10.7579285"><ele>489.0</ele><time>2026-04-03T09:07:23.878Z</time></trkpt><trkpt lat="43.2760333" lon="10.7581342"><ele>489.0</ele><time>2026-04-03T09:07:24.888Z</time></trkpt><trkpt lat="43.2760159" lon="10.7583267"><ele>489.0</ele><time>2026-04-03T09:07:25.881Z</time></trkpt><trkpt lat="43.2760026" lon="10.7584922"><ele>489.0</ele><time>2026-04-03T09:07:26.877Z</time></trkpt><trkpt lat="43.2759836" lon="10.7586284"><ele>489.0</ele><time>2026-04-03T09:07:27.874Z</time></trkpt><trkpt lat="43.2759506" lon="10.7587345"><ele>489.0</ele><time>2026-04-03T09:07:28.877Z</time></trkpt><trkpt lat="43.2758976" lon="10.7588059"><ele>488.79999999999995</ele><time>2026-04-03T09:07:29.884Z</time></trkpt><trkpt lat="43.2758211" lon="10.7588469"><ele>488.59999999999997</ele><time>2026-04-03T09:07:30.873Z</time></trkpt><trkpt lat="43.2757396" lon="10.7588883"><ele>488.4</ele><time>2026-04-03T09:07:31.883Z</time></trkpt><trkpt lat="43.2756323" lon="10.7588573"><ele>488.2</ele><time>2026-04-03T09:07:32.878Z</time></trkpt><trkpt lat="43.2755153" lon="10.7587927"><ele>488.0</ele><time>2026-04-03T09:07:33.881Z</time></trkpt><trkpt lat="43.2753998" lon="10.7587144"><ele>489.0</ele><time>2026-04-03T09:07:34.882Z</time></trkpt><trkpt lat="43.2753015" lon="10.7586574"><ele>489.99999999999994</ele><time>2026-04-03T09:07:35.878Z</time></trkpt><trkpt lat="43.275219" lon="10.7586428"><ele>490.99999999999994</ele><time>2026-04-03T09:07:36.884Z</time></trkpt><trkpt lat="43.2751482" lon="10.7586721"><ele>492.0</ele><time>2026-04-03T09:07:37.887Z</time></trkpt><trkpt lat="43.275071" lon="10.7587533"><ele>493.0</ele><time>2026-04-03T09:07:38.88Z</time></trkpt><trkpt lat="43.27499" lon="10.7588462"><ele>493.0</ele><time>2026-04-03T09:07:39.879Z</time></trkpt><trkpt lat="43.274924" lon="10.7589525"><ele>492.99999999999994</ele><time>2026-04-03T09:07:40.886Z</time></trkpt><trkpt lat="43.2748613" lon="10.7590256"><ele>492.99999999999994</ele><time>2026-04-03T09:07:41.873Z</time></trkpt><trkpt lat="43.2747745" lon="10.7590358"><ele>493.0</ele><time>2026-04-03T09:07:42.875Z</time></trkpt><trkpt lat="43.2746758" lon="10.7590094"><ele>493.0</ele><time>2026-04-03T09:07:43.883Z</time></trkpt><trkpt lat="43.2745824" lon="10.7589685"><ele>493.5</ele><time>2026-04-03T09:07:44.889Z</time></trkpt><trkpt lat="43.274484" lon="10.7589669"><ele>494.0</ele><time>2026-04-03T09:07:45.88Z</time></trkpt><trkpt lat="43.2743723" lon="10.7589993"><ele>494.5</ele><time>2026-04-03T09:07:46.884Z</time></trkpt><trkpt lat="43.2742364" lon="10.7590439"><ele>495.0</ele><time>2026-04-03T09:07:47.888Z</time></trkpt><trkpt lat="43.2740908" lon="10.7591046"><ele>495.0</ele><time>2026-04-03T09:07:48.884Z</time></trkpt><trkpt lat="43.2739545" lon="10.7591535"><ele>495.0</ele><time>2026-04-03T09:07:49.878Z</time></trkpt><trkpt lat="43.2738321" lon="10.7591877"><ele>495.0</ele><time>2026-04-03T09:07:50.888Z</time></trkpt><trkpt lat="43.2737249" lon="10.7592269"><ele>495.0</ele><time>2026-04-03T09:07:51.888Z</time></trkpt><trkpt lat="43.2736406" lon="10.7592762"><ele>494.6</ele><time>2026-04-03T09:07:52.884Z</time></trkpt><trkpt lat="43.2735636" lon="10.759329"><ele>494.2</ele><time>2026-04-03T09:07:53.874Z</time></trkpt><trkpt lat="43.2734863" lon="10.7593924"><ele>493.79999999999995</ele><time>2026-04-03T09:07:54.88Z</time></trkpt><trkpt lat="43.2734036" lon="10.7594725"><ele>493.4</ele><time>2026-04-03T09:07:55.874Z</time></trkpt><trkpt lat="43.2733259" lon="10.7595734"><ele>493.0</ele><time>2026-04-03T09:07:56.874Z</time></trkpt><trkpt lat="43.2732412" lon="10.7596843"><ele>493.0</ele><time>2026-04-03T09:07:57.892Z</time></trkpt><trkpt lat="43.2731531" lon="10.7598121"><ele>493.0</ele><time>2026-04-03T09:07:58.887Z</time></trkpt><trkpt lat="43.2730674" lon="10.7599272"><ele>493.0</ele><time>2026-04-03T09:07:59.879Z</time></trkpt><trkpt lat="43.2729769" lon="10.7600255"><ele>493.0</ele><time>2026-04-03T09:08:00.879Z</time></trkpt><trkpt lat="43.2728842" lon="10.7600992"><ele>491.0</ele><time>2026-04-03T09:08:01.877Z</time></trkpt><trkpt lat="43.2727909" lon="10.7601477"><ele>488.99999999999994</ele><time>2026-04-03T09:08:02.875Z</time></trkpt><trkpt lat="43.2726976" lon="10.7601694"><ele>486.99999999999994</ele><time>2026-04-03T09:08:03.903Z</time></trkpt><trkpt lat="43.2726062" lon="10.7601599"><ele>485.0</ele><time>2026-04-03T09:08:04.875Z</time></trkpt><trkpt lat="43.2724987" lon="10.7601243"><ele>483.0</ele><time>2026-04-03T09:08:05.888Z</time></trkpt><trkpt lat="43.2723855" lon="10.760088"><ele>483.0</ele><time>2026-04-03T09:08:06.878Z</time></trkpt><trkpt lat="43.2722813" lon="10.7600599"><ele>482.99999999999994</ele><time>2026-04-03T09:08:07.883Z</time></trkpt><trkpt lat="43.2721909" lon="10.76005"><ele>482.99999999999994</ele><time>2026-04-03T09:08:08.878Z</time></trkpt><trkpt lat="43.2721046" lon="10.7600468"><ele>483.0</ele><time>2026-04-03T09:08:09.878Z</time></trkpt><trkpt lat="43.272023" lon="10.7600997"><ele>483.0</ele><time>2026-04-03T09:08:10.881Z</time></trkpt><trkpt lat="43.271945" lon="10.7601782"><ele>481.4</ele><time>2026-04-03T09:08:11.877Z</time></trkpt><trkpt lat="43.2718784" lon="10.7602762"><ele>479.79999999999995</ele><time>2026-04-03T09:08:12.871Z</time></trkpt><trkpt lat="43.2718237" lon="10.7603827"><ele>478.2</ele><time>2026-04-03T09:08:13.883Z</time></trkpt><trkpt lat="43.2717823" lon="10.7605067"><ele>476.6</ele><time>2026-04-03T09:08:14.873Z</time></trkpt><trkpt lat="43.2717551" lon="10.7606453"><ele>475.0</ele><time>2026-04-03T09:08:15.87Z</time></trkpt><trkpt lat="43.2717301" lon="10.7607798"><ele>475.00000000000006</ele><time>2026-04-03T09:08:16.883Z</time></trkpt><trkpt lat="43.2717047" lon="10.7609115"><ele>475.0</ele><time>2026-04-03T09:08:17.882Z</time></trkpt><trkpt lat="43.2716701" lon="10.7610312"><ele>475.0</ele><time>2026-04-03T09:08:18.876Z</time></trkpt><trkpt lat="43.2716404" lon="10.7611349"><ele>475.0</ele><time>2026-04-03T09:08:19.879Z</time></trkpt><trkpt lat="43.2716023" lon="10.7612149"><ele>475.00000000000006</ele><time>2026-04-03T09:08:20.878Z</time></trkpt><trkpt lat="43.2715428" lon="10.7612717"><ele>475.0</ele><time>2026-04-03T09:08:21.881Z</time></trkpt><trkpt lat="43.2714482" lon="10.7613022"><ele>472.2</ele><time>2026-04-03T09:08:22.887Z</time></trkpt><trkpt lat="43.2713478" lon="10.7613298"><ele>469.4</ele><time>2026-04-03T09:08:23.877Z</time></trkpt><trkpt lat="43.2712341" lon="10.7613249"><ele>466.6</ele><time>2026-04-03T09:08:24.882Z</time></trkpt><trkpt lat="43.2711307" lon="10.7613209"><ele>463.8</ele><time>2026-04-03T09:08:25.889Z</time></trkpt><trkpt lat="43.2710381" lon="10.761312"><ele>461.0</ele><time>2026-04-03T09:08:26.88Z</time></trkpt><trkpt lat="43.270959" lon="10.7612829"><ele>460.99999999999994</ele><time>2026-04-03T09:08:27.871Z</time></trkpt><trkpt lat="43.2708935" lon="10.7612384"><ele>461.0</ele><time>2026-04-03T09:08:28.887Z</time></trkpt><trkpt lat="43.270843" lon="10.7611815"><ele>461.0</ele><time>2026-04-03T09:08:29.879Z</time></trkpt><trkpt lat="43.2707912" lon="10.7611201"><ele>461.0</ele><time>2026-04-03T09:08:30.888Z</time></trkpt><trkpt lat="43.2707661" lon="10.7610249"><ele>460.99999999999994</ele><time>2026-04-03T09:08:31.886Z</time></trkpt><trkpt lat="43.2707696" lon="10.760897"><ele>461.0</ele><time>2026-04-03T09:08:32.884Z</time></trkpt><trkpt lat="43.2707783" lon="10.7607424"><ele>461.0</ele><time>2026-04-03T09:08:33.877Z</time></trkpt><trkpt lat="43.2707858" lon="10.760545"><ele>461.0</ele><time>2026-04-03T09:08:34.884Z</time></trkpt><trkpt lat="43.2707988" lon="10.7603409"><ele>461.0</ele><time>2026-04-03T09:08:35.877Z</time></trkpt><trkpt lat="43.2708128" lon="10.7601554"><ele>461.0</ele><time>2026-04-03T09:08:36.889Z</time></trkpt><trkpt lat="43.2708271" lon="10.7599848"><ele>461.0</ele><time>2026-04-03T09:08:37.883Z</time></trkpt><trkpt lat="43.2708319" lon="10.7598376"><ele>461.0</ele><time>2026-04-03T09:08:38.879Z</time></trkpt><trkpt lat="43.2708251" lon="10.7597093"><ele>461.0</ele><time>2026-04-03T09:08:39.881Z</time></trkpt><trkpt lat="43.2707988" lon="10.7595978"><ele>461.0</ele><time>2026-04-03T09:08:40.878Z</time></trkpt><trkpt lat="43.2707735" lon="10.759486"><ele>461.0</ele><time>2026-04-03T09:08:41.884Z</time></trkpt><trkpt lat="43.2707596" lon="10.7593804"><ele>460.8</ele><time>2026-04-03T09:08:42.882Z</time></trkpt><trkpt lat="43.2707683" lon="10.7592836"><ele>460.6</ele><time>2026-04-03T09:08:43.886Z</time></trkpt><trkpt lat="43.2707797" lon="10.7591722"><ele>460.4</ele><time>2026-04-03T09:08:44.871Z</time></trkpt><trkpt lat="43.27083" lon="10.7590487"><ele>460.2</ele><time>2026-04-03T09:08:45.884Z</time></trkpt><trkpt lat="43.2708642" lon="10.7588933"><ele>460.0</ele><time>2026-04-03T09:08:46.885Z</time></trkpt><trkpt lat="43.2708927" lon="10.7587186"><ele>460.0</ele><time>2026-04-03T09:08:47.891Z</time></trkpt><trkpt lat="43.2709161" lon="10.7585693"><ele>460.0</ele><time>2026-04-03T09:08:48.878Z</time></trkpt><trkpt lat="43.2709321" lon="10.7584444"><ele>460.0</ele><time>2026-04-03T09:08:49.884Z</time></trkpt><trkpt lat="43.2709319" lon="10.7583381"><ele>460.0</ele><time>2026-04-03T09:08:50.884Z</time></trkpt><trkpt lat="43.270906" lon="10.7582242"><ele>460.0</ele><time>2026-04-03T09:08:51.895Z</time></trkpt><trkpt lat="43.2708558" lon="10.7580892"><ele>459.33333333333337</ele><time>2026-04-03T09:08:52.873Z</time></trkpt><trkpt lat="43.2708081" lon="10.7579623"><ele>458.6666666666667</ele><time>2026-04-03T09:08:53.885Z</time></trkpt><trkpt lat="43.2707771" lon="10.7578472"><ele>458.0</ele><time>2026-04-03T09:08:54.874Z</time></trkpt><trkpt lat="43.2707527" lon="10.7577463"><ele>457.33333333333337</ele><time>2026-04-03T09:08:55.879Z</time></trkpt><trkpt lat="43.2707622" lon="10.7576272"><ele>456.6666666666667</ele><time>2026-04-03T09:08:56.88Z</time></trkpt><trkpt lat="43.2707713" lon="10.757506"><ele>456.0</ele><time>2026-04-03T09:08:57.876Z</time></trkpt><trkpt lat="43.2707728" lon="10.7573944"><ele>455.4</ele><time>2026-04-03T09:08:58.88Z</time></trkpt><trkpt lat="43.2707717" lon="10.7572892"><ele>454.8</ele><time>2026-04-03T09:08:59.88Z</time></trkpt><trkpt lat="43.270724" lon="10.7571923"><ele>454.19999999999993</ele><time>2026-04-03T09:09:00.88Z</time></trkpt><trkpt lat="43.2706484" lon="10.7571088"><ele>453.59999999999997</ele><time>2026-04-03T09:09:01.874Z</time></trkpt><trkpt lat="43.2705545" lon="10.7570396"><ele>453.0</ele><time>2026-04-03T09:09:02.87Z</time></trkpt><trkpt lat="43.2704548" lon="10.7569745"><ele>450.5</ele><time>2026-04-03T09:09:03.882Z</time></trkpt><trkpt lat="43.2703578" lon="10.7569144"><ele>448.0</ele><time>2026-04-03T09:09:04.881Z</time></trkpt><trkpt lat="43.2702455" lon="10.7568797"><ele>445.5</ele><time>2026-04-03T09:09:05.877Z</time></trkpt><trkpt lat="43.2701258" lon="10.7568598"><ele>443.0</ele><time>2026-04-03T09:09:06.882Z</time></trkpt><trkpt lat="43.2700028" lon="10.7568467"><ele>443.0</ele><time>2026-04-03T09:09:07.878Z</time></trkpt><trkpt lat="43.269883" lon="10.7568396"><ele>443.0</ele><time>2026-04-03T09:09:08.884Z</time></trkpt><trkpt lat="43.2697696" lon="10.7568199"><ele>443.0</ele><time>2026-04-03T09:09:09.881Z</time></trkpt><trkpt lat="43.2696544" lon="10.7567776"><ele>443.0</ele><time>2026-04-03T09:09:10.874Z</time></trkpt><trkpt lat="43.2695344" lon="10.7567066"><ele>442.0</ele><time>2026-04-03T09:09:11.885Z</time></trkpt><trkpt lat="43.2694032" lon="10.7566095"><ele>441.0</ele><time>2026-04-03T09:09:12.88Z</time></trkpt><trkpt lat="43.2692623" lon="10.756494"><ele>440.0</ele><time>2026-04-03T09:09:13.872Z</time></trkpt><trkpt lat="43.2691256" lon="10.75637"><ele>440.0</ele><time>2026-04-03T09:09:14.876Z</time></trkpt><trkpt lat="43.2689837" lon="10.7562284"><ele>440.0</ele><time>2026-04-03T09:09:15.882Z</time></trkpt><trkpt lat="43.2688391" lon="10.7560693"><ele>440.0</ele><time>2026-04-03T09:09:16.886Z</time></trkpt><trkpt lat="43.2687066" lon="10.7559188"><ele>440.75</ele><time>2026-04-03T09:09:17.895Z</time></trkpt><trkpt lat="43.2685849" lon="10.7557812"><ele>441.5</ele><time>2026-04-03T09:09:18.885Z</time></trkpt><trkpt lat="43.268478" lon="10.7556586"><ele>442.25</ele><time>2026-04-03T09:09:19.877Z</time></trkpt><trkpt lat="43.2683848" lon="10.7555447"><ele>443.0</ele><time>2026-04-03T09:09:20.88Z</time></trkpt><trkpt lat="43.2683088" lon="10.7554257"><ele>443.0</ele><time>2026-04-03T09:09:21.883Z</time></trkpt><trkpt lat="43.2682466" lon="10.7552967"><ele>442.99999999999994</ele><time>2026-04-03T09:09:22.894Z</time></trkpt><trkpt lat="43.2681866" lon="10.7551801"><ele>442.99999999999994</ele><time>2026-04-03T09:09:23.888Z</time></trkpt><trkpt lat="43.2681276" lon="10.7550857"><ele>443.0</ele><time>2026-04-03T09:09:24.877Z</time></trkpt><trkpt lat="43.268071" lon="10.7550234"><ele>443.0</ele><time>2026-04-03T09:09:25.881Z</time></trkpt><trkpt lat="43.2679522" lon="10.7550141"><ele>442.79999999999995</ele><time>2026-04-03T09:09:27.882Z</time></trkpt><trkpt lat="43.2678818" lon="10.7550672"><ele>442.59999999999997</ele><time>2026-04-03T09:09:28.882Z</time></trkpt><trkpt lat="43.2678013" lon="10.7551654"><ele>442.40000000000003</ele><time>2026-04-03T09:09:29.879Z</time></trkpt><trkpt lat="43.2677038" lon="10.7552787"><ele>442.20000000000005</ele><time>2026-04-03T09:09:30.877Z</time></trkpt><trkpt lat="43.2675955" lon="10.7553706"><ele>442.0</ele><time>2026-04-03T09:09:31.884Z</time></trkpt><trkpt lat="43.2674851" lon="10.7554315"><ele>442.0</ele><time>2026-04-03T09:09:32.879Z</time></trkpt><trkpt lat="43.2673697" lon="10.7554554"><ele>442.0</ele><time>2026-04-03T09:09:33.872Z</time></trkpt><trkpt lat="43.2672514" lon="10.7554486"><ele>442.0</ele><time>2026-04-03T09:09:34.891Z</time></trkpt><trkpt lat="43.2671291" lon="10.75541"><ele>442.0</ele><time>2026-04-03T09:09:35.891Z</time></trkpt><trkpt lat="43.2669906" lon="10.755337"><ele>442.0</ele><time>2026-04-03T09:09:36.883Z</time></trkpt><trkpt lat="43.2668396" lon="10.7552417"><ele>442.0</ele><time>2026-04-03T09:09:37.89Z</time></trkpt><trkpt lat="43.2666979" lon="10.7551333"><ele>442.0</ele><time>2026-04-03T09:09:38.886Z</time></trkpt><trkpt lat="43.2665767" lon="10.7550339"><ele>442.0</ele><time>2026-04-03T09:09:39.88Z</time></trkpt><trkpt lat="43.2664684" lon="10.7549541"><ele>442.0</ele><time>2026-04-03T09:09:40.879Z</time></trkpt><trkpt lat="43.2663597" lon="10.7548974"><ele>442.0</ele><time>2026-04-03T09:09:41.875Z</time></trkpt><trkpt lat="43.2662487" lon="10.7548688"><ele>442.0</ele><time>2026-04-03T09:09:42.878Z</time></trkpt><trkpt lat="43.2661308" lon="10.7548594"><ele>444.25</ele><time>2026-04-03T09:09:43.879Z</time></trkpt><trkpt lat="43.2660134" lon="10.7549069"><ele>446.5</ele><time>2026-04-03T09:09:44.883Z</time></trkpt><trkpt lat="43.265902" lon="10.7549599"><ele>448.75</ele><time>2026-04-03T09:09:45.89Z</time></trkpt><trkpt lat="43.2657861" lon="10.7550026"><ele>451.0</ele><time>2026-04-03T09:09:46.878Z</time></trkpt><trkpt lat="43.26566" lon="10.755012"><ele>454.0</ele><time>2026-04-03T09:09:47.876Z</time></trkpt><trkpt lat="43.2655163" lon="10.7550093"><ele>457.0</ele><time>2026-04-03T09:09:48.887Z</time></trkpt><trkpt lat="43.2653813" lon="10.7550411"><ele>460.0</ele><time>2026-04-03T09:09:49.874Z</time></trkpt><trkpt lat="43.2652618" lon="10.7550916"><ele>463.0</ele><time>2026-04-03T09:09:50.882Z</time></trkpt><trkpt lat="43.265131" lon="10.7551369"><ele>463.0</ele><time>2026-04-03T09:09:51.882Z</time></trkpt><trkpt lat="43.2650201" lon="10.7551422"><ele>463.0</ele><time>2026-04-03T09:09:52.885Z</time></trkpt><trkpt lat="43.2649059" lon="10.7551229"><ele>463.0</ele><time>2026-04-03T09:09:53.871Z</time></trkpt><trkpt lat="43.2647961" lon="10.7550867"><ele>463.0</ele><time>2026-04-03T09:09:54.879Z</time></trkpt><trkpt lat="43.2646854" lon="10.7550222"><ele>460.75</ele><time>2026-04-03T09:09:55.871Z</time></trkpt><trkpt lat="43.2645737" lon="10.754955"><ele>458.5</ele><time>2026-04-03T09:09:56.87Z</time></trkpt><trkpt lat="43.2644353" lon="10.7548865"><ele>456.25</ele><time>2026-04-03T09:09:57.884Z</time></trkpt><trkpt lat="43.2642725" lon="10.7548831"><ele>454.0</ele><time>2026-04-03T09:09:58.877Z</time></trkpt><trkpt lat="43.2641383" lon="10.7548677"><ele>454.0</ele><time>2026-04-03T09:09:59.869Z</time></trkpt><trkpt lat="43.2640357" lon="10.7548519"><ele>454.0</ele><time>2026-04-03T09:10:00.87Z</time></trkpt><trkpt lat="43.2639609" lon="10.7548033"><ele>454.0</ele><time>2026-04-03T09:10:01.876Z</time></trkpt><trkpt lat="43.2638914" lon="10.754698"><ele>454.0</ele><time>2026-04-03T09:10:02.877Z</time></trkpt><trkpt lat="43.2638307" lon="10.7545449"><ele>454.0</ele><time>2026-04-03T09:10:03.888Z</time></trkpt><trkpt lat="43.2637787" lon="10.7543665"><ele>452.0</ele><time>2026-04-03T09:10:04.878Z</time></trkpt><trkpt lat="43.2637351" lon="10.7541944"><ele>450.0</ele><time>2026-04-03T09:10:05.88Z</time></trkpt><trkpt lat="43.2636973" lon="10.7540365"><ele>448.0</ele><time>2026-04-03T09:10:06.891Z</time></trkpt><trkpt lat="43.2636602" lon="10.7538976"><ele>446.0</ele><time>2026-04-03T09:10:07.877Z</time></trkpt><trkpt lat="43.2636108" lon="10.7537909"><ele>446.0</ele><time>2026-04-03T09:10:08.893Z</time></trkpt><trkpt lat="43.2635675" lon="10.7536872"><ele>446.0</ele><time>2026-04-03T09:10:09.897Z</time></trkpt><trkpt lat="43.2634978" lon="10.7536023"><ele>446.0</ele><time>2026-04-03T09:10:10.902Z</time></trkpt><trkpt lat="43.2634125" lon="10.7535572"><ele>446.0</ele><time>2026-04-03T09:10:11.886Z</time></trkpt><trkpt lat="43.2632869" lon="10.7535184"><ele>446.0</ele><time>2026-04-03T09:10:12.886Z</time></trkpt><trkpt lat="43.2631523" lon="10.7534971"><ele>449.5</ele><time>2026-04-03T09:10:13.9Z</time></trkpt><trkpt lat="43.2630355" lon="10.7534652"><ele>453.0</ele><time>2026-04-03T09:10:14.896Z</time></trkpt><trkpt lat="43.2629131" lon="10.7534312"><ele>456.5</ele><time>2026-04-03T09:10:15.887Z</time></trkpt><trkpt lat="43.2627973" lon="10.7533552"><ele>460.0</ele><time>2026-04-03T09:10:16.875Z</time></trkpt><trkpt lat="43.2627147" lon="10.7532619"><ele>460.0</ele><time>2026-04-03T09:10:17.891Z</time></trkpt><trkpt lat="43.2626226" lon="10.7532194"><ele>460.0</ele><time>2026-04-03T09:10:18.893Z</time></trkpt><trkpt lat="43.2625359" lon="10.7531981"><ele>460.0</ele><time>2026-04-03T09:10:19.892Z</time></trkpt><trkpt lat="43.2624311" lon="10.7532349"><ele>460.0</ele><time>2026-04-03T09:10:20.897Z</time></trkpt><trkpt lat="43.2623269" lon="10.7532698"><ele>460.0</ele><time>2026-04-03T09:10:21.891Z</time></trkpt><trkpt lat="43.2622415" lon="10.7532736"><ele>461.00000000000006</ele><time>2026-04-03T09:10:22.88Z</time></trkpt><trkpt lat="43.2621696" lon="10.7532468"><ele>462.0</ele><time>2026-04-03T09:10:23.892Z</time></trkpt><trkpt lat="43.2620719" lon="10.7532121"><ele>463.0</ele><time>2026-04-03T09:10:25.886Z</time></trkpt><trkpt lat="43.2620152" lon="10.7531677"><ele>464.0</ele><time>2026-04-03T09:14:15.893Z</time></trkpt><trkpt lat="43.261965" lon="10.7530745"><ele>465.00000000000006</ele><time>2026-04-03T09:14:17.877Z</time></trkpt><trkpt lat="43.2618496" lon="10.7530415"><ele>466.0</ele><time>2026-04-03T09:14:19.874Z</time></trkpt><trkpt lat="43.2617611" lon="10.7530777"><ele>466.0</ele><time>2026-04-03T09:14:20.874Z</time></trkpt><trkpt lat="43.2616757" lon="10.7531529"><ele>466.0</ele><time>2026-04-03T09:14:21.878Z</time></trkpt><trkpt lat="43.2616003" lon="10.753272"><ele>466.0</ele><time>2026-04-03T09:14:22.879Z</time></trkpt><trkpt lat="43.2615265" lon="10.7533765"><ele>466.0</ele><time>2026-04-03T09:14:23.877Z</time></trkpt><trkpt lat="43.261446" lon="10.7534637"><ele>466.0</ele><time>2026-04-03T09:14:24.882Z</time></trkpt><trkpt lat="43.2613721" lon="10.7535422"><ele>464.4</ele><time>2026-04-03T09:14:25.879Z</time></trkpt><trkpt lat="43.2612766" lon="10.7535733"><ele>462.8</ele><time>2026-04-03T09:14:26.876Z</time></trkpt><trkpt lat="43.2611814" lon="10.7536046"><ele>461.19999999999993</ele><time>2026-04-03T09:14:27.88Z</time></trkpt><trkpt lat="43.2610988" lon="10.7536305"><ele>459.59999999999997</ele><time>2026-04-03T09:14:28.881Z</time></trkpt><trkpt lat="43.2610283" lon="10.7536868"><ele>458.0</ele><time>2026-04-03T09:14:29.879Z</time></trkpt><trkpt lat="43.2609682" lon="10.7537833"><ele>458.0</ele><time>2026-04-03T09:14:30.882Z</time></trkpt><trkpt lat="43.2609402" lon="10.7539043"><ele>457.99999999999994</ele><time>2026-04-03T09:14:31.878Z</time></trkpt><trkpt lat="43.2609013" lon="10.7540021"><ele>457.99999999999994</ele><time>2026-04-03T09:14:32.876Z</time></trkpt><trkpt lat="43.2608095" lon="10.7540608"><ele>458.0</ele><time>2026-04-03T09:14:33.875Z</time></trkpt><trkpt lat="43.2607069" lon="10.75412"><ele>458.0</ele><time>2026-04-03T09:14:34.882Z</time></trkpt><trkpt lat="43.2605838" lon="10.7541509"><ele>458.0</ele><time>2026-04-03T09:14:35.871Z</time></trkpt><trkpt lat="43.2604609" lon="10.7541701"><ele>458.0</ele><time>2026-04-03T09:14:36.874Z</time></trkpt><trkpt lat="43.2603381" lon="10.7541534"><ele>458.0</ele><time>2026-04-03T09:14:37.877Z</time></trkpt><trkpt lat="43.260207" lon="10.7541088"><ele>458.0</ele><time>2026-04-03T09:14:38.877Z</time></trkpt><trkpt lat="43.2600765" lon="10.7540522"><ele>458.0</ele><time>2026-04-03T09:14:39.873Z</time></trkpt><trkpt lat="43.259964" lon="10.7539911"><ele>458.0</ele><time>2026-04-03T09:14:40.881Z</time></trkpt><trkpt lat="43.2598689" lon="10.7539133"><ele>458.0</ele><time>2026-04-03T09:14:41.878Z</time></trkpt><trkpt lat="43.2597758" lon="10.753799"><ele>458.0</ele><time>2026-04-03T09:14:42.87Z</time></trkpt><trkpt lat="43.2596809" lon="10.7536643"><ele>457.4</ele><time>2026-04-03T09:14:43.87Z</time></trkpt><trkpt lat="43.259598" lon="10.7535413"><ele>456.79999999999995</ele><time>2026-04-03T09:14:44.88Z</time></trkpt><trkpt lat="43.2595388" lon="10.7534318"><ele>456.2</ele><time>2026-04-03T09:14:45.877Z</time></trkpt><trkpt lat="43.2595013" lon="10.7533196"><ele>455.6</ele><time>2026-04-03T09:14:46.872Z</time></trkpt><trkpt lat="43.259478" lon="10.7532012"><ele>455.0</ele><time>2026-04-03T09:14:47.879Z</time></trkpt><trkpt lat="43.2594886" lon="10.7530817"><ele>455.0</ele><time>2026-04-03T09:14:48.872Z</time></trkpt><trkpt lat="43.2595221" lon="10.7529593"><ele>455.0</ele><time>2026-04-03T09:14:49.876Z</time></trkpt><trkpt lat="43.2595609" lon="10.7528131"><ele>455.0</ele><time>2026-04-03T09:14:50.881Z</time></trkpt><trkpt lat="43.2596086" lon="10.7526613"><ele>455.0</ele><time>2026-04-03T09:14:51.881Z</time></trkpt><trkpt lat="43.2596508" lon="10.7525169"><ele>455.0</ele><time>2026-04-03T09:14:52.875Z</time></trkpt><trkpt lat="43.2596829" lon="10.7523867"><ele>457.0</ele><time>2026-04-03T09:14:53.876Z</time></trkpt><trkpt lat="43.2597015" lon="10.7522902"><ele>459.0</ele><time>2026-04-03T09:14:54.871Z</time></trkpt><trkpt lat="43.2596687" lon="10.7521405"><ele>461.0</ele><time>2026-04-03T09:14:56.871Z</time></trkpt><trkpt lat="43.2596099" lon="10.7520813"><ele>463.0</ele><time>2026-04-03T09:14:57.881Z</time></trkpt><trkpt lat="43.2595272" lon="10.7520471"><ele>465.0</ele><time>2026-04-03T09:14:58.878Z</time></trkpt><trkpt lat="43.2594249" lon="10.7520203"><ele>465.0</ele><time>2026-04-03T09:14:59.889Z</time></trkpt><trkpt lat="43.2593021" lon="10.7520095"><ele>465.0</ele><time>2026-04-03T09:15:00.875Z</time></trkpt><trkpt lat="43.25918" lon="10.7519993"><ele>465.0</ele><time>2026-04-03T09:15:01.876Z</time></trkpt><trkpt lat="43.2590753" lon="10.7520087"><ele>465.0</ele><time>2026-04-03T09:15:02.88Z</time></trkpt><trkpt lat="43.2589615" lon="10.7520359"><ele>465.33333333333337</ele><time>2026-04-03T09:15:03.876Z</time></trkpt><trkpt lat="43.2588291" lon="10.7521132"><ele>465.6666666666667</ele><time>2026-04-03T09:15:04.878Z</time></trkpt><trkpt lat="43.258685" lon="10.7521923"><ele>466.0</ele><time>2026-04-03T09:15:05.873Z</time></trkpt><trkpt lat="43.2585398" lon="10.7522704"><ele>466.0</ele><time>2026-04-03T09:15:06.872Z</time></trkpt><trkpt lat="43.2584059" lon="10.7523235"><ele>466.0</ele><time>2026-04-03T09:15:07.868Z</time></trkpt><trkpt lat="43.2582584" lon="10.7523778"><ele>466.0</ele><time>2026-04-03T09:15:08.87Z</time></trkpt><trkpt lat="43.2581029" lon="10.7524037"><ele>466.0</ele><time>2026-04-03T09:15:09.877Z</time></trkpt><trkpt lat="43.2579587" lon="10.7524204"><ele>464.75</ele><time>2026-04-03T09:15:10.867Z</time></trkpt><trkpt lat="43.2578456" lon="10.75242"><ele>463.5</ele><time>2026-04-03T09:15:11.873Z</time></trkpt><trkpt lat="43.2577354" lon="10.7523931"><ele>462.25</ele><time>2026-04-03T09:15:12.883Z</time></trkpt><trkpt lat="43.2576211" lon="10.752327"><ele>461.0</ele><time>2026-04-03T09:15:13.874Z</time></trkpt><trkpt lat="43.2574955" lon="10.7522518"><ele>461.0</ele><time>2026-04-03T09:15:14.874Z</time></trkpt><trkpt lat="43.2573434" lon="10.7521332"><ele>461.0</ele><time>2026-04-03T09:15:15.87Z</time></trkpt><trkpt lat="43.2572003" lon="10.7520234"><ele>461.0</ele><time>2026-04-03T09:15:16.878Z</time></trkpt><trkpt lat="43.257065" lon="10.7519204"><ele>461.5</ele><time>2026-04-03T09:15:17.876Z</time></trkpt><trkpt lat="43.256957" lon="10.7518013"><ele>462.0</ele><time>2026-04-03T09:15:18.877Z</time></trkpt><trkpt lat="43.2568525" lon="10.7516764"><ele>462.5</ele><time>2026-04-03T09:15:19.879Z</time></trkpt><trkpt lat="43.2567543" lon="10.7515307"><ele>463.0</ele><time>2026-04-03T09:15:20.876Z</time></trkpt><trkpt lat="43.2566696" lon="10.7513626"><ele>463.0</ele><time>2026-04-03T09:15:21.879Z</time></trkpt><trkpt lat="43.2565878" lon="10.7511842"><ele>463.0</ele><time>2026-04-03T09:15:22.884Z</time></trkpt><trkpt lat="43.2565018" lon="10.7510267"><ele>463.0</ele><time>2026-04-03T09:15:23.876Z</time></trkpt><trkpt lat="43.2564265" lon="10.7508622"><ele>463.0</ele><time>2026-04-03T09:15:24.869Z</time></trkpt><trkpt lat="43.2563523" lon="10.7507087"><ele>464.59999999999997</ele><time>2026-04-03T09:15:25.876Z</time></trkpt><trkpt lat="43.2562864" lon="10.7505852"><ele>466.19999999999993</ele><time>2026-04-03T09:15:26.878Z</time></trkpt><trkpt lat="43.2562308" lon="10.7505016"><ele>467.8</ele><time>2026-04-03T09:15:27.872Z</time></trkpt><trkpt lat="43.2561797" lon="10.7504507"><ele>469.4</ele><time>2026-04-03T09:15:28.873Z</time></trkpt><trkpt lat="43.2560421" lon="10.7504528"><ele>471.0</ele><time>2026-04-03T09:15:30.878Z</time></trkpt><trkpt lat="43.2559479" lon="10.7504199"><ele>471.0</ele><time>2026-04-03T09:15:31.875Z</time></trkpt><trkpt lat="43.2558584" lon="10.7503512"><ele>471.0</ele><time>2026-04-03T09:15:32.88Z</time></trkpt><trkpt lat="43.2557816" lon="10.7502416"><ele>471.0</ele><time>2026-04-03T09:15:33.874Z</time></trkpt><trkpt lat="43.2557162" lon="10.7500958"><ele>471.0</ele><time>2026-04-03T09:15:34.886Z</time></trkpt><trkpt lat="43.2556698" lon="10.7499661"><ele>471.0</ele><time>2026-04-03T09:15:35.875Z</time></trkpt><trkpt lat="43.2556194" lon="10.7498751"><ele>471.8</ele><time>2026-04-03T09:15:36.876Z</time></trkpt><trkpt lat="43.2555521" lon="10.7498399"><ele>472.6</ele><time>2026-04-03T09:15:37.878Z</time></trkpt><trkpt lat="43.2554784" lon="10.7498576"><ele>473.4</ele><time>2026-04-03T09:15:38.878Z</time></trkpt><trkpt lat="43.2553796" lon="10.7498909"><ele>474.2</ele><time>2026-04-03T09:15:39.883Z</time></trkpt><trkpt lat="43.2552655" lon="10.7499488"><ele>475.0</ele><time>2026-04-03T09:15:40.872Z</time></trkpt><trkpt lat="43.2551632" lon="10.7499795"><ele>475.0</ele><time>2026-04-03T09:15:41.88Z</time></trkpt><trkpt lat="43.2550737" lon="10.7500015"><ele>475.0</ele><time>2026-04-03T09:15:42.877Z</time></trkpt><trkpt lat="43.2549659" lon="10.7499776"><ele>475.0</ele><time>2026-04-03T09:15:43.881Z</time></trkpt><trkpt lat="43.254863" lon="10.7499585"><ele>475.0</ele><time>2026-04-03T09:15:44.876Z</time></trkpt><trkpt lat="43.2547183" lon="10.7499454"><ele>475.0</ele><time>2026-04-03T09:15:45.874Z</time></trkpt><trkpt lat="43.254594" lon="10.7499408"><ele>477.2</ele><time>2026-04-03T09:15:46.882Z</time></trkpt><trkpt lat="43.2544863" lon="10.7499263"><ele>479.4</ele><time>2026-04-03T09:15:47.879Z</time></trkpt><trkpt lat="43.2543952" lon="10.7498972"><ele>481.6</ele><time>2026-04-03T09:15:48.876Z</time></trkpt><trkpt lat="43.2543079" lon="10.7498404"><ele>483.8</ele><time>2026-04-03T09:15:49.88Z</time></trkpt><trkpt lat="43.2542187" lon="10.7497705"><ele>486.0</ele><time>2026-04-03T09:15:50.885Z</time></trkpt><trkpt lat="43.2541334" lon="10.749663"><ele>486.0</ele><time>2026-04-03T09:15:51.878Z</time></trkpt><trkpt lat="43.2540564" lon="10.749553"><ele>486.0</ele><time>2026-04-03T09:15:52.877Z</time></trkpt><trkpt lat="43.2539608" lon="10.7494599"><ele>486.0</ele><time>2026-04-03T09:15:53.88Z</time></trkpt><trkpt lat="43.2538808" lon="10.7493545"><ele>486.0</ele><time>2026-04-03T09:15:54.876Z</time></trkpt><trkpt lat="43.2538" lon="10.7492424"><ele>486.5</ele><time>2026-04-03T09:15:55.868Z</time></trkpt><trkpt lat="43.2537568" lon="10.749102"><ele>487.0</ele><time>2026-04-03T09:15:56.881Z</time></trkpt><trkpt lat="43.253735" lon="10.7489342"><ele>487.5</ele><time>2026-04-03T09:15:57.872Z</time></trkpt><trkpt lat="43.2537317" lon="10.748755"><ele>488.0</ele><time>2026-04-03T09:15:58.877Z</time></trkpt><trkpt lat="43.2537282" lon="10.7486119"><ele>487.3333333333333</ele><time>2026-04-03T09:15:59.874Z</time></trkpt><trkpt lat="43.2537068" lon="10.7485009"><ele>486.66666666666663</ele><time>2026-04-03T09:16:00.873Z</time></trkpt><trkpt lat="43.2536801" lon="10.7484086"><ele>486.0</ele><time>2026-04-03T09:16:01.87Z</time></trkpt><trkpt lat="43.2536265" lon="10.7483613"><ele>485.33333333333337</ele><time>2026-04-03T09:16:02.888Z</time></trkpt><trkpt lat="43.253532" lon="10.7482994"><ele>484.6666666666667</ele><time>2026-04-03T09:16:03.873Z</time></trkpt><trkpt lat="43.2534275" lon="10.7482367"><ele>484.0</ele><time>2026-04-03T09:16:04.883Z</time></trkpt><trkpt lat="43.253318" lon="10.7481833"><ele>484.0</ele><time>2026-04-03T09:16:05.882Z</time></trkpt><trkpt lat="43.2532295" lon="10.7481152"><ele>484.0</ele><time>2026-04-03T09:16:06.876Z</time></trkpt><trkpt lat="43.2531661" lon="10.7480215"><ele>484.0</ele><time>2026-04-03T09:16:07.874Z</time></trkpt><trkpt lat="43.2531184" lon="10.7479152"><ele>484.0</ele><time>2026-04-03T09:16:08.87Z</time></trkpt><trkpt lat="43.2530782" lon="10.7477577"><ele>484.0</ele><time>2026-04-03T09:16:09.878Z</time></trkpt><trkpt lat="43.2530357" lon="10.7475706"><ele>486.79999999999995</ele><time>2026-04-03T09:16:10.883Z</time></trkpt><trkpt lat="43.2529939" lon="10.7474048"><ele>489.59999999999997</ele><time>2026-04-03T09:16:11.884Z</time></trkpt><trkpt lat="43.252977" lon="10.7472882"><ele>492.4</ele><time>2026-04-03T09:16:12.876Z</time></trkpt><trkpt lat="43.2529299" lon="10.747219"><ele>495.2</ele><time>2026-04-03T09:16:13.883Z</time></trkpt><trkpt lat="43.2528234" lon="10.7471446"><ele>498.0</ele><time>2026-04-03T09:16:15.88Z</time></trkpt><trkpt lat="43.2527267" lon="10.7471726"><ele>498.0</ele><time>2026-04-03T09:16:16.878Z</time></trkpt><trkpt lat="43.2526186" lon="10.7472033"><ele>498.0</ele><time>2026-04-03T09:16:17.885Z</time></trkpt><trkpt lat="43.2524938" lon="10.7472086"><ele>498.0</ele><time>2026-04-03T09:16:18.893Z</time></trkpt><trkpt lat="43.2523629" lon="10.7471633"><ele>498.0</ele><time>2026-04-03T09:16:19.878Z</time></trkpt><trkpt lat="43.2522525" lon="10.7471147"><ele>497.0</ele><time>2026-04-03T09:16:20.882Z</time></trkpt><trkpt lat="43.2521522" lon="10.7470617"><ele>496.0</ele><time>2026-04-03T09:16:21.879Z</time></trkpt><trkpt lat="43.2520718" lon="10.7469587"><ele>495.0</ele><time>2026-04-03T09:16:22.88Z</time></trkpt><trkpt lat="43.2519924" lon="10.7468042"><ele>494.0</ele><time>2026-04-03T09:16:23.886Z</time></trkpt><trkpt lat="43.2519044" lon="10.7466504"><ele>493.99999999999994</ele><time>2026-04-03T09:16:24.882Z</time></trkpt><trkpt lat="43.2518468" lon="10.7465051"><ele>494.0</ele><time>2026-04-03T09:16:25.879Z</time></trkpt><trkpt lat="43.2517945" lon="10.7463988"><ele>494.0</ele><time>2026-04-03T09:16:26.884Z</time></trkpt><trkpt lat="43.2517357" lon="10.7463267"><ele>494.0</ele><time>2026-04-03T09:16:27.881Z</time></trkpt><trkpt lat="43.2516768" lon="10.7462843"><ele>493.99999999999994</ele><time>2026-04-03T09:16:28.888Z</time></trkpt><trkpt lat="43.2516051" lon="10.7463112"><ele>494.0</ele><time>2026-04-03T09:16:29.876Z</time></trkpt><trkpt lat="43.2515442" lon="10.746364"><ele>494.0</ele><time>2026-04-03T09:16:30.879Z</time></trkpt><trkpt lat="43.251474" lon="10.7464577"><ele>494.0</ele><time>2026-04-03T09:16:31.886Z</time></trkpt><trkpt lat="43.2514212" lon="10.7465964"><ele>494.0</ele><time>2026-04-03T09:16:32.873Z</time></trkpt><trkpt lat="43.2513553" lon="10.7467507"><ele>494.0</ele><time>2026-04-03T09:16:33.888Z</time></trkpt><trkpt lat="43.2512751" lon="10.746897"><ele>493.5</ele><time>2026-04-03T09:16:34.874Z</time></trkpt><trkpt lat="43.2511798" lon="10.7470435"><ele>493.0</ele><time>2026-04-03T09:16:35.878Z</time></trkpt><trkpt lat="43.2510833" lon="10.7471895"><ele>492.5</ele><time>2026-04-03T09:16:36.879Z</time></trkpt><trkpt lat="43.2509977" lon="10.7473329"><ele>492.0</ele><time>2026-04-03T09:16:37.873Z</time></trkpt><trkpt lat="43.2509207" lon="10.7474799"><ele>492.0</ele><time>2026-04-03T09:16:38.878Z</time></trkpt><trkpt lat="43.2508529" lon="10.7476374"><ele>492.0</ele><time>2026-04-03T09:16:39.884Z</time></trkpt><trkpt lat="43.2508029" lon="10.7478076"><ele>492.0</ele><time>2026-04-03T09:16:40.88Z</time></trkpt><trkpt lat="43.250757" lon="10.7479576"><ele>492.0</ele><time>2026-04-03T09:16:41.876Z</time></trkpt><trkpt lat="43.2507251" lon="10.7480868"><ele>492.0</ele><time>2026-04-03T09:16:42.882Z</time></trkpt><trkpt lat="43.2506751" lon="10.7481985"><ele>492.0</ele><time>2026-04-03T09:16:43.875Z</time></trkpt><trkpt lat="43.2505926" lon="10.7482852"><ele>492.0</ele><time>2026-04-03T09:16:44.875Z</time></trkpt><trkpt lat="43.2504879" lon="10.7483535"><ele>492.0</ele><time>2026-04-03T09:16:45.874Z</time></trkpt><trkpt lat="43.2503676" lon="10.7484492"><ele>492.0</ele><time>2026-04-03T09:16:46.88Z</time></trkpt><trkpt lat="43.2502578" lon="10.7485427"><ele>492.0</ele><time>2026-04-03T09:16:47.88Z</time></trkpt><trkpt lat="43.2501558" lon="10.7486313"><ele>492.0</ele><time>2026-04-03T09:16:48.889Z</time></trkpt><trkpt lat="43.2500349" lon="10.7486962"><ele>492.0</ele><time>2026-04-03T09:16:49.879Z</time></trkpt><trkpt lat="43.2498985" lon="10.7487442"><ele>492.75</ele><time>2026-04-03T09:16:50.891Z</time></trkpt><trkpt lat="43.2497759" lon="10.7487793"><ele>493.5</ele><time>2026-04-03T09:16:51.879Z</time></trkpt><trkpt lat="43.2496501" lon="10.7488093"><ele>494.25</ele><time>2026-04-03T09:16:52.882Z</time></trkpt><trkpt lat="43.249526" lon="10.748828"><ele>495.0</ele><time>2026-04-03T09:16:53.878Z</time></trkpt><trkpt lat="43.2494172" lon="10.7487989"><ele>495.0</ele><time>2026-04-03T09:16:54.878Z</time></trkpt><trkpt lat="43.2493084" lon="10.748756"><ele>495.0</ele><time>2026-04-03T09:16:55.879Z</time></trkpt><trkpt lat="43.2491952" lon="10.7486847"><ele>495.0</ele><time>2026-04-03T09:16:56.88Z</time></trkpt><trkpt lat="43.2490982" lon="10.7486001"><ele>495.0</ele><time>2026-04-03T09:16:57.886Z</time></trkpt><trkpt lat="43.2490053" lon="10.7485128"><ele>493.75</ele><time>2026-04-03T09:16:58.884Z</time></trkpt><trkpt lat="43.2489242" lon="10.748427"><ele>492.5</ele><time>2026-04-03T09:16:59.882Z</time></trkpt><trkpt lat="43.2488062" lon="10.7483446"><ele>491.25</ele><time>2026-04-03T09:17:00.877Z</time></trkpt><trkpt lat="43.248702" lon="10.7482757"><ele>490.0</ele><time>2026-04-03T09:17:01.883Z</time></trkpt><trkpt lat="43.2486111" lon="10.7482213"><ele>490.0</ele><time>2026-04-03T09:17:02.885Z</time></trkpt><trkpt lat="43.2485403" lon="10.7481898"><ele>490.0</ele><time>2026-04-03T09:17:03.883Z</time></trkpt><trkpt lat="43.2484757" lon="10.7481921"><ele>490.0</ele><time>2026-04-03T09:17:04.876Z</time></trkpt><trkpt lat="43.2483934" lon="10.7482913"><ele>490.0</ele><time>2026-04-03T09:17:06.882Z</time></trkpt><trkpt lat="43.2484094" lon="10.7484724"><ele>490.0</ele><time>2026-04-03T09:17:08.879Z</time></trkpt><trkpt lat="43.2484571" lon="10.7486038"><ele>489.0</ele><time>2026-04-03T09:17:09.886Z</time></trkpt><trkpt lat="43.2485119" lon="10.7487665"><ele>488.0</ele><time>2026-04-03T09:17:10.905Z</time></trkpt><trkpt lat="43.2485712" lon="10.7489501"><ele>487.0</ele><time>2026-04-03T09:17:11.875Z</time></trkpt><trkpt lat="43.2486116" lon="10.7491791"><ele>486.0</ele><time>2026-04-03T09:17:12.874Z</time></trkpt><trkpt lat="43.2486441" lon="10.7494291"><ele>485.75</ele><time>2026-04-03T09:17:13.868Z</time></trkpt><trkpt lat="43.24866" lon="10.7496256"><ele>485.5</ele><time>2026-04-03T09:17:14.873Z</time></trkpt><trkpt lat="43.2486707" lon="10.7497861"><ele>485.25</ele><time>2026-04-03T09:17:15.882Z</time></trkpt><trkpt lat="43.2486706" lon="10.7499871"><ele>485.0</ele><time>2026-04-03T09:17:16.887Z</time></trkpt><trkpt lat="43.2486673" lon="10.7501839"><ele>483.75</ele><time>2026-04-03T09:17:17.88Z</time></trkpt><trkpt lat="43.2486636" lon="10.7503776"><ele>482.5</ele><time>2026-04-03T09:17:18.869Z</time></trkpt><trkpt lat="43.248649" lon="10.750576"><ele>481.25</ele><time>2026-04-03T09:17:19.881Z</time></trkpt><trkpt lat="43.2486202" lon="10.7507793"><ele>480.0</ele><time>2026-04-03T09:17:20.879Z</time></trkpt><trkpt lat="43.2485844" lon="10.7509738"><ele>481.0</ele><time>2026-04-03T09:17:21.887Z</time></trkpt><trkpt lat="43.2485477" lon="10.7511515"><ele>482.0</ele><time>2026-04-03T09:17:22.873Z</time></trkpt><trkpt lat="43.2485213" lon="10.7513013"><ele>483.0</ele><time>2026-04-03T09:17:23.883Z</time></trkpt><trkpt lat="43.248501" lon="10.7514329"><ele>484.0</ele><time>2026-04-03T09:17:24.877Z</time></trkpt><trkpt lat="43.2484993" lon="10.7515681"><ele>485.0</ele><time>2026-04-03T09:17:25.877Z</time></trkpt><trkpt lat="43.2485234" lon="10.7517178"><ele>486.0</ele><time>2026-04-03T09:17:26.878Z</time></trkpt><trkpt lat="43.2485481" lon="10.7518854"><ele>487.0</ele><time>2026-04-03T09:17:27.877Z</time></trkpt><trkpt lat="43.248555" lon="10.7520411"><ele>488.0</ele><time>2026-04-03T09:17:28.88Z</time></trkpt><trkpt lat="43.2485606" lon="10.7521796"><ele>489.0</ele><time>2026-04-03T09:17:29.885Z</time></trkpt><trkpt lat="43.2485492" lon="10.7523502"><ele>489.0</ele><time>2026-04-03T09:17:30.875Z</time></trkpt><trkpt lat="43.2485455" lon="10.7525199"><ele>489.0</ele><time>2026-04-03T09:17:31.88Z</time></trkpt><trkpt lat="43.2485377" lon="10.7526928"><ele>489.0</ele><time>2026-04-03T09:17:32.875Z</time></trkpt><trkpt lat="43.248527" lon="10.7528432"><ele>489.0</ele><time>2026-04-03T09:17:33.884Z</time></trkpt><trkpt lat="43.2485151" lon="10.7529817"><ele>487.0</ele><time>2026-04-03T09:17:34.873Z</time></trkpt><trkpt lat="43.2484812" lon="10.7531336"><ele>485.0</ele><time>2026-04-03T09:17:35.879Z</time></trkpt><trkpt lat="43.2484308" lon="10.7533167"><ele>483.0</ele><time>2026-04-03T09:17:36.884Z</time></trkpt><trkpt lat="43.2483861" lon="10.7535246"><ele>481.0</ele><time>2026-04-03T09:17:37.883Z</time></trkpt><trkpt lat="43.2483145" lon="10.7537342"><ele>479.0</ele><time>2026-04-03T09:17:38.877Z</time></trkpt><trkpt lat="43.2482721" lon="10.7539876"><ele>477.0</ele><time>2026-04-03T09:17:39.886Z</time></trkpt><trkpt lat="43.248219" lon="10.7542187"><ele>475.0</ele><time>2026-04-03T09:17:40.878Z</time></trkpt><trkpt lat="43.2481662" lon="10.7544208"><ele>473.0</ele><time>2026-04-03T09:17:41.886Z</time></trkpt><trkpt lat="43.2480957" lon="10.7545954"><ele>471.0</ele><time>2026-04-03T09:17:42.878Z</time></trkpt><trkpt lat="43.2480067" lon="10.7547533"><ele>469.0</ele><time>2026-04-03T09:17:43.876Z</time></trkpt><trkpt lat="43.2479268" lon="10.7548973"><ele>467.0</ele><time>2026-04-03T09:17:44.886Z</time></trkpt><trkpt lat="43.2478568" lon="10.7550285"><ele>467.0</ele><time>2026-04-03T09:17:45.874Z</time></trkpt><trkpt lat="43.2477859" lon="10.7551443"><ele>467.0</ele><time>2026-04-03T09:17:46.893Z</time></trkpt><trkpt lat="43.2476952" lon="10.7552485"><ele>467.0</ele><time>2026-04-03T09:17:47.881Z</time></trkpt><trkpt lat="43.2475772" lon="10.7553595"><ele>467.0</ele><time>2026-04-03T09:17:48.882Z</time></trkpt><trkpt lat="43.2474585" lon="10.7554778"><ele>464.8</ele><time>2026-04-03T09:17:49.88Z</time></trkpt><trkpt lat="43.2473557" lon="10.75559"><ele>462.6</ele><time>2026-04-03T09:17:50.88Z</time></trkpt><trkpt lat="43.2472681" lon="10.7556852"><ele>460.40000000000003</ele><time>2026-04-03T09:17:51.885Z</time></trkpt><trkpt lat="43.2471936" lon="10.7557643"><ele>458.20000000000005</ele><time>2026-04-03T09:17:52.884Z</time></trkpt><trkpt lat="43.2471306" lon="10.7558387"><ele>456.0</ele><time>2026-04-03T09:17:53.88Z</time></trkpt><trkpt lat="43.2470931" lon="10.7559164"><ele>457.20000000000005</ele><time>2026-04-03T09:17:54.875Z</time></trkpt><trkpt lat="43.2470923" lon="10.7560977"><ele>458.40000000000003</ele><time>2026-04-03T09:17:56.885Z</time></trkpt><trkpt lat="43.2471416" lon="10.7562048"><ele>459.6</ele><time>2026-04-03T09:17:57.88Z</time></trkpt><trkpt lat="43.2471992" lon="10.7563045"><ele>460.8</ele><time>2026-04-03T09:17:58.876Z</time></trkpt><trkpt lat="43.2472446" lon="10.7563978"><ele>462.0</ele><time>2026-04-03T09:17:59.876Z</time></trkpt><trkpt lat="43.2472542" lon="10.7565438"><ele>462.0</ele><time>2026-04-03T09:18:01.882Z</time></trkpt><trkpt lat="43.2471389" lon="10.756652"><ele>462.0</ele><time>2026-04-03T09:18:03.878Z</time></trkpt><trkpt lat="43.2470447" lon="10.7567066"><ele>462.0</ele><time>2026-04-03T09:18:04.87Z</time></trkpt><trkpt lat="43.2469167" lon="10.7567328"><ele>462.0</ele><time>2026-04-03T09:18:05.884Z</time></trkpt><trkpt lat="43.24677" lon="10.756777"><ele>462.0</ele><time>2026-04-03T09:18:06.873Z</time></trkpt><trkpt lat="43.2466271" lon="10.756837"><ele>462.0</ele><time>2026-04-03T09:18:07.879Z</time></trkpt><trkpt lat="43.246492" lon="10.7568728"><ele>462.0</ele><time>2026-04-03T09:18:08.883Z</time></trkpt><trkpt lat="43.2463651" lon="10.7568846"><ele>462.0</ele><time>2026-04-03T09:18:09.88Z</time></trkpt><trkpt lat="43.2462716" lon="10.756913"><ele>460.6</ele><time>2026-04-03T09:18:10.879Z</time></trkpt><trkpt lat="43.2461826" lon="10.7569568"><ele>459.20000000000005</ele><time>2026-04-03T09:18:11.886Z</time></trkpt><trkpt lat="43.2461035" lon="10.7570435"><ele>457.8</ele><time>2026-04-03T09:18:12.883Z</time></trkpt><trkpt lat="43.2460227" lon="10.7571391"><ele>456.4</ele><time>2026-04-03T09:18:13.878Z</time></trkpt><trkpt lat="43.245949" lon="10.757246"><ele>455.0</ele><time>2026-04-03T09:18:14.882Z</time></trkpt><trkpt lat="43.2458804" lon="10.7573552"><ele>455.0</ele><time>2026-04-03T09:18:15.88Z</time></trkpt><trkpt lat="43.2458168" lon="10.7574779"><ele>455.0</ele><time>2026-04-03T09:18:16.872Z</time></trkpt><trkpt lat="43.2457635" lon="10.7575998"><ele>455.0</ele><time>2026-04-03T09:18:17.872Z</time></trkpt><trkpt lat="43.2457143" lon="10.7577272"><ele>455.0</ele><time>2026-04-03T09:18:18.91Z</time></trkpt><trkpt lat="43.2456744" lon="10.7578539"><ele>455.0</ele><time>2026-04-03T09:18:19.878Z</time></trkpt><trkpt lat="43.245646" lon="10.7579767"><ele>454.16666666666663</ele><time>2026-04-03T09:18:20.876Z</time></trkpt><trkpt lat="43.2456293" lon="10.7581023"><ele>453.3333333333333</ele><time>2026-04-03T09:18:21.879Z</time></trkpt><trkpt lat="43.2456157" lon="10.7582193"><ele>452.5</ele><time>2026-04-03T09:18:22.881Z</time></trkpt><trkpt lat="43.2456081" lon="10.7583246"><ele>451.66666666666663</ele><time>2026-04-03T09:18:23.883Z</time></trkpt><trkpt lat="43.2455867" lon="10.7584138"><ele>450.8333333333333</ele><time>2026-04-03T09:18:24.876Z</time></trkpt><trkpt lat="43.2455403" lon="10.7585027"><ele>450.0</ele><time>2026-04-03T09:18:25.875Z</time></trkpt><trkpt lat="43.2454868" lon="10.7585931"><ele>447.2</ele><time>2026-04-03T09:18:26.877Z</time></trkpt><trkpt lat="43.2453971" lon="10.7586906"><ele>444.4</ele><time>2026-04-03T09:18:27.879Z</time></trkpt><trkpt lat="43.2453149" lon="10.758786"><ele>441.6</ele><time>2026-04-03T09:18:28.883Z</time></trkpt><trkpt lat="43.2452426" lon="10.7588765"><ele>438.8</ele><time>2026-04-03T09:18:29.883Z</time></trkpt><trkpt lat="43.2451776" lon="10.7589796"><ele>436.0</ele><time>2026-04-03T09:18:30.87Z</time></trkpt><trkpt lat="43.24512" lon="10.7590752"><ele>436.0</ele><time>2026-04-03T09:18:31.884Z</time></trkpt><trkpt lat="43.2450661" lon="10.7591748"><ele>436.0</ele><time>2026-04-03T09:18:32.874Z</time></trkpt><trkpt lat="43.2450135" lon="10.7592804"><ele>436.0</ele><time>2026-04-03T09:18:33.883Z</time></trkpt><trkpt lat="43.2449838" lon="10.7594254"><ele>436.0</ele><time>2026-04-03T09:18:34.878Z</time></trkpt><trkpt lat="43.2449553" lon="10.759606"><ele>436.0</ele><time>2026-04-03T09:18:35.879Z</time></trkpt><trkpt lat="43.2449261" lon="10.7597941"><ele>435.4</ele><time>2026-04-03T09:18:36.878Z</time></trkpt><trkpt lat="43.2448967" lon="10.7599537"><ele>434.8</ele><time>2026-04-03T09:18:37.874Z</time></trkpt><trkpt lat="43.2448683" lon="10.7600883"><ele>434.19999999999993</ele><time>2026-04-03T09:18:38.873Z</time></trkpt><trkpt lat="43.2448385" lon="10.7602093"><ele>433.59999999999997</ele><time>2026-04-03T09:18:39.867Z</time></trkpt><trkpt lat="43.2447715" lon="10.760303"><ele>433.0</ele><time>2026-04-03T09:18:40.872Z</time></trkpt><trkpt lat="43.2446954" lon="10.7603708"><ele>429.25</ele><time>2026-04-03T09:18:41.873Z</time></trkpt><trkpt lat="43.244598" lon="10.7604104"><ele>425.5</ele><time>2026-04-03T09:18:42.877Z</time></trkpt><trkpt lat="43.2444735" lon="10.7604355"><ele>421.75</ele><time>2026-04-03T09:18:43.876Z</time></trkpt><trkpt lat="43.2443571" lon="10.7604632"><ele>418.0</ele><time>2026-04-03T09:18:44.872Z</time></trkpt><trkpt lat="43.2442392" lon="10.7604551"><ele>418.0</ele><time>2026-04-03T09:18:45.873Z</time></trkpt><trkpt lat="43.2441238" lon="10.7604099"><ele>418.0</ele><time>2026-04-03T09:18:46.872Z</time></trkpt><trkpt lat="43.2439937" lon="10.7603282"><ele>418.0</ele><time>2026-04-03T09:18:47.876Z</time></trkpt><trkpt lat="43.2438598" lon="10.7602267"><ele>418.0</ele><time>2026-04-03T09:18:48.874Z</time></trkpt><trkpt lat="43.2437362" lon="10.7601341"><ele>420.75</ele><time>2026-04-03T09:18:49.874Z</time></trkpt><trkpt lat="43.2436173" lon="10.7600573"><ele>423.5</ele><time>2026-04-03T09:18:50.873Z</time></trkpt><trkpt lat="43.2434814" lon="10.759994"><ele>426.25</ele><time>2026-04-03T09:18:51.873Z</time></trkpt><trkpt lat="43.2433359" lon="10.7599317"><ele>429.0</ele><time>2026-04-03T09:18:52.882Z</time></trkpt><trkpt lat="43.2432027" lon="10.7598517"><ele>431.2</ele><time>2026-04-03T09:18:53.882Z</time></trkpt><trkpt lat="43.2430812" lon="10.7597638"><ele>433.4</ele><time>2026-04-03T09:18:54.875Z</time></trkpt><trkpt lat="43.2429765" lon="10.7596807"><ele>435.6</ele><time>2026-04-03T09:18:55.879Z</time></trkpt><trkpt lat="43.2428868" lon="10.7596151"><ele>437.8</ele><time>2026-04-03T09:18:56.882Z</time></trkpt><trkpt lat="43.242802" lon="10.7595786"><ele>440.0</ele><time>2026-04-03T09:18:57.866Z</time></trkpt><trkpt lat="43.242716" lon="10.7595644"><ele>440.0</ele><time>2026-04-03T09:18:58.877Z</time></trkpt><trkpt lat="43.2426254" lon="10.7595731"><ele>440.0</ele><time>2026-04-03T09:18:59.874Z</time></trkpt><trkpt lat="43.2425326" lon="10.7595943"><ele>440.0</ele><time>2026-04-03T09:19:00.868Z</time></trkpt><trkpt lat="43.2424326" lon="10.7596599"><ele>440.0</ele><time>2026-04-03T09:19:01.875Z</time></trkpt><trkpt lat="43.2423442" lon="10.7597343"><ele>440.0</ele><time>2026-04-03T09:19:02.877Z</time></trkpt><trkpt lat="43.2422662" lon="10.7598197"><ele>439.4</ele><time>2026-04-03T09:19:03.874Z</time></trkpt><trkpt lat="43.2421837" lon="10.759936"><ele>438.8</ele><time>2026-04-03T09:19:04.875Z</time></trkpt><trkpt lat="43.2420967" lon="10.7600387"><ele>438.20000000000005</ele><time>2026-04-03T09:19:05.874Z</time></trkpt><trkpt lat="43.2420176" lon="10.7601218"><ele>437.6</ele><time>2026-04-03T09:19:06.885Z</time></trkpt><trkpt lat="43.2419228" lon="10.7601785"><ele>437.0</ele><time>2026-04-03T09:19:07.869Z</time></trkpt><trkpt lat="43.241827" lon="10.7602141"><ele>437.0</ele><time>2026-04-03T09:19:08.883Z</time></trkpt><trkpt lat="43.2417514" lon="10.7602358"><ele>437.00000000000006</ele><time>2026-04-03T09:19:09.867Z</time></trkpt><trkpt lat="43.2416863" lon="10.7602424"><ele>437.00000000000006</ele><time>2026-04-03T09:19:10.889Z</time></trkpt><trkpt lat="43.2416041" lon="10.7601252"><ele>437.0</ele><time>2026-04-03T09:19:12.875Z</time></trkpt><trkpt lat="43.24156" lon="10.7599963"><ele>437.0</ele><time>2026-04-03T09:19:13.873Z</time></trkpt><trkpt lat="43.2414982" lon="10.7598369"><ele>438.25</ele><time>2026-04-03T09:19:14.869Z</time></trkpt><trkpt lat="43.241444" lon="10.7596332"><ele>439.5</ele><time>2026-04-03T09:19:15.879Z</time></trkpt><trkpt lat="43.2413919" lon="10.7594425"><ele>440.75</ele><time>2026-04-03T09:19:16.877Z</time></trkpt><trkpt lat="43.2413508" lon="10.7592659"><ele>442.0</ele><time>2026-04-03T09:19:17.878Z</time></trkpt><trkpt lat="43.2413139" lon="10.7591356"><ele>442.0</ele><time>2026-04-03T09:19:18.873Z</time></trkpt><trkpt lat="43.2412867" lon="10.7590297"><ele>442.00000000000006</ele><time>2026-04-03T09:19:19.878Z</time></trkpt><trkpt lat="43.2412441" lon="10.7589637"><ele>442.00000000000006</ele><time>2026-04-03T09:19:20.887Z</time></trkpt><trkpt lat="43.2411541" lon="10.758953"><ele>442.0</ele><time>2026-04-03T09:19:22.889Z</time></trkpt><trkpt lat="43.2411191" lon="10.7590523"><ele>442.0</ele><time>2026-04-03T09:19:24.881Z</time></trkpt><trkpt lat="43.2411717" lon="10.7592285"><ele>442.0</ele><time>2026-04-03T09:19:26.879Z</time></trkpt><trkpt lat="43.2412075" lon="10.7593435"><ele>442.00000000000006</ele><time>2026-04-03T09:19:27.886Z</time></trkpt><trkpt lat="43.2412265" lon="10.7594693"><ele>442.00000000000006</ele><time>2026-04-03T09:19:28.878Z</time></trkpt><trkpt lat="43.2412242" lon="10.7595944"><ele>442.0</ele><time>2026-04-03T09:19:29.873Z</time></trkpt><trkpt lat="43.2412157" lon="10.7597263"><ele>442.0</ele><time>2026-04-03T09:19:30.875Z</time></trkpt><trkpt lat="43.2411819" lon="10.7598719"><ele>444.40000000000003</ele><time>2026-04-03T09:19:31.879Z</time></trkpt><trkpt lat="43.2411796" lon="10.7600225"><ele>446.80000000000007</ele><time>2026-04-03T09:19:32.875Z</time></trkpt><trkpt lat="43.2411746" lon="10.7601532"><ele>449.2</ele><time>2026-04-03T09:19:33.879Z</time></trkpt><trkpt lat="43.2411726" lon="10.7602829"><ele>451.6</ele><time>2026-04-03T09:19:34.885Z</time></trkpt><trkpt lat="43.2411802" lon="10.7604156"><ele>454.0</ele><time>2026-04-03T09:19:35.875Z</time></trkpt><trkpt lat="43.2411968" lon="10.7605552"><ele>456.79999999999995</ele><time>2026-04-03T09:19:36.876Z</time></trkpt><trkpt lat="43.2412274" lon="10.760689"><ele>459.59999999999997</ele><time>2026-04-03T09:19:37.878Z</time></trkpt><trkpt lat="43.2412776" lon="10.7608216"><ele>462.4</ele><time>2026-04-03T09:19:38.879Z</time></trkpt><trkpt lat="43.2413463" lon="10.7609613"><ele>465.2</ele><time>2026-04-03T09:19:39.88Z</time></trkpt><trkpt lat="43.2414101" lon="10.7610844"><ele>468.0</ele><time>2026-04-03T09:19:40.879Z</time></trkpt><trkpt lat="43.2414643" lon="10.7611796"><ele>468.3333333333333</ele><time>2026-04-03T09:19:41.876Z</time></trkpt><trkpt lat="43.2415034" lon="10.7612599"><ele>468.66666666666663</ele><time>2026-04-03T09:19:42.873Z</time></trkpt><trkpt lat="43.241518" lon="10.761344"><ele>469.0</ele><time>2026-04-03T09:19:43.877Z</time></trkpt><trkpt lat="43.2414791" lon="10.7614891"><ele>469.3333333333333</ele><time>2026-04-03T09:19:45.876Z</time></trkpt><trkpt lat="43.2414157" lon="10.7615354"><ele>469.66666666666663</ele><time>2026-04-03T09:19:46.878Z</time></trkpt><trkpt lat="43.2413301" lon="10.7616422"><ele>470.0</ele><time>2026-04-03T09:19:47.874Z</time></trkpt><trkpt lat="43.2412645" lon="10.7617744"><ele>469.0</ele><time>2026-04-03T09:19:48.869Z</time></trkpt><trkpt lat="43.2412078" lon="10.7618944"><ele>468.0</ele><time>2026-04-03T09:19:49.872Z</time></trkpt><trkpt lat="43.2411716" lon="10.7620275"><ele>467.0</ele><time>2026-04-03T09:19:50.878Z</time></trkpt><trkpt lat="43.2411432" lon="10.7621664"><ele>466.0</ele><time>2026-04-03T09:19:51.884Z</time></trkpt><trkpt lat="43.2411459" lon="10.7623169"><ele>465.0</ele><time>2026-04-03T09:19:52.882Z</time></trkpt><trkpt lat="43.2411463" lon="10.7624542"><ele>465.0</ele><time>2026-04-03T09:19:53.89Z</time></trkpt><trkpt lat="43.2411295" lon="10.7625579"><ele>465.0</ele><time>2026-04-03T09:19:54.877Z</time></trkpt><trkpt lat="43.2410942" lon="10.762649"><ele>465.0</ele><time>2026-04-03T09:19:55.885Z</time></trkpt><trkpt lat="43.2410372" lon="10.7627498"><ele>465.0</ele><time>2026-04-03T09:19:56.885Z</time></trkpt><trkpt lat="43.2409644" lon="10.7628573"><ele>465.0</ele><time>2026-04-03T09:19:57.878Z</time></trkpt><trkpt lat="43.240886" lon="10.7629811"><ele>465.8</ele><time>2026-04-03T09:19:58.878Z</time></trkpt><trkpt lat="43.2408276" lon="10.763083"><ele>466.6</ele><time>2026-04-03T09:19:59.885Z</time></trkpt><trkpt lat="43.2407523" lon="10.7631533"><ele>467.4</ele><time>2026-04-03T09:20:00.884Z</time></trkpt><trkpt lat="43.2406851" lon="10.7632211"><ele>468.2</ele><time>2026-04-03T09:20:01.879Z</time></trkpt><trkpt lat="43.2405794" lon="10.7632703"><ele>469.0</ele><time>2026-04-03T09:20:02.878Z</time></trkpt><trkpt lat="43.2404852" lon="10.7633423"><ele>469.0</ele><time>2026-04-03T09:20:03.871Z</time></trkpt><trkpt lat="43.2403995" lon="10.7634011"><ele>469.0</ele><time>2026-04-03T09:20:04.889Z</time></trkpt><trkpt lat="43.2403161" lon="10.7634496"><ele>469.0</ele><time>2026-04-03T09:20:05.885Z</time></trkpt><trkpt lat="43.2402383" lon="10.76349"><ele>469.0</ele><time>2026-04-03T09:20:06.885Z</time></trkpt><trkpt lat="43.2401796" lon="10.7635338"><ele>469.0</ele><time>2026-04-03T09:20:07.879Z</time></trkpt><trkpt lat="43.2401139" lon="10.7636615"><ele>469.79999999999995</ele><time>2026-04-03T09:20:09.87Z</time></trkpt><trkpt lat="43.2401519" lon="10.7637999"><ele>470.59999999999997</ele><time>2026-04-03T09:20:11.885Z</time></trkpt><trkpt lat="43.2402163" lon="10.7638551"><ele>471.4</ele><time>2026-04-03T09:20:12.885Z</time></trkpt><trkpt lat="43.2403048" lon="10.7639165"><ele>472.2</ele><time>2026-04-03T09:20:13.878Z</time></trkpt><trkpt lat="43.2403926" lon="10.7639655"><ele>473.0</ele><time>2026-04-03T09:20:14.878Z</time></trkpt><trkpt lat="43.2404705" lon="10.7640277"><ele>473.0</ele><time>2026-04-03T09:20:15.882Z</time></trkpt><trkpt lat="43.2405432" lon="10.7640942"><ele>472.99999999999994</ele><time>2026-04-03T09:20:16.89Z</time></trkpt><trkpt lat="43.2405973" lon="10.7642027"><ele>472.99999999999994</ele><time>2026-04-03T09:20:17.877Z</time></trkpt><trkpt lat="43.240655" lon="10.7643383"><ele>473.0</ele><time>2026-04-03T09:20:18.877Z</time></trkpt><trkpt lat="43.2407148" lon="10.7644813"><ele>473.0</ele><time>2026-04-03T09:20:19.877Z</time></trkpt><trkpt lat="43.2407792" lon="10.7646107"><ele>471.0</ele><time>2026-04-03T09:20:20.874Z</time></trkpt><trkpt lat="43.2408331" lon="10.7647514"><ele>469.0</ele><time>2026-04-03T09:20:21.88Z</time></trkpt><trkpt lat="43.2408717" lon="10.764899"><ele>467.0</ele><time>2026-04-03T09:20:22.878Z</time></trkpt><trkpt lat="43.2408942" lon="10.7650507"><ele>465.0</ele><time>2026-04-03T09:20:23.884Z</time></trkpt><trkpt lat="43.2409087" lon="10.7652146"><ele>465.0</ele><time>2026-04-03T09:20:24.884Z</time></trkpt><trkpt lat="43.2409224" lon="10.7653947"><ele>465.0</ele><time>2026-04-03T09:20:25.885Z</time></trkpt><trkpt lat="43.2409546" lon="10.7655519"><ele>465.0</ele><time>2026-04-03T09:20:26.871Z</time></trkpt><trkpt lat="43.2409841" lon="10.7656892"><ele>465.0</ele><time>2026-04-03T09:20:27.874Z</time></trkpt><trkpt lat="43.2409964" lon="10.7658076"><ele>465.0</ele><time>2026-04-03T09:20:28.888Z</time></trkpt><trkpt lat="43.2409845" lon="10.7659251"><ele>464.0</ele><time>2026-04-03T09:20:29.877Z</time></trkpt><trkpt lat="43.2409637" lon="10.7660631"><ele>463.0</ele><time>2026-04-03T09:20:30.887Z</time></trkpt><trkpt lat="43.240939" lon="10.7662096"><ele>462.0</ele><time>2026-04-03T09:20:31.884Z</time></trkpt><trkpt lat="43.2408975" lon="10.7663762"><ele>461.0</ele><time>2026-04-03T09:20:32.881Z</time></trkpt><trkpt lat="43.2408563" lon="10.7665376"><ele>461.0</ele><time>2026-04-03T09:20:33.875Z</time></trkpt><trkpt lat="43.2408208" lon="10.7667138"><ele>461.0</ele><time>2026-04-03T09:20:34.888Z</time></trkpt><trkpt lat="43.2407979" lon="10.7669089"><ele>461.0</ele><time>2026-04-03T09:20:35.878Z</time></trkpt><trkpt lat="43.2407752" lon="10.767125"><ele>461.0</ele><time>2026-04-03T09:20:36.868Z</time></trkpt><trkpt lat="43.2407444" lon="10.76735"><ele>461.25</ele><time>2026-04-03T09:20:37.877Z</time></trkpt><trkpt lat="43.2407159" lon="10.7675628"><ele>461.5</ele><time>2026-04-03T09:20:38.874Z</time></trkpt><trkpt lat="43.2406913" lon="10.7677536"><ele>461.75</ele><time>2026-04-03T09:20:39.89Z</time></trkpt><trkpt lat="43.2406856" lon="10.7679321"><ele>462.0</ele><time>2026-04-03T09:20:40.874Z</time></trkpt><trkpt lat="43.2406765" lon="10.7680884"><ele>462.0</ele><time>2026-04-03T09:20:41.885Z</time></trkpt><trkpt lat="43.2406727" lon="10.7682069"><ele>462.0</ele><time>2026-04-03T09:20:42.879Z</time></trkpt><trkpt lat="43.2406531" lon="10.7682961"><ele>462.0</ele><time>2026-04-03T09:20:43.879Z</time></trkpt><trkpt lat="43.2405875" lon="10.7683799"><ele>462.0</ele><time>2026-04-03T09:20:45.888Z</time></trkpt><trkpt lat="43.2405142" lon="10.7683837"><ele>462.0</ele><time>2026-04-03T09:20:49.885Z</time></trkpt><trkpt lat="43.2404151" lon="10.7683265"><ele>462.0</ele><time>2026-04-03T09:20:51.877Z</time></trkpt><trkpt lat="43.2403472" lon="10.7682774"><ele>461.20000000000005</ele><time>2026-04-03T09:20:52.877Z</time></trkpt><trkpt lat="43.2402652" lon="10.7682242"><ele>460.40000000000003</ele><time>2026-04-03T09:20:53.878Z</time></trkpt><trkpt lat="43.2401691" lon="10.7681738"><ele>459.59999999999997</ele><time>2026-04-03T09:20:54.873Z</time></trkpt><trkpt lat="43.2400679" lon="10.7681357"><ele>458.79999999999995</ele><time>2026-04-03T09:20:55.89Z</time></trkpt><trkpt lat="43.2399663" lon="10.768124"><ele>458.0</ele><time>2026-04-03T09:20:56.879Z</time></trkpt><trkpt lat="43.2398585" lon="10.7681064"><ele>457.3333333333333</ele><time>2026-04-03T09:20:57.889Z</time></trkpt><trkpt lat="43.2397668" lon="10.7681248"><ele>456.66666666666663</ele><time>2026-04-03T09:20:58.894Z</time></trkpt><trkpt lat="43.2396847" lon="10.768136"><ele>456.0</ele><time>2026-04-03T09:20:59.883Z</time></trkpt><trkpt lat="43.2396107" lon="10.7681361"><ele>455.33333333333337</ele><time>2026-04-03T09:21:00.879Z</time></trkpt><trkpt lat="43.239534" lon="10.7681165"><ele>454.6666666666667</ele><time>2026-04-03T09:21:01.885Z</time></trkpt><trkpt lat="43.2394404" lon="10.7680722"><ele>454.0</ele><time>2026-04-03T09:21:02.888Z</time></trkpt><trkpt lat="43.2393362" lon="10.7680359"><ele>454.0</ele><time>2026-04-03T09:21:03.877Z</time></trkpt><trkpt lat="43.2392332" lon="10.7680261"><ele>454.0</ele><time>2026-04-03T09:21:04.886Z</time></trkpt><trkpt lat="43.2391315" lon="10.7680308"><ele>454.0</ele><time>2026-04-03T09:21:05.89Z</time></trkpt><trkpt lat="43.239023" lon="10.7680348"><ele>454.0</ele><time>2026-04-03T09:21:06.88Z</time></trkpt><trkpt lat="43.238912" lon="10.768037"><ele>454.0</ele><time>2026-04-03T09:21:07.895Z</time></trkpt><trkpt lat="43.2387889" lon="10.7680405"><ele>453.0</ele><time>2026-04-03T09:21:08.88Z</time></trkpt><trkpt lat="43.2386586" lon="10.7680452"><ele>452.0</ele><time>2026-04-03T09:21:09.876Z</time></trkpt><trkpt lat="43.238535" lon="10.7680526"><ele>451.0</ele><time>2026-04-03T09:21:10.895Z</time></trkpt><trkpt lat="43.2384178" lon="10.768058"><ele>450.0</ele><time>2026-04-03T09:21:11.891Z</time></trkpt><trkpt lat="43.2383039" lon="10.7680647"><ele>450.0</ele><time>2026-04-03T09:21:12.875Z</time></trkpt><trkpt lat="43.2381955" lon="10.7680681"><ele>450.0</ele><time>2026-04-03T09:21:13.899Z</time></trkpt><trkpt lat="43.2381003" lon="10.7680714"><ele>450.0</ele><time>2026-04-03T09:21:14.889Z</time></trkpt><trkpt lat="43.2380221" lon="10.7680816"><ele>450.0</ele><time>2026-04-03T09:21:15.889Z</time></trkpt><trkpt lat="43.237956" lon="10.7681126"><ele>450.0</ele><time>2026-04-03T09:21:16.875Z</time></trkpt><trkpt lat="43.2378953" lon="10.768171"><ele>450.0</ele><time>2026-04-03T09:21:17.888Z</time></trkpt><trkpt lat="43.2378476" lon="10.7682445"><ele>449.2</ele><time>2026-04-03T09:21:18.889Z</time></trkpt><trkpt lat="43.2378123" lon="10.7683406"><ele>448.4</ele><time>2026-04-03T09:21:19.875Z</time></trkpt><trkpt lat="43.2377884" lon="10.768469"><ele>447.6</ele><time>2026-04-03T09:21:20.9Z</time></trkpt><trkpt lat="43.2377752" lon="10.7686268"><ele>446.8</ele><time>2026-04-03T09:21:21.891Z</time></trkpt><trkpt lat="43.2377628" lon="10.7688198"><ele>446.0</ele><time>2026-04-03T09:21:22.876Z</time></trkpt><trkpt lat="43.2377557" lon="10.7690034"><ele>445.8</ele><time>2026-04-03T09:21:23.878Z</time></trkpt><trkpt lat="43.2377449" lon="10.7691718"><ele>445.6</ele><time>2026-04-03T09:21:24.879Z</time></trkpt><trkpt lat="43.2377365" lon="10.7693171"><ele>445.4</ele><time>2026-04-03T09:21:25.877Z</time></trkpt><trkpt lat="43.2377203" lon="10.7694376"><ele>445.2</ele><time>2026-04-03T09:21:26.877Z</time></trkpt><trkpt lat="43.2376816" lon="10.7695469"><ele>445.0</ele><time>2026-04-03T09:21:27.878Z</time></trkpt><trkpt lat="43.2376202" lon="10.7696416"><ele>444.5</ele><time>2026-04-03T09:21:28.888Z</time></trkpt><trkpt lat="43.2375371" lon="10.7697164"><ele>444.0</ele><time>2026-04-03T09:21:29.883Z</time></trkpt><trkpt lat="43.2374256" lon="10.7697879"><ele>443.5</ele><time>2026-04-03T09:21:30.887Z</time></trkpt><trkpt lat="43.2373158" lon="10.7698493"><ele>443.0</ele><time>2026-04-03T09:21:31.892Z</time></trkpt><trkpt lat="43.2372147" lon="10.769913"><ele>443.4</ele><time>2026-04-03T09:21:32.889Z</time></trkpt><trkpt lat="43.2371257" lon="10.7699792"><ele>443.79999999999995</ele><time>2026-04-03T09:21:33.871Z</time></trkpt><trkpt lat="43.2370464" lon="10.7700529"><ele>444.2</ele><time>2026-04-03T09:21:34.876Z</time></trkpt><trkpt lat="43.2369818" lon="10.7701441"><ele>444.6</ele><time>2026-04-03T09:21:35.878Z</time></trkpt><trkpt lat="43.2369384" lon="10.7702614"><ele>445.0</ele><time>2026-04-03T09:21:36.878Z</time></trkpt><trkpt lat="43.2369185" lon="10.7703847"><ele>445.00000000000006</ele><time>2026-04-03T09:21:37.877Z</time></trkpt><trkpt lat="43.2369138" lon="10.7705063"><ele>445.0</ele><time>2026-04-03T09:21:38.876Z</time></trkpt><trkpt lat="43.2369202" lon="10.770614"><ele>445.0</ele><time>2026-04-03T09:21:39.878Z</time></trkpt><trkpt lat="43.2369494" lon="10.7707051"><ele>445.0</ele><time>2026-04-03T09:21:40.877Z</time></trkpt><trkpt lat="43.2370016" lon="10.7707796"><ele>445.00000000000006</ele><time>2026-04-03T09:21:41.871Z</time></trkpt><trkpt lat="43.2370767" lon="10.7708452"><ele>445.0</ele><time>2026-04-03T09:21:42.876Z</time></trkpt><trkpt lat="43.2371533" lon="10.7709126"><ele>445.0</ele><time>2026-04-03T09:21:43.887Z</time></trkpt><trkpt lat="43.2372026" lon="10.7709963"><ele>445.0</ele><time>2026-04-03T09:21:44.877Z</time></trkpt><trkpt lat="43.2372369" lon="10.771086"><ele>445.0</ele><time>2026-04-03T09:21:45.876Z</time></trkpt><trkpt lat="43.2372307" lon="10.7712055"><ele>445.0</ele><time>2026-04-03T09:21:46.879Z</time></trkpt><trkpt lat="43.2372236" lon="10.7713596"><ele>445.0</ele><time>2026-04-03T09:21:47.873Z</time></trkpt><trkpt lat="43.2372046" lon="10.7715324"><ele>447.1666666666667</ele><time>2026-04-03T09:21:48.881Z</time></trkpt><trkpt lat="43.2371884" lon="10.7716638"><ele>449.33333333333337</ele><time>2026-04-03T09:21:49.878Z</time></trkpt><trkpt lat="43.2371549" lon="10.7717515"><ele>451.5</ele><time>2026-04-03T09:21:50.875Z</time></trkpt><trkpt lat="43.2371" lon="10.771798"><ele>453.66666666666663</ele><time>2026-04-03T09:21:51.875Z</time></trkpt><trkpt lat="43.2370306" lon="10.7718175"><ele>455.8333333333333</ele><time>2026-04-03T09:21:52.877Z</time></trkpt><trkpt lat="43.2369423" lon="10.7718275"><ele>458.0</ele><time>2026-04-03T09:21:53.877Z</time></trkpt><trkpt lat="43.2368294" lon="10.7718163"><ele>458.0</ele><time>2026-04-03T09:21:54.868Z</time></trkpt><trkpt lat="43.2367042" lon="10.7718006"><ele>457.99999999999994</ele><time>2026-04-03T09:21:55.881Z</time></trkpt><trkpt lat="43.2365829" lon="10.7718067"><ele>457.99999999999994</ele><time>2026-04-03T09:21:56.878Z</time></trkpt><trkpt lat="43.2364755" lon="10.7718306"><ele>458.0</ele><time>2026-04-03T09:21:57.875Z</time></trkpt><trkpt lat="43.2363878" lon="10.7718691"><ele>458.0</ele><time>2026-04-03T09:21:58.875Z</time></trkpt><trkpt lat="43.2363088" lon="10.7719285"><ele>458.25</ele><time>2026-04-03T09:21:59.874Z</time></trkpt><trkpt lat="43.2362353" lon="10.7720206"><ele>458.5</ele><time>2026-04-03T09:22:00.88Z</time></trkpt><trkpt lat="43.2361673" lon="10.7721482"><ele>458.75</ele><time>2026-04-03T09:22:01.879Z</time></trkpt><trkpt lat="43.2361017" lon="10.7723193"><ele>459.0</ele><time>2026-04-03T09:22:02.879Z</time></trkpt><trkpt lat="43.2360301" lon="10.7725269"><ele>461.66666666666663</ele><time>2026-04-03T09:22:03.876Z</time></trkpt><trkpt lat="43.2359561" lon="10.7727412"><ele>464.3333333333333</ele><time>2026-04-03T09:22:04.879Z</time></trkpt><trkpt lat="43.2358856" lon="10.7729558"><ele>467.0</ele><time>2026-04-03T09:22:05.882Z</time></trkpt><trkpt lat="43.2358145" lon="10.7731925"><ele>467.0</ele><time>2026-04-03T09:22:06.896Z</time></trkpt><trkpt lat="43.235738" lon="10.7734519"><ele>467.0</ele><time>2026-04-03T09:22:07.874Z</time></trkpt><trkpt lat="43.2356569" lon="10.7737286"><ele>467.0</ele><time>2026-04-03T09:22:08.881Z</time></trkpt><trkpt lat="43.2355738" lon="10.7740052"><ele>465.3333333333333</ele><time>2026-04-03T09:22:09.884Z</time></trkpt><trkpt lat="43.2354908" lon="10.774271"><ele>463.66666666666663</ele><time>2026-04-03T09:22:10.886Z</time></trkpt><trkpt lat="43.2354108" lon="10.7745197"><ele>462.0</ele><time>2026-04-03T09:22:11.877Z</time></trkpt><trkpt lat="43.2353347" lon="10.7747598"><ele>462.0</ele><time>2026-04-03T09:22:12.878Z</time></trkpt><trkpt lat="43.2352603" lon="10.7749757"><ele>462.0</ele><time>2026-04-03T09:22:13.874Z</time></trkpt><trkpt lat="43.2351943" lon="10.775168"><ele>462.0</ele><time>2026-04-03T09:22:14.875Z</time></trkpt><trkpt lat="43.2351313" lon="10.7753604"><ele>462.75</ele><time>2026-04-03T09:22:15.87Z</time></trkpt><trkpt lat="43.2350706" lon="10.7755459"><ele>463.5</ele><time>2026-04-03T09:22:16.869Z</time></trkpt><trkpt lat="43.2350146" lon="10.7757161"><ele>464.25</ele><time>2026-04-03T09:22:17.878Z</time></trkpt><trkpt lat="43.2349569" lon="10.7758649"><ele>465.0</ele><time>2026-04-03T09:22:18.873Z</time></trkpt><trkpt lat="43.2348964" lon="10.7759947"><ele>464.2</ele><time>2026-04-03T09:22:19.886Z</time></trkpt><trkpt lat="43.2348264" lon="10.7760987"><ele>463.4</ele><time>2026-04-03T09:22:20.877Z</time></trkpt><trkpt lat="43.2347531" lon="10.776162"><ele>462.6</ele><time>2026-04-03T09:22:21.873Z</time></trkpt><trkpt lat="43.2346869" lon="10.7761843"><ele>461.8</ele><time>2026-04-03T09:22:22.882Z</time></trkpt><trkpt lat="43.2345689" lon="10.7761542"><ele>461.0</ele><time>2026-04-03T09:22:24.878Z</time></trkpt><trkpt lat="43.2345138" lon="10.7760853"><ele>464.25</ele><time>2026-04-03T09:22:25.878Z</time></trkpt><trkpt lat="43.2344379" lon="10.7759964"><ele>467.5</ele><time>2026-04-03T09:22:26.882Z</time></trkpt><trkpt lat="43.2343417" lon="10.7758796"><ele>470.75</ele><time>2026-04-03T09:22:27.876Z</time></trkpt><trkpt lat="43.2342123" lon="10.7757516"><ele>474.0</ele><time>2026-04-03T09:22:28.882Z</time></trkpt><trkpt lat="43.2340892" lon="10.7756281"><ele>474.0</ele><time>2026-04-03T09:22:29.878Z</time></trkpt><trkpt lat="43.2339774" lon="10.775521"><ele>474.0</ele><time>2026-04-03T09:22:30.877Z</time></trkpt><trkpt lat="43.2338729" lon="10.7754307"><ele>474.0</ele><time>2026-04-03T09:22:31.877Z</time></trkpt><trkpt lat="43.2337667" lon="10.7753464"><ele>474.0</ele><time>2026-04-03T09:22:32.88Z</time></trkpt><trkpt lat="43.2336543" lon="10.7752682"><ele>474.5</ele><time>2026-04-03T09:22:33.878Z</time></trkpt><trkpt lat="43.2335385" lon="10.7752157"><ele>475.0</ele><time>2026-04-03T09:22:34.874Z</time></trkpt><trkpt lat="43.2334082" lon="10.7751919"><ele>475.5</ele><time>2026-04-03T09:22:35.876Z</time></trkpt><trkpt lat="43.2332564" lon="10.7751798"><ele>476.0</ele><time>2026-04-03T09:22:36.871Z</time></trkpt><trkpt lat="43.2331073" lon="10.7751712"><ele>476.0</ele><time>2026-04-03T09:22:37.876Z</time></trkpt><trkpt lat="43.2329698" lon="10.775161"><ele>476.0</ele><time>2026-04-03T09:22:38.876Z</time></trkpt><trkpt lat="43.2328412" lon="10.7751545"><ele>476.0</ele><time>2026-04-03T09:22:39.874Z</time></trkpt><trkpt lat="43.2327191" lon="10.7751366"><ele>476.0</ele><time>2026-04-03T09:22:40.884Z</time></trkpt><trkpt lat="43.2325943" lon="10.7751018"><ele>476.0</ele><time>2026-04-03T09:22:41.88Z</time></trkpt><trkpt lat="43.2324631" lon="10.7750453"><ele>476.0</ele><time>2026-04-03T09:22:42.886Z</time></trkpt><trkpt lat="43.2323348" lon="10.7749802"><ele>476.0</ele><time>2026-04-03T09:22:43.891Z</time></trkpt><trkpt lat="43.2322085" lon="10.7748997"><ele>476.0</ele><time>2026-04-03T09:22:44.88Z</time></trkpt><trkpt lat="43.2321007" lon="10.77481"><ele>474.75</ele><time>2026-04-03T09:22:45.881Z</time></trkpt><trkpt lat="43.2319927" lon="10.7747137"><ele>473.5</ele><time>2026-04-03T09:22:46.881Z</time></trkpt><trkpt lat="43.2318811" lon="10.7746022"><ele>472.25</ele><time>2026-04-03T09:22:47.885Z</time></trkpt><trkpt lat="43.2317767" lon="10.7744833"><ele>471.0</ele><time>2026-04-03T09:22:48.882Z</time></trkpt><trkpt lat="43.2316738" lon="10.7743746"><ele>472.25</ele><time>2026-04-03T09:22:49.879Z</time></trkpt><trkpt lat="43.2315783" lon="10.7742391"><ele>473.5</ele><time>2026-04-03T09:22:50.879Z</time></trkpt><trkpt lat="43.2314957" lon="10.7741032"><ele>474.75</ele><time>2026-04-03T09:22:51.878Z</time></trkpt><trkpt lat="43.231411" lon="10.7739608"><ele>476.0</ele><time>2026-04-03T09:22:52.887Z</time></trkpt><trkpt lat="43.2313231" lon="10.7738178"><ele>475.25</ele><time>2026-04-03T09:22:53.875Z</time></trkpt><trkpt lat="43.2312259" lon="10.7736873"><ele>474.5</ele><time>2026-04-03T09:22:54.871Z</time></trkpt><trkpt lat="43.2311168" lon="10.7735729"><ele>473.75</ele><time>2026-04-03T09:22:55.877Z</time></trkpt><trkpt lat="43.2309909" lon="10.7734707"><ele>473.0</ele><time>2026-04-03T09:22:56.882Z</time></trkpt><trkpt lat="43.2308498" lon="10.773376"><ele>473.0</ele><time>2026-04-03T09:22:57.88Z</time></trkpt><trkpt lat="43.2307048" lon="10.7732902"><ele>473.0</ele><time>2026-04-03T09:22:58.871Z</time></trkpt><trkpt lat="43.2305724" lon="10.7732083"><ele>473.0</ele><time>2026-04-03T09:22:59.88Z</time></trkpt><trkpt lat="43.2304574" lon="10.7731498"><ele>473.0</ele><time>2026-04-03T09:23:00.877Z</time></trkpt><trkpt lat="43.230347" lon="10.7731127"><ele>471.25</ele><time>2026-04-03T09:23:01.873Z</time></trkpt><trkpt lat="43.2302178" lon="10.7730953"><ele>469.5</ele><time>2026-04-03T09:23:02.874Z</time></trkpt><trkpt lat="43.2300661" lon="10.7730899"><ele>467.75</ele><time>2026-04-03T09:23:03.878Z</time></trkpt><trkpt lat="43.2299086" lon="10.7730871"><ele>466.0</ele><time>2026-04-03T09:23:04.874Z</time></trkpt><trkpt lat="43.2297545" lon="10.773086"><ele>466.0</ele><time>2026-04-03T09:23:05.874Z</time></trkpt><trkpt lat="43.2295956" lon="10.7730893"><ele>466.0</ele><time>2026-04-03T09:23:06.884Z</time></trkpt><trkpt lat="43.2294327" lon="10.7730934"><ele>466.0</ele><time>2026-04-03T09:23:07.878Z</time></trkpt><trkpt lat="43.2292772" lon="10.7730959"><ele>466.0</ele><time>2026-04-03T09:23:08.879Z</time></trkpt><trkpt lat="43.2291347" lon="10.7730938"><ele>466.0</ele><time>2026-04-03T09:23:09.876Z</time></trkpt><trkpt lat="43.2290134" lon="10.7730956"><ele>466.0</ele><time>2026-04-03T09:23:10.879Z</time></trkpt><trkpt lat="43.2289072" lon="10.773102"><ele>466.0</ele><time>2026-04-03T09:23:11.881Z</time></trkpt><trkpt lat="43.2288158" lon="10.7731025"><ele>467.20000000000005</ele><time>2026-04-03T09:23:12.87Z</time></trkpt><trkpt lat="43.2287514" lon="10.773139"><ele>468.40000000000003</ele><time>2026-04-03T09:23:13.884Z</time></trkpt><trkpt lat="43.2286821" lon="10.7732196"><ele>469.6</ele><time>2026-04-03T09:23:14.877Z</time></trkpt><trkpt lat="43.2286308" lon="10.7733281"><ele>470.8</ele><time>2026-04-03T09:23:15.884Z</time></trkpt><trkpt lat="43.2285965" lon="10.7734599"><ele>472.0</ele><time>2026-04-03T09:23:16.877Z</time></trkpt><trkpt lat="43.2285729" lon="10.7736394"><ele>472.25</ele><time>2026-04-03T09:23:17.876Z</time></trkpt><trkpt lat="43.2285374" lon="10.77383"><ele>472.5</ele><time>2026-04-03T09:23:18.881Z</time></trkpt><trkpt lat="43.2284963" lon="10.7740094"><ele>472.75</ele><time>2026-04-03T09:23:19.875Z</time></trkpt><trkpt lat="43.2284477" lon="10.774162"><ele>473.0</ele><time>2026-04-03T09:23:20.87Z</time></trkpt><trkpt lat="43.2283905" lon="10.7742899"><ele>472.0</ele><time>2026-04-03T09:23:21.873Z</time></trkpt><trkpt lat="43.2283088" lon="10.7744085"><ele>471.0</ele><time>2026-04-03T09:23:22.866Z</time></trkpt><trkpt lat="43.2282252" lon="10.7745222"><ele>470.0</ele><time>2026-04-03T09:23:23.88Z</time></trkpt><trkpt lat="43.2281112" lon="10.7746264"><ele>469.0</ele><time>2026-04-03T09:23:24.879Z</time></trkpt><trkpt lat="43.2279785" lon="10.7747298"><ele>469.0</ele><time>2026-04-03T09:23:25.871Z</time></trkpt><trkpt lat="43.2278524" lon="10.7748143"><ele>469.0</ele><time>2026-04-03T09:23:26.874Z</time></trkpt><trkpt lat="43.2277407" lon="10.7748864"><ele>469.0</ele><time>2026-04-03T09:23:27.872Z</time></trkpt><trkpt lat="43.2276429" lon="10.7749254"><ele>469.0</ele><time>2026-04-03T09:23:28.871Z</time></trkpt><trkpt lat="43.2275451" lon="10.7749346"><ele>469.00000000000006</ele><time>2026-04-03T09:23:29.885Z</time></trkpt><trkpt lat="43.2274671" lon="10.7749925"><ele>469.0</ele><time>2026-04-03T09:23:30.878Z</time></trkpt><trkpt lat="43.2274087" lon="10.7750478"><ele>469.0</ele><time>2026-04-03T09:23:31.874Z</time></trkpt><trkpt lat="43.227361" lon="10.7751409"><ele>469.0</ele><time>2026-04-03T09:23:32.873Z</time></trkpt><trkpt lat="43.2273398" lon="10.7752717"><ele>469.00000000000006</ele><time>2026-04-03T09:23:33.878Z</time></trkpt><trkpt lat="43.2273155" lon="10.7754079"><ele>469.0</ele><time>2026-04-03T09:23:34.871Z</time></trkpt><trkpt lat="43.2272882" lon="10.7755453"><ele>468.75</ele><time>2026-04-03T09:23:35.884Z</time></trkpt><trkpt lat="43.2272277" lon="10.7756761"><ele>468.5</ele><time>2026-04-03T09:23:36.887Z</time></trkpt><trkpt lat="43.2271695" lon="10.7758079"><ele>468.25</ele><time>2026-04-03T09:23:37.882Z</time></trkpt><trkpt lat="43.2270895" lon="10.7759315"><ele>468.0</ele><time>2026-04-03T09:23:38.882Z</time></trkpt><trkpt lat="43.2270047" lon="10.7760463"><ele>465.5</ele><time>2026-04-03T09:23:39.874Z</time></trkpt><trkpt lat="43.2269022" lon="10.7761625"><ele>463.0</ele><time>2026-04-03T09:23:40.881Z</time></trkpt><trkpt lat="43.2268007" lon="10.7762639"><ele>460.5</ele><time>2026-04-03T09:23:41.883Z</time></trkpt><trkpt lat="43.2267019" lon="10.7763551"><ele>458.0</ele><time>2026-04-03T09:23:42.877Z</time></trkpt><trkpt lat="43.2266026" lon="10.7764796"><ele>458.0</ele><time>2026-04-03T09:23:43.875Z</time></trkpt><trkpt lat="43.2265158" lon="10.7766155"><ele>458.0</ele><time>2026-04-03T09:23:44.884Z</time></trkpt><trkpt lat="43.2264278" lon="10.7767407"><ele>458.0</ele><time>2026-04-03T09:23:45.877Z</time></trkpt><trkpt lat="43.2263683" lon="10.7768524"><ele>458.0</ele><time>2026-04-03T09:23:46.895Z</time></trkpt><trkpt lat="43.2263096" lon="10.7769636"><ele>456.0</ele><time>2026-04-03T09:23:47.884Z</time></trkpt><trkpt lat="43.2262416" lon="10.7770518"><ele>453.99999999999994</ele><time>2026-04-03T09:23:48.886Z</time></trkpt><trkpt lat="43.2261639" lon="10.7771171"><ele>451.99999999999994</ele><time>2026-04-03T09:23:49.89Z</time></trkpt><trkpt lat="43.2260932" lon="10.7771596"><ele>450.0</ele><time>2026-04-03T09:23:50.885Z</time></trkpt><trkpt lat="43.2260057" lon="10.7771437"><ele>448.0</ele><time>2026-04-03T09:23:51.873Z</time></trkpt><trkpt lat="43.2259091" lon="10.7770786"><ele>448.0</ele><time>2026-04-03T09:23:52.884Z</time></trkpt><trkpt lat="43.2258085" lon="10.7769988"><ele>447.99999999999994</ele><time>2026-04-03T09:23:53.878Z</time></trkpt><trkpt lat="43.2257189" lon="10.7769366"><ele>447.99999999999994</ele><time>2026-04-03T09:23:54.867Z</time></trkpt><trkpt lat="43.2256432" lon="10.7769058"><ele>448.0</ele><time>2026-04-03T09:23:55.88Z</time></trkpt><trkpt lat="43.2255599" lon="10.7769125"><ele>448.0</ele><time>2026-04-03T09:23:56.875Z</time></trkpt><trkpt lat="43.2254606" lon="10.7769487"><ele>447.75</ele><time>2026-04-03T09:23:57.876Z</time></trkpt><trkpt lat="43.2253451" lon="10.7770115"><ele>447.5</ele><time>2026-04-03T09:23:58.878Z</time></trkpt><trkpt lat="43.2252045" lon="10.7770885"><ele>447.25</ele><time>2026-04-03T09:23:59.885Z</time></trkpt><trkpt lat="43.2250549" lon="10.7771558"><ele>447.0</ele><time>2026-04-03T09:24:00.883Z</time></trkpt><trkpt lat="43.224905" lon="10.7772192"><ele>451.25</ele><time>2026-04-03T09:24:01.879Z</time></trkpt><trkpt lat="43.224774" lon="10.7772793"><ele>455.5</ele><time>2026-04-03T09:24:02.883Z</time></trkpt><trkpt lat="43.2246582" lon="10.7773341"><ele>459.75</ele><time>2026-04-03T09:24:03.883Z</time></trkpt><trkpt lat="43.2245583" lon="10.7773843"><ele>464.0</ele><time>2026-04-03T09:24:04.878Z</time></trkpt><trkpt lat="43.2244767" lon="10.7774294"><ele>464.0</ele><time>2026-04-03T09:24:05.877Z</time></trkpt><trkpt lat="43.2244083" lon="10.7774573"><ele>464.0</ele><time>2026-04-03T09:24:06.877Z</time></trkpt><trkpt lat="43.2243056" lon="10.7774305"><ele>464.0</ele><time>2026-04-03T09:24:08.87Z</time></trkpt><trkpt lat="43.2242826" lon="10.7773093"><ele>464.0</ele><time>2026-04-03T09:24:10.887Z</time></trkpt><trkpt lat="43.2243274" lon="10.7771435"><ele>464.0</ele><time>2026-04-03T09:24:12.88Z</time></trkpt><trkpt lat="43.2243687" lon="10.77704"><ele>464.0</ele><time>2026-04-03T09:24:13.875Z</time></trkpt><trkpt lat="43.2243461" lon="10.7769382"><ele>464.0</ele><time>2026-04-03T09:24:14.878Z</time></trkpt><trkpt lat="43.2242988" lon="10.7768598"><ele>464.0</ele><time>2026-04-03T09:24:15.875Z</time></trkpt><trkpt lat="43.2242288" lon="10.7768042"><ele>464.0</ele><time>2026-04-03T09:24:16.874Z</time></trkpt><trkpt lat="43.2241361" lon="10.7767679"><ele>464.0</ele><time>2026-04-03T09:24:17.878Z</time></trkpt><trkpt lat="43.2240158" lon="10.7767396"><ele>464.79999999999995</ele><time>2026-04-03T09:24:18.882Z</time></trkpt><trkpt lat="43.2239023" lon="10.7767201"><ele>465.59999999999997</ele><time>2026-04-03T09:24:19.875Z</time></trkpt><trkpt lat="43.2238064" lon="10.7767139"><ele>466.4</ele><time>2026-04-03T09:24:20.884Z</time></trkpt><trkpt lat="43.2237159" lon="10.776744"><ele>467.2</ele><time>2026-04-03T09:24:21.882Z</time></trkpt><trkpt lat="43.2236052" lon="10.7767934"><ele>468.0</ele><time>2026-04-03T09:24:22.887Z</time></trkpt><trkpt lat="43.2234835" lon="10.7769001"><ele>468.0</ele><time>2026-04-03T09:24:23.877Z</time></trkpt><trkpt lat="43.2233674" lon="10.7770024"><ele>468.0</ele><time>2026-04-03T09:24:24.876Z</time></trkpt><trkpt lat="43.22326" lon="10.7770885"><ele>468.0</ele><time>2026-04-03T09:24:25.867Z</time></trkpt><trkpt lat="43.2231491" lon="10.7771135"><ele>468.0</ele><time>2026-04-03T09:24:26.877Z</time></trkpt><trkpt lat="43.2230201" lon="10.7771287"><ele>466.0</ele><time>2026-04-03T09:24:27.874Z</time></trkpt><trkpt lat="43.222878" lon="10.7771395"><ele>464.0</ele><time>2026-04-03T09:24:28.886Z</time></trkpt><trkpt lat="43.2227404" lon="10.7771837"><ele>462.0</ele><time>2026-04-03T09:24:29.878Z</time></trkpt><trkpt lat="43.2225979" lon="10.7772441"><ele>460.0</ele><time>2026-04-03T09:24:30.88Z</time></trkpt><trkpt lat="43.2224599" lon="10.7773081"><ele>460.0</ele><time>2026-04-03T09:24:31.878Z</time></trkpt><trkpt lat="43.2223392" lon="10.77736"><ele>460.0</ele><time>2026-04-03T09:24:32.873Z</time></trkpt><trkpt lat="43.2222425" lon="10.7774038"><ele>460.0</ele><time>2026-04-03T09:24:33.884Z</time></trkpt><trkpt lat="43.2221677" lon="10.777458"><ele>460.0</ele><time>2026-04-03T09:24:34.879Z</time></trkpt><trkpt lat="43.2221123" lon="10.7775389"><ele>460.0</ele><time>2026-04-03T09:24:35.879Z</time></trkpt><trkpt lat="43.2220801" lon="10.7776448"><ele>457.0</ele><time>2026-04-03T09:24:36.884Z</time></trkpt><trkpt lat="43.2220578" lon="10.7777943"><ele>454.0</ele><time>2026-04-03T09:24:37.885Z</time></trkpt><trkpt lat="43.2220393" lon="10.77799"><ele>451.0</ele><time>2026-04-03T09:24:38.883Z</time></trkpt><trkpt lat="43.2220129" lon="10.7781997"><ele>448.0</ele><time>2026-04-03T09:24:39.889Z</time></trkpt><trkpt lat="43.2219835" lon="10.7783957"><ele>448.75</ele><time>2026-04-03T09:24:40.878Z</time></trkpt><trkpt lat="43.221938" lon="10.7785671"><ele>449.5</ele><time>2026-04-03T09:24:41.874Z</time></trkpt><trkpt lat="43.2218861" lon="10.7787278"><ele>450.25</ele><time>2026-04-03T09:24:42.88Z</time></trkpt><trkpt lat="43.2217835" lon="10.7788626"><ele>451.0</ele><time>2026-04-03T09:24:43.877Z</time></trkpt><trkpt lat="43.2216876" lon="10.7790304"><ele>451.0</ele><time>2026-04-03T09:24:44.88Z</time></trkpt><trkpt lat="43.2215934" lon="10.77922"><ele>451.0</ele><time>2026-04-03T09:24:45.879Z</time></trkpt><trkpt lat="43.221512" lon="10.7794097"><ele>451.0</ele><time>2026-04-03T09:24:46.878Z</time></trkpt><trkpt lat="43.2214354" lon="10.7795834"><ele>450.75</ele><time>2026-04-03T09:24:47.889Z</time></trkpt><trkpt lat="43.221361" lon="10.7797474"><ele>450.5</ele><time>2026-04-03T09:24:48.879Z</time></trkpt><trkpt lat="43.2212774" lon="10.779899"><ele>450.25</ele><time>2026-04-03T09:24:49.883Z</time></trkpt><trkpt lat="43.2211899" lon="10.7800545"><ele>450.0</ele><time>2026-04-03T09:24:50.884Z</time></trkpt><trkpt lat="43.221068" lon="10.7802102"><ele>450.0</ele><time>2026-04-03T09:24:51.882Z</time></trkpt><trkpt lat="43.2209573" lon="10.7803617"><ele>450.0</ele><time>2026-04-03T09:24:52.882Z</time></trkpt><trkpt lat="43.2208538" lon="10.7805084"><ele>450.0</ele><time>2026-04-03T09:24:53.883Z</time></trkpt><trkpt lat="43.2207602" lon="10.7806506"><ele>450.0</ele><time>2026-04-03T09:24:54.876Z</time></trkpt><trkpt lat="43.2206786" lon="10.7807904"><ele>449.8</ele><time>2026-04-03T09:24:55.881Z</time></trkpt><trkpt lat="43.220613" lon="10.7809238"><ele>449.6</ele><time>2026-04-03T09:24:56.874Z</time></trkpt><trkpt lat="43.2205665" lon="10.7810445"><ele>449.4</ele><time>2026-04-03T09:24:57.881Z</time></trkpt><trkpt lat="43.22054" lon="10.7811543"><ele>449.2</ele><time>2026-04-03T09:24:58.874Z</time></trkpt><trkpt lat="43.2205322" lon="10.7812688"><ele>449.0</ele><time>2026-04-03T09:24:59.872Z</time></trkpt><trkpt lat="43.2205475" lon="10.7813928"><ele>449.0</ele><time>2026-04-03T09:25:00.885Z</time></trkpt><trkpt lat="43.2205802" lon="10.7815389"><ele>449.0</ele><time>2026-04-03T09:25:01.88Z</time></trkpt><trkpt lat="43.2206187" lon="10.7817042"><ele>449.0</ele><time>2026-04-03T09:25:02.875Z</time></trkpt><trkpt lat="43.2206571" lon="10.7818566"><ele>449.0</ele><time>2026-04-03T09:25:03.876Z</time></trkpt><trkpt lat="43.2206873" lon="10.7819931"><ele>450.0</ele><time>2026-04-03T09:25:04.881Z</time></trkpt><trkpt lat="43.2206846" lon="10.7821146"><ele>451.0</ele><time>2026-04-03T09:25:05.876Z</time></trkpt><trkpt lat="43.2206705" lon="10.7822526"><ele>452.0</ele><time>2026-04-03T09:25:06.871Z</time></trkpt><trkpt lat="43.2206191" lon="10.7824129"><ele>453.0</ele><time>2026-04-03T09:25:07.878Z</time></trkpt><trkpt lat="43.2205593" lon="10.7826064"><ele>454.0</ele><time>2026-04-03T09:25:08.882Z</time></trkpt><trkpt lat="43.2204963" lon="10.7828153"><ele>455.0</ele><time>2026-04-03T09:25:09.879Z</time></trkpt><trkpt lat="43.2204536" lon="10.7830259"><ele>456.0</ele><time>2026-04-03T09:25:10.884Z</time></trkpt><trkpt lat="43.2204072" lon="10.7832314"><ele>456.0</ele><time>2026-04-03T09:25:11.877Z</time></trkpt><trkpt lat="43.2203636" lon="10.7834371"><ele>456.0</ele><time>2026-04-03T09:25:12.885Z</time></trkpt><trkpt lat="43.2203166" lon="10.7836376"><ele>456.0</ele><time>2026-04-03T09:25:13.877Z</time></trkpt><trkpt lat="43.2202707" lon="10.783819"><ele>455.75</ele><time>2026-04-03T09:25:14.884Z</time></trkpt><trkpt lat="43.2202317" lon="10.7839898"><ele>455.5</ele><time>2026-04-03T09:25:15.885Z</time></trkpt><trkpt lat="43.2202068" lon="10.7841598"><ele>455.25</ele><time>2026-04-03T09:25:16.877Z</time></trkpt><trkpt lat="43.2201858" lon="10.7843363"><ele>455.0</ele><time>2026-04-03T09:25:17.876Z</time></trkpt><trkpt lat="43.2201801" lon="10.7845148"><ele>455.0</ele><time>2026-04-03T09:25:18.881Z</time></trkpt><trkpt lat="43.2201889" lon="10.7847034"><ele>455.0</ele><time>2026-04-03T09:25:19.88Z</time></trkpt><trkpt lat="43.2201925" lon="10.7848865"><ele>455.0</ele><time>2026-04-03T09:25:20.887Z</time></trkpt><trkpt lat="43.2201926" lon="10.7850581"><ele>455.0</ele><time>2026-04-03T09:25:21.877Z</time></trkpt><trkpt lat="43.2201853" lon="10.7852144"><ele>456.0</ele><time>2026-04-03T09:25:22.877Z</time></trkpt><trkpt lat="43.2201627" lon="10.7853724"><ele>457.0</ele><time>2026-04-03T09:25:23.875Z</time></trkpt><trkpt lat="43.2201278" lon="10.7855411"><ele>458.0</ele><time>2026-04-03T09:25:24.881Z</time></trkpt><trkpt lat="43.2200793" lon="10.7857192"><ele>459.0</ele><time>2026-04-03T09:25:25.882Z</time></trkpt><trkpt lat="43.220012" lon="10.7859107"><ele>459.25</ele><time>2026-04-03T09:25:26.875Z</time></trkpt><trkpt lat="43.2199415" lon="10.7860808"><ele>459.5</ele><time>2026-04-03T09:25:27.877Z</time></trkpt><trkpt lat="43.219872" lon="10.7862347"><ele>459.75</ele><time>2026-04-03T09:25:28.883Z</time></trkpt><trkpt lat="43.2198145" lon="10.7863837"><ele>460.0</ele><time>2026-04-03T09:25:29.889Z</time></trkpt><trkpt lat="43.2197748" lon="10.7865537"><ele>460.0</ele><time>2026-04-03T09:25:30.883Z</time></trkpt><trkpt lat="43.2197353" lon="10.7867343"><ele>460.0</ele><time>2026-04-03T09:25:31.877Z</time></trkpt><trkpt lat="43.2196979" lon="10.7869127"><ele>460.0</ele><time>2026-04-03T09:25:32.878Z</time></trkpt><trkpt lat="43.2196465" lon="10.7870772"><ele>460.0</ele><time>2026-04-03T09:25:33.884Z</time></trkpt><trkpt lat="43.2195889" lon="10.7872446"><ele>460.5</ele><time>2026-04-03T09:25:34.879Z</time></trkpt><trkpt lat="43.2195301" lon="10.7873845"><ele>461.0</ele><time>2026-04-03T09:25:35.879Z</time></trkpt><trkpt lat="43.2194595" lon="10.7875061"><ele>461.5</ele><time>2026-04-03T09:25:36.881Z</time></trkpt><trkpt lat="43.21937" lon="10.7876312"><ele>462.0</ele><time>2026-04-03T09:25:37.876Z</time></trkpt><trkpt lat="43.219273" lon="10.7877704"><ele>462.0</ele><time>2026-04-03T09:25:38.879Z</time></trkpt><trkpt lat="43.2191825" lon="10.7879054"><ele>462.0</ele><time>2026-04-03T09:25:39.892Z</time></trkpt><trkpt lat="43.2191004" lon="10.7880385"><ele>462.0</ele><time>2026-04-03T09:25:40.886Z</time></trkpt><trkpt lat="43.2190259" lon="10.7881538"><ele>462.0</ele><time>2026-04-03T09:25:41.878Z</time></trkpt><trkpt lat="43.2189351" lon="10.7882744"><ele>462.5</ele><time>2026-04-03T09:25:42.887Z</time></trkpt><trkpt lat="43.2188295" lon="10.7883963"><ele>463.0</ele><time>2026-04-03T09:25:43.883Z</time></trkpt><trkpt lat="43.2187189" lon="10.7885123"><ele>463.5</ele><time>2026-04-03T09:25:44.879Z</time></trkpt><trkpt lat="43.2186059" lon="10.7886321"><ele>464.0</ele><time>2026-04-03T09:25:45.879Z</time></trkpt><trkpt lat="43.2185132" lon="10.7887576"><ele>464.0</ele><time>2026-04-03T09:25:46.885Z</time></trkpt><trkpt lat="43.2184344" lon="10.7888967"><ele>464.0</ele><time>2026-04-03T09:25:47.886Z</time></trkpt><trkpt lat="43.2183644" lon="10.7890485"><ele>464.0</ele><time>2026-04-03T09:25:48.886Z</time></trkpt><trkpt lat="43.2182974" lon="10.7891944"><ele>464.0</ele><time>2026-04-03T09:25:49.887Z</time></trkpt><trkpt lat="43.2182083" lon="10.789347"><ele>463.25</ele><time>2026-04-03T09:25:50.881Z</time></trkpt><trkpt lat="43.2180976" lon="10.7894979"><ele>462.5</ele><time>2026-04-03T09:25:51.88Z</time></trkpt><trkpt lat="43.2179954" lon="10.7896418"><ele>461.75</ele><time>2026-04-03T09:25:52.884Z</time></trkpt><trkpt lat="43.2179034" lon="10.7897749"><ele>461.0</ele><time>2026-04-03T09:25:53.889Z</time></trkpt><trkpt lat="43.217825" lon="10.7898809"><ele>461.0</ele><time>2026-04-03T09:25:54.881Z</time></trkpt><trkpt lat="43.2177552" lon="10.7899592"><ele>461.0</ele><time>2026-04-03T09:25:55.894Z</time></trkpt><trkpt lat="43.2176786" lon="10.79001"><ele>461.0</ele><time>2026-04-03T09:25:56.879Z</time></trkpt><trkpt lat="43.2175867" lon="10.7900321"><ele>461.0</ele><time>2026-04-03T09:25:57.878Z</time></trkpt><trkpt lat="43.2174945" lon="10.7900406"><ele>461.0</ele><time>2026-04-03T09:25:58.876Z</time></trkpt><trkpt lat="43.2174051" lon="10.7900492"><ele>459.4</ele><time>2026-04-03T09:25:59.881Z</time></trkpt><trkpt lat="43.2173188" lon="10.7900736"><ele>457.8</ele><time>2026-04-03T09:26:00.881Z</time></trkpt><trkpt lat="43.2172357" lon="10.7901214"><ele>456.19999999999993</ele><time>2026-04-03T09:26:01.883Z</time></trkpt><trkpt lat="43.2171547" lon="10.7901979"><ele>454.59999999999997</ele><time>2026-04-03T09:26:02.878Z</time></trkpt><trkpt lat="43.2170734" lon="10.7903087"><ele>453.0</ele><time>2026-04-03T09:26:03.887Z</time></trkpt><trkpt lat="43.2169946" lon="10.7904505"><ele>453.0</ele><time>2026-04-03T09:26:04.872Z</time></trkpt><trkpt lat="43.2169178" lon="10.7905857"><ele>453.0</ele><time>2026-04-03T09:26:05.877Z</time></trkpt><trkpt lat="43.2168372" lon="10.7907162"><ele>453.0</ele><time>2026-04-03T09:26:06.887Z</time></trkpt><trkpt lat="43.2167423" lon="10.790835"><ele>453.0</ele><time>2026-04-03T09:26:07.878Z</time></trkpt><trkpt lat="43.2166551" lon="10.7909405"><ele>452.59999999999997</ele><time>2026-04-03T09:26:08.877Z</time></trkpt><trkpt lat="43.2165764" lon="10.7910428"><ele>452.19999999999993</ele><time>2026-04-03T09:26:09.879Z</time></trkpt><trkpt lat="43.2165058" lon="10.7911505"><ele>451.8</ele><time>2026-04-03T09:26:10.878Z</time></trkpt><trkpt lat="43.2164443" lon="10.7912637"><ele>451.4</ele><time>2026-04-03T09:26:11.88Z</time></trkpt><trkpt lat="43.2163965" lon="10.791391"><ele>451.0</ele><time>2026-04-03T09:26:12.877Z</time></trkpt><trkpt lat="43.2163674" lon="10.7915405"><ele>449.6</ele><time>2026-04-03T09:26:13.877Z</time></trkpt><trkpt lat="43.2163514" lon="10.7916965"><ele>448.20000000000005</ele><time>2026-04-03T09:26:14.876Z</time></trkpt><trkpt lat="43.2163328" lon="10.7918375"><ele>446.79999999999995</ele><time>2026-04-03T09:26:15.873Z</time></trkpt><trkpt lat="43.2163018" lon="10.7919719"><ele>445.4</ele><time>2026-04-03T09:26:16.881Z</time></trkpt><trkpt lat="43.2162468" lon="10.7921034"><ele>444.0</ele><time>2026-04-03T09:26:17.881Z</time></trkpt><trkpt lat="43.2161689" lon="10.7922347"><ele>444.0</ele><time>2026-04-03T09:26:18.88Z</time></trkpt><trkpt lat="43.2160762" lon="10.7923728"><ele>444.0</ele><time>2026-04-03T09:26:19.881Z</time></trkpt><trkpt lat="43.2159784" lon="10.7925065"><ele>444.0</ele><time>2026-04-03T09:26:20.878Z</time></trkpt><trkpt lat="43.2158851" lon="10.7926255"><ele>444.0</ele><time>2026-04-03T09:26:21.876Z</time></trkpt><trkpt lat="43.2157969" lon="10.7927347"><ele>443.75</ele><time>2026-04-03T09:26:22.872Z</time></trkpt><trkpt lat="43.2157087" lon="10.7928279"><ele>443.5</ele><time>2026-04-03T09:26:23.871Z</time></trkpt><trkpt lat="43.215614" lon="10.792901"><ele>443.25</ele><time>2026-04-03T09:26:24.878Z</time></trkpt><trkpt lat="43.215508" lon="10.7929511"><ele>443.0</ele><time>2026-04-03T09:26:25.877Z</time></trkpt><trkpt lat="43.2153849" lon="10.7929737"><ele>443.0</ele><time>2026-04-03T09:26:26.879Z</time></trkpt><trkpt lat="43.2152437" lon="10.7929829"><ele>443.0</ele><time>2026-04-03T09:26:27.877Z</time></trkpt><trkpt lat="43.2150836" lon="10.7929746"><ele>443.0</ele><time>2026-04-03T09:26:28.882Z</time></trkpt><trkpt lat="43.2149322" lon="10.7929738"><ele>442.0</ele><time>2026-04-03T09:26:29.874Z</time></trkpt><trkpt lat="43.214788" lon="10.7929691"><ele>441.0</ele><time>2026-04-03T09:26:30.875Z</time></trkpt><trkpt lat="43.2146519" lon="10.792961"><ele>440.0</ele><time>2026-04-03T09:26:31.883Z</time></trkpt><trkpt lat="43.2145363" lon="10.7929332"><ele>439.0</ele><time>2026-04-03T09:26:32.881Z</time></trkpt><trkpt lat="43.2144352" lon="10.7929105"><ele>439.0</ele><time>2026-04-03T09:26:33.878Z</time></trkpt><trkpt lat="43.2143432" lon="10.792888"><ele>439.0</ele><time>2026-04-03T09:26:34.887Z</time></trkpt><trkpt lat="43.2142577" lon="10.7928797"><ele>439.0</ele><time>2026-04-03T09:26:35.878Z</time></trkpt><trkpt lat="43.2141807" lon="10.7929043"><ele>439.0</ele><time>2026-04-03T09:26:36.871Z</time></trkpt><trkpt lat="43.2141073" lon="10.7929657"><ele>439.0</ele><time>2026-04-03T09:26:37.873Z</time></trkpt><trkpt lat="43.2140305" lon="10.7930692"><ele>439.33333333333337</ele><time>2026-04-03T09:26:38.878Z</time></trkpt><trkpt lat="43.2139511" lon="10.7932086"><ele>439.66666666666663</ele><time>2026-04-03T09:26:39.871Z</time></trkpt><trkpt lat="43.2138611" lon="10.7933807"><ele>440.0</ele><time>2026-04-03T09:26:40.883Z</time></trkpt><trkpt lat="43.2137543" lon="10.7935668"><ele>440.0</ele><time>2026-04-03T09:26:41.886Z</time></trkpt><trkpt lat="43.2136479" lon="10.7937331"><ele>440.0</ele><time>2026-04-03T09:26:42.884Z</time></trkpt><trkpt lat="43.2135503" lon="10.7938842"><ele>440.0</ele><time>2026-04-03T09:26:43.879Z</time></trkpt><trkpt lat="43.2134521" lon="10.7940349"><ele>440.0</ele><time>2026-04-03T09:26:44.876Z</time></trkpt><trkpt lat="43.2133778" lon="10.7941848"><ele>440.0</ele><time>2026-04-03T09:26:45.883Z</time></trkpt><trkpt lat="43.2133142" lon="10.7943552"><ele>440.0</ele><time>2026-04-03T09:26:46.881Z</time></trkpt><trkpt lat="43.2132497" lon="10.7945511"><ele>440.0</ele><time>2026-04-03T09:26:47.879Z</time></trkpt><trkpt lat="43.2132069" lon="10.7947842"><ele>440.3333333333333</ele><time>2026-04-03T09:26:48.884Z</time></trkpt><trkpt lat="43.2131641" lon="10.7950046"><ele>440.66666666666663</ele><time>2026-04-03T09:26:49.888Z</time></trkpt><trkpt lat="43.2131286" lon="10.7952067"><ele>441.0</ele><time>2026-04-03T09:26:50.887Z</time></trkpt><trkpt lat="43.2130921" lon="10.7953915"><ele>441.0</ele><time>2026-04-03T09:26:51.873Z</time></trkpt><trkpt lat="43.2130632" lon="10.7955676"><ele>441.0</ele><time>2026-04-03T09:26:52.883Z</time></trkpt><trkpt lat="43.2130429" lon="10.7957191"><ele>441.0</ele><time>2026-04-03T09:26:53.879Z</time></trkpt><trkpt lat="43.2130231" lon="10.7958415"><ele>441.0</ele><time>2026-04-03T09:26:54.874Z</time></trkpt><trkpt lat="43.2129975" lon="10.7959453"><ele>441.0</ele><time>2026-04-03T09:26:55.877Z</time></trkpt><trkpt lat="43.2129656" lon="10.7960457"><ele>437.75</ele><time>2026-04-03T09:26:56.871Z</time></trkpt><trkpt lat="43.212893" lon="10.7961425"><ele>434.5</ele><time>2026-04-03T09:26:57.878Z</time></trkpt><trkpt lat="43.21279" lon="10.7962391"><ele>431.25</ele><time>2026-04-03T09:26:58.867Z</time></trkpt><trkpt lat="43.2126777" lon="10.7963305"><ele>428.0</ele><time>2026-04-03T09:26:59.869Z</time></trkpt><trkpt lat="43.2125693" lon="10.7964116"><ele>428.0</ele><time>2026-04-03T09:27:00.889Z</time></trkpt><trkpt lat="43.2124529" lon="10.7964783"><ele>428.0</ele><time>2026-04-03T09:27:01.875Z</time></trkpt><trkpt lat="43.212359" lon="10.7965447"><ele>428.0</ele><time>2026-04-03T09:27:02.877Z</time></trkpt><trkpt lat="43.2122418" lon="10.7965878"><ele>428.0</ele><time>2026-04-03T09:27:03.874Z</time></trkpt><trkpt lat="43.2121028" lon="10.796607"><ele>427.75</ele><time>2026-04-03T09:27:04.869Z</time></trkpt><trkpt lat="43.2119549" lon="10.7966154"><ele>427.5</ele><time>2026-04-03T09:27:05.875Z</time></trkpt><trkpt lat="43.2118184" lon="10.796623"><ele>427.25</ele><time>2026-04-03T09:27:06.869Z</time></trkpt><trkpt lat="43.2116942" lon="10.7966294"><ele>427.0</ele><time>2026-04-03T09:27:07.879Z</time></trkpt><trkpt lat="43.2115771" lon="10.7966308"><ele>427.00000000000006</ele><time>2026-04-03T09:27:08.866Z</time></trkpt><trkpt lat="43.2114716" lon="10.79662"><ele>427.0</ele><time>2026-04-03T09:27:09.879Z</time></trkpt><trkpt lat="43.2113883" lon="10.796598"><ele>427.0</ele><time>2026-04-03T09:27:10.878Z</time></trkpt><trkpt lat="43.2113088" lon="10.7965705"><ele>427.0</ele><time>2026-04-03T09:27:11.874Z</time></trkpt><trkpt lat="43.2112378" lon="10.7965865"><ele>427.00000000000006</ele><time>2026-04-03T09:27:12.882Z</time></trkpt><trkpt lat="43.2111771" lon="10.7966293"><ele>427.0</ele><time>2026-04-03T09:27:13.879Z</time></trkpt><trkpt lat="43.2111414" lon="10.7967029"><ele>426.40000000000003</ele><time>2026-04-03T09:27:14.873Z</time></trkpt><trkpt lat="43.2111507" lon="10.7968813"><ele>425.80000000000007</ele><time>2026-04-03T09:27:16.878Z</time></trkpt><trkpt lat="43.2111876" lon="10.7970037"><ele>425.2</ele><time>2026-04-03T09:27:17.886Z</time></trkpt><trkpt lat="43.2112217" lon="10.7971125"><ele>424.6</ele><time>2026-04-03T09:27:18.879Z</time></trkpt><trkpt lat="43.2112329" lon="10.7972103"><ele>424.0</ele><time>2026-04-03T09:27:19.874Z</time></trkpt><trkpt lat="43.2112378" lon="10.7973174"><ele>424.00000000000006</ele><time>2026-04-03T09:27:21.872Z</time></trkpt><trkpt lat="43.2112763" lon="10.7974015"><ele>424.0</ele><time>2026-04-03T09:27:35.881Z</time></trkpt><trkpt lat="43.2113262" lon="10.7974564"><ele>424.0</ele><time>2026-04-03T09:27:36.874Z</time></trkpt><trkpt lat="43.211394" lon="10.7975322"><ele>424.0</ele><time>2026-04-03T09:27:37.883Z</time></trkpt><trkpt lat="43.2114701" lon="10.79762"><ele>424.00000000000006</ele><time>2026-04-03T09:27:38.884Z</time></trkpt><trkpt lat="43.2115523" lon="10.7977143"><ele>424.0</ele><time>2026-04-03T09:27:39.871Z</time></trkpt><trkpt lat="43.2116423" lon="10.7978209"><ele>424.0</ele><time>2026-04-03T09:27:40.88Z</time></trkpt><trkpt lat="43.2117418" lon="10.7979372"><ele>424.0</ele><time>2026-04-03T09:27:41.885Z</time></trkpt><trkpt lat="43.2118433" lon="10.7980576"><ele>424.0</ele><time>2026-04-03T09:27:42.877Z</time></trkpt><trkpt lat="43.2119523" lon="10.7981831"><ele>424.0</ele><time>2026-04-03T09:27:43.866Z</time></trkpt><trkpt lat="43.2120645" lon="10.7983126"><ele>424.0</ele><time>2026-04-03T09:27:44.879Z</time></trkpt><trkpt lat="43.2121787" lon="10.7984456"><ele>424.0</ele><time>2026-04-03T09:27:45.897Z</time></trkpt><trkpt lat="43.212292" lon="10.7985804"><ele>424.0</ele><time>2026-04-03T09:27:46.885Z</time></trkpt><trkpt lat="43.2124046" lon="10.7987172"><ele>420.25</ele><time>2026-04-03T09:27:47.877Z</time></trkpt><trkpt lat="43.2125146" lon="10.7988511"><ele>416.5</ele><time>2026-04-03T09:27:48.883Z</time></trkpt><trkpt lat="43.2126224" lon="10.7989811"><ele>412.75</ele><time>2026-04-03T09:27:49.884Z</time></trkpt><trkpt lat="43.2127235" lon="10.7991043"><ele>409.0</ele><time>2026-04-03T09:27:50.885Z</time></trkpt><trkpt lat="43.2128176" lon="10.7992222"><ele>408.75</ele><time>2026-04-03T09:27:51.879Z</time></trkpt><trkpt lat="43.21291" lon="10.7993384"><ele>408.5</ele><time>2026-04-03T09:27:52.892Z</time></trkpt><trkpt lat="43.2130079" lon="10.7994522"><ele>408.25</ele><time>2026-04-03T09:27:53.89Z</time></trkpt><trkpt lat="43.213112" lon="10.7995643"><ele>408.0</ele><time>2026-04-03T09:27:54.879Z</time></trkpt><trkpt lat="43.2132114" lon="10.7996607"><ele>408.0</ele><time>2026-04-03T09:27:55.882Z</time></trkpt><trkpt lat="43.213325" lon="10.7997311"><ele>408.0</ele><time>2026-04-03T09:27:56.882Z</time></trkpt><trkpt lat="43.2134417" lon="10.7997844"><ele>408.0</ele><time>2026-04-03T09:27:57.889Z</time></trkpt><trkpt lat="43.2135776" lon="10.7998077"><ele>408.0</ele><time>2026-04-03T09:27:58.882Z</time></trkpt><trkpt lat="43.21371" lon="10.7998264"><ele>408.0</ele><time>2026-04-03T09:27:59.888Z</time></trkpt><trkpt lat="43.2138336" lon="10.7998224"><ele>408.0</ele><time>2026-04-03T09:28:00.878Z</time></trkpt><trkpt lat="43.2139637" lon="10.7997924"><ele>408.0</ele><time>2026-04-03T09:28:01.874Z</time></trkpt><trkpt lat="43.2140916" lon="10.7997531"><ele>408.0</ele><time>2026-04-03T09:28:02.879Z</time></trkpt><trkpt lat="43.2142136" lon="10.7997084"><ele>407.25</ele><time>2026-04-03T09:28:03.881Z</time></trkpt><trkpt lat="43.21433" lon="10.7996645"><ele>406.5</ele><time>2026-04-03T09:28:04.87Z</time></trkpt><trkpt lat="43.2144419" lon="10.7996356"><ele>405.75</ele><time>2026-04-03T09:28:05.88Z</time></trkpt><trkpt lat="43.214561" lon="10.7996394"><ele>405.0</ele><time>2026-04-03T09:28:06.886Z</time></trkpt><trkpt lat="43.2146837" lon="10.7996534"><ele>405.0</ele><time>2026-04-03T09:28:07.879Z</time></trkpt><trkpt lat="43.2147915" lon="10.7997407"><ele>405.0</ele><time>2026-04-03T09:28:08.882Z</time></trkpt><trkpt lat="43.2149042" lon="10.7998577"><ele>405.0</ele><time>2026-04-03T09:28:09.87Z</time></trkpt><trkpt lat="43.2149964" lon="10.7999984"><ele>405.0</ele><time>2026-04-03T09:28:10.885Z</time></trkpt><trkpt lat="43.2150833" lon="10.8001627"><ele>406.25</ele><time>2026-04-03T09:28:11.875Z</time></trkpt><trkpt lat="43.2151347" lon="10.8003285"><ele>407.5</ele><time>2026-04-03T09:28:12.878Z</time></trkpt><trkpt lat="43.215159" lon="10.8005029"><ele>408.75</ele><time>2026-04-03T09:28:13.877Z</time></trkpt><trkpt lat="43.2151715" lon="10.8006842"><ele>410.0</ele><time>2026-04-03T09:28:14.882Z</time></trkpt><trkpt lat="43.2152107" lon="10.8008618"><ele>411.0</ele><time>2026-04-03T09:28:15.877Z</time></trkpt><trkpt lat="43.2152813" lon="10.8010382"><ele>412.0</ele><time>2026-04-03T09:28:16.878Z</time></trkpt><trkpt lat="43.215368" lon="10.801215"><ele>413.0</ele><time>2026-04-03T09:28:17.882Z</time></trkpt><trkpt lat="43.2154632" lon="10.8013939"><ele>413.0</ele><time>2026-04-03T09:28:18.872Z</time></trkpt><trkpt lat="43.2155603" lon="10.8015797"><ele>413.0</ele><time>2026-04-03T09:28:19.878Z</time></trkpt><trkpt lat="43.2156357" lon="10.8017648"><ele>413.0</ele><time>2026-04-03T09:28:20.881Z</time></trkpt><trkpt lat="43.2156964" lon="10.8019382"><ele>416.0</ele><time>2026-04-03T09:28:21.878Z</time></trkpt><trkpt lat="43.2157663" lon="10.802081"><ele>419.0</ele><time>2026-04-03T09:28:22.887Z</time></trkpt><trkpt lat="43.2158581" lon="10.8021962"><ele>422.0</ele><time>2026-04-03T09:28:23.876Z</time></trkpt><trkpt lat="43.215966" lon="10.8022899"><ele>425.0</ele><time>2026-04-03T09:28:24.878Z</time></trkpt><trkpt lat="43.2160733" lon="10.8023743"><ele>425.0</ele><time>2026-04-03T09:28:25.88Z</time></trkpt><trkpt lat="43.216173" lon="10.8024327"><ele>425.0</ele><time>2026-04-03T09:28:26.877Z</time></trkpt><trkpt lat="43.2162745" lon="10.8024436"><ele>425.0</ele><time>2026-04-03T09:28:27.881Z</time></trkpt><trkpt lat="43.2163772" lon="10.802405"><ele>425.0</ele><time>2026-04-03T09:28:28.874Z</time></trkpt><trkpt lat="43.2164603" lon="10.8023265"><ele>425.0</ele><time>2026-04-03T09:28:29.877Z</time></trkpt><trkpt lat="43.2165199" lon="10.8022367"><ele>425.99999999999994</ele><time>2026-04-03T09:28:30.874Z</time></trkpt><trkpt lat="43.2165755" lon="10.8021765"><ele>427.0</ele><time>2026-04-03T09:28:31.883Z</time></trkpt><trkpt lat="43.2166563" lon="10.8022626"><ele>428.0</ele><time>2026-04-03T09:28:33.879Z</time></trkpt><trkpt lat="43.2166604" lon="10.8023623"><ele>429.0</ele><time>2026-04-03T09:28:34.885Z</time></trkpt><trkpt lat="43.2166666" lon="10.8024902"><ele>429.99999999999994</ele><time>2026-04-03T09:28:35.876Z</time></trkpt><trkpt lat="43.2166455" lon="10.8026304"><ele>431.0</ele><time>2026-04-03T09:28:36.871Z</time></trkpt><trkpt lat="43.2166383" lon="10.8027949"><ele>432.25</ele><time>2026-04-03T09:28:37.882Z</time></trkpt><trkpt lat="43.2166439" lon="10.8029685"><ele>433.5</ele><time>2026-04-03T09:28:38.875Z</time></trkpt><trkpt lat="43.2166529" lon="10.8031587"><ele>434.75</ele><time>2026-04-03T09:28:39.886Z</time></trkpt><trkpt lat="43.2166729" lon="10.8033564"><ele>436.0</ele><time>2026-04-03T09:28:40.876Z</time></trkpt><trkpt lat="43.2166988" lon="10.8035606"><ele>436.0</ele><time>2026-04-03T09:28:41.879Z</time></trkpt><trkpt lat="43.2167407" lon="10.8037648"><ele>436.0</ele><time>2026-04-03T09:28:42.878Z</time></trkpt><trkpt lat="43.2168075" lon="10.8039624"><ele>436.0</ele><time>2026-04-03T09:28:43.878Z</time></trkpt><trkpt lat="43.2168982" lon="10.8041534"><ele>436.0</ele><time>2026-04-03T09:28:44.876Z</time></trkpt><trkpt lat="43.2170065" lon="10.8043147"><ele>436.0</ele><time>2026-04-03T09:28:45.885Z</time></trkpt><trkpt lat="43.217128" lon="10.8044455"><ele>436.0</ele><time>2026-04-03T09:28:46.876Z</time></trkpt><trkpt lat="43.2172542" lon="10.8045337"><ele>437.8</ele><time>2026-04-03T09:28:47.881Z</time></trkpt><trkpt lat="43.2173756" lon="10.8045801"><ele>439.6</ele><time>2026-04-03T09:28:48.878Z</time></trkpt><trkpt lat="43.2174825" lon="10.8046354"><ele>441.4</ele><time>2026-04-03T09:28:49.879Z</time></trkpt><trkpt lat="43.217568" lon="10.804723"><ele>443.2</ele><time>2026-04-03T09:28:50.89Z</time></trkpt><trkpt lat="43.2176172" lon="10.8048411"><ele>445.0</ele><time>2026-04-03T09:28:51.876Z</time></trkpt><trkpt lat="43.2176214" lon="10.804973"><ele>445.0</ele><time>2026-04-03T09:28:52.874Z</time></trkpt><trkpt lat="43.2175871" lon="10.8051058"><ele>445.0</ele><time>2026-04-03T09:28:53.876Z</time></trkpt><trkpt lat="43.2175292" lon="10.8052401"><ele>445.0</ele><time>2026-04-03T09:28:54.882Z</time></trkpt><trkpt lat="43.2174648" lon="10.8053892"><ele>445.0</ele><time>2026-04-03T09:28:55.877Z</time></trkpt><trkpt lat="43.2174169" lon="10.8055421"><ele>446.2</ele><time>2026-04-03T09:28:56.879Z</time></trkpt><trkpt lat="43.2173994" lon="10.8056701"><ele>447.4</ele><time>2026-04-03T09:28:57.875Z</time></trkpt><trkpt lat="43.2174132" lon="10.8057806"><ele>448.6</ele><time>2026-04-03T09:28:58.882Z</time></trkpt><trkpt lat="43.2174606" lon="10.8058747"><ele>449.8</ele><time>2026-04-03T09:28:59.886Z</time></trkpt><trkpt lat="43.2175407" lon="10.8059453"><ele>451.0</ele><time>2026-04-03T09:29:00.875Z</time></trkpt><trkpt lat="43.2176458" lon="10.8059896"><ele>451.0</ele><time>2026-04-03T09:29:01.87Z</time></trkpt><trkpt lat="43.2177617" lon="10.8060085"><ele>451.0</ele><time>2026-04-03T09:29:02.877Z</time></trkpt><trkpt lat="43.2178822" lon="10.8060002"><ele>451.0</ele><time>2026-04-03T09:29:03.882Z</time></trkpt><trkpt lat="43.2180088" lon="10.8059676"><ele>451.0</ele><time>2026-04-03T09:29:04.878Z</time></trkpt><trkpt lat="43.2181409" lon="10.8059179"><ele>453.0</ele><time>2026-04-03T09:29:05.893Z</time></trkpt><trkpt lat="43.2182809" lon="10.8058768"><ele>455.0</ele><time>2026-04-03T09:29:06.883Z</time></trkpt><trkpt lat="43.2184214" lon="10.8058593"><ele>457.0</ele><time>2026-04-03T09:29:07.878Z</time></trkpt><trkpt lat="43.2185429" lon="10.8058821"><ele>459.0</ele><time>2026-04-03T09:29:08.879Z</time></trkpt><trkpt lat="43.2186411" lon="10.8059497"><ele>461.0</ele><time>2026-04-03T09:29:09.874Z</time></trkpt><trkpt lat="43.2187153" lon="10.8060603"><ele>463.0</ele><time>2026-04-03T09:29:10.889Z</time></trkpt><trkpt lat="43.218757" lon="10.8062028"><ele>465.0</ele><time>2026-04-03T09:29:11.882Z</time></trkpt><trkpt lat="43.2187688" lon="10.8063679"><ele>467.0</ele><time>2026-04-03T09:29:12.904Z</time></trkpt><trkpt lat="43.218774" lon="10.8065484"><ele>467.0</ele><time>2026-04-03T09:29:13.888Z</time></trkpt><trkpt lat="43.2187829" lon="10.8067405"><ele>467.0</ele><time>2026-04-03T09:29:14.889Z</time></trkpt><trkpt lat="43.2187998" lon="10.8069453"><ele>467.0</ele><time>2026-04-03T09:29:15.88Z</time></trkpt><trkpt lat="43.2188256" lon="10.8071565"><ele>467.0</ele><time>2026-04-03T09:29:16.874Z</time></trkpt><trkpt lat="43.2188631" lon="10.8073521"><ele>467.75</ele><time>2026-04-03T09:29:17.876Z</time></trkpt><trkpt lat="43.2189172" lon="10.8075186"><ele>468.5</ele><time>2026-04-03T09:29:18.887Z</time></trkpt><trkpt lat="43.2189997" lon="10.8076567"><ele>469.25</ele><time>2026-04-03T09:29:19.882Z</time></trkpt><trkpt lat="43.2191063" lon="10.8077565"><ele>470.0</ele><time>2026-04-03T09:29:20.873Z</time></trkpt><trkpt lat="43.2192075" lon="10.8078391"><ele>473.25</ele><time>2026-04-03T09:29:21.881Z</time></trkpt><trkpt lat="43.219285" lon="10.8079534"><ele>476.5</ele><time>2026-04-03T09:29:22.879Z</time></trkpt><trkpt lat="43.2193324" lon="10.8081064"><ele>479.75</ele><time>2026-04-03T09:29:23.876Z</time></trkpt><trkpt lat="43.2193791" lon="10.8082743"><ele>483.0</ele><time>2026-04-03T09:29:24.88Z</time></trkpt><trkpt lat="43.2194371" lon="10.8084414"><ele>486.75</ele><time>2026-04-03T09:29:25.876Z</time></trkpt><trkpt lat="43.2194959" lon="10.8085884"><ele>490.5</ele><time>2026-04-03T09:29:26.885Z</time></trkpt><trkpt lat="43.219549" lon="10.808743"><ele>494.25</ele><time>2026-04-03T09:29:27.876Z</time></trkpt><trkpt lat="43.2195948" lon="10.808928"><ele>498.0</ele><time>2026-04-03T09:29:28.892Z</time></trkpt><trkpt lat="43.2196445" lon="10.809105"><ele>498.0</ele><time>2026-04-03T09:29:29.883Z</time></trkpt><trkpt lat="43.2196807" lon="10.8092626"><ele>498.0</ele><time>2026-04-03T09:29:30.877Z</time></trkpt><trkpt lat="43.2197245" lon="10.8094035"><ele>498.0</ele><time>2026-04-03T09:29:31.877Z</time></trkpt><trkpt lat="43.2197746" lon="10.8095402"><ele>498.0</ele><time>2026-04-03T09:29:32.883Z</time></trkpt><trkpt lat="43.2198068" lon="10.8096813"><ele>500.79999999999995</ele><time>2026-04-03T09:29:33.884Z</time></trkpt><trkpt lat="43.2198076" lon="10.8098268"><ele>503.59999999999997</ele><time>2026-04-03T09:29:34.884Z</time></trkpt><trkpt lat="43.2197768" lon="10.8099676"><ele>506.40000000000003</ele><time>2026-04-03T09:29:35.883Z</time></trkpt><trkpt lat="43.2197363" lon="10.8100978"><ele>509.20000000000005</ele><time>2026-04-03T09:29:36.885Z</time></trkpt><trkpt lat="43.2196673" lon="10.8102412"><ele>512.0</ele><time>2026-04-03T09:29:37.878Z</time></trkpt><trkpt lat="43.219611" lon="10.8103955"><ele>512.25</ele><time>2026-04-03T09:29:38.874Z</time></trkpt><trkpt lat="43.219547" lon="10.8105539"><ele>512.5</ele><time>2026-04-03T09:29:39.879Z</time></trkpt><trkpt lat="43.2194606" lon="10.8107057"><ele>512.75</ele><time>2026-04-03T09:29:40.88Z</time></trkpt><trkpt lat="43.2193736" lon="10.8108765"><ele>513.0</ele><time>2026-04-03T09:29:41.879Z</time></trkpt><trkpt lat="43.2192917" lon="10.8110442"><ele>512.0</ele><time>2026-04-03T09:29:42.881Z</time></trkpt><trkpt lat="43.21921" lon="10.8112186"><ele>511.0</ele><time>2026-04-03T09:29:43.883Z</time></trkpt><trkpt lat="43.2191332" lon="10.8113891"><ele>510.0</ele><time>2026-04-03T09:29:44.891Z</time></trkpt><trkpt lat="43.2190548" lon="10.8115585"><ele>509.0</ele><time>2026-04-03T09:29:45.886Z</time></trkpt><trkpt lat="43.2189771" lon="10.8117281"><ele>512.5</ele><time>2026-04-03T09:29:46.895Z</time></trkpt><trkpt lat="43.2188946" lon="10.8118966"><ele>516.0</ele><time>2026-04-03T09:29:47.883Z</time></trkpt><trkpt lat="43.2188122" lon="10.8120593"><ele>519.5</ele><time>2026-04-03T09:29:48.886Z</time></trkpt><trkpt lat="43.2187386" lon="10.8122016"><ele>523.0</ele><time>2026-04-03T09:29:49.885Z</time></trkpt><trkpt lat="43.2186652" lon="10.8123191"><ele>523.0</ele><time>2026-04-03T09:29:50.878Z</time></trkpt><trkpt lat="43.2185785" lon="10.8124152"><ele>523.0</ele><time>2026-04-03T09:29:51.88Z</time></trkpt><trkpt lat="43.2184753" lon="10.8124864"><ele>523.0</ele><time>2026-04-03T09:29:52.876Z</time></trkpt><trkpt lat="43.2183653" lon="10.8125459"><ele>523.0</ele><time>2026-04-03T09:29:53.883Z</time></trkpt><trkpt lat="43.218258" lon="10.8126044"><ele>523.1666666666667</ele><time>2026-04-03T09:29:54.889Z</time></trkpt><trkpt lat="43.218161" lon="10.8126571"><ele>523.3333333333334</ele><time>2026-04-03T09:29:55.884Z</time></trkpt><trkpt lat="43.2180735" lon="10.8127072"><ele>523.5</ele><time>2026-04-03T09:29:56.886Z</time></trkpt><trkpt lat="43.2179939" lon="10.812752"><ele>523.6666666666666</ele><time>2026-04-03T09:29:57.873Z</time></trkpt><trkpt lat="43.2179272" lon="10.8128001"><ele>523.8333333333333</ele><time>2026-04-03T09:29:58.884Z</time></trkpt><trkpt lat="43.217861" lon="10.8128658"><ele>524.0</ele><time>2026-04-03T09:29:59.882Z</time></trkpt><trkpt lat="43.2178294" lon="10.8129752"><ele>525.0</ele><time>2026-04-03T09:30:00.875Z</time></trkpt><trkpt lat="43.2178229" lon="10.8131071"><ele>526.0</ele><time>2026-04-03T09:30:01.873Z</time></trkpt><trkpt lat="43.217821" lon="10.8132588"><ele>527.0</ele><time>2026-04-03T09:30:02.874Z</time></trkpt><trkpt lat="43.2178172" lon="10.8134069"><ele>528.0</ele><time>2026-04-03T09:30:03.883Z</time></trkpt><trkpt lat="43.2178099" lon="10.8135631"><ele>529.0</ele><time>2026-04-03T09:30:04.88Z</time></trkpt><trkpt lat="43.2178087" lon="10.8137317"><ele>529.25</ele><time>2026-04-03T09:30:05.885Z</time></trkpt><trkpt lat="43.2178221" lon="10.813905"><ele>529.5</ele><time>2026-04-03T09:30:06.875Z</time></trkpt><trkpt lat="43.2178578" lon="10.8140832"><ele>529.75</ele><time>2026-04-03T09:30:07.88Z</time></trkpt><trkpt lat="43.2179106" lon="10.8142653"><ele>530.0</ele><time>2026-04-03T09:30:08.879Z</time></trkpt><trkpt lat="43.2179682" lon="10.8144386"><ele>530.0</ele><time>2026-04-03T09:30:09.882Z</time></trkpt><trkpt lat="43.2180218" lon="10.8145959"><ele>530.0</ele><time>2026-04-03T09:30:10.876Z</time></trkpt><trkpt lat="43.2180626" lon="10.8147528"><ele>530.0</ele><time>2026-04-03T09:30:11.878Z</time></trkpt><trkpt lat="43.2180822" lon="10.8149182"><ele>530.0</ele><time>2026-04-03T09:30:12.875Z</time></trkpt><trkpt lat="43.2180749" lon="10.8150892"><ele>529.5</ele><time>2026-04-03T09:30:13.882Z</time></trkpt><trkpt lat="43.2180667" lon="10.8152554"><ele>529.0</ele><time>2026-04-03T09:30:14.873Z</time></trkpt><trkpt lat="43.2180725" lon="10.815411"><ele>528.5</ele><time>2026-04-03T09:30:15.876Z</time></trkpt><trkpt lat="43.2180995" lon="10.8155674"><ele>528.0</ele><time>2026-04-03T09:30:16.873Z</time></trkpt><trkpt lat="43.2181553" lon="10.8157259"><ele>528.0</ele><time>2026-04-03T09:30:17.873Z</time></trkpt><trkpt lat="43.2182403" lon="10.8158761"><ele>528.0</ele><time>2026-04-03T09:30:18.872Z</time></trkpt><trkpt lat="43.2183472" lon="10.8160167"><ele>528.0</ele><time>2026-04-03T09:30:19.879Z</time></trkpt><trkpt lat="43.2184603" lon="10.8161707"><ele>528.0</ele><time>2026-04-03T09:30:20.876Z</time></trkpt><trkpt lat="43.2185577" lon="10.8163374"><ele>523.75</ele><time>2026-04-03T09:30:21.882Z</time></trkpt><trkpt lat="43.2186398" lon="10.8165062"><ele>519.5</ele><time>2026-04-03T09:30:22.892Z</time></trkpt><trkpt lat="43.2187201" lon="10.8166635"><ele>515.25</ele><time>2026-04-03T09:30:23.881Z</time></trkpt><trkpt lat="43.2188042" lon="10.8168029"><ele>511.0</ele><time>2026-04-03T09:30:24.878Z</time></trkpt><trkpt lat="43.2189111" lon="10.8169243"><ele>510.6666666666667</ele><time>2026-04-03T09:30:25.882Z</time></trkpt><trkpt lat="43.2190418" lon="10.8170409"><ele>510.33333333333337</ele><time>2026-04-03T09:30:26.89Z</time></trkpt><trkpt lat="43.2191813" lon="10.8171685"><ele>510.0</ele><time>2026-04-03T09:30:27.876Z</time></trkpt><trkpt lat="43.2193148" lon="10.817321"><ele>510.0</ele><time>2026-04-03T09:30:28.872Z</time></trkpt><trkpt lat="43.2194397" lon="10.8174685"><ele>510.0</ele><time>2026-04-03T09:30:29.885Z</time></trkpt><trkpt lat="43.2195525" lon="10.8176217"><ele>510.0</ele><time>2026-04-03T09:30:30.871Z</time></trkpt><trkpt lat="43.2196647" lon="10.8177619"><ele>509.25</ele><time>2026-04-03T09:30:31.882Z</time></trkpt><trkpt lat="43.2197806" lon="10.8178616"><ele>508.5</ele><time>2026-04-03T09:30:32.874Z</time></trkpt><trkpt lat="43.2198928" lon="10.8179327"><ele>507.75</ele><time>2026-04-03T09:30:33.883Z</time></trkpt><trkpt lat="43.2200019" lon="10.817995"><ele>507.0</ele><time>2026-04-03T09:30:34.894Z</time></trkpt><trkpt lat="43.2200918" lon="10.8180675"><ele>507.0</ele><time>2026-04-03T09:30:35.878Z</time></trkpt><trkpt lat="43.2201557" lon="10.8181637"><ele>507.00000000000006</ele><time>2026-04-03T09:30:36.881Z</time></trkpt><trkpt lat="43.2201785" lon="10.8182922"><ele>507.00000000000006</ele><time>2026-04-03T09:30:37.875Z</time></trkpt><trkpt lat="43.2201706" lon="10.8184336"><ele>507.0</ele><time>2026-04-03T09:30:38.875Z</time></trkpt><trkpt lat="43.2201688" lon="10.8185728"><ele>507.0</ele><time>2026-04-03T09:30:39.878Z</time></trkpt><trkpt lat="43.2202013" lon="10.8187143"><ele>504.5</ele><time>2026-04-03T09:30:40.873Z</time></trkpt><trkpt lat="43.2202746" lon="10.8188402"><ele>502.0</ele><time>2026-04-03T09:30:41.874Z</time></trkpt><trkpt lat="43.2203842" lon="10.8189389"><ele>499.5</ele><time>2026-04-03T09:30:42.88Z</time></trkpt><trkpt lat="43.2205185" lon="10.8190193"><ele>497.0</ele><time>2026-04-03T09:30:43.879Z</time></trkpt><trkpt lat="43.2206454" lon="10.8191096"><ele>497.0</ele><time>2026-04-03T09:30:44.875Z</time></trkpt><trkpt lat="43.2207606" lon="10.8192419"><ele>497.0</ele><time>2026-04-03T09:30:45.877Z</time></trkpt><trkpt lat="43.2208674" lon="10.8194106"><ele>497.0</ele><time>2026-04-03T09:30:46.889Z</time></trkpt><trkpt lat="43.2209754" lon="10.8195899"><ele>497.0</ele><time>2026-04-03T09:30:47.874Z</time></trkpt><trkpt lat="43.2210911" lon="10.8197716"><ele>497.0</ele><time>2026-04-03T09:30:48.882Z</time></trkpt><trkpt lat="43.2212142" lon="10.8199567"><ele>497.0</ele><time>2026-04-03T09:30:49.88Z</time></trkpt><trkpt lat="43.2213322" lon="10.8201331"><ele>497.3333333333333</ele><time>2026-04-03T09:30:50.879Z</time></trkpt><trkpt lat="43.2214446" lon="10.8203135"><ele>497.66666666666663</ele><time>2026-04-03T09:30:51.88Z</time></trkpt><trkpt lat="43.2215413" lon="10.8205143"><ele>498.0</ele><time>2026-04-03T09:30:52.877Z</time></trkpt><trkpt lat="43.2216164" lon="10.8207333"><ele>498.0</ele><time>2026-04-03T09:30:53.879Z</time></trkpt><trkpt lat="43.2216664" lon="10.8209697"><ele>498.0</ele><time>2026-04-03T09:30:54.879Z</time></trkpt><trkpt lat="43.2216959" lon="10.8212207"><ele>498.0</ele><time>2026-04-03T09:30:55.878Z</time></trkpt><trkpt lat="43.2217097" lon="10.8214815"><ele>498.0</ele><time>2026-04-03T09:30:56.88Z</time></trkpt><trkpt lat="43.2217047" lon="10.8217492"><ele>498.0</ele><time>2026-04-03T09:30:57.884Z</time></trkpt><trkpt lat="43.2216844" lon="10.8220163"><ele>498.0</ele><time>2026-04-03T09:30:58.874Z</time></trkpt><trkpt lat="43.2216579" lon="10.822261"><ele>498.33333333333337</ele><time>2026-04-03T09:30:59.877Z</time></trkpt><trkpt lat="43.221628" lon="10.822484"><ele>498.6666666666667</ele><time>2026-04-03T09:31:00.877Z</time></trkpt><trkpt lat="43.2215882" lon="10.8226848"><ele>499.0</ele><time>2026-04-03T09:31:01.871Z</time></trkpt><trkpt lat="43.2215251" lon="10.8228688"><ele>499.25</ele><time>2026-04-03T09:31:02.875Z</time></trkpt><trkpt lat="43.2214481" lon="10.8230506"><ele>499.5</ele><time>2026-04-03T09:31:03.873Z</time></trkpt><trkpt lat="43.2213772" lon="10.8232254"><ele>499.75</ele><time>2026-04-03T09:31:04.876Z</time></trkpt><trkpt lat="43.2213059" lon="10.8233997"><ele>500.0</ele><time>2026-04-03T09:31:05.876Z</time></trkpt><trkpt lat="43.2212371" lon="10.8235631"><ele>500.0</ele><time>2026-04-03T09:31:06.879Z</time></trkpt><trkpt lat="43.2211782" lon="10.8237154"><ele>500.0</ele><time>2026-04-03T09:31:07.883Z</time></trkpt><trkpt lat="43.2211595" lon="10.8238818"><ele>500.0</ele><time>2026-04-03T09:31:08.878Z</time></trkpt><trkpt lat="43.2211539" lon="10.8240714"><ele>500.0</ele><time>2026-04-03T09:31:09.884Z</time></trkpt><trkpt lat="43.2211676" lon="10.82428"><ele>500.3333333333333</ele><time>2026-04-03T09:31:10.882Z</time></trkpt><trkpt lat="43.2211581" lon="10.8244944"><ele>500.66666666666663</ele><time>2026-04-03T09:31:11.881Z</time></trkpt><trkpt lat="43.221127" lon="10.8247223"><ele>501.0</ele><time>2026-04-03T09:31:12.886Z</time></trkpt><trkpt lat="43.2211013" lon="10.8249512"><ele>501.0</ele><time>2026-04-03T09:31:13.886Z</time></trkpt><trkpt lat="43.2210779" lon="10.8251645"><ele>501.0</ele><time>2026-04-03T09:31:14.885Z</time></trkpt><trkpt lat="43.2210398" lon="10.8253569"><ele>501.0</ele><time>2026-04-03T09:31:15.875Z</time></trkpt><trkpt lat="43.2209714" lon="10.8255319"><ele>501.0</ele><time>2026-04-03T09:31:16.876Z</time></trkpt><trkpt lat="43.2208725" lon="10.8256854"><ele>501.0</ele><time>2026-04-03T09:31:17.882Z</time></trkpt><trkpt lat="43.2207563" lon="10.8258246"><ele>501.0</ele><time>2026-04-03T09:31:18.881Z</time></trkpt><trkpt lat="43.2206343" lon="10.825961"><ele>501.0</ele><time>2026-04-03T09:31:19.881Z</time></trkpt><trkpt lat="43.2205156" lon="10.8260795"><ele>503.75</ele><time>2026-04-03T09:31:20.876Z</time></trkpt><trkpt lat="43.2203995" lon="10.8261965"><ele>506.5</ele><time>2026-04-03T09:31:21.881Z</time></trkpt><trkpt lat="43.2202954" lon="10.8263384"><ele>509.25</ele><time>2026-04-03T09:31:22.875Z</time></trkpt><trkpt lat="43.2202125" lon="10.8265153"><ele>512.0</ele><time>2026-04-03T09:31:23.886Z</time></trkpt><trkpt lat="43.2201417" lon="10.8267083"><ele>509.3333333333333</ele><time>2026-04-03T09:31:24.879Z</time></trkpt><trkpt lat="43.2201166" lon="10.8269192"><ele>506.66666666666663</ele><time>2026-04-03T09:31:25.883Z</time></trkpt><trkpt lat="43.2201208" lon="10.827131"><ele>504.0</ele><time>2026-04-03T09:31:26.882Z</time></trkpt><trkpt lat="43.2201434" lon="10.827358"><ele>504.0</ele><time>2026-04-03T09:31:27.879Z</time></trkpt><trkpt lat="43.220174" lon="10.8275792"><ele>504.0</ele><time>2026-04-03T09:31:28.886Z</time></trkpt><trkpt lat="43.2201984" lon="10.8277903"><ele>504.0</ele><time>2026-04-03T09:31:29.887Z</time></trkpt><trkpt lat="43.2202306" lon="10.8279612"><ele>504.0</ele><time>2026-04-03T09:31:30.886Z</time></trkpt><trkpt lat="43.2202516" lon="10.8281239"><ele>504.5</ele><time>2026-04-03T09:31:31.877Z</time></trkpt><trkpt lat="43.2202383" lon="10.828271"><ele>505.0</ele><time>2026-04-03T09:31:32.879Z</time></trkpt><trkpt lat="43.220191" lon="10.8284129"><ele>505.5</ele><time>2026-04-03T09:31:33.88Z</time></trkpt><trkpt lat="43.2201087" lon="10.828542"><ele>506.0</ele><time>2026-04-03T09:31:34.878Z</time></trkpt><trkpt lat="43.2200071" lon="10.8286499"><ele>503.75</ele><time>2026-04-03T09:31:35.878Z</time></trkpt><trkpt lat="43.2198878" lon="10.8287582"><ele>501.5</ele><time>2026-04-03T09:31:36.879Z</time></trkpt><trkpt lat="43.2197624" lon="10.8288635"><ele>499.25</ele><time>2026-04-03T09:31:37.876Z</time></trkpt><trkpt lat="43.2196441" lon="10.8289587"><ele>497.0</ele><time>2026-04-03T09:31:38.883Z</time></trkpt><trkpt lat="43.2195472" lon="10.829073"><ele>497.0</ele><time>2026-04-03T09:31:39.879Z</time></trkpt><trkpt lat="43.2194809" lon="10.8292129"><ele>497.00000000000006</ele><time>2026-04-03T09:31:40.875Z</time></trkpt><trkpt lat="43.2194434" lon="10.82937"><ele>497.00000000000006</ele><time>2026-04-03T09:31:41.878Z</time></trkpt><trkpt lat="43.219442" lon="10.8295104"><ele>497.0</ele><time>2026-04-03T09:31:42.878Z</time></trkpt><trkpt lat="43.2194707" lon="10.8296224"><ele>497.0</ele><time>2026-04-03T09:31:43.885Z</time></trkpt><trkpt lat="43.2195336" lon="10.8297079"><ele>496.5</ele><time>2026-04-03T09:31:44.876Z</time></trkpt><trkpt lat="43.2196295" lon="10.8297722"><ele>496.0</ele><time>2026-04-03T09:31:45.882Z</time></trkpt><trkpt lat="43.219747" lon="10.829851"><ele>495.5</ele><time>2026-04-03T09:31:46.889Z</time></trkpt><trkpt lat="43.2198599" lon="10.8299554"><ele>495.0</ele><time>2026-04-03T09:31:47.884Z</time></trkpt><trkpt lat="43.2199667" lon="10.8300592"><ele>496.0</ele><time>2026-04-03T09:31:48.883Z</time></trkpt><trkpt lat="43.2200465" lon="10.8302131"><ele>497.0</ele><time>2026-04-03T09:31:49.882Z</time></trkpt><trkpt lat="43.2200963" lon="10.8303783"><ele>498.0</ele><time>2026-04-03T09:31:50.883Z</time></trkpt><trkpt lat="43.2201082" lon="10.8305393"><ele>499.0</ele><time>2026-04-03T09:31:51.883Z</time></trkpt><trkpt lat="43.220073" lon="10.8306795"><ele>499.00000000000006</ele><time>2026-04-03T09:31:52.886Z</time></trkpt><trkpt lat="43.220002" lon="10.8307985"><ele>499.0</ele><time>2026-04-03T09:31:53.883Z</time></trkpt><trkpt lat="43.2199381" lon="10.8309043"><ele>499.0</ele><time>2026-04-03T09:31:54.878Z</time></trkpt><trkpt lat="43.2199123" lon="10.8310083"><ele>499.0</ele><time>2026-04-03T09:31:55.875Z</time></trkpt><trkpt lat="43.2199297" lon="10.8311097"><ele>499.00000000000006</ele><time>2026-04-03T09:31:56.88Z</time></trkpt><trkpt lat="43.2199602" lon="10.8312102"><ele>499.0</ele><time>2026-04-03T09:31:57.883Z</time></trkpt><trkpt lat="43.2200638" lon="10.8312875"><ele>496.6666666666667</ele><time>2026-04-03T09:31:58.876Z</time></trkpt><trkpt lat="43.2201787" lon="10.8313813"><ele>494.33333333333337</ele><time>2026-04-03T09:31:59.882Z</time></trkpt><trkpt lat="43.2203024" lon="10.8315148"><ele>492.0</ele><time>2026-04-03T09:32:00.873Z</time></trkpt><trkpt lat="43.2204284" lon="10.8316569"><ele>490.0</ele><time>2026-04-03T09:32:01.887Z</time></trkpt><trkpt lat="43.2205415" lon="10.8318149"><ele>488.0</ele><time>2026-04-03T09:32:02.874Z</time></trkpt><trkpt lat="43.2206738" lon="10.8319424"><ele>486.0</ele><time>2026-04-03T09:32:03.896Z</time></trkpt><trkpt lat="43.2208255" lon="10.832039"><ele>486.0</ele><time>2026-04-03T09:32:04.888Z</time></trkpt><trkpt lat="43.2209815" lon="10.8321357"><ele>486.0</ele><time>2026-04-03T09:32:05.906Z</time></trkpt><trkpt lat="43.2211693" lon="10.8322175"><ele>486.0</ele><time>2026-04-03T09:32:06.907Z</time></trkpt><trkpt lat="43.2213607" lon="10.8322897"><ele>487.66666666666663</ele><time>2026-04-03T09:32:07.914Z</time></trkpt><trkpt lat="43.2215421" lon="10.8323754"><ele>489.3333333333333</ele><time>2026-04-03T09:32:08.887Z</time></trkpt><trkpt lat="43.221729" lon="10.8324638"><ele>491.0</ele><time>2026-04-03T09:32:09.883Z</time></trkpt><trkpt lat="43.2219006" lon="10.8325461"><ele>491.0</ele><time>2026-04-03T09:32:10.889Z</time></trkpt><trkpt lat="43.2220766" lon="10.8326153"><ele>491.0</ele><time>2026-04-03T09:32:11.9Z</time></trkpt><trkpt lat="43.2222609" lon="10.8326676"><ele>491.0</ele><time>2026-04-03T09:32:12.881Z</time></trkpt><trkpt lat="43.2224354" lon="10.8327054"><ele>487.0</ele><time>2026-04-03T09:32:13.888Z</time></trkpt><trkpt lat="43.2225987" lon="10.8327355"><ele>483.0</ele><time>2026-04-03T09:32:14.881Z</time></trkpt><trkpt lat="43.2227479" lon="10.8327734"><ele>479.0</ele><time>2026-04-03T09:32:15.88Z</time></trkpt><trkpt lat="43.2228726" lon="10.8328382"><ele>479.0</ele><time>2026-04-03T09:32:16.883Z</time></trkpt><trkpt lat="43.2229788" lon="10.8329518"><ele>479.0</ele><time>2026-04-03T09:32:17.877Z</time></trkpt><trkpt lat="43.223074" lon="10.8331027"><ele>479.0</ele><time>2026-04-03T09:32:18.881Z</time></trkpt><trkpt lat="43.2231622" lon="10.8332792"><ele>479.0</ele><time>2026-04-03T09:32:19.885Z</time></trkpt><trkpt lat="43.2232279" lon="10.8334672"><ele>479.75</ele><time>2026-04-03T09:32:20.873Z</time></trkpt><trkpt lat="43.2232569" lon="10.8336596"><ele>480.5</ele><time>2026-04-03T09:32:21.887Z</time></trkpt><trkpt lat="43.2232485" lon="10.8338564"><ele>481.25</ele><time>2026-04-03T09:32:22.879Z</time></trkpt><trkpt lat="43.2232011" lon="10.8340508"><ele>482.0</ele><time>2026-04-03T09:32:23.874Z</time></trkpt><trkpt lat="43.2231171" lon="10.8342208"><ele>485.3333333333333</ele><time>2026-04-03T09:32:24.879Z</time></trkpt><trkpt lat="43.2229985" lon="10.8343574"><ele>488.66666666666663</ele><time>2026-04-03T09:32:25.891Z</time></trkpt><trkpt lat="43.222857" lon="10.8344677"><ele>492.0</ele><time>2026-04-03T09:32:26.882Z</time></trkpt><trkpt lat="43.2227212" lon="10.8345772"><ele>492.0</ele><time>2026-04-03T09:32:27.877Z</time></trkpt><trkpt lat="43.2225603" lon="10.83469"><ele>492.0</ele><time>2026-04-03T09:32:28.888Z</time></trkpt><trkpt lat="43.222402" lon="10.8348206"><ele>492.0</ele><time>2026-04-03T09:32:29.897Z</time></trkpt><trkpt lat="43.2222517" lon="10.8349684"><ele>491.0</ele><time>2026-04-03T09:32:30.884Z</time></trkpt><trkpt lat="43.2220963" lon="10.8351556"><ele>490.0</ele><time>2026-04-03T09:32:31.885Z</time></trkpt><trkpt lat="43.2219497" lon="10.8353524"><ele>489.0</ele><time>2026-04-03T09:32:32.872Z</time></trkpt><trkpt lat="43.2218115" lon="10.8355774"><ele>489.0</ele><time>2026-04-03T09:32:33.875Z</time></trkpt><trkpt lat="43.2216827" lon="10.8358069"><ele>489.0</ele><time>2026-04-03T09:32:34.881Z</time></trkpt><trkpt lat="43.2215611" lon="10.8360378"><ele>489.0</ele><time>2026-04-03T09:32:35.881Z</time></trkpt><trkpt lat="43.2214631" lon="10.8362969"><ele>488.66666666666663</ele><time>2026-04-03T09:32:36.874Z</time></trkpt><trkpt lat="43.2213776" lon="10.8365687"><ele>488.3333333333333</ele><time>2026-04-03T09:32:37.882Z</time></trkpt><trkpt lat="43.2213037" lon="10.8368442"><ele>488.0</ele><time>2026-04-03T09:32:38.881Z</time></trkpt><trkpt lat="43.2212382" lon="10.8371024"><ele>488.0</ele><time>2026-04-03T09:32:39.89Z</time></trkpt><trkpt lat="43.2211791" lon="10.837341"><ele>488.0</ele><time>2026-04-03T09:32:40.878Z</time></trkpt><trkpt lat="43.221113" lon="10.8375678"><ele>488.0</ele><time>2026-04-03T09:32:41.886Z</time></trkpt><trkpt lat="43.2210333" lon="10.8377897"><ele>491.0</ele><time>2026-04-03T09:32:42.872Z</time></trkpt><trkpt lat="43.2209465" lon="10.8379964"><ele>494.0</ele><time>2026-04-03T09:32:43.882Z</time></trkpt><trkpt lat="43.2208619" lon="10.8381853"><ele>497.0</ele><time>2026-04-03T09:32:44.883Z</time></trkpt><trkpt lat="43.2207863" lon="10.8383657"><ele>498.0</ele><time>2026-04-03T09:32:45.883Z</time></trkpt><trkpt lat="43.2207246" lon="10.8385608"><ele>499.0</ele><time>2026-04-03T09:32:46.878Z</time></trkpt><trkpt lat="43.2206811" lon="10.8387718"><ele>500.0</ele><time>2026-04-03T09:32:47.881Z</time></trkpt><trkpt lat="43.2206556" lon="10.8389814"><ele>500.0</ele><time>2026-04-03T09:32:48.879Z</time></trkpt><trkpt lat="43.2206538" lon="10.8391797"><ele>500.0</ele><time>2026-04-03T09:32:49.884Z</time></trkpt><trkpt lat="43.2206738" lon="10.8393659"><ele>500.0</ele><time>2026-04-03T09:32:50.885Z</time></trkpt><trkpt lat="43.220723" lon="10.8395664"><ele>500.0</ele><time>2026-04-03T09:32:51.876Z</time></trkpt><trkpt lat="43.2207957" lon="10.8397619"><ele>498.66666666666663</ele><time>2026-04-03T09:32:52.883Z</time></trkpt><trkpt lat="43.2208811" lon="10.8399622"><ele>497.33333333333337</ele><time>2026-04-03T09:32:53.885Z</time></trkpt><trkpt lat="43.220973" lon="10.8401584"><ele>496.0</ele><time>2026-04-03T09:32:54.883Z</time></trkpt><trkpt lat="43.2210412" lon="10.8403504"><ele>496.25</ele><time>2026-04-03T09:32:55.883Z</time></trkpt><trkpt lat="43.2210837" lon="10.8405433"><ele>496.5</ele><time>2026-04-03T09:32:56.88Z</time></trkpt><trkpt lat="43.2211032" lon="10.8407423"><ele>496.75</ele><time>2026-04-03T09:32:57.883Z</time></trkpt><trkpt lat="43.2210947" lon="10.8409445"><ele>497.0</ele><time>2026-04-03T09:32:58.893Z</time></trkpt><trkpt lat="43.2210491" lon="10.8411463"><ele>497.0</ele><time>2026-04-03T09:32:59.878Z</time></trkpt><trkpt lat="43.2209851" lon="10.8413492"><ele>497.0</ele><time>2026-04-03T09:33:00.881Z</time></trkpt><trkpt lat="43.2209219" lon="10.8415634"><ele>497.0</ele><time>2026-04-03T09:33:01.889Z</time></trkpt><trkpt lat="43.2208754" lon="10.8417932"><ele>497.0</ele><time>2026-04-03T09:33:02.875Z</time></trkpt><trkpt lat="43.2208526" lon="10.8420326"><ele>497.0</ele><time>2026-04-03T09:33:03.877Z</time></trkpt><trkpt lat="43.2208503" lon="10.8422783"><ele>497.0</ele><time>2026-04-03T09:33:04.875Z</time></trkpt><trkpt lat="43.2208684" lon="10.8425306"><ele>496.3333333333333</ele><time>2026-04-03T09:33:05.888Z</time></trkpt><trkpt lat="43.2208961" lon="10.8427748"><ele>495.66666666666663</ele><time>2026-04-03T09:33:06.883Z</time></trkpt><trkpt lat="43.2209271" lon="10.8430021"><ele>495.0</ele><time>2026-04-03T09:33:07.877Z</time></trkpt><trkpt lat="43.2209688" lon="10.8432183"><ele>495.0</ele><time>2026-04-03T09:33:08.892Z</time></trkpt><trkpt lat="43.2210251" lon="10.8434308"><ele>495.0</ele><time>2026-04-03T09:33:09.878Z</time></trkpt><trkpt lat="43.2210924" lon="10.8436385"><ele>495.0</ele><time>2026-04-03T09:33:10.874Z</time></trkpt><trkpt lat="43.2211707" lon="10.8438412"><ele>492.33333333333337</ele><time>2026-04-03T09:33:11.876Z</time></trkpt><trkpt lat="43.2212625" lon="10.8440377"><ele>489.6666666666667</ele><time>2026-04-03T09:33:12.883Z</time></trkpt><trkpt lat="43.2213629" lon="10.8442345"><ele>487.0</ele><time>2026-04-03T09:33:13.881Z</time></trkpt><trkpt lat="43.221468" lon="10.8444338"><ele>491.0</ele><time>2026-04-03T09:33:14.88Z</time></trkpt><trkpt lat="43.2215681" lon="10.8446345"><ele>495.0</ele><time>2026-04-03T09:33:15.866Z</time></trkpt><trkpt lat="43.221646" lon="10.8448363"><ele>499.0</ele><time>2026-04-03T09:33:16.874Z</time></trkpt><trkpt lat="43.2216998" lon="10.845037"><ele>498.6666666666667</ele><time>2026-04-03T09:33:17.874Z</time></trkpt><trkpt lat="43.2217249" lon="10.8452387"><ele>498.33333333333337</ele><time>2026-04-03T09:33:18.874Z</time></trkpt><trkpt lat="43.221725" lon="10.8454455"><ele>498.0</ele><time>2026-04-03T09:33:19.881Z</time></trkpt><trkpt lat="43.2216989" lon="10.8456541"><ele>498.0</ele><time>2026-04-03T09:33:20.878Z</time></trkpt><trkpt lat="43.2216529" lon="10.8458651"><ele>498.0</ele><time>2026-04-03T09:33:21.883Z</time></trkpt><trkpt lat="43.2216017" lon="10.846084"><ele>498.0</ele><time>2026-04-03T09:33:22.88Z</time></trkpt><trkpt lat="43.2215529" lon="10.8462923"><ele>498.2</ele><time>2026-04-03T09:33:23.881Z</time></trkpt><trkpt lat="43.2215088" lon="10.8464815"><ele>498.4</ele><time>2026-04-03T09:33:24.879Z</time></trkpt><trkpt lat="43.2214727" lon="10.8466361"><ele>498.59999999999997</ele><time>2026-04-03T09:33:25.871Z</time></trkpt><trkpt lat="43.2214527" lon="10.8467544"><ele>498.79999999999995</ele><time>2026-04-03T09:33:26.876Z</time></trkpt><trkpt lat="43.2214497" lon="10.8468519"><ele>499.0</ele><time>2026-04-03T09:33:27.88Z</time></trkpt><trkpt lat="43.221496" lon="10.8469789"><ele>499.00000000000006</ele><time>2026-04-03T09:33:29.891Z</time></trkpt><trkpt lat="43.2215655" lon="10.8470458"><ele>499.0</ele><time>2026-04-03T09:33:31.879Z</time></trkpt><trkpt lat="43.2216492" lon="10.8471518"><ele>499.0</ele><time>2026-04-03T09:33:33.885Z</time></trkpt><trkpt lat="43.2216883" lon="10.8472243"><ele>499.0</ele><time>2026-04-03T09:33:34.886Z</time></trkpt><trkpt lat="43.2217262" lon="10.8473147"><ele>499.00000000000006</ele><time>2026-04-03T09:33:35.884Z</time></trkpt><trkpt lat="43.2217503" lon="10.8474167"><ele>499.0</ele><time>2026-04-03T09:33:36.882Z</time></trkpt><trkpt lat="43.2217554" lon="10.8475365"><ele>498.2</ele><time>2026-04-03T09:33:37.879Z</time></trkpt><trkpt lat="43.2217413" lon="10.8476714"><ele>497.4</ele><time>2026-04-03T09:33:38.879Z</time></trkpt><trkpt lat="43.2217162" lon="10.8478012"><ele>496.6</ele><time>2026-04-03T09:33:39.875Z</time></trkpt><trkpt lat="43.2216895" lon="10.8479212"><ele>495.8</ele><time>2026-04-03T09:33:40.881Z</time></trkpt><trkpt lat="43.2216635" lon="10.84804"><ele>495.0</ele><time>2026-04-03T09:33:41.876Z</time></trkpt><trkpt lat="43.2216435" lon="10.8481577"><ele>495.0</ele><time>2026-04-03T09:33:42.879Z</time></trkpt><trkpt lat="43.2216362" lon="10.8482655"><ele>495.0</ele><time>2026-04-03T09:33:43.875Z</time></trkpt><trkpt lat="43.2216684" lon="10.8484051"><ele>495.0</ele><time>2026-04-03T09:33:45.872Z</time></trkpt><trkpt lat="43.2217607" lon="10.8484518"><ele>495.0</ele><time>2026-04-03T09:33:47.874Z</time></trkpt><trkpt lat="43.2218983" lon="10.8483729"><ele>495.0</ele><time>2026-04-03T09:33:49.878Z</time></trkpt><trkpt lat="43.222" lon="10.8482928"><ele>495.0</ele><time>2026-04-03T09:33:50.874Z</time></trkpt><trkpt lat="43.2220963" lon="10.8482144"><ele>495.0</ele><time>2026-04-03T09:33:51.877Z</time></trkpt><trkpt lat="43.2221859" lon="10.848148"><ele>495.0</ele><time>2026-04-03T09:33:52.873Z</time></trkpt><trkpt lat="43.2222721" lon="10.8481019"><ele>495.0</ele><time>2026-04-03T09:33:53.871Z</time></trkpt><trkpt lat="43.2223499" lon="10.8480636"><ele>495.0</ele><time>2026-04-03T09:33:54.869Z</time></trkpt><trkpt lat="43.2224461" lon="10.8480573"><ele>493.0</ele><time>2026-04-03T09:33:55.871Z</time></trkpt><trkpt lat="43.2225454" lon="10.8480795"><ele>491.0</ele><time>2026-04-03T09:33:56.888Z</time></trkpt><trkpt lat="43.2226508" lon="10.8481248"><ele>489.0</ele><time>2026-04-03T09:33:57.879Z</time></trkpt><trkpt lat="43.2227456" lon="10.8481883"><ele>487.0</ele><time>2026-04-03T09:33:58.874Z</time></trkpt><trkpt lat="43.2228373" lon="10.8482555"><ele>485.0</ele><time>2026-04-03T09:33:59.879Z</time></trkpt><trkpt lat="43.2229231" lon="10.848337"><ele>485.0</ele><time>2026-04-03T09:34:00.875Z</time></trkpt><trkpt lat="43.2229987" lon="10.848416"><ele>485.0</ele><time>2026-04-03T09:34:01.877Z</time></trkpt><trkpt lat="43.2230756" lon="10.8484846"><ele>485.0</ele><time>2026-04-03T09:34:02.887Z</time></trkpt><trkpt lat="43.2231482" lon="10.8485421"><ele>485.0</ele><time>2026-04-03T09:34:03.876Z</time></trkpt><trkpt lat="43.2232425" lon="10.8485545"><ele>485.0</ele><time>2026-04-03T09:34:04.87Z</time></trkpt><trkpt lat="43.2233567" lon="10.8485459"><ele>483.49999999999994</ele><time>2026-04-03T09:34:05.884Z</time></trkpt><trkpt lat="43.2234619" lon="10.8485344"><ele>482.0</ele><time>2026-04-03T09:34:06.881Z</time></trkpt><trkpt lat="43.2235513" lon="10.8485335"><ele>480.5</ele><time>2026-04-03T09:34:07.874Z</time></trkpt><trkpt lat="43.223611" lon="10.8485935"><ele>479.0</ele><time>2026-04-03T09:34:08.88Z</time></trkpt><trkpt lat="43.2236621" lon="10.8486852"><ele>477.49999999999994</ele><time>2026-04-03T09:34:09.878Z</time></trkpt><trkpt lat="43.2237098" lon="10.8487892"><ele>476.0</ele><time>2026-04-03T09:34:10.87Z</time></trkpt><trkpt lat="43.2237106" lon="10.8489264"><ele>476.0</ele><time>2026-04-03T09:34:11.879Z</time></trkpt><trkpt lat="43.2237138" lon="10.8490528"><ele>476.0</ele><time>2026-04-03T09:34:12.877Z</time></trkpt><trkpt lat="43.2237086" lon="10.8491765"><ele>476.0</ele><time>2026-04-03T09:34:13.873Z</time></trkpt><trkpt lat="43.2237454" lon="10.8492793"><ele>476.0</ele><time>2026-04-03T09:34:14.874Z</time></trkpt><trkpt lat="43.2238009" lon="10.8493859"><ele>476.0</ele><time>2026-04-03T09:34:15.878Z</time></trkpt><trkpt lat="43.2238744" lon="10.8494835"><ele>474.0</ele><time>2026-04-03T09:34:16.877Z</time></trkpt><trkpt lat="43.2239404" lon="10.8495701"><ele>472.0</ele><time>2026-04-03T09:34:17.882Z</time></trkpt><trkpt lat="43.2239816" lon="10.8496873"><ele>470.0</ele><time>2026-04-03T09:34:18.879Z</time></trkpt><trkpt lat="43.2240311" lon="10.8497897"><ele>468.0</ele><time>2026-04-03T09:34:19.877Z</time></trkpt><trkpt lat="43.2241248" lon="10.8498611"><ele>466.0</ele><time>2026-04-03T09:34:20.878Z</time></trkpt><trkpt lat="43.2242439" lon="10.8499336"><ele>466.0</ele><time>2026-04-03T09:34:21.881Z</time></trkpt><trkpt lat="43.2243628" lon="10.8499771"><ele>466.0</ele><time>2026-04-03T09:34:22.876Z</time></trkpt><trkpt lat="43.2244712" lon="10.8500342"><ele>466.0</ele><time>2026-04-03T09:34:23.878Z</time></trkpt><trkpt lat="43.2245728" lon="10.8501066"><ele>466.0</ele><time>2026-04-03T09:34:24.878Z</time></trkpt><trkpt lat="43.2246564" lon="10.850182"><ele>465.20000000000005</ele><time>2026-04-03T09:34:25.874Z</time></trkpt><trkpt lat="43.2247475" lon="10.85023"><ele>464.40000000000003</ele><time>2026-04-03T09:34:26.878Z</time></trkpt><trkpt lat="43.2248202" lon="10.8502781"><ele>463.6</ele><time>2026-04-03T09:34:27.873Z</time></trkpt><trkpt lat="43.2249442" lon="10.8502592"><ele>462.8</ele><time>2026-04-03T09:34:29.887Z</time></trkpt><trkpt lat="43.2250068" lon="10.850177"><ele>462.0</ele><time>2026-04-03T09:34:30.883Z</time></trkpt><trkpt lat="43.2250596" lon="10.850071"><ele>462.0</ele><time>2026-04-03T09:34:31.883Z</time></trkpt><trkpt lat="43.2251053" lon="10.8499658"><ele>462.00000000000006</ele><time>2026-04-03T09:34:32.873Z</time></trkpt><trkpt lat="43.2251512" lon="10.8498652"><ele>462.00000000000006</ele><time>2026-04-03T09:34:33.872Z</time></trkpt><trkpt lat="43.2252014" lon="10.849787"><ele>462.0</ele><time>2026-04-03T09:34:34.885Z</time></trkpt><trkpt lat="43.2253257" lon="10.8497497"><ele>462.0</ele><time>2026-04-03T09:34:36.879Z</time></trkpt><trkpt lat="43.2254132" lon="10.8497833"><ele>462.0</ele><time>2026-04-03T09:34:37.877Z</time></trkpt><trkpt lat="43.225517" lon="10.8498297"><ele>462.00000000000006</ele><time>2026-04-03T09:34:38.876Z</time></trkpt><trkpt lat="43.2256172" lon="10.8499007"><ele>462.00000000000006</ele><time>2026-04-03T09:34:39.878Z</time></trkpt><trkpt lat="43.2257121" lon="10.8499251"><ele>462.0</ele><time>2026-04-03T09:34:40.872Z</time></trkpt><trkpt lat="43.2258326" lon="10.8499314"><ele>462.0</ele><time>2026-04-03T09:34:41.878Z</time></trkpt><trkpt lat="43.2259514" lon="10.8499216"><ele>460.40000000000003</ele><time>2026-04-03T09:34:42.879Z</time></trkpt><trkpt lat="43.2260627" lon="10.8499502"><ele>458.80000000000007</ele><time>2026-04-03T09:34:43.881Z</time></trkpt><trkpt lat="43.2261612" lon="10.8499942"><ele>457.2</ele><time>2026-04-03T09:34:44.877Z</time></trkpt><trkpt lat="43.2262422" lon="10.8500652"><ele>455.6</ele><time>2026-04-03T09:34:45.872Z</time></trkpt><trkpt lat="43.2262983" lon="10.8501556"><ele>454.0</ele><time>2026-04-03T09:34:46.878Z</time></trkpt><trkpt lat="43.2263433" lon="10.8502871"><ele>452.0</ele><time>2026-04-03T09:34:47.882Z</time></trkpt><trkpt lat="43.2263967" lon="10.8504486"><ele>450.0</ele><time>2026-04-03T09:34:48.875Z</time></trkpt><trkpt lat="43.2264477" lon="10.8505977"><ele>448.0</ele><time>2026-04-03T09:34:49.883Z</time></trkpt><trkpt lat="43.2265002" lon="10.8507238"><ele>446.0</ele><time>2026-04-03T09:34:50.879Z</time></trkpt><trkpt lat="43.2265659" lon="10.8508348"><ele>446.0</ele><time>2026-04-03T09:34:51.878Z</time></trkpt><trkpt lat="43.2266356" lon="10.8509157"><ele>446.0</ele><time>2026-04-03T09:34:52.872Z</time></trkpt><trkpt lat="43.2266994" lon="10.8509796"><ele>446.0</ele><time>2026-04-03T09:34:53.878Z</time></trkpt><trkpt lat="43.2267925" lon="10.8510199"><ele>446.0</ele><time>2026-04-03T09:34:54.875Z</time></trkpt><trkpt lat="43.2269209" lon="10.8510368"><ele>446.0</ele><time>2026-04-03T09:34:55.884Z</time></trkpt><trkpt lat="43.2270415" lon="10.8510475"><ele>446.0</ele><time>2026-04-03T09:34:56.883Z</time></trkpt><trkpt lat="43.2271639" lon="10.8510612"><ele>446.0</ele><time>2026-04-03T09:34:57.877Z</time></trkpt><trkpt lat="43.227266" lon="10.8511065"><ele>446.0</ele><time>2026-04-03T09:34:58.884Z</time></trkpt><trkpt lat="43.2273582" lon="10.8511579"><ele>446.0</ele><time>2026-04-03T09:34:59.883Z</time></trkpt><trkpt lat="43.2274536" lon="10.8512044"><ele>446.0</ele><time>2026-04-03T09:35:00.88Z</time></trkpt><trkpt lat="43.2275548" lon="10.8512183"><ele>446.4</ele><time>2026-04-03T09:35:01.874Z</time></trkpt><trkpt lat="43.2276593" lon="10.8511929"><ele>446.8</ele><time>2026-04-03T09:35:02.877Z</time></trkpt><trkpt lat="43.2277413" lon="10.8511409"><ele>447.19999999999993</ele><time>2026-04-03T09:35:03.875Z</time></trkpt><trkpt lat="43.2278424" lon="10.8511457"><ele>447.59999999999997</ele><time>2026-04-03T09:35:04.881Z</time></trkpt><trkpt lat="43.2279282" lon="10.8511805"><ele>448.0</ele><time>2026-04-03T09:35:05.877Z</time></trkpt><trkpt lat="43.2280011" lon="10.8512468"><ele>448.00000000000006</ele><time>2026-04-03T09:35:06.88Z</time></trkpt><trkpt lat="43.2280548" lon="10.8513361"><ele>448.0</ele><time>2026-04-03T09:35:07.877Z</time></trkpt><trkpt lat="43.2280848" lon="10.8514463"><ele>448.0</ele><time>2026-04-03T09:35:08.913Z</time></trkpt><trkpt lat="43.2280831" lon="10.8515669"><ele>448.0</ele><time>2026-04-03T09:35:09.878Z</time></trkpt><trkpt lat="43.228062" lon="10.851688"><ele>448.00000000000006</ele><time>2026-04-03T09:35:10.887Z</time></trkpt><trkpt lat="43.2280458" lon="10.8518126"><ele>448.0</ele><time>2026-04-03T09:35:11.874Z</time></trkpt><trkpt lat="43.2280395" lon="10.8519606"><ele>448.79999999999995</ele><time>2026-04-03T09:35:12.881Z</time></trkpt><trkpt lat="43.2280711" lon="10.8521241"><ele>449.59999999999997</ele><time>2026-04-03T09:35:13.876Z</time></trkpt><trkpt lat="43.2280979" lon="10.8522726"><ele>450.40000000000003</ele><time>2026-04-03T09:35:14.87Z</time></trkpt><trkpt lat="43.2281052" lon="10.8523888"><ele>451.20000000000005</ele><time>2026-04-03T09:35:15.869Z</time></trkpt><trkpt lat="43.228128" lon="10.8524812"><ele>452.0</ele><time>2026-04-03T09:35:16.877Z</time></trkpt><trkpt lat="43.2282261" lon="10.8525634"><ele>450.20000000000005</ele><time>2026-04-03T09:35:18.884Z</time></trkpt><trkpt lat="43.2282914" lon="10.852567"><ele>448.40000000000003</ele><time>2026-04-03T09:35:19.88Z</time></trkpt><trkpt lat="43.2283898" lon="10.8525163"><ele>446.59999999999997</ele><time>2026-04-03T09:35:20.882Z</time></trkpt><trkpt lat="43.2284942" lon="10.8524453"><ele>444.79999999999995</ele><time>2026-04-03T09:35:21.88Z</time></trkpt><trkpt lat="43.2285938" lon="10.8524037"><ele>443.0</ele><time>2026-04-03T09:35:22.887Z</time></trkpt><trkpt lat="43.2286862" lon="10.8523745"><ele>442.99999999999994</ele><time>2026-04-03T09:35:23.889Z</time></trkpt><trkpt lat="43.2287704" lon="10.8524033"><ele>443.0</ele><time>2026-04-03T09:35:24.892Z</time></trkpt><trkpt lat="43.2288555" lon="10.8524409"><ele>443.0</ele><time>2026-04-03T09:35:25.873Z</time></trkpt><trkpt lat="43.2289277" lon="10.8524646"><ele>443.0</ele><time>2026-04-03T09:35:26.883Z</time></trkpt><trkpt lat="43.229003" lon="10.8524522"><ele>442.99999999999994</ele><time>2026-04-03T09:35:27.887Z</time></trkpt><trkpt lat="43.2291" lon="10.8524023"><ele>443.0</ele><time>2026-04-03T09:35:28.878Z</time></trkpt><trkpt lat="43.2292185" lon="10.8523222"><ele>441.75</ele><time>2026-04-03T09:35:29.88Z</time></trkpt><trkpt lat="43.2293459" lon="10.8522341"><ele>440.5</ele><time>2026-04-03T09:35:30.87Z</time></trkpt><trkpt lat="43.2294675" lon="10.8521511"><ele>439.25</ele><time>2026-04-03T09:35:31.872Z</time></trkpt><trkpt lat="43.2295759" lon="10.8520913"><ele>438.0</ele><time>2026-04-03T09:35:32.875Z</time></trkpt><trkpt lat="43.2296651" lon="10.8520468"><ele>438.0</ele><time>2026-04-03T09:35:33.876Z</time></trkpt><trkpt lat="43.2297387" lon="10.8520706"><ele>438.0</ele><time>2026-04-03T09:35:34.87Z</time></trkpt><trkpt lat="43.229818" lon="10.8520992"><ele>438.0</ele><time>2026-04-03T09:35:35.884Z</time></trkpt><trkpt lat="43.229904" lon="10.8521565"><ele>438.0</ele><time>2026-04-03T09:35:36.872Z</time></trkpt><trkpt lat="43.2299902" lon="10.8521917"><ele>438.0</ele><time>2026-04-03T09:35:37.878Z</time></trkpt><trkpt lat="43.2300885" lon="10.8521654"><ele>438.0</ele><time>2026-04-03T09:35:38.882Z</time></trkpt><trkpt lat="43.2301735" lon="10.8521027"><ele>438.2</ele><time>2026-04-03T09:35:39.869Z</time></trkpt><trkpt lat="43.2302307" lon="10.8520097"><ele>438.4</ele><time>2026-04-03T09:35:40.879Z</time></trkpt><trkpt lat="43.2302904" lon="10.8519004"><ele>438.59999999999997</ele><time>2026-04-03T09:35:41.889Z</time></trkpt><trkpt lat="43.2303331" lon="10.8517718"><ele>438.79999999999995</ele><time>2026-04-03T09:35:42.878Z</time></trkpt><trkpt lat="43.2303929" lon="10.8516813"><ele>439.0</ele><time>2026-04-03T09:35:43.882Z</time></trkpt><trkpt lat="43.2304657" lon="10.8516323"><ele>437.4</ele><time>2026-04-03T09:35:44.874Z</time></trkpt><trkpt lat="43.2305393" lon="10.8516217"><ele>435.79999999999995</ele><time>2026-04-03T09:35:45.871Z</time></trkpt><trkpt lat="43.2306168" lon="10.8516148"><ele>434.20000000000005</ele><time>2026-04-03T09:35:46.881Z</time></trkpt><trkpt lat="43.2307178" lon="10.8516249"><ele>432.6</ele><time>2026-04-03T09:35:47.881Z</time></trkpt><trkpt lat="43.2308338" lon="10.8516388"><ele>431.0</ele><time>2026-04-03T09:35:48.877Z</time></trkpt><trkpt lat="43.2309401" lon="10.851651"><ele>431.0</ele><time>2026-04-03T09:35:49.881Z</time></trkpt><trkpt lat="43.2310305" lon="10.8516478"><ele>431.0</ele><time>2026-04-03T09:35:50.886Z</time></trkpt><trkpt lat="43.2311126" lon="10.8516051"><ele>431.0</ele><time>2026-04-03T09:35:51.873Z</time></trkpt><trkpt lat="43.2311987" lon="10.8515232"><ele>431.0</ele><time>2026-04-03T09:35:52.883Z</time></trkpt><trkpt lat="43.2312779" lon="10.851449"><ele>431.0</ele><time>2026-04-03T09:35:53.872Z</time></trkpt><trkpt lat="43.2313638" lon="10.851424"><ele>431.0</ele><time>2026-04-03T09:35:54.88Z</time></trkpt><trkpt lat="43.2314709" lon="10.8513994"><ele>431.0</ele><time>2026-04-03T09:35:55.875Z</time></trkpt><trkpt lat="43.2315753" lon="10.851325"><ele>431.0</ele><time>2026-04-03T09:35:56.88Z</time></trkpt><trkpt lat="43.2316672" lon="10.8512481"><ele>431.0</ele><time>2026-04-03T09:35:57.881Z</time></trkpt><trkpt lat="43.2317508" lon="10.8511813"><ele>431.0</ele><time>2026-04-03T09:35:58.878Z</time></trkpt><trkpt lat="43.2318527" lon="10.8511531"><ele>431.0</ele><time>2026-04-03T09:35:59.879Z</time></trkpt><trkpt lat="43.2319922" lon="10.8511336"><ele>431.0</ele><time>2026-04-03T09:36:00.889Z</time></trkpt><trkpt lat="43.2321355" lon="10.8510893"><ele>431.0</ele><time>2026-04-03T09:36:01.879Z</time></trkpt><trkpt lat="43.2322593" lon="10.8510444"><ele>431.0</ele><time>2026-04-03T09:36:02.879Z</time></trkpt><trkpt lat="43.2323755" lon="10.8510009"><ele>430.0</ele><time>2026-04-03T09:36:03.878Z</time></trkpt><trkpt lat="43.2324789" lon="10.8509766"><ele>429.0</ele><time>2026-04-03T09:36:04.875Z</time></trkpt><trkpt lat="43.2325749" lon="10.8509668"><ele>428.0</ele><time>2026-04-03T09:36:05.882Z</time></trkpt><trkpt lat="43.2326672" lon="10.851026"><ele>427.0</ele><time>2026-04-03T09:36:06.886Z</time></trkpt><trkpt lat="43.2327668" lon="10.8511201"><ele>426.0</ele><time>2026-04-03T09:36:07.886Z</time></trkpt><trkpt lat="43.2328638" lon="10.8512144"><ele>426.0</ele><time>2026-04-03T09:36:08.876Z</time></trkpt><trkpt lat="43.2329521" lon="10.8512914"><ele>426.0</ele><time>2026-04-03T09:36:09.882Z</time></trkpt><trkpt lat="43.233056" lon="10.8513459"><ele>426.0</ele><time>2026-04-03T09:36:10.879Z</time></trkpt><trkpt lat="43.2331773" lon="10.8513776"><ele>426.0</ele><time>2026-04-03T09:36:11.879Z</time></trkpt><trkpt lat="43.2332808" lon="10.8514051"><ele>426.0</ele><time>2026-04-03T09:36:12.879Z</time></trkpt><trkpt lat="43.2333737" lon="10.8514319"><ele>423.8</ele><time>2026-04-03T09:36:13.881Z</time></trkpt><trkpt lat="43.2334478" lon="10.8514774"><ele>421.6</ele><time>2026-04-03T09:36:14.874Z</time></trkpt><trkpt lat="43.2335154" lon="10.8515532"><ele>419.4</ele><time>2026-04-03T09:36:15.877Z</time></trkpt><trkpt lat="43.2335514" lon="10.8516668"><ele>417.2</ele><time>2026-04-03T09:36:16.874Z</time></trkpt><trkpt lat="43.2335638" lon="10.8517944"><ele>415.0</ele><time>2026-04-03T09:36:17.871Z</time></trkpt><trkpt lat="43.2335374" lon="10.8519404"><ele>415.0</ele><time>2026-04-03T09:36:18.876Z</time></trkpt><trkpt lat="43.2334877" lon="10.8520896"><ele>415.0</ele><time>2026-04-03T09:36:19.877Z</time></trkpt><trkpt lat="43.2334611" lon="10.8522382"><ele>415.0</ele><time>2026-04-03T09:36:20.879Z</time></trkpt><trkpt lat="43.2334647" lon="10.8523648"><ele>415.0</ele><time>2026-04-03T09:36:21.871Z</time></trkpt><trkpt lat="43.2334824" lon="10.8524539"><ele>415.0</ele><time>2026-04-03T09:36:22.884Z</time></trkpt><trkpt lat="43.2335212" lon="10.8525329"><ele>415.0</ele><time>2026-04-03T09:36:23.875Z</time></trkpt><trkpt lat="43.2335663" lon="10.8526034"><ele>415.0</ele><time>2026-04-03T09:36:24.879Z</time></trkpt><trkpt lat="43.2335976" lon="10.8526879"><ele>415.0</ele><time>2026-04-03T09:36:25.883Z</time></trkpt><trkpt lat="43.2336068" lon="10.8527863"><ele>415.0</ele><time>2026-04-03T09:36:26.88Z</time></trkpt><trkpt lat="43.2336193" lon="10.8528844"><ele>415.0</ele><time>2026-04-03T09:36:27.878Z</time></trkpt><trkpt lat="43.2336675" lon="10.8529511"><ele>415.0</ele><time>2026-04-03T09:36:28.881Z</time></trkpt><trkpt lat="43.2337345" lon="10.8530095"><ele>415.0</ele><time>2026-04-03T09:36:29.882Z</time></trkpt><trkpt lat="43.2338084" lon="10.8530536"><ele>415.33333333333337</ele><time>2026-04-03T09:36:30.881Z</time></trkpt><trkpt lat="43.2338765" lon="10.8531065"><ele>415.6666666666667</ele><time>2026-04-03T09:36:31.882Z</time></trkpt><trkpt lat="43.2339368" lon="10.8531717"><ele>416.0</ele><time>2026-04-03T09:36:32.888Z</time></trkpt><trkpt lat="43.2340009" lon="10.8532243"><ele>416.33333333333337</ele><time>2026-04-03T09:36:33.892Z</time></trkpt><trkpt lat="43.2340608" lon="10.8532615"><ele>416.6666666666667</ele><time>2026-04-03T09:36:34.885Z</time></trkpt><trkpt lat="43.234141" lon="10.8532498"><ele>417.0</ele><time>2026-04-03T09:36:35.88Z</time></trkpt><trkpt lat="43.2342283" lon="10.85322"><ele>415.20000000000005</ele><time>2026-04-03T09:36:36.882Z</time></trkpt><trkpt lat="43.2343104" lon="10.8531941"><ele>413.4</ele><time>2026-04-03T09:36:37.88Z</time></trkpt><trkpt lat="43.2343801" lon="10.8531724"><ele>411.6</ele><time>2026-04-03T09:36:38.883Z</time></trkpt><trkpt lat="43.2344833" lon="10.8532748"><ele>409.79999999999995</ele><time>2026-04-03T09:36:40.868Z</time></trkpt><trkpt lat="43.2345207" lon="10.8533904"><ele>408.0</ele><time>2026-04-03T09:36:41.875Z</time></trkpt><trkpt lat="43.2345464" lon="10.8535101"><ele>408.0</ele><time>2026-04-03T09:36:42.87Z</time></trkpt><trkpt lat="43.2345728" lon="10.8536124"><ele>408.0</ele><time>2026-04-03T09:36:43.874Z</time></trkpt><trkpt lat="43.23467" lon="10.8537027"><ele>408.0</ele><time>2026-04-03T09:36:45.874Z</time></trkpt><trkpt lat="43.234739" lon="10.8537281"><ele>408.0</ele><time>2026-04-03T09:36:46.886Z</time></trkpt><trkpt lat="43.2348252" lon="10.8537007"><ele>408.0</ele><time>2026-04-03T09:36:47.867Z</time></trkpt><trkpt lat="43.2349131" lon="10.8537106"><ele>408.0</ele><time>2026-04-03T09:36:48.875Z</time></trkpt><trkpt lat="43.2349895" lon="10.8537491"><ele>406.5</ele><time>2026-04-03T09:36:49.874Z</time></trkpt><trkpt lat="43.2350493" lon="10.8538373"><ele>405.0</ele><time>2026-04-03T09:36:50.878Z</time></trkpt><trkpt lat="43.2350892" lon="10.8539704"><ele>403.5</ele><time>2026-04-03T09:36:51.877Z</time></trkpt><trkpt lat="43.2351146" lon="10.8541439"><ele>402.0</ele><time>2026-04-03T09:36:52.872Z</time></trkpt><trkpt lat="43.2351203" lon="10.8543438"><ele>402.0</ele><time>2026-04-03T09:36:53.874Z</time></trkpt><trkpt lat="43.2351473" lon="10.854524"><ele>402.0</ele><time>2026-04-03T09:36:54.875Z</time></trkpt><trkpt lat="43.2351862" lon="10.8546792"><ele>402.0</ele><time>2026-04-03T09:36:55.875Z</time></trkpt><trkpt lat="43.2352394" lon="10.8548419"><ele>402.0</ele><time>2026-04-03T09:36:56.875Z</time></trkpt><trkpt lat="43.2353068" lon="10.8549837"><ele>402.0</ele><time>2026-04-03T09:36:57.88Z</time></trkpt><trkpt lat="43.2353741" lon="10.8551126"><ele>402.0</ele><time>2026-04-03T09:36:58.879Z</time></trkpt><trkpt lat="43.2354248" lon="10.8552432"><ele>402.0</ele><time>2026-04-03T09:36:59.874Z</time></trkpt><trkpt lat="43.2354525" lon="10.8553739"><ele>402.0</ele><time>2026-04-03T09:37:00.884Z</time></trkpt><trkpt lat="43.2354795" lon="10.8554967"><ele>402.0</ele><time>2026-04-03T09:37:01.871Z</time></trkpt><trkpt lat="43.2355045" lon="10.8556125"><ele>403.1666666666667</ele><time>2026-04-03T09:37:02.875Z</time></trkpt><trkpt lat="43.2355534" lon="10.8557094"><ele>404.33333333333337</ele><time>2026-04-03T09:37:03.877Z</time></trkpt><trkpt lat="43.2356176" lon="10.8557951"><ele>405.5</ele><time>2026-04-03T09:37:04.873Z</time></trkpt><trkpt lat="43.2356947" lon="10.8558518"><ele>406.6666666666667</ele><time>2026-04-03T09:37:05.869Z</time></trkpt><trkpt lat="43.235786" lon="10.8558816"><ele>407.83333333333337</ele><time>2026-04-03T09:37:06.877Z</time></trkpt><trkpt lat="43.2358485" lon="10.8559569"><ele>409.0</ele><time>2026-04-03T09:37:07.882Z</time></trkpt><trkpt lat="43.2358792" lon="10.8560421"><ele>405.1666666666667</ele><time>2026-04-03T09:37:08.877Z</time></trkpt><trkpt lat="43.235909" lon="10.8561264"><ele>401.33333333333337</ele><time>2026-04-03T09:37:09.881Z</time></trkpt><trkpt lat="43.2359258" lon="10.8562241"><ele>397.5</ele><time>2026-04-03T09:37:10.884Z</time></trkpt><trkpt lat="43.2359442" lon="10.8563316"><ele>393.66666666666663</ele><time>2026-04-03T09:37:11.88Z</time></trkpt><trkpt lat="43.2359635" lon="10.8564339"><ele>389.8333333333333</ele><time>2026-04-03T09:37:12.873Z</time></trkpt><trkpt lat="43.2359934" lon="10.856535"><ele>386.0</ele><time>2026-04-03T09:37:13.875Z</time></trkpt><trkpt lat="43.2360381" lon="10.8566295"><ele>386.0</ele><time>2026-04-03T09:37:14.878Z</time></trkpt><trkpt lat="43.2360903" lon="10.8567268"><ele>386.0</ele><time>2026-04-03T09:37:15.874Z</time></trkpt><trkpt lat="43.236161" lon="10.8568197"><ele>386.0</ele><time>2026-04-03T09:37:16.874Z</time></trkpt><trkpt lat="43.2362295" lon="10.8569077"><ele>386.0</ele><time>2026-04-03T09:37:17.874Z</time></trkpt><trkpt lat="43.2362871" lon="10.8569996"><ele>386.0</ele><time>2026-04-03T09:37:18.878Z</time></trkpt><trkpt lat="43.2363312" lon="10.8570983"><ele>384.99999999999994</ele><time>2026-04-03T09:37:19.884Z</time></trkpt><trkpt lat="43.2363593" lon="10.8572072"><ele>384.0</ele><time>2026-04-03T09:37:20.874Z</time></trkpt><trkpt lat="43.2363741" lon="10.857317"><ele>383.0</ele><time>2026-04-03T09:37:21.873Z</time></trkpt><trkpt lat="43.236386" lon="10.8574246"><ele>382.0</ele><time>2026-04-03T09:37:22.882Z</time></trkpt><trkpt lat="43.236395" lon="10.8575273"><ele>381.0</ele><time>2026-04-03T09:37:23.866Z</time></trkpt><trkpt lat="43.2363911" lon="10.8576361"><ele>380.0</ele><time>2026-04-03T09:37:24.88Z</time></trkpt><trkpt lat="43.2363701" lon="10.8577443"><ele>380.0</ele><time>2026-04-03T09:37:25.877Z</time></trkpt><trkpt lat="43.236342" lon="10.8578459"><ele>380.0</ele><time>2026-04-03T09:37:26.886Z</time></trkpt><trkpt lat="43.2363454" lon="10.8579446"><ele>380.0</ele><time>2026-04-03T09:37:27.883Z</time></trkpt><trkpt lat="43.2363774" lon="10.8580272"><ele>380.0</ele><time>2026-04-03T09:37:28.884Z</time></trkpt><trkpt lat="43.2364113" lon="10.8581093"><ele>380.0</ele><time>2026-04-03T09:37:29.88Z</time></trkpt><trkpt lat="43.2364773" lon="10.8581617"><ele>380.0</ele><time>2026-04-03T09:37:30.877Z</time></trkpt><trkpt lat="43.2365684" lon="10.8581844"><ele>380.6</ele><time>2026-04-03T09:37:31.87Z</time></trkpt><trkpt lat="43.2366839" lon="10.8582099"><ele>381.2</ele><time>2026-04-03T09:37:32.881Z</time></trkpt><trkpt lat="43.2367995" lon="10.8582388"><ele>381.79999999999995</ele><time>2026-04-03T09:37:33.878Z</time></trkpt><trkpt lat="43.2369039" lon="10.8582589"><ele>382.4</ele><time>2026-04-03T09:37:34.874Z</time></trkpt><trkpt lat="43.2369862" lon="10.8583042"><ele>383.0</ele><time>2026-04-03T09:37:35.882Z</time></trkpt><trkpt lat="43.2370461" lon="10.858375"><ele>384.1428571428571</ele><time>2026-04-03T09:37:36.879Z</time></trkpt><trkpt lat="43.2370707" lon="10.8584617"><ele>385.2857142857143</ele><time>2026-04-03T09:37:37.873Z</time></trkpt><trkpt lat="43.2370754" lon="10.8585539"><ele>386.42857142857144</ele><time>2026-04-03T09:37:38.876Z</time></trkpt><trkpt lat="43.237076" lon="10.8586439"><ele>387.57142857142856</ele><time>2026-04-03T09:37:39.88Z</time></trkpt><trkpt lat="43.23703" lon="10.858709"><ele>388.7142857142857</ele><time>2026-04-03T09:37:40.879Z</time></trkpt><trkpt lat="43.2369812" lon="10.8587702"><ele>389.85714285714283</ele><time>2026-04-03T09:37:41.878Z</time></trkpt><trkpt lat="43.2369013" lon="10.8587965"><ele>391.0</ele><time>2026-04-03T09:37:42.883Z</time></trkpt><trkpt lat="43.2368115" lon="10.8588306"><ele>391.0</ele><time>2026-04-03T09:37:43.87Z</time></trkpt><trkpt lat="43.2367313" lon="10.8588887"><ele>391.0</ele><time>2026-04-03T09:37:44.888Z</time></trkpt><trkpt lat="43.2366586" lon="10.8589746"><ele>391.0</ele><time>2026-04-03T09:37:45.872Z</time></trkpt><trkpt lat="43.2365893" lon="10.8590862"><ele>391.0</ele><time>2026-04-03T09:37:46.875Z</time></trkpt><trkpt lat="43.2365268" lon="10.8592035"><ele>391.0</ele><time>2026-04-03T09:37:47.885Z</time></trkpt><trkpt lat="43.2364677" lon="10.8593007"><ele>392.0</ele><time>2026-04-03T09:37:48.881Z</time></trkpt><trkpt lat="43.2364055" lon="10.8593863"><ele>393.0</ele><time>2026-04-03T09:37:49.879Z</time></trkpt><trkpt lat="43.2363267" lon="10.8594545"><ele>394.0</ele><time>2026-04-03T09:37:50.877Z</time></trkpt><trkpt lat="43.2362466" lon="10.8595202"><ele>395.0</ele><time>2026-04-03T09:37:51.876Z</time></trkpt><trkpt lat="43.2361534" lon="10.859576"><ele>396.0</ele><time>2026-04-03T09:37:52.872Z</time></trkpt><trkpt lat="43.2360741" lon="10.8596458"><ele>396.0</ele><time>2026-04-03T09:37:53.878Z</time></trkpt><trkpt lat="43.2359969" lon="10.85975"><ele>396.0</ele><time>2026-04-03T09:37:54.874Z</time></trkpt><trkpt lat="43.2359224" lon="10.8598806"><ele>396.0</ele><time>2026-04-03T09:37:55.877Z</time></trkpt><trkpt lat="43.2358568" lon="10.8600233"><ele>396.0</ele><time>2026-04-03T09:37:56.874Z</time></trkpt><trkpt lat="43.2358051" lon="10.8601702"><ele>396.5</ele><time>2026-04-03T09:37:57.881Z</time></trkpt><trkpt lat="43.2357496" lon="10.8603077"><ele>397.0</ele><time>2026-04-03T09:37:58.885Z</time></trkpt><trkpt lat="43.2356934" lon="10.8604394"><ele>397.5</ele><time>2026-04-03T09:37:59.876Z</time></trkpt><trkpt lat="43.2356114" lon="10.8605528"><ele>398.0</ele><time>2026-04-03T09:38:00.875Z</time></trkpt><trkpt lat="43.2355277" lon="10.8606573"><ele>398.0</ele><time>2026-04-03T09:38:01.88Z</time></trkpt><trkpt lat="43.235428" lon="10.8607315"><ele>398.0</ele><time>2026-04-03T09:38:02.872Z</time></trkpt><trkpt lat="43.2353278" lon="10.8607613"><ele>398.0</ele><time>2026-04-03T09:38:03.88Z</time></trkpt><trkpt lat="43.235244" lon="10.8608038"><ele>398.0</ele><time>2026-04-03T09:38:04.888Z</time></trkpt><trkpt lat="43.2351658" lon="10.8608465"><ele>398.0</ele><time>2026-04-03T09:38:05.88Z</time></trkpt><trkpt lat="43.2351346" lon="10.8609474"><ele>399.8333333333333</ele><time>2026-04-03T09:38:06.888Z</time></trkpt><trkpt lat="43.235104" lon="10.8610564"><ele>401.66666666666663</ele><time>2026-04-03T09:38:07.877Z</time></trkpt><trkpt lat="43.2350657" lon="10.8611884"><ele>403.5</ele><time>2026-04-03T09:38:08.878Z</time></trkpt><trkpt lat="43.2350167" lon="10.8613067"><ele>405.33333333333337</ele><time>2026-04-03T09:38:09.883Z</time></trkpt><trkpt lat="43.2349684" lon="10.8614042"><ele>407.1666666666667</ele><time>2026-04-03T09:38:10.875Z</time></trkpt><trkpt lat="43.2349331" lon="10.8614949"><ele>409.0</ele><time>2026-04-03T09:38:11.876Z</time></trkpt><trkpt lat="43.2349301" lon="10.861598"><ele>409.0</ele><time>2026-04-03T09:38:12.892Z</time></trkpt><trkpt lat="43.2349693" lon="10.8617097"><ele>409.0</ele><time>2026-04-03T09:38:13.876Z</time></trkpt><trkpt lat="43.2350171" lon="10.8618342"><ele>409.0</ele><time>2026-04-03T09:38:14.873Z</time></trkpt><trkpt lat="43.2350566" lon="10.8619769"><ele>409.0</ele><time>2026-04-03T09:38:15.877Z</time></trkpt><trkpt lat="43.2350819" lon="10.8621482"><ele>409.0</ele><time>2026-04-03T09:38:16.879Z</time></trkpt><trkpt lat="43.2351141" lon="10.8623276"><ele>409.5</ele><time>2026-04-03T09:38:17.88Z</time></trkpt><trkpt lat="43.2351544" lon="10.8625095"><ele>410.0</ele><time>2026-04-03T09:38:18.876Z</time></trkpt><trkpt lat="43.2351901" lon="10.8626735"><ele>410.5</ele><time>2026-04-03T09:38:19.876Z</time></trkpt><trkpt lat="43.2352079" lon="10.8628203"><ele>411.0</ele><time>2026-04-03T09:38:20.875Z</time></trkpt><trkpt lat="43.2352043" lon="10.8629475"><ele>411.8</ele><time>2026-04-03T09:38:21.891Z</time></trkpt><trkpt lat="43.235193" lon="10.8630763"><ele>412.6</ele><time>2026-04-03T09:38:22.88Z</time></trkpt><trkpt lat="43.2351793" lon="10.8632154"><ele>413.4</ele><time>2026-04-03T09:38:23.879Z</time></trkpt><trkpt lat="43.2351517" lon="10.8633773"><ele>414.2</ele><time>2026-04-03T09:38:24.889Z</time></trkpt><trkpt lat="43.2351143" lon="10.8635365"><ele>415.0</ele><time>2026-04-03T09:38:25.871Z</time></trkpt><trkpt lat="43.235081" lon="10.8636738"><ele>415.83333333333337</ele><time>2026-04-03T09:38:26.877Z</time></trkpt><trkpt lat="43.2350662" lon="10.8637969"><ele>416.6666666666667</ele><time>2026-04-03T09:38:27.882Z</time></trkpt><trkpt lat="43.2350695" lon="10.8639105"><ele>417.5</ele><time>2026-04-03T09:38:28.874Z</time></trkpt><trkpt lat="43.2350863" lon="10.8640076"><ele>418.33333333333337</ele><time>2026-04-03T09:38:29.876Z</time></trkpt><trkpt lat="43.2351299" lon="10.8640912"><ele>419.1666666666667</ele><time>2026-04-03T09:38:30.882Z</time></trkpt><trkpt lat="43.2351942" lon="10.8641695"><ele>420.0</ele><time>2026-04-03T09:38:31.879Z</time></trkpt><trkpt lat="43.2352505" lon="10.8642451"><ele>420.3333333333333</ele><time>2026-04-03T09:38:32.878Z</time></trkpt><trkpt lat="43.2352877" lon="10.86433"><ele>420.66666666666663</ele><time>2026-04-03T09:38:33.877Z</time></trkpt><trkpt lat="43.2352976" lon="10.864425"><ele>421.0</ele><time>2026-04-03T09:38:34.875Z</time></trkpt><trkpt lat="43.2353086" lon="10.8645358"><ele>421.3333333333333</ele><time>2026-04-03T09:38:35.876Z</time></trkpt><trkpt lat="43.2352955" lon="10.8646792"><ele>421.66666666666663</ele><time>2026-04-03T09:38:36.878Z</time></trkpt><trkpt lat="43.235292" lon="10.8648444"><ele>422.0</ele><time>2026-04-03T09:38:37.882Z</time></trkpt><trkpt lat="43.2352976" lon="10.8650025"><ele>423.40000000000003</ele><time>2026-04-03T09:38:38.885Z</time></trkpt><trkpt lat="43.2353061" lon="10.8651407"><ele>424.8</ele><time>2026-04-03T09:38:39.879Z</time></trkpt><trkpt lat="43.2353003" lon="10.8652813"><ele>426.2</ele><time>2026-04-03T09:38:40.879Z</time></trkpt><trkpt lat="43.2352727" lon="10.8654268"><ele>427.6</ele><time>2026-04-03T09:38:41.883Z</time></trkpt><trkpt lat="43.2352223" lon="10.8655817"><ele>429.0</ele><time>2026-04-03T09:38:42.878Z</time></trkpt><trkpt lat="43.2351591" lon="10.8657475"><ele>429.0</ele><time>2026-04-03T09:38:43.878Z</time></trkpt><trkpt lat="43.2350893" lon="10.865922"><ele>429.0</ele><time>2026-04-03T09:38:44.875Z</time></trkpt><trkpt lat="43.235021" lon="10.8661106"><ele>429.0</ele><time>2026-04-03T09:38:45.88Z</time></trkpt><trkpt lat="43.2349603" lon="10.8662889"><ele>429.0</ele><time>2026-04-03T09:38:46.878Z</time></trkpt><trkpt lat="43.2349093" lon="10.8664504"><ele>430.75</ele><time>2026-04-03T09:38:47.874Z</time></trkpt><trkpt lat="43.2348709" lon="10.8666032"><ele>432.5</ele><time>2026-04-03T09:38:48.884Z</time></trkpt><trkpt lat="43.2348573" lon="10.866752"><ele>434.25</ele><time>2026-04-03T09:38:49.879Z</time></trkpt><trkpt lat="43.2348728" lon="10.8669031"><ele>436.0</ele><time>2026-04-03T09:38:50.878Z</time></trkpt><trkpt lat="43.2349118" lon="10.8670528"><ele>436.75</ele><time>2026-04-03T09:38:51.881Z</time></trkpt><trkpt lat="43.2349658" lon="10.8671974"><ele>437.5</ele><time>2026-04-03T09:38:52.875Z</time></trkpt><trkpt lat="43.2350228" lon="10.8673447"><ele>438.25</ele><time>2026-04-03T09:38:53.878Z</time></trkpt><trkpt lat="43.2350816" lon="10.867497"><ele>439.0</ele><time>2026-04-03T09:38:54.88Z</time></trkpt><trkpt lat="43.2351536" lon="10.8676432"><ele>440.25</ele><time>2026-04-03T09:38:55.879Z</time></trkpt><trkpt lat="43.2352428" lon="10.8677784"><ele>441.5</ele><time>2026-04-03T09:38:56.876Z</time></trkpt><trkpt lat="43.2353399" lon="10.8679012"><ele>442.75</ele><time>2026-04-03T09:38:57.879Z</time></trkpt><trkpt lat="43.2354359" lon="10.8680115"><ele>444.0</ele><time>2026-04-03T09:38:58.884Z</time></trkpt><trkpt lat="43.2355282" lon="10.8681218"><ele>444.0</ele><time>2026-04-03T09:38:59.889Z</time></trkpt><trkpt lat="43.2356233" lon="10.8682354"><ele>444.0</ele><time>2026-04-03T09:39:00.878Z</time></trkpt><trkpt lat="43.2357203" lon="10.8683578"><ele>444.0</ele><time>2026-04-03T09:39:01.884Z</time></trkpt><trkpt lat="43.2358189" lon="10.868487"><ele>444.0</ele><time>2026-04-03T09:39:02.881Z</time></trkpt><trkpt lat="43.2359137" lon="10.8686246"><ele>446.0</ele><time>2026-04-03T09:39:03.872Z</time></trkpt><trkpt lat="43.2360011" lon="10.8687716"><ele>448.0</ele><time>2026-04-03T09:39:04.876Z</time></trkpt><trkpt lat="43.2360719" lon="10.8689211"><ele>450.0</ele><time>2026-04-03T09:39:05.873Z</time></trkpt><trkpt lat="43.2361304" lon="10.869081"><ele>452.0</ele><time>2026-04-03T09:39:06.876Z</time></trkpt><trkpt lat="43.2361789" lon="10.8692523"><ele>452.5</ele><time>2026-04-03T09:39:07.874Z</time></trkpt><trkpt lat="43.2362185" lon="10.8694359"><ele>453.0</ele><time>2026-04-03T09:39:08.872Z</time></trkpt><trkpt lat="43.2362426" lon="10.8696316"><ele>453.5</ele><time>2026-04-03T09:39:09.872Z</time></trkpt><trkpt lat="43.2362653" lon="10.8698326"><ele>454.0</ele><time>2026-04-03T09:39:10.883Z</time></trkpt><trkpt lat="43.2362544" lon="10.8700457"><ele>455.0</ele><time>2026-04-03T09:39:11.877Z</time></trkpt><trkpt lat="43.236239" lon="10.8702632"><ele>456.0</ele><time>2026-04-03T09:39:12.881Z</time></trkpt><trkpt lat="43.2362237" lon="10.8704858"><ele>457.0</ele><time>2026-04-03T09:39:13.88Z</time></trkpt><trkpt lat="43.2362101" lon="10.8707081"><ele>457.0</ele><time>2026-04-03T09:39:14.877Z</time></trkpt><trkpt lat="43.236197" lon="10.8709327"><ele>457.0</ele><time>2026-04-03T09:39:15.881Z</time></trkpt><trkpt lat="43.236183" lon="10.8711533"><ele>457.0</ele><time>2026-04-03T09:39:16.885Z</time></trkpt><trkpt lat="43.2361652" lon="10.8713743"><ele>458.33333333333337</ele><time>2026-04-03T09:39:17.88Z</time></trkpt><trkpt lat="43.2361341" lon="10.8715895"><ele>459.66666666666663</ele><time>2026-04-03T09:39:18.878Z</time></trkpt><trkpt lat="43.2360842" lon="10.8717954"><ele>461.0</ele><time>2026-04-03T09:39:19.877Z</time></trkpt><trkpt lat="43.2360172" lon="10.8719979"><ele>461.3333333333333</ele><time>2026-04-03T09:39:20.883Z</time></trkpt><trkpt lat="43.2359353" lon="10.8721916"><ele>461.66666666666663</ele><time>2026-04-03T09:39:21.878Z</time></trkpt><trkpt lat="43.2358421" lon="10.8723641"><ele>462.0</ele><time>2026-04-03T09:39:22.884Z</time></trkpt><trkpt lat="43.235748" lon="10.8725237"><ele>461.75</ele><time>2026-04-03T09:39:23.885Z</time></trkpt><trkpt lat="43.2356582" lon="10.8726818"><ele>461.5</ele><time>2026-04-03T09:39:24.882Z</time></trkpt><trkpt lat="43.2355713" lon="10.872836"><ele>461.25</ele><time>2026-04-03T09:39:25.877Z</time></trkpt><trkpt lat="43.2354915" lon="10.8729853"><ele>461.0</ele><time>2026-04-03T09:39:26.881Z</time></trkpt><trkpt lat="43.2354244" lon="10.8731403"><ele>461.0</ele><time>2026-04-03T09:39:27.876Z</time></trkpt><trkpt lat="43.2353569" lon="10.8733025"><ele>461.0</ele><time>2026-04-03T09:39:28.887Z</time></trkpt><trkpt lat="43.2352733" lon="10.873461"><ele>461.0</ele><time>2026-04-03T09:39:29.876Z</time></trkpt><trkpt lat="43.2351775" lon="10.8736078"><ele>461.0</ele><time>2026-04-03T09:39:30.894Z</time></trkpt><trkpt lat="43.2350711" lon="10.8737517"><ele>462.3333333333333</ele><time>2026-04-03T09:39:31.878Z</time></trkpt><trkpt lat="43.2349586" lon="10.8739008"><ele>463.66666666666663</ele><time>2026-04-03T09:39:32.883Z</time></trkpt><trkpt lat="43.2348444" lon="10.8740482"><ele>465.0</ele><time>2026-04-03T09:39:33.888Z</time></trkpt><trkpt lat="43.2347288" lon="10.8741903"><ele>463.33333333333337</ele><time>2026-04-03T09:39:34.885Z</time></trkpt><trkpt lat="43.2346064" lon="10.8743193"><ele>461.6666666666667</ele><time>2026-04-03T09:39:35.875Z</time></trkpt><trkpt lat="43.2344768" lon="10.8744369"><ele>460.0</ele><time>2026-04-03T09:39:36.883Z</time></trkpt><trkpt lat="43.2343414" lon="10.874543"><ele>460.0</ele><time>2026-04-03T09:39:37.948Z</time></trkpt><trkpt lat="43.2341986" lon="10.8746332"><ele>460.0</ele><time>2026-04-03T09:39:38.884Z</time></trkpt><trkpt lat="43.2340461" lon="10.8747042"><ele>460.0</ele><time>2026-04-03T09:39:39.893Z</time></trkpt><trkpt lat="43.2338839" lon="10.8747581"><ele>463.33333333333337</ele><time>2026-04-03T09:39:40.944Z</time></trkpt><trkpt lat="43.2337142" lon="10.8747901"><ele>466.66666666666663</ele><time>2026-04-03T09:39:41.88Z</time></trkpt><trkpt lat="43.2335613" lon="10.8748185"><ele>470.0</ele><time>2026-04-03T09:39:42.892Z</time></trkpt><trkpt lat="43.2334059" lon="10.8748654"><ele>470.0</ele><time>2026-04-03T09:39:43.884Z</time></trkpt><trkpt lat="43.2332583" lon="10.8749377"><ele>470.0</ele><time>2026-04-03T09:39:44.878Z</time></trkpt><trkpt lat="43.2331105" lon="10.8750217"><ele>470.0</ele><time>2026-04-03T09:39:45.886Z</time></trkpt><trkpt lat="43.232974" lon="10.8751125"><ele>471.25</ele><time>2026-04-03T09:39:46.877Z</time></trkpt><trkpt lat="43.2328459" lon="10.8752048"><ele>472.5</ele><time>2026-04-03T09:39:47.894Z</time></trkpt><trkpt lat="43.2327128" lon="10.8752926"><ele>473.75</ele><time>2026-04-03T09:39:48.881Z</time></trkpt><trkpt lat="43.2325787" lon="10.8753681"><ele>475.0</ele><time>2026-04-03T09:39:49.89Z</time></trkpt><trkpt lat="43.2324492" lon="10.8754325"><ele>475.0</ele><time>2026-04-03T09:39:50.885Z</time></trkpt><trkpt lat="43.232319" lon="10.8754901"><ele>475.0</ele><time>2026-04-03T09:39:51.878Z</time></trkpt><trkpt lat="43.2321928" lon="10.8755473"><ele>475.0</ele><time>2026-04-03T09:39:52.885Z</time></trkpt><trkpt lat="43.2320677" lon="10.875606"><ele>475.0</ele><time>2026-04-03T09:39:53.883Z</time></trkpt><trkpt lat="43.2319416" lon="10.8756626"><ele>477.75</ele><time>2026-04-03T09:39:54.873Z</time></trkpt><trkpt lat="43.2318198" lon="10.8757177"><ele>480.5</ele><time>2026-04-03T09:39:55.893Z</time></trkpt><trkpt lat="43.2316974" lon="10.8757696"><ele>483.25</ele><time>2026-04-03T09:39:56.891Z</time></trkpt><trkpt lat="43.2315726" lon="10.8758198"><ele>486.0</ele><time>2026-04-03T09:39:57.881Z</time></trkpt><trkpt lat="43.2314449" lon="10.8758686"><ele>487.0</ele><time>2026-04-03T09:39:58.879Z</time></trkpt><trkpt lat="43.2313111" lon="10.8759191"><ele>488.0</ele><time>2026-04-03T09:39:59.893Z</time></trkpt><trkpt lat="43.2311695" lon="10.8759701"><ele>489.0</ele><time>2026-04-03T09:40:00.901Z</time></trkpt><trkpt lat="43.2310206" lon="10.8760181"><ele>490.0</ele><time>2026-04-03T09:40:01.872Z</time></trkpt><trkpt lat="43.2308651" lon="10.8760627"><ele>487.25</ele><time>2026-04-03T09:40:02.876Z</time></trkpt><trkpt lat="43.2307153" lon="10.8761019"><ele>484.5</ele><time>2026-04-03T09:40:03.876Z</time></trkpt><trkpt lat="43.2305742" lon="10.8761334"><ele>481.75</ele><time>2026-04-03T09:40:04.891Z</time></trkpt><trkpt lat="43.2304444" lon="10.876156"><ele>479.0</ele><time>2026-04-03T09:40:05.888Z</time></trkpt><trkpt lat="43.2303248" lon="10.8761705"><ele>479.0</ele><time>2026-04-03T09:40:06.886Z</time></trkpt><trkpt lat="43.2302062" lon="10.8761609"><ele>479.0</ele><time>2026-04-03T09:40:07.88Z</time></trkpt><trkpt lat="43.2300861" lon="10.8761161"><ele>479.0</ele><time>2026-04-03T09:40:08.894Z</time></trkpt><trkpt lat="43.2299655" lon="10.8760419"><ele>479.0</ele><time>2026-04-03T09:40:09.887Z</time></trkpt><trkpt lat="43.2298439" lon="10.8759544"><ele>482.0</ele><time>2026-04-03T09:40:10.871Z</time></trkpt><trkpt lat="43.2297265" lon="10.8758541"><ele>485.0</ele><time>2026-04-03T09:40:11.873Z</time></trkpt><trkpt lat="43.2296309" lon="10.8757439"><ele>488.0</ele><time>2026-04-03T09:40:12.879Z</time></trkpt><trkpt lat="43.2295585" lon="10.8756373"><ele>491.0</ele><time>2026-04-03T09:40:13.882Z</time></trkpt><trkpt lat="43.2295048" lon="10.8755483"><ele>491.0</ele><time>2026-04-03T09:40:14.885Z</time></trkpt><trkpt lat="43.2294421" lon="10.875481"><ele>491.0</ele><time>2026-04-03T09:40:15.877Z</time></trkpt><trkpt lat="43.2293637" lon="10.8754331"><ele>491.0</ele><time>2026-04-03T09:40:16.889Z</time></trkpt><trkpt lat="43.2292757" lon="10.8753993"><ele>491.0</ele><time>2026-04-03T09:40:17.884Z</time></trkpt><trkpt lat="43.2291816" lon="10.8753827"><ele>491.0</ele><time>2026-04-03T09:40:18.879Z</time></trkpt><trkpt lat="43.2290806" lon="10.8753544"><ele>491.0</ele><time>2026-04-03T09:40:19.878Z</time></trkpt><trkpt lat="43.2289818" lon="10.8753166"><ele>491.0</ele><time>2026-04-03T09:40:20.888Z</time></trkpt><trkpt lat="43.2288833" lon="10.8752687"><ele>491.0</ele><time>2026-04-03T09:40:21.878Z</time></trkpt><trkpt lat="43.2287966" lon="10.8752046"><ele>491.0</ele><time>2026-04-03T09:40:22.879Z</time></trkpt><trkpt lat="43.2287068" lon="10.8751313"><ele>491.0</ele><time>2026-04-03T09:40:23.883Z</time></trkpt><trkpt lat="43.2286128" lon="10.8750413"><ele>494.75</ele><time>2026-04-03T09:40:24.878Z</time></trkpt><trkpt lat="43.2285134" lon="10.8749309"><ele>498.5</ele><time>2026-04-03T09:40:25.881Z</time></trkpt><trkpt lat="43.2284081" lon="10.8748035"><ele>502.25</ele><time>2026-04-03T09:40:26.887Z</time></trkpt><trkpt lat="43.2283091" lon="10.8746772"><ele>506.0</ele><time>2026-04-03T09:40:27.877Z</time></trkpt><trkpt lat="43.2282232" lon="10.8745584"><ele>508.0</ele><time>2026-04-03T09:40:28.895Z</time></trkpt><trkpt lat="43.22814" lon="10.8744486"><ele>510.0</ele><time>2026-04-03T09:40:29.881Z</time></trkpt><trkpt lat="43.2280553" lon="10.8743575"><ele>512.0</ele><time>2026-04-03T09:40:30.876Z</time></trkpt><trkpt lat="43.2279602" lon="10.8742909"><ele>514.0</ele><time>2026-04-03T09:40:31.88Z</time></trkpt><trkpt lat="43.2278484" lon="10.8742299"><ele>514.0</ele><time>2026-04-03T09:40:32.879Z</time></trkpt><trkpt lat="43.2277219" lon="10.8742032"><ele>514.0</ele><time>2026-04-03T09:40:33.887Z</time></trkpt><trkpt lat="43.2275938" lon="10.8741717"><ele>514.0</ele><time>2026-04-03T09:40:34.883Z</time></trkpt><trkpt lat="43.2274848" lon="10.8741391"><ele>514.0</ele><time>2026-04-03T09:40:35.88Z</time></trkpt><trkpt lat="43.2273944" lon="10.8741106"><ele>517.75</ele><time>2026-04-03T09:40:36.883Z</time></trkpt><trkpt lat="43.2272868" lon="10.8740725"><ele>521.5</ele><time>2026-04-03T09:40:37.878Z</time></trkpt><trkpt lat="43.227181" lon="10.8740148"><ele>525.25</ele><time>2026-04-03T09:40:38.89Z</time></trkpt><trkpt lat="43.2270803" lon="10.8739406"><ele>529.0</ele><time>2026-04-03T09:40:39.878Z</time></trkpt><trkpt lat="43.2269707" lon="10.8738692"><ele>529.0</ele><time>2026-04-03T09:40:40.881Z</time></trkpt><trkpt lat="43.2268928" lon="10.8738076"><ele>529.0</ele><time>2026-04-03T09:40:41.877Z</time></trkpt><trkpt lat="43.2267941" lon="10.8737426"><ele>529.0</ele><time>2026-04-03T09:40:42.871Z</time></trkpt><trkpt lat="43.2267122" lon="10.8737214"><ele>529.0</ele><time>2026-04-03T09:40:43.883Z</time></trkpt><trkpt lat="43.2266359" lon="10.873714"><ele>529.0</ele><time>2026-04-03T09:40:44.882Z</time></trkpt><trkpt lat="43.226565" lon="10.8737179"><ele>529.0</ele><time>2026-04-03T09:40:45.872Z</time></trkpt><trkpt lat="43.2264621" lon="10.8736652"><ele>530.8</ele><time>2026-04-03T09:40:47.876Z</time></trkpt><trkpt lat="43.226471" lon="10.8735173"><ele>532.5999999999999</ele><time>2026-04-03T09:40:49.882Z</time></trkpt><trkpt lat="43.226554" lon="10.8733937"><ele>534.4</ele><time>2026-04-03T09:40:51.885Z</time></trkpt><trkpt lat="43.2266142" lon="10.8733127"><ele>536.1999999999999</ele><time>2026-04-03T09:40:52.881Z</time></trkpt><trkpt lat="43.2267105" lon="10.8731902"><ele>538.0</ele><time>2026-04-03T09:40:53.878Z</time></trkpt><trkpt lat="43.2267532" lon="10.873074"><ele>536.1666666666667</ele><time>2026-04-03T09:40:54.875Z</time></trkpt><trkpt lat="43.2267668" lon="10.8729682"><ele>534.3333333333334</ele><time>2026-04-03T09:40:55.874Z</time></trkpt><trkpt lat="43.2267577" lon="10.8728795"><ele>532.5</ele><time>2026-04-03T09:40:56.886Z</time></trkpt><trkpt lat="43.2267274" lon="10.8727881"><ele>530.6666666666666</ele><time>2026-04-03T09:40:57.875Z</time></trkpt><trkpt lat="43.226698" lon="10.8726818"><ele>528.8333333333333</ele><time>2026-04-03T09:40:58.889Z</time></trkpt><trkpt lat="43.2266745" lon="10.8725918"><ele>527.0</ele><time>2026-04-03T09:40:59.883Z</time></trkpt><trkpt lat="43.2267094" lon="10.872458"><ele>527.0</ele><time>2026-04-03T09:41:01.879Z</time></trkpt><trkpt lat="43.22681" lon="10.8723583"><ele>527.0</ele><time>2026-04-03T09:41:03.882Z</time></trkpt><trkpt lat="43.2268911" lon="10.8723296"><ele>527.0</ele><time>2026-04-03T09:41:04.877Z</time></trkpt><trkpt lat="43.2269665" lon="10.8723131"><ele>527.0</ele><time>2026-04-03T09:41:05.874Z</time></trkpt><trkpt lat="43.2270312" lon="10.8722843"><ele>527.0</ele><time>2026-04-03T09:41:06.882Z</time></trkpt><trkpt lat="43.2270805" lon="10.872197"><ele>527.0</ele><time>2026-04-03T09:41:08.881Z</time></trkpt><trkpt lat="43.2270439" lon="10.8721248"><ele>527.0</ele><time>2026-04-03T09:41:10.882Z</time></trkpt><trkpt lat="43.2268977" lon="10.8720508"><ele>527.0</ele><time>2026-04-03T09:41:12.879Z</time></trkpt><trkpt lat="43.2267807" lon="10.8720073"><ele>527.0</ele><time>2026-04-03T09:41:13.878Z</time></trkpt><trkpt lat="43.2266763" lon="10.8719772"><ele>527.0</ele><time>2026-04-03T09:41:14.889Z</time></trkpt><trkpt lat="43.2265874" lon="10.8719757"><ele>527.0</ele><time>2026-04-03T09:41:15.886Z</time></trkpt><trkpt lat="43.226518" lon="10.8720011"><ele>527.0</ele><time>2026-04-03T09:41:16.875Z</time></trkpt><trkpt lat="43.2264384" lon="10.8720474"><ele>527.0</ele><time>2026-04-03T09:41:17.887Z</time></trkpt><trkpt lat="43.2263564" lon="10.8721004"><ele>527.0</ele><time>2026-04-03T09:41:18.89Z</time></trkpt><trkpt lat="43.2262712" lon="10.8721432"><ele>527.0</ele><time>2026-04-03T09:41:19.883Z</time></trkpt><trkpt lat="43.2261744" lon="10.8721869"><ele>527.0</ele><time>2026-04-03T09:41:20.879Z</time></trkpt><trkpt lat="43.2260832" lon="10.8722326"><ele>529.0</ele><time>2026-04-03T09:41:21.881Z</time></trkpt><trkpt lat="43.2260037" lon="10.8722681"><ele>531.0</ele><time>2026-04-03T09:41:22.878Z</time></trkpt><trkpt lat="43.2259308" lon="10.8722886"><ele>533.0</ele><time>2026-04-03T09:41:23.884Z</time></trkpt><trkpt lat="43.2258626" lon="10.8722851"><ele>535.0</ele><time>2026-04-03T09:41:24.89Z</time></trkpt><trkpt lat="43.2257943" lon="10.8722558"><ele>537.0</ele><time>2026-04-03T09:41:25.885Z</time></trkpt><trkpt lat="43.2257189" lon="10.8722121"><ele>539.0</ele><time>2026-04-03T09:41:26.878Z</time></trkpt><trkpt lat="43.2256393" lon="10.8721841"><ele>540.8333333333333</ele><time>2026-04-03T09:41:27.883Z</time></trkpt><trkpt lat="43.2255679" lon="10.8721829"><ele>542.6666666666666</ele><time>2026-04-03T09:41:28.879Z</time></trkpt><trkpt lat="43.225492" lon="10.8722172"><ele>544.5</ele><time>2026-04-03T09:41:29.882Z</time></trkpt><trkpt lat="43.2254199" lon="10.872282"><ele>546.3333333333334</ele><time>2026-04-03T09:41:30.887Z</time></trkpt><trkpt lat="43.2253391" lon="10.8723364"><ele>548.1666666666667</ele><time>2026-04-03T09:41:31.878Z</time></trkpt><trkpt lat="43.225243" lon="10.8724147"><ele>550.0</ele><time>2026-04-03T09:41:32.888Z</time></trkpt><trkpt lat="43.2251436" lon="10.8724859"><ele>550.0</ele><time>2026-04-03T09:41:33.881Z</time></trkpt><trkpt lat="43.2250384" lon="10.8725546"><ele>550.0</ele><time>2026-04-03T09:41:34.893Z</time></trkpt><trkpt lat="43.2249323" lon="10.8726286"><ele>550.0</ele><time>2026-04-03T09:41:35.882Z</time></trkpt><trkpt lat="43.2248233" lon="10.8726993"><ele>550.0</ele><time>2026-04-03T09:41:36.881Z</time></trkpt><trkpt lat="43.2247122" lon="10.872768"><ele>552.5</ele><time>2026-04-03T09:41:37.881Z</time></trkpt><trkpt lat="43.2245913" lon="10.8728349"><ele>555.0</ele><time>2026-04-03T09:41:38.879Z</time></trkpt><trkpt lat="43.2244652" lon="10.8729016"><ele>557.5</ele><time>2026-04-03T09:41:39.888Z</time></trkpt><trkpt lat="43.2243426" lon="10.8729672"><ele>560.0</ele><time>2026-04-03T09:41:40.884Z</time></trkpt><trkpt lat="43.2242278" lon="10.8730274"><ele>560.0</ele><time>2026-04-03T09:41:41.883Z</time></trkpt><trkpt lat="43.2241168" lon="10.8730871"><ele>560.0</ele><time>2026-04-03T09:41:42.884Z</time></trkpt><trkpt lat="43.2240113" lon="10.8731526"><ele>560.0</ele><time>2026-04-03T09:41:43.881Z</time></trkpt><trkpt lat="43.2239191" lon="10.8732136"><ele>560.0</ele><time>2026-04-03T09:41:44.889Z</time></trkpt><trkpt lat="43.2238363" lon="10.873279"><ele>560.0</ele><time>2026-04-03T09:41:45.885Z</time></trkpt><trkpt lat="43.2237577" lon="10.8733583"><ele>562.1666666666666</ele><time>2026-04-03T09:41:46.883Z</time></trkpt><trkpt lat="43.2236957" lon="10.8734592"><ele>564.3333333333333</ele><time>2026-04-03T09:41:47.879Z</time></trkpt><trkpt lat="43.2236407" lon="10.8735504"><ele>566.5</ele><time>2026-04-03T09:41:48.886Z</time></trkpt><trkpt lat="43.2235752" lon="10.873623"><ele>568.6666666666666</ele><time>2026-04-03T09:41:49.885Z</time></trkpt><trkpt lat="43.2235214" lon="10.8736683"><ele>570.8333333333334</ele><time>2026-04-03T09:41:50.884Z</time></trkpt><trkpt lat="43.2234184" lon="10.8736931"><ele>573.0</ele><time>2026-04-03T09:41:52.879Z</time></trkpt><trkpt lat="43.2233528" lon="10.873666"><ele>573.0</ele><time>2026-04-03T09:41:53.886Z</time></trkpt><trkpt lat="43.2232787" lon="10.8736009"><ele>573.0</ele><time>2026-04-03T09:41:54.882Z</time></trkpt><trkpt lat="43.2231949" lon="10.8735429"><ele>573.0</ele><time>2026-04-03T09:41:55.885Z</time></trkpt><trkpt lat="43.2231079" lon="10.8734597"><ele>573.0</ele><time>2026-04-03T09:41:56.88Z</time></trkpt><trkpt lat="43.2230059" lon="10.8734101"><ele>573.0</ele><time>2026-04-03T09:41:57.883Z</time></trkpt><trkpt lat="43.222896" lon="10.8733718"><ele>576.6</ele><time>2026-04-03T09:41:58.881Z</time></trkpt><trkpt lat="43.2227921" lon="10.8733318"><ele>580.1999999999999</ele><time>2026-04-03T09:41:59.886Z</time></trkpt><trkpt lat="43.2226863" lon="10.8732991"><ele>583.8</ele><time>2026-04-03T09:42:00.887Z</time></trkpt><trkpt lat="43.2225901" lon="10.8732632"><ele>587.4</ele><time>2026-04-03T09:42:01.885Z</time></trkpt><trkpt lat="43.2225026" lon="10.8732781"><ele>591.0</ele><time>2026-04-03T09:42:02.881Z</time></trkpt><trkpt lat="43.2224116" lon="10.8733091"><ele>592.0</ele><time>2026-04-03T09:42:03.875Z</time></trkpt><trkpt lat="43.2223146" lon="10.8733683"><ele>593.0</ele><time>2026-04-03T09:42:04.883Z</time></trkpt><trkpt lat="43.222216" lon="10.8734412"><ele>594.0</ele><time>2026-04-03T09:42:05.875Z</time></trkpt><trkpt lat="43.2221228" lon="10.8735051"><ele>595.0</ele><time>2026-04-03T09:42:06.884Z</time></trkpt><trkpt lat="43.2220439" lon="10.8735483"><ele>596.0</ele><time>2026-04-03T09:42:07.877Z</time></trkpt><trkpt lat="43.2219714" lon="10.8735592"><ele>596.0</ele><time>2026-04-03T09:42:08.881Z</time></trkpt><trkpt lat="43.221871" lon="10.8735343"><ele>596.0</ele><time>2026-04-03T09:42:10.885Z</time></trkpt><trkpt lat="43.2218452" lon="10.8733984"><ele>596.0</ele><time>2026-04-03T09:42:12.875Z</time></trkpt><trkpt lat="43.2218758" lon="10.8733137"><ele>596.0</ele><time>2026-04-03T09:42:13.89Z</time></trkpt><trkpt lat="43.2219258" lon="10.8732219"><ele>596.0</ele><time>2026-04-03T09:42:14.888Z</time></trkpt><trkpt lat="43.2219769" lon="10.8731189"><ele>596.0</ele><time>2026-04-03T09:42:15.881Z</time></trkpt><trkpt lat="43.2220304" lon="10.8730139"><ele>596.6</ele><time>2026-04-03T09:42:16.885Z</time></trkpt><trkpt lat="43.222087" lon="10.872904"><ele>597.2</ele><time>2026-04-03T09:42:17.883Z</time></trkpt><trkpt lat="43.2221537" lon="10.8727846"><ele>597.8</ele><time>2026-04-03T09:42:18.882Z</time></trkpt><trkpt lat="43.2222327" lon="10.8726721"><ele>598.4</ele><time>2026-04-03T09:42:19.887Z</time></trkpt><trkpt lat="43.2222971" lon="10.872569"><ele>599.0</ele><time>2026-04-03T09:42:20.882Z</time></trkpt><trkpt lat="43.2223531" lon="10.8724885"><ele>599.0</ele><time>2026-04-03T09:42:21.884Z</time></trkpt><trkpt lat="43.2223883" lon="10.8723905"><ele>599.0</ele><time>2026-04-03T09:42:22.88Z</time></trkpt><trkpt lat="43.2224037" lon="10.8722688"><ele>599.0</ele><time>2026-04-03T09:42:23.884Z</time></trkpt><trkpt lat="43.2224178" lon="10.872139"><ele>599.0</ele><time>2026-04-03T09:42:24.887Z</time></trkpt><trkpt lat="43.2224174" lon="10.8720064"><ele>599.0</ele><time>2026-04-03T09:42:25.883Z</time></trkpt><trkpt lat="43.2224276" lon="10.871858"><ele>601.4</ele><time>2026-04-03T09:42:26.885Z</time></trkpt><trkpt lat="43.2224565" lon="10.8717164"><ele>603.8</ele><time>2026-04-03T09:42:27.884Z</time></trkpt><trkpt lat="43.2224828" lon="10.8715896"><ele>606.2</ele><time>2026-04-03T09:42:28.887Z</time></trkpt><trkpt lat="43.2225017" lon="10.8714679"><ele>608.6</ele><time>2026-04-03T09:42:29.883Z</time></trkpt><trkpt lat="43.2225211" lon="10.8713523"><ele>611.0</ele><time>2026-04-03T09:42:30.879Z</time></trkpt><trkpt lat="43.2225214" lon="10.871253"><ele>611.0</ele><time>2026-04-03T09:42:31.875Z</time></trkpt><trkpt lat="43.2224408" lon="10.8711085"><ele>611.0</ele><time>2026-04-03T09:42:33.879Z</time></trkpt><trkpt lat="43.2223706" lon="10.8710733"><ele>611.0</ele><time>2026-04-03T09:42:34.883Z</time></trkpt><trkpt lat="43.2222871" lon="10.8710388"><ele>611.0</ele><time>2026-04-03T09:42:35.878Z</time></trkpt><trkpt lat="43.2221831" lon="10.8710482"><ele>611.0</ele><time>2026-04-03T09:42:36.888Z</time></trkpt><trkpt lat="43.2220696" lon="10.8710754"><ele>613.0</ele><time>2026-04-03T09:42:37.882Z</time></trkpt><trkpt lat="43.2219499" lon="10.8711159"><ele>615.0</ele><time>2026-04-03T09:42:38.881Z</time></trkpt><trkpt lat="43.2218245" lon="10.871169"><ele>617.0</ele><time>2026-04-03T09:42:39.882Z</time></trkpt><trkpt lat="43.221686" lon="10.8712292"><ele>619.0</ele><time>2026-04-03T09:42:40.877Z</time></trkpt><trkpt lat="43.2215351" lon="10.8712891"><ele>620.75</ele><time>2026-04-03T09:42:41.888Z</time></trkpt><trkpt lat="43.2213809" lon="10.8713409"><ele>622.5</ele><time>2026-04-03T09:42:42.883Z</time></trkpt><trkpt lat="43.2212458" lon="10.8713808"><ele>624.25</ele><time>2026-04-03T09:42:43.875Z</time></trkpt><trkpt lat="43.2211182" lon="10.8714185"><ele>626.0</ele><time>2026-04-03T09:42:44.881Z</time></trkpt><trkpt lat="43.2209921" lon="10.8714667"><ele>626.0</ele><time>2026-04-03T09:42:45.888Z</time></trkpt><trkpt lat="43.2208649" lon="10.8715295"><ele>626.0</ele><time>2026-04-03T09:42:46.893Z</time></trkpt><trkpt lat="43.220738" lon="10.8716011"><ele>626.0</ele><time>2026-04-03T09:42:47.882Z</time></trkpt><trkpt lat="43.2206066" lon="10.8716747"><ele>626.0</ele><time>2026-04-03T09:42:48.874Z</time></trkpt><trkpt lat="43.2204658" lon="10.8717695"><ele>627.0</ele><time>2026-04-03T09:42:49.884Z</time></trkpt><trkpt lat="43.2203137" lon="10.8718744"><ele>628.0</ele><time>2026-04-03T09:42:50.891Z</time></trkpt><trkpt lat="43.2201642" lon="10.8719693"><ele>629.0</ele><time>2026-04-03T09:42:51.883Z</time></trkpt><trkpt lat="43.2200243" lon="10.8720475"><ele>629.0</ele><time>2026-04-03T09:42:52.89Z</time></trkpt><trkpt lat="43.2198932" lon="10.8721162"><ele>629.0</ele><time>2026-04-03T09:42:53.886Z</time></trkpt><trkpt lat="43.2197584" lon="10.8721807"><ele>629.0</ele><time>2026-04-03T09:42:54.886Z</time></trkpt><trkpt lat="43.2196386" lon="10.8722452"><ele>629.0</ele><time>2026-04-03T09:42:55.882Z</time></trkpt><trkpt lat="43.2195069" lon="10.8723011"><ele>629.4</ele><time>2026-04-03T09:42:56.889Z</time></trkpt><trkpt lat="43.2193939" lon="10.8723302"><ele>629.8</ele><time>2026-04-03T09:42:57.891Z</time></trkpt><trkpt lat="43.2192941" lon="10.8723741"><ele>630.2</ele><time>2026-04-03T09:42:58.883Z</time></trkpt><trkpt lat="43.2192121" lon="10.8724258"><ele>630.6</ele><time>2026-04-03T09:42:59.887Z</time></trkpt><trkpt lat="43.2191501" lon="10.8724947"><ele>631.0</ele><time>2026-04-03T09:43:00.889Z</time></trkpt><trkpt lat="43.2190869" lon="10.872591"><ele>631.2</ele><time>2026-04-03T09:43:01.874Z</time></trkpt><trkpt lat="43.2190363" lon="10.8727112"><ele>631.4000000000001</ele><time>2026-04-03T09:43:02.879Z</time></trkpt><trkpt lat="43.2189826" lon="10.872853"><ele>631.6</ele><time>2026-04-03T09:43:03.885Z</time></trkpt><trkpt lat="43.2189377" lon="10.8729793"><ele>631.8000000000001</ele><time>2026-04-03T09:43:04.881Z</time></trkpt><trkpt lat="43.2188678" lon="10.8731223"><ele>632.0</ele><time>2026-04-03T09:43:05.883Z</time></trkpt><trkpt lat="43.2187749" lon="10.8732378"><ele>632.0</ele><time>2026-04-03T09:43:06.885Z</time></trkpt><trkpt lat="43.2186694" lon="10.8733649"><ele>632.0</ele><time>2026-04-03T09:43:07.888Z</time></trkpt><trkpt lat="43.2185639" lon="10.8734863"><ele>632.0</ele><time>2026-04-03T09:43:08.882Z</time></trkpt><trkpt lat="43.218466" lon="10.8735999"><ele>632.0</ele><time>2026-04-03T09:43:09.884Z</time></trkpt><trkpt lat="43.2183805" lon="10.8737014"><ele>635.4000000000001</ele><time>2026-04-03T09:43:10.884Z</time></trkpt><trkpt lat="43.2182995" lon="10.8737891"><ele>638.8000000000001</ele><time>2026-04-03T09:43:11.888Z</time></trkpt><trkpt lat="43.218242" lon="10.8738606"><ele>642.2</ele><time>2026-04-03T09:43:12.881Z</time></trkpt><trkpt lat="43.2181988" lon="10.8740221"><ele>645.6</ele><time>2026-04-03T09:43:14.883Z</time></trkpt><trkpt lat="43.2182605" lon="10.8741555"><ele>649.0</ele><time>2026-04-03T09:43:16.883Z</time></trkpt><trkpt lat="43.2183275" lon="10.8741883"><ele>649.0</ele><time>2026-04-03T09:43:17.883Z</time></trkpt><trkpt lat="43.2184163" lon="10.8742019"><ele>649.0</ele><time>2026-04-03T09:43:18.879Z</time></trkpt><trkpt lat="43.2185111" lon="10.874201"><ele>649.0</ele><time>2026-04-03T09:43:19.894Z</time></trkpt><trkpt lat="43.2186131" lon="10.8742194"><ele>649.0</ele><time>2026-04-03T09:43:20.886Z</time></trkpt><trkpt lat="43.2187133" lon="10.8742548"><ele>649.0</ele><time>2026-04-03T09:43:21.882Z</time></trkpt><trkpt lat="43.218808" lon="10.8743018"><ele>651.4000000000001</ele><time>2026-04-03T09:43:22.894Z</time></trkpt><trkpt lat="43.2188949" lon="10.8743606"><ele>653.8</ele><time>2026-04-03T09:43:23.882Z</time></trkpt><trkpt lat="43.2189608" lon="10.8744342"><ele>656.2</ele><time>2026-04-03T09:43:24.887Z</time></trkpt><trkpt lat="43.2190234" lon="10.8745355"><ele>658.5999999999999</ele><time>2026-04-03T09:43:25.88Z</time></trkpt><trkpt lat="43.2190799" lon="10.874659"><ele>661.0</ele><time>2026-04-03T09:43:26.887Z</time></trkpt><trkpt lat="43.2191267" lon="10.8747869"><ele>661.0</ele><time>2026-04-03T09:43:27.874Z</time></trkpt><trkpt lat="43.2191466" lon="10.8749271"><ele>661.0</ele><time>2026-04-03T09:43:28.882Z</time></trkpt><trkpt lat="43.2191442" lon="10.8750718"><ele>661.0</ele><time>2026-04-03T09:43:29.88Z</time></trkpt><trkpt lat="43.2191397" lon="10.8752229"><ele>661.0</ele><time>2026-04-03T09:43:30.881Z</time></trkpt><trkpt lat="43.2191113" lon="10.8753766"><ele>661.0</ele><time>2026-04-03T09:43:31.871Z</time></trkpt><trkpt lat="43.2190796" lon="10.8755397"><ele>662.4</ele><time>2026-04-03T09:43:32.876Z</time></trkpt><trkpt lat="43.219038" lon="10.8756963"><ele>663.8</ele><time>2026-04-03T09:43:33.886Z</time></trkpt><trkpt lat="43.2190317" lon="10.8758293"><ele>665.1999999999999</ele><time>2026-04-03T09:43:34.884Z</time></trkpt><trkpt lat="43.2190201" lon="10.8759927"><ele>666.5999999999999</ele><time>2026-04-03T09:43:35.891Z</time></trkpt><trkpt lat="43.2190206" lon="10.8761441"><ele>668.0</ele><time>2026-04-03T09:43:36.878Z</time></trkpt><trkpt lat="43.219012" lon="10.8762887"><ele>668.5</ele><time>2026-04-03T09:43:37.883Z</time></trkpt><trkpt lat="43.2189999" lon="10.8764109"><ele>669.0</ele><time>2026-04-03T09:43:38.879Z</time></trkpt><trkpt lat="43.2189713" lon="10.8765162"><ele>669.5</ele><time>2026-04-03T09:43:39.881Z</time></trkpt><trkpt lat="43.2189226" lon="10.8766113"><ele>670.0</ele><time>2026-04-03T09:43:40.89Z</time></trkpt><trkpt lat="43.2188597" lon="10.8766884"><ele>670.5</ele><time>2026-04-03T09:43:41.881Z</time></trkpt><trkpt lat="43.2187899" lon="10.8767509"><ele>671.0</ele><time>2026-04-03T09:43:42.88Z</time></trkpt><trkpt lat="43.2186857" lon="10.8768252"><ele>672.75</ele><time>2026-04-03T09:43:43.875Z</time></trkpt><trkpt lat="43.2185803" lon="10.8768899"><ele>674.5</ele><time>2026-04-03T09:43:44.878Z</time></trkpt><trkpt lat="43.2184777" lon="10.8769446"><ele>676.25</ele><time>2026-04-03T09:43:45.881Z</time></trkpt><trkpt lat="43.2183646" lon="10.8769757"><ele>678.0</ele><time>2026-04-03T09:43:46.876Z</time></trkpt><trkpt lat="43.2182366" lon="10.8769909"><ele>679.6666666666666</ele><time>2026-04-03T09:43:47.883Z</time></trkpt><trkpt lat="43.2180925" lon="10.877008"><ele>681.3333333333333</ele><time>2026-04-03T09:43:48.878Z</time></trkpt><trkpt lat="43.2179393" lon="10.8770291"><ele>683.0</ele><time>2026-04-03T09:43:49.892Z</time></trkpt><trkpt lat="43.2177879" lon="10.8770609"><ele>683.0</ele><time>2026-04-03T09:43:50.878Z</time></trkpt><trkpt lat="43.2176317" lon="10.8770821"><ele>683.0</ele><time>2026-04-03T09:43:51.879Z</time></trkpt><trkpt lat="43.2174923" lon="10.8771109"><ele>683.0</ele><time>2026-04-03T09:43:52.882Z</time></trkpt><trkpt lat="43.21736" lon="10.8771366"><ele>683.0</ele><time>2026-04-03T09:43:53.875Z</time></trkpt><trkpt lat="43.2172404" lon="10.8771564"><ele>684.2</ele><time>2026-04-03T09:43:54.878Z</time></trkpt><trkpt lat="43.2171363" lon="10.8771707"><ele>685.4</ele><time>2026-04-03T09:43:55.876Z</time></trkpt><trkpt lat="43.2170336" lon="10.8771809"><ele>686.6</ele><time>2026-04-03T09:43:56.883Z</time></trkpt><trkpt lat="43.2169307" lon="10.8771875"><ele>687.8000000000001</ele><time>2026-04-03T09:43:57.887Z</time></trkpt><trkpt lat="43.2168242" lon="10.8771832"><ele>689.0</ele><time>2026-04-03T09:43:58.882Z</time></trkpt><trkpt lat="43.2167118" lon="10.877167"><ele>689.0</ele><time>2026-04-03T09:43:59.882Z</time></trkpt><trkpt lat="43.2166056" lon="10.8771525"><ele>689.0</ele><time>2026-04-03T09:44:00.886Z</time></trkpt><trkpt lat="43.2165016" lon="10.8771431"><ele>689.0</ele><time>2026-04-03T09:44:01.879Z</time></trkpt><trkpt lat="43.216399" lon="10.8771324"><ele>689.0</ele><time>2026-04-03T09:44:02.881Z</time></trkpt><trkpt lat="43.2163095" lon="10.8771243"><ele>689.0</ele><time>2026-04-03T09:44:03.881Z</time></trkpt><trkpt lat="43.2162297" lon="10.8771204"><ele>690.3333333333333</ele><time>2026-04-03T09:44:04.895Z</time></trkpt><trkpt lat="43.2161595" lon="10.8771134"><ele>691.6666666666666</ele><time>2026-04-03T09:44:05.885Z</time></trkpt><trkpt lat="43.2160631" lon="10.8770899"><ele>693.0</ele><time>2026-04-03T09:44:07.888Z</time></trkpt><trkpt lat="43.2159861" lon="10.8770585"><ele>694.3333333333334</ele><time>2026-04-03T09:44:10.878Z</time></trkpt><trkpt lat="43.215895" lon="10.8770895"><ele>695.6666666666667</ele><time>2026-04-03T09:44:15.889Z</time></trkpt><trkpt lat="43.2157893" lon="10.8770952"><ele>697.0</ele><time>2026-04-03T09:44:17.878Z</time></trkpt><trkpt lat="43.2157107" lon="10.8770866"><ele>697.5</ele><time>2026-04-03T09:44:18.877Z</time></trkpt><trkpt lat="43.2156297" lon="10.8770714"><ele>698.0</ele><time>2026-04-03T09:44:19.89Z</time></trkpt><trkpt lat="43.2155409" lon="10.8770551"><ele>698.5</ele><time>2026-04-03T09:44:20.888Z</time></trkpt><trkpt lat="43.2154517" lon="10.8770367"><ele>699.0</ele><time>2026-04-03T09:44:21.885Z</time></trkpt><trkpt lat="43.2153584" lon="10.8770158"><ele>699.5</ele><time>2026-04-03T09:44:22.883Z</time></trkpt><trkpt lat="43.2152713" lon="10.8769961"><ele>700.0</ele><time>2026-04-03T09:44:23.884Z</time></trkpt><trkpt lat="43.2151932" lon="10.8769729"><ele>700.0</ele><time>2026-04-03T09:44:24.882Z</time></trkpt><trkpt lat="43.2151233" lon="10.8769426"><ele>700.0</ele><time>2026-04-03T09:44:25.881Z</time></trkpt><trkpt lat="43.2150644" lon="10.8769034"><ele>700.0</ele><time>2026-04-03T09:44:26.882Z</time></trkpt><trkpt lat="43.2150157" lon="10.876848"><ele>700.0</ele><time>2026-04-03T09:44:27.875Z</time></trkpt><trkpt lat="43.2149756" lon="10.8767733"><ele>700.0</ele><time>2026-04-03T09:44:28.887Z</time></trkpt><trkpt lat="43.2149365" lon="10.8766913"><ele>700.0</ele><time>2026-04-03T09:44:29.888Z</time></trkpt><trkpt lat="43.2148889" lon="10.876619"><ele>700.0</ele><time>2026-04-03T09:44:30.893Z</time></trkpt><trkpt lat="43.2148305" lon="10.8765566"><ele>701.6666666666667</ele><time>2026-04-03T09:44:31.884Z</time></trkpt><trkpt lat="43.2147638" lon="10.8764989"><ele>703.3333333333334</ele><time>2026-04-03T09:44:32.886Z</time></trkpt><trkpt lat="43.2146861" lon="10.8764602"><ele>705.0</ele><time>2026-04-03T09:44:33.877Z</time></trkpt><trkpt lat="43.2146044" lon="10.876445"><ele>706.6666666666666</ele><time>2026-04-03T09:44:34.891Z</time></trkpt><trkpt lat="43.2145149" lon="10.8764557"><ele>708.3333333333333</ele><time>2026-04-03T09:44:35.881Z</time></trkpt><trkpt lat="43.2144369" lon="10.8764649"><ele>710.0</ele><time>2026-04-03T09:44:36.89Z</time></trkpt><trkpt lat="43.2143523" lon="10.8764836"><ele>710.0</ele><time>2026-04-03T09:44:37.879Z</time></trkpt><trkpt lat="43.2142773" lon="10.8765123"><ele>710.0</ele><time>2026-04-03T09:44:38.878Z</time></trkpt><trkpt lat="43.214189" lon="10.8765028"><ele>710.0</ele><time>2026-04-03T09:44:39.884Z</time></trkpt><trkpt lat="43.2141133" lon="10.8764948"><ele>710.0</ele><time>2026-04-03T09:44:40.9Z</time></trkpt><trkpt lat="43.2140374" lon="10.8764894"><ele>710.0</ele><time>2026-04-03T09:44:41.889Z</time></trkpt><trkpt lat="43.2139371" lon="10.8764947"><ele>710.0</ele><time>2026-04-03T09:44:42.88Z</time></trkpt><trkpt lat="43.2138357" lon="10.8765155"><ele>711.6</ele><time>2026-04-03T09:44:43.911Z</time></trkpt><trkpt lat="43.2137314" lon="10.8765564"><ele>713.2</ele><time>2026-04-03T09:44:44.892Z</time></trkpt><trkpt lat="43.2136341" lon="10.8766128"><ele>714.8</ele><time>2026-04-03T09:44:45.877Z</time></trkpt><trkpt lat="43.2135343" lon="10.8766559"><ele>716.4</ele><time>2026-04-03T09:44:46.9Z</time></trkpt><trkpt lat="43.2134363" lon="10.8766924"><ele>718.0</ele><time>2026-04-03T09:44:47.889Z</time></trkpt><trkpt lat="43.2133455" lon="10.8767269"><ele>718.0</ele><time>2026-04-03T09:44:48.876Z</time></trkpt><trkpt lat="43.2132595" lon="10.8767556"><ele>718.0</ele><time>2026-04-03T09:44:49.892Z</time></trkpt><trkpt lat="43.2131821" lon="10.8767767"><ele>718.0</ele><time>2026-04-03T09:44:50.909Z</time></trkpt><trkpt lat="43.2130985" lon="10.8767855"><ele>718.0</ele><time>2026-04-03T09:44:51.879Z</time></trkpt><trkpt lat="43.2130035" lon="10.8767796"><ele>718.0</ele><time>2026-04-03T09:44:52.893Z</time></trkpt><trkpt lat="43.212893" lon="10.876758"><ele>718.8</ele><time>2026-04-03T09:44:53.893Z</time></trkpt><trkpt lat="43.2127751" lon="10.8767279"><ele>719.5999999999999</ele><time>2026-04-03T09:44:54.883Z</time></trkpt><trkpt lat="43.2126686" lon="10.8767031"><ele>720.4000000000001</ele><time>2026-04-03T09:44:55.881Z</time></trkpt><trkpt lat="43.2125684" lon="10.8766957"><ele>721.2</ele><time>2026-04-03T09:44:56.902Z</time></trkpt><trkpt lat="43.212478" lon="10.8767012"><ele>722.0</ele><time>2026-04-03T09:44:57.879Z</time></trkpt><trkpt lat="43.2123986" lon="10.8766952"><ele>722.0</ele><time>2026-04-03T09:44:58.889Z</time></trkpt><trkpt lat="43.2123304" lon="10.8766836"><ele>722.0</ele><time>2026-04-03T09:44:59.878Z</time></trkpt><trkpt lat="43.2122662" lon="10.8766636"><ele>722.0</ele><time>2026-04-03T09:45:00.875Z</time></trkpt><trkpt lat="43.212191" lon="10.8766561"><ele>722.0</ele><time>2026-04-03T09:45:01.896Z</time></trkpt><trkpt lat="43.2120822" lon="10.8765621"><ele>722.0</ele><time>2026-04-03T09:45:03.879Z</time></trkpt><trkpt lat="43.2119802" lon="10.8764793"><ele>724.0</ele><time>2026-04-03T09:45:05.894Z</time></trkpt><trkpt lat="43.2119201" lon="10.8764324"><ele>726.0</ele><time>2026-04-03T09:45:06.878Z</time></trkpt><trkpt lat="43.2118638" lon="10.8763877"><ele>728.0</ele><time>2026-04-03T09:45:07.88Z</time></trkpt><trkpt lat="43.2117604" lon="10.8763555"><ele>730.0</ele><time>2026-04-03T09:45:09.885Z</time></trkpt><trkpt lat="43.2116606" lon="10.8764474"><ele>732.0</ele><time>2026-04-03T09:45:11.888Z</time></trkpt><trkpt lat="43.2115929" lon="10.8764788"><ele>734.0</ele><time>2026-04-03T09:45:12.889Z</time></trkpt><trkpt lat="43.2115236" lon="10.8765203"><ele>734.2</ele><time>2026-04-03T09:45:13.879Z</time></trkpt><trkpt lat="43.2114602" lon="10.8765648"><ele>734.4000000000001</ele><time>2026-04-03T09:45:14.878Z</time></trkpt><trkpt lat="43.2113413" lon="10.8766527"><ele>734.6</ele><time>2026-04-03T09:45:16.878Z</time></trkpt><trkpt lat="43.2112299" lon="10.8767529"><ele>734.8</ele><time>2026-04-03T09:45:18.879Z</time></trkpt><trkpt lat="43.2111569" lon="10.8768192"><ele>735.0</ele><time>2026-04-03T09:45:19.886Z</time></trkpt><trkpt lat="43.2110963" lon="10.8769004"><ele>735.0</ele><time>2026-04-03T09:45:20.872Z</time></trkpt><trkpt lat="43.211029" lon="10.8769651"><ele>735.0</ele><time>2026-04-03T09:45:21.881Z</time></trkpt><trkpt lat="43.2109588" lon="10.8770216"><ele>735.0</ele><time>2026-04-03T09:45:22.88Z</time></trkpt><trkpt lat="43.2108971" lon="10.8770642"><ele>735.0</ele><time>2026-04-03T09:45:23.886Z</time></trkpt><trkpt lat="43.2107884" lon="10.8770758"><ele>735.0</ele><time>2026-04-03T09:45:25.886Z</time></trkpt><trkpt lat="43.2107506" lon="10.8770008"><ele>735.0</ele><time>2026-04-03T09:45:27.879Z</time></trkpt><trkpt lat="43.2107824" lon="10.8769225"><ele>735.0</ele><time>2026-04-03T09:45:30.878Z</time></trkpt><trkpt lat="43.2108538" lon="10.8768645"><ele>735.0</ele><time>2026-04-03T09:45:32.882Z</time></trkpt><trkpt lat="43.2109269" lon="10.8767455"><ele>735.0</ele><time>2026-04-03T09:45:34.877Z</time></trkpt><trkpt lat="43.2109951" lon="10.8765984"><ele>735.0</ele><time>2026-04-03T09:45:36.881Z</time></trkpt><trkpt lat="43.2110506" lon="10.8764634"><ele>735.0</ele><time>2026-04-03T09:45:38.884Z</time></trkpt><trkpt lat="43.2110948" lon="10.8763477"><ele>737.6</ele><time>2026-04-03T09:45:40.888Z</time></trkpt><trkpt lat="43.2110801" lon="10.876215"><ele>740.2</ele><time>2026-04-03T09:45:42.879Z</time></trkpt><trkpt lat="43.2109968" lon="10.8761016"><ele>742.8</ele><time>2026-04-03T09:45:44.889Z</time></trkpt><trkpt lat="43.2108902" lon="10.8760478"><ele>745.4</ele><time>2026-04-03T09:45:46.883Z</time></trkpt><trkpt lat="43.2108236" lon="10.876061"><ele>748.0</ele><time>2026-04-03T09:45:47.882Z</time></trkpt><trkpt lat="43.2107539" lon="10.8760761"><ele>748.0</ele><time>2026-04-03T09:45:48.885Z</time></trkpt><trkpt lat="43.2106903" lon="10.8760884"><ele>748.0</ele><time>2026-04-03T09:45:49.883Z</time></trkpt><trkpt lat="43.2106251" lon="10.8760899"><ele>748.0</ele><time>2026-04-03T09:45:50.888Z</time></trkpt><trkpt lat="43.2105618" lon="10.8760869"><ele>748.0</ele><time>2026-04-03T09:45:51.882Z</time></trkpt><trkpt lat="43.2104892" lon="10.8760854"><ele>748.0</ele><time>2026-04-03T09:45:52.882Z</time></trkpt><trkpt lat="43.2104169" lon="10.8760922"><ele>748.0</ele><time>2026-04-03T09:45:53.885Z</time></trkpt><trkpt lat="43.2103371" lon="10.8761004"><ele>748.0</ele><time>2026-04-03T09:45:54.881Z</time></trkpt><trkpt lat="43.2102571" lon="10.8761181"><ele>749.0</ele><time>2026-04-03T09:45:55.89Z</time></trkpt><trkpt lat="43.2101771" lon="10.8761371"><ele>750.0</ele><time>2026-04-03T09:45:56.888Z</time></trkpt><trkpt lat="43.2100939" lon="10.8761593"><ele>751.0</ele><time>2026-04-03T09:45:57.883Z</time></trkpt><trkpt lat="43.2100134" lon="10.8761833"><ele>752.0</ele><time>2026-04-03T09:45:58.883Z</time></trkpt><trkpt lat="43.2099283" lon="10.8762171"><ele>753.0</ele><time>2026-04-03T09:45:59.886Z</time></trkpt><trkpt lat="43.2098397" lon="10.8762532"><ele>754.0</ele><time>2026-04-03T09:46:00.878Z</time></trkpt><trkpt lat="43.2097517" lon="10.8762794"><ele>756.1666666666667</ele><time>2026-04-03T09:46:01.887Z</time></trkpt><trkpt lat="43.2096652" lon="10.876293"><ele>758.3333333333334</ele><time>2026-04-03T09:46:02.879Z</time></trkpt><trkpt lat="43.2095793" lon="10.8763057"><ele>760.5</ele><time>2026-04-03T09:46:03.894Z</time></trkpt><trkpt lat="43.2094966" lon="10.8762929"><ele>762.6666666666666</ele><time>2026-04-03T09:46:04.887Z</time></trkpt><trkpt lat="43.2094144" lon="10.8762842"><ele>764.8333333333333</ele><time>2026-04-03T09:46:05.895Z</time></trkpt><trkpt lat="43.2093365" lon="10.8762779"><ele>767.0</ele><time>2026-04-03T09:46:06.883Z</time></trkpt><trkpt lat="43.2092586" lon="10.8762702"><ele>767.0</ele><time>2026-04-03T09:46:07.882Z</time></trkpt><trkpt lat="43.2091794" lon="10.8762673"><ele>767.0</ele><time>2026-04-03T09:46:08.875Z</time></trkpt><trkpt lat="43.2090976" lon="10.8762755"><ele>767.0</ele><time>2026-04-03T09:46:09.882Z</time></trkpt><trkpt lat="43.2090148" lon="10.876314"><ele>767.0</ele><time>2026-04-03T09:46:10.88Z</time></trkpt><trkpt lat="43.2089322" lon="10.8763616"><ele>767.0</ele><time>2026-04-03T09:46:11.87Z</time></trkpt><trkpt lat="43.2088619" lon="10.8764098"><ele>767.0</ele><time>2026-04-03T09:46:12.876Z</time></trkpt><trkpt lat="43.208791" lon="10.8764624"><ele>770.8333333333333</ele><time>2026-04-03T09:46:13.88Z</time></trkpt><trkpt lat="43.2087152" lon="10.8765138"><ele>774.6666666666666</ele><time>2026-04-03T09:46:14.879Z</time></trkpt><trkpt lat="43.2086336" lon="10.8765403"><ele>778.5</ele><time>2026-04-03T09:46:15.879Z</time></trkpt><trkpt lat="43.2085446" lon="10.8765521"><ele>782.3333333333333</ele><time>2026-04-03T09:46:16.879Z</time></trkpt><trkpt lat="43.2084532" lon="10.8765656"><ele>786.1666666666666</ele><time>2026-04-03T09:46:17.884Z</time></trkpt><trkpt lat="43.2083619" lon="10.8765971"><ele>790.0</ele><time>2026-04-03T09:46:18.884Z</time></trkpt><trkpt lat="43.2082852" lon="10.8766473"><ele>789.9999999999999</ele><time>2026-04-03T09:46:19.872Z</time></trkpt><trkpt lat="43.2082287" lon="10.8767174"><ele>790.0</ele><time>2026-04-03T09:46:20.877Z</time></trkpt><trkpt lat="43.2081678" lon="10.8767848"><ele>790.0</ele><time>2026-04-03T09:46:21.873Z</time></trkpt><trkpt lat="43.2081054" lon="10.8768434"><ele>790.0</ele><time>2026-04-03T09:46:22.882Z</time></trkpt><trkpt lat="43.2080472" lon="10.8769005"><ele>789.9999999999999</ele><time>2026-04-03T09:46:23.873Z</time></trkpt><trkpt lat="43.2079797" lon="10.8769647"><ele>790.0</ele><time>2026-04-03T09:46:24.876Z</time></trkpt><trkpt lat="43.2079105" lon="10.8770261"><ele>790.3333333333333</ele><time>2026-04-03T09:46:25.875Z</time></trkpt><trkpt lat="43.2078463" lon="10.8770827"><ele>790.6666666666666</ele><time>2026-04-03T09:46:26.887Z</time></trkpt><trkpt lat="43.2077667" lon="10.8771283"><ele>791.0</ele><time>2026-04-03T09:46:27.872Z</time></trkpt><trkpt lat="43.2076723" lon="10.8771791"><ele>791.3333333333333</ele><time>2026-04-03T09:46:28.89Z</time></trkpt><trkpt lat="43.2075924" lon="10.8772212"><ele>791.6666666666666</ele><time>2026-04-03T09:46:29.881Z</time></trkpt><trkpt lat="43.2075211" lon="10.8772602"><ele>792.0</ele><time>2026-04-03T09:46:30.88Z</time></trkpt><trkpt lat="43.2074608" lon="10.8772873"><ele>792.0</ele><time>2026-04-03T09:46:31.87Z</time></trkpt><trkpt lat="43.207397" lon="10.8773198"><ele>792.0</ele><time>2026-04-03T09:46:32.882Z</time></trkpt><trkpt lat="43.2072943" lon="10.8773803"><ele>792.0</ele><time>2026-04-03T09:46:34.879Z</time></trkpt><trkpt lat="43.2072172" lon="10.8774261"><ele>792.0</ele><time>2026-04-03T09:46:36.892Z</time></trkpt><trkpt lat="43.2071637" lon="10.8774795"><ele>792.0</ele><time>2026-04-03T09:50:07.879Z</time></trkpt><trkpt lat="43.2070775" lon="10.8775517"><ele>792.0</ele><time>2026-04-03T09:50:10.891Z</time></trkpt><trkpt lat="43.2069865" lon="10.877636"><ele>791.6666666666666</ele><time>2026-04-03T09:50:12.889Z</time></trkpt><trkpt lat="43.2069318" lon="10.877688"><ele>791.3333333333333</ele><time>2026-04-03T09:50:13.882Z</time></trkpt><trkpt lat="43.2068726" lon="10.8777496"><ele>791.0</ele><time>2026-04-03T09:50:14.879Z</time></trkpt><trkpt lat="43.2068095" lon="10.8778191"><ele>790.6666666666666</ele><time>2026-04-03T09:50:15.893Z</time></trkpt><trkpt lat="43.2067453" lon="10.8778964"><ele>790.3333333333333</ele><time>2026-04-03T09:50:16.891Z</time></trkpt><trkpt lat="43.2066815" lon="10.8779873"><ele>790.0</ele><time>2026-04-03T09:50:17.876Z</time></trkpt><trkpt lat="43.206624" lon="10.8780821"><ele>790.0</ele><time>2026-04-03T09:50:18.881Z</time></trkpt><trkpt lat="43.2065772" lon="10.8781828"><ele>790.0</ele><time>2026-04-03T09:50:19.888Z</time></trkpt><trkpt lat="43.2065428" lon="10.8782923"><ele>790.0</ele><time>2026-04-03T09:50:20.889Z</time></trkpt><trkpt lat="43.2065217" lon="10.8784207"><ele>790.0</ele><time>2026-04-03T09:50:21.879Z</time></trkpt><trkpt lat="43.2065015" lon="10.8785553"><ele>790.0</ele><time>2026-04-03T09:50:22.882Z</time></trkpt><trkpt lat="43.2064725" lon="10.8786891"><ele>787.75</ele><time>2026-04-03T09:50:23.893Z</time></trkpt><trkpt lat="43.2064303" lon="10.8788253"><ele>785.5</ele><time>2026-04-03T09:50:24.897Z</time></trkpt><trkpt lat="43.2063765" lon="10.8789663"><ele>783.25</ele><time>2026-04-03T09:50:25.889Z</time></trkpt><trkpt lat="43.2063146" lon="10.8791171"><ele>781.0</ele><time>2026-04-03T09:50:26.884Z</time></trkpt><trkpt lat="43.2062462" lon="10.8792763"><ele>781.0</ele><time>2026-04-03T09:50:27.888Z</time></trkpt><trkpt lat="43.2061755" lon="10.8794358"><ele>781.0</ele><time>2026-04-03T09:50:28.89Z</time></trkpt><trkpt lat="43.2061048" lon="10.879589"><ele>781.0</ele><time>2026-04-03T09:50:29.876Z</time></trkpt><trkpt lat="43.2060363" lon="10.8797317"><ele>781.0</ele><time>2026-04-03T09:50:30.885Z</time></trkpt><trkpt lat="43.2059634" lon="10.8798571"><ele>781.0</ele><time>2026-04-03T09:50:31.879Z</time></trkpt><trkpt lat="43.2058838" lon="10.8799591"><ele>781.0</ele><time>2026-04-03T09:50:32.878Z</time></trkpt><trkpt lat="43.205806" lon="10.8800377"><ele>781.0</ele><time>2026-04-03T09:50:33.881Z</time></trkpt><trkpt lat="43.2057295" lon="10.8800939"><ele>781.0</ele><time>2026-04-03T09:50:34.875Z</time></trkpt><trkpt lat="43.2056474" lon="10.8801229"><ele>781.0</ele><time>2026-04-03T09:50:35.877Z</time></trkpt><trkpt lat="43.2055565" lon="10.8801367"><ele>779.5999999999999</ele><time>2026-04-03T09:50:36.891Z</time></trkpt><trkpt lat="43.2054561" lon="10.880141"><ele>778.2</ele><time>2026-04-03T09:50:37.884Z</time></trkpt><trkpt lat="43.2053483" lon="10.8801392"><ele>776.8</ele><time>2026-04-03T09:50:38.898Z</time></trkpt><trkpt lat="43.2052357" lon="10.8801421"><ele>775.4000000000001</ele><time>2026-04-03T09:50:39.891Z</time></trkpt><trkpt lat="43.2051266" lon="10.8801644"><ele>774.0</ele><time>2026-04-03T09:50:40.885Z</time></trkpt><trkpt lat="43.205018" lon="10.8802104"><ele>774.0</ele><time>2026-04-03T09:50:41.887Z</time></trkpt><trkpt lat="43.2049058" lon="10.8802702"><ele>774.0</ele><time>2026-04-03T09:50:42.878Z</time></trkpt><trkpt lat="43.2047936" lon="10.8803459"><ele>774.0</ele><time>2026-04-03T09:50:43.876Z</time></trkpt><trkpt lat="43.2046903" lon="10.8804352"><ele>774.0</ele><time>2026-04-03T09:50:44.887Z</time></trkpt><trkpt lat="43.2045899" lon="10.8805292"><ele>772.25</ele><time>2026-04-03T09:50:45.887Z</time></trkpt><trkpt lat="43.2044912" lon="10.8806238"><ele>770.5</ele><time>2026-04-03T09:50:46.891Z</time></trkpt><trkpt lat="43.2043924" lon="10.8807115"><ele>768.75</ele><time>2026-04-03T09:50:47.881Z</time></trkpt><trkpt lat="43.2042882" lon="10.880781"><ele>767.0</ele><time>2026-04-03T09:50:48.888Z</time></trkpt><trkpt lat="43.2041803" lon="10.8808317"><ele>767.0</ele><time>2026-04-03T09:50:49.882Z</time></trkpt><trkpt lat="43.2040702" lon="10.8808693"><ele>767.0</ele><time>2026-04-03T09:50:50.897Z</time></trkpt><trkpt lat="43.2039546" lon="10.8809146"><ele>767.0</ele><time>2026-04-03T09:50:51.884Z</time></trkpt><trkpt lat="43.2038377" lon="10.8809843"><ele>767.0</ele><time>2026-04-03T09:50:52.88Z</time></trkpt><trkpt lat="43.2037295" lon="10.8810739"><ele>765.5</ele><time>2026-04-03T09:50:53.881Z</time></trkpt><trkpt lat="43.2036235" lon="10.881171"><ele>764.0</ele><time>2026-04-03T09:50:54.885Z</time></trkpt><trkpt lat="43.2035191" lon="10.8812619"><ele>762.5</ele><time>2026-04-03T09:50:55.895Z</time></trkpt><trkpt lat="43.203418" lon="10.8813418"><ele>761.0</ele><time>2026-04-03T09:50:56.882Z</time></trkpt><trkpt lat="43.2033233" lon="10.8814248"><ele>761.0</ele><time>2026-04-03T09:50:57.888Z</time></trkpt><trkpt lat="43.2032377" lon="10.881518"><ele>761.0</ele><time>2026-04-03T09:50:58.884Z</time></trkpt><trkpt lat="43.2031542" lon="10.8816188"><ele>761.0</ele><time>2026-04-03T09:50:59.881Z</time></trkpt><trkpt lat="43.2030788" lon="10.8817252"><ele>761.0</ele><time>2026-04-03T09:51:00.883Z</time></trkpt><trkpt lat="43.2030151" lon="10.8818375"><ele>761.0</ele><time>2026-04-03T09:51:01.895Z</time></trkpt><trkpt lat="43.2029562" lon="10.8819585"><ele>761.4</ele><time>2026-04-03T09:51:02.887Z</time></trkpt><trkpt lat="43.2029049" lon="10.8820884"><ele>761.8</ele><time>2026-04-03T09:51:03.883Z</time></trkpt><trkpt lat="43.2028646" lon="10.882219"><ele>762.1999999999999</ele><time>2026-04-03T09:51:04.887Z</time></trkpt><trkpt lat="43.2028311" lon="10.8823394"><ele>762.5999999999999</ele><time>2026-04-03T09:51:05.88Z</time></trkpt><trkpt lat="43.2027996" lon="10.8824436"><ele>763.0</ele><time>2026-04-03T09:51:06.888Z</time></trkpt><trkpt lat="43.2027647" lon="10.88253"><ele>764.4</ele><time>2026-04-03T09:51:07.892Z</time></trkpt><trkpt lat="43.2027221" lon="10.8826138"><ele>765.8</ele><time>2026-04-03T09:51:08.892Z</time></trkpt><trkpt lat="43.2026668" lon="10.8827054"><ele>767.2</ele><time>2026-04-03T09:51:09.882Z</time></trkpt><trkpt lat="43.2026008" lon="10.8828025"><ele>768.6</ele><time>2026-04-03T09:51:10.879Z</time></trkpt><trkpt lat="43.2025342" lon="10.8828976"><ele>770.0</ele><time>2026-04-03T09:51:11.889Z</time></trkpt><trkpt lat="43.2024568" lon="10.8829975"><ele>770.0</ele><time>2026-04-03T09:51:12.884Z</time></trkpt><trkpt lat="43.2023805" lon="10.883104"><ele>770.0</ele><time>2026-04-03T09:51:13.886Z</time></trkpt><trkpt lat="43.2023126" lon="10.8832327"><ele>770.0</ele><time>2026-04-03T09:51:14.892Z</time></trkpt><trkpt lat="43.2022502" lon="10.8833773"><ele>770.0</ele><time>2026-04-03T09:51:15.885Z</time></trkpt><trkpt lat="43.2021856" lon="10.8835131"><ele>771.4</ele><time>2026-04-03T09:51:16.883Z</time></trkpt><trkpt lat="43.202122" lon="10.8836231"><ele>772.8</ele><time>2026-04-03T09:51:17.887Z</time></trkpt><trkpt lat="43.2020534" lon="10.8837134"><ele>774.2</ele><time>2026-04-03T09:51:18.882Z</time></trkpt><trkpt lat="43.2019805" lon="10.883806"><ele>775.6</ele><time>2026-04-03T09:51:19.886Z</time></trkpt><trkpt lat="43.2018933" lon="10.8838965"><ele>777.0</ele><time>2026-04-03T09:51:20.883Z</time></trkpt><trkpt lat="43.2018023" lon="10.8839911"><ele>777.0</ele><time>2026-04-03T09:51:21.883Z</time></trkpt><trkpt lat="43.2017152" lon="10.8840844"><ele>777.0</ele><time>2026-04-03T09:51:22.885Z</time></trkpt><trkpt lat="43.2016303" lon="10.8841746"><ele>777.0</ele><time>2026-04-03T09:51:23.879Z</time></trkpt><trkpt lat="43.2015504" lon="10.8842816"><ele>777.0</ele><time>2026-04-03T09:51:24.88Z</time></trkpt><trkpt lat="43.2014651" lon="10.8843714"><ele>777.0</ele><time>2026-04-03T09:51:25.881Z</time></trkpt><trkpt lat="43.2013817" lon="10.8844344"><ele>779.8</ele><time>2026-04-03T09:51:26.883Z</time></trkpt><trkpt lat="43.2013021" lon="10.8844893"><ele>782.6</ele><time>2026-04-03T09:51:27.889Z</time></trkpt><trkpt lat="43.2012129" lon="10.8845368"><ele>785.4</ele><time>2026-04-03T09:51:28.932Z</time></trkpt><trkpt lat="43.2011207" lon="10.8845908"><ele>788.1999999999999</ele><time>2026-04-03T09:51:29.878Z</time></trkpt><trkpt lat="43.2010349" lon="10.8846483"><ele>791.0</ele><time>2026-04-03T09:51:30.881Z</time></trkpt><trkpt lat="43.2009698" lon="10.8847189"><ele>791.0000000000001</ele><time>2026-04-03T09:51:31.884Z</time></trkpt><trkpt lat="43.200907" lon="10.8847906"><ele>791.0</ele><time>2026-04-03T09:51:32.88Z</time></trkpt><trkpt lat="43.2008603" lon="10.8848821"><ele>791.0</ele><time>2026-04-03T09:51:33.88Z</time></trkpt><trkpt lat="43.2008155" lon="10.8849797"><ele>791.0</ele><time>2026-04-03T09:51:34.88Z</time></trkpt><trkpt lat="43.2007738" lon="10.885092"><ele>791.0000000000001</ele><time>2026-04-03T09:51:35.881Z</time></trkpt><trkpt lat="43.200709" lon="10.8851979"><ele>791.0</ele><time>2026-04-03T09:51:36.882Z</time></trkpt><trkpt lat="43.2006246" lon="10.8853126"><ele>791.5999999999999</ele><time>2026-04-03T09:51:37.882Z</time></trkpt><trkpt lat="43.200543" lon="10.8854275"><ele>792.2</ele><time>2026-04-03T09:51:38.879Z</time></trkpt><trkpt lat="43.2004759" lon="10.8855386"><ele>792.8</ele><time>2026-04-03T09:51:39.879Z</time></trkpt><trkpt lat="43.2004111" lon="10.8856446"><ele>793.4000000000001</ele><time>2026-04-03T09:51:40.888Z</time></trkpt><trkpt lat="43.2003388" lon="10.8857453"><ele>794.0</ele><time>2026-04-03T09:51:41.887Z</time></trkpt><trkpt lat="43.2002654" lon="10.8858426"><ele>794.0</ele><time>2026-04-03T09:51:42.876Z</time></trkpt><trkpt lat="43.2001726" lon="10.8859163"><ele>794.0</ele><time>2026-04-03T09:51:43.883Z</time></trkpt><trkpt lat="43.2000733" lon="10.8859902"><ele>794.0</ele><time>2026-04-03T09:51:44.881Z</time></trkpt><trkpt lat="43.1999775" lon="10.8860539"><ele>794.0</ele><time>2026-04-03T09:51:45.883Z</time></trkpt><trkpt lat="43.1998805" lon="10.8860957"><ele>794.0</ele><time>2026-04-03T09:51:46.881Z</time></trkpt><trkpt lat="43.1997793" lon="10.886121"><ele>795.0</ele><time>2026-04-03T09:51:47.878Z</time></trkpt><trkpt lat="43.1996664" lon="10.8861366"><ele>796.0</ele><time>2026-04-03T09:51:48.871Z</time></trkpt><trkpt lat="43.1995431" lon="10.8861478"><ele>797.0</ele><time>2026-04-03T09:51:49.885Z</time></trkpt><trkpt lat="43.1994249" lon="10.886145"><ele>798.0</ele><time>2026-04-03T09:51:50.882Z</time></trkpt><trkpt lat="43.1993155" lon="10.8861307"><ele>798.0</ele><time>2026-04-03T09:51:51.88Z</time></trkpt><trkpt lat="43.1992166" lon="10.8861061"><ele>798.0</ele><time>2026-04-03T09:51:52.886Z</time></trkpt><trkpt lat="43.1991241" lon="10.8860858"><ele>798.0</ele><time>2026-04-03T09:51:53.891Z</time></trkpt><trkpt lat="43.1990297" lon="10.8860754"><ele>798.0</ele><time>2026-04-03T09:51:54.886Z</time></trkpt><trkpt lat="43.1989392" lon="10.8860808"><ele>798.0</ele><time>2026-04-03T09:51:55.893Z</time></trkpt><trkpt lat="43.1988478" lon="10.8861078"><ele>796.8</ele><time>2026-04-03T09:51:56.891Z</time></trkpt><trkpt lat="43.19875" lon="10.8861569"><ele>795.5999999999999</ele><time>2026-04-03T09:51:57.886Z</time></trkpt><trkpt lat="43.1986485" lon="10.8862168"><ele>794.4000000000001</ele><time>2026-04-03T09:51:58.885Z</time></trkpt><trkpt lat="43.1985468" lon="10.886275"><ele>793.2</ele><time>2026-04-03T09:51:59.883Z</time></trkpt><trkpt lat="43.1984478" lon="10.8863209"><ele>792.0</ele><time>2026-04-03T09:52:00.887Z</time></trkpt><trkpt lat="43.1983513" lon="10.8863514"><ele>792.0</ele><time>2026-04-03T09:52:01.883Z</time></trkpt><trkpt lat="43.1982569" lon="10.886376"><ele>792.0</ele><time>2026-04-03T09:52:02.884Z</time></trkpt><trkpt lat="43.1981638" lon="10.8864"><ele>792.0</ele><time>2026-04-03T09:52:03.89Z</time></trkpt><trkpt lat="43.1980743" lon="10.8864238"><ele>792.0</ele><time>2026-04-03T09:52:04.884Z</time></trkpt><trkpt lat="43.1979815" lon="10.8864424"><ele>792.0</ele><time>2026-04-03T09:52:05.882Z</time></trkpt><trkpt lat="43.1978854" lon="10.8864508"><ele>789.2</ele><time>2026-04-03T09:52:06.891Z</time></trkpt><trkpt lat="43.1977863" lon="10.8864597"><ele>786.4000000000001</ele><time>2026-04-03T09:52:07.885Z</time></trkpt><trkpt lat="43.1976885" lon="10.8864698"><ele>783.5999999999999</ele><time>2026-04-03T09:52:08.884Z</time></trkpt><trkpt lat="43.1975887" lon="10.8864864"><ele>780.8</ele><time>2026-04-03T09:52:09.894Z</time></trkpt><trkpt lat="43.197489" lon="10.8865074"><ele>778.0</ele><time>2026-04-03T09:52:10.882Z</time></trkpt><trkpt lat="43.197389" lon="10.8865308"><ele>778.4</ele><time>2026-04-03T09:52:11.894Z</time></trkpt><trkpt lat="43.1972827" lon="10.8865931"><ele>778.8</ele><time>2026-04-03T09:52:12.888Z</time></trkpt><trkpt lat="43.1971768" lon="10.8866668"><ele>779.2</ele><time>2026-04-03T09:52:13.882Z</time></trkpt><trkpt lat="43.1970775" lon="10.8867228"><ele>779.6</ele><time>2026-04-03T09:52:14.891Z</time></trkpt><trkpt lat="43.1969831" lon="10.886771"><ele>780.0</ele><time>2026-04-03T09:52:15.887Z</time></trkpt><trkpt lat="43.1968834" lon="10.8867831"><ele>780.0</ele><time>2026-04-03T09:52:16.887Z</time></trkpt><trkpt lat="43.1967771" lon="10.8868165"><ele>780.0</ele><time>2026-04-03T09:52:17.884Z</time></trkpt><trkpt lat="43.1966558" lon="10.8868697"><ele>780.0</ele><time>2026-04-03T09:52:18.89Z</time></trkpt><trkpt lat="43.1965382" lon="10.8869223"><ele>780.0</ele><time>2026-04-03T09:52:19.889Z</time></trkpt><trkpt lat="43.1964385" lon="10.8869849"><ele>780.1666666666666</ele><time>2026-04-03T09:52:20.887Z</time></trkpt><trkpt lat="43.1963485" lon="10.8870394"><ele>780.3333333333333</ele><time>2026-04-03T09:52:21.884Z</time></trkpt><trkpt lat="43.1962802" lon="10.887115"><ele>780.5</ele><time>2026-04-03T09:52:22.888Z</time></trkpt><trkpt lat="43.1962268" lon="10.8871845"><ele>780.6666666666666</ele><time>2026-04-03T09:52:23.886Z</time></trkpt><trkpt lat="43.1961812" lon="10.8872503"><ele>780.8333333333333</ele><time>2026-04-03T09:52:24.892Z</time></trkpt><trkpt lat="43.1961362" lon="10.887371"><ele>781.0</ele><time>2026-04-03T09:52:26.885Z</time></trkpt><trkpt lat="43.1961243" lon="10.8874959"><ele>781.6666666666666</ele><time>2026-04-03T09:52:28.883Z</time></trkpt><trkpt lat="43.1961383" lon="10.8875985"><ele>782.3333333333333</ele><time>2026-04-03T09:52:30.884Z</time></trkpt><trkpt lat="43.1961616" lon="10.8877371"><ele>783.0</ele><time>2026-04-03T09:52:32.879Z</time></trkpt><trkpt lat="43.1961718" lon="10.8878361"><ele>783.6666666666667</ele><time>2026-04-03T09:52:33.882Z</time></trkpt><trkpt lat="43.1961753" lon="10.8879572"><ele>784.3333333333334</ele><time>2026-04-03T09:52:34.878Z</time></trkpt><trkpt lat="43.1961713" lon="10.8880952"><ele>785.0</ele><time>2026-04-03T09:52:35.883Z</time></trkpt><trkpt lat="43.1961676" lon="10.8882371"><ele>785.0</ele><time>2026-04-03T09:52:36.879Z</time></trkpt><trkpt lat="43.1961626" lon="10.8883868"><ele>785.0</ele><time>2026-04-03T09:52:37.885Z</time></trkpt><trkpt lat="43.1961588" lon="10.8885444"><ele>785.0</ele><time>2026-04-03T09:52:38.892Z</time></trkpt><trkpt lat="43.1961499" lon="10.8887008"><ele>785.0</ele><time>2026-04-03T09:52:39.883Z</time></trkpt><trkpt lat="43.1961317" lon="10.88884"><ele>785.0</ele><time>2026-04-03T09:52:40.88Z</time></trkpt><trkpt lat="43.1961046" lon="10.8889604"><ele>786.3333333333334</ele><time>2026-04-03T09:52:41.883Z</time></trkpt><trkpt lat="43.1960813" lon="10.8890694"><ele>787.6666666666667</ele><time>2026-04-03T09:52:42.887Z</time></trkpt><trkpt lat="43.1960545" lon="10.8891514"><ele>789.0</ele><time>2026-04-03T09:52:43.884Z</time></trkpt><trkpt lat="43.1959964" lon="10.8892359"><ele>790.3333333333333</ele><time>2026-04-03T09:52:44.876Z</time></trkpt><trkpt lat="43.1959277" lon="10.8893206"><ele>791.6666666666666</ele><time>2026-04-03T09:52:45.887Z</time></trkpt><trkpt lat="43.1958561" lon="10.8894086"><ele>793.0</ele><time>2026-04-03T09:52:46.885Z</time></trkpt><trkpt lat="43.1957857" lon="10.8895058"><ele>794.2</ele><time>2026-04-03T09:52:47.877Z</time></trkpt><trkpt lat="43.195718" lon="10.8896123"><ele>795.4</ele><time>2026-04-03T09:52:48.888Z</time></trkpt><trkpt lat="43.1956514" lon="10.8897119"><ele>796.6</ele><time>2026-04-03T09:52:49.885Z</time></trkpt><trkpt lat="43.1955859" lon="10.8897912"><ele>797.8000000000001</ele><time>2026-04-03T09:52:50.88Z</time></trkpt><trkpt lat="43.1955099" lon="10.8898499"><ele>799.0</ele><time>2026-04-03T09:52:51.881Z</time></trkpt><trkpt lat="43.1954355" lon="10.8899056"><ele>798.9999999999999</ele><time>2026-04-03T09:52:52.882Z</time></trkpt><trkpt lat="43.1953627" lon="10.8899556"><ele>799.0</ele><time>2026-04-03T09:52:53.877Z</time></trkpt><trkpt lat="43.1953095" lon="10.8900443"><ele>799.0</ele><time>2026-04-03T09:52:54.875Z</time></trkpt><trkpt lat="43.1952601" lon="10.890133"><ele>799.0</ele><time>2026-04-03T09:52:55.881Z</time></trkpt><trkpt lat="43.195227" lon="10.8902457"><ele>798.9999999999999</ele><time>2026-04-03T09:52:56.891Z</time></trkpt><trkpt lat="43.1951875" lon="10.890369"><ele>799.0</ele><time>2026-04-03T09:52:57.88Z</time></trkpt><trkpt lat="43.1951487" lon="10.8904961"><ele>801.4000000000001</ele><time>2026-04-03T09:52:58.88Z</time></trkpt><trkpt lat="43.1951174" lon="10.8906295"><ele>803.8</ele><time>2026-04-03T09:52:59.877Z</time></trkpt><trkpt lat="43.1950778" lon="10.8907543"><ele>806.2</ele><time>2026-04-03T09:53:00.88Z</time></trkpt><trkpt lat="43.1950207" lon="10.8908606"><ele>808.5999999999999</ele><time>2026-04-03T09:53:01.885Z</time></trkpt><trkpt lat="43.194965" lon="10.8909619"><ele>811.0</ele><time>2026-04-03T09:53:02.878Z</time></trkpt><trkpt lat="43.1948901" lon="10.8910481"><ele>811.8</ele><time>2026-04-03T09:53:03.873Z</time></trkpt><trkpt lat="43.1947998" lon="10.891143"><ele>812.5999999999999</ele><time>2026-04-03T09:53:04.877Z</time></trkpt><trkpt lat="43.1947137" lon="10.8912287"><ele>813.4</ele><time>2026-04-03T09:53:05.878Z</time></trkpt><trkpt lat="43.1946336" lon="10.8913223"><ele>814.2</ele><time>2026-04-03T09:53:06.879Z</time></trkpt><trkpt lat="43.1945508" lon="10.8914169"><ele>815.0</ele><time>2026-04-03T09:53:07.881Z</time></trkpt><trkpt lat="43.1944918" lon="10.8915521"><ele>815.0</ele><time>2026-04-03T09:53:08.877Z</time></trkpt><trkpt lat="43.1944357" lon="10.8916822"><ele>815.0</ele><time>2026-04-03T09:53:09.875Z</time></trkpt><trkpt lat="43.1943865" lon="10.8918051"><ele>815.0</ele><time>2026-04-03T09:53:10.882Z</time></trkpt><trkpt lat="43.1943217" lon="10.8919123"><ele>815.0</ele><time>2026-04-03T09:53:11.883Z</time></trkpt><trkpt lat="43.1942472" lon="10.8920061"><ele>815.0</ele><time>2026-04-03T09:53:12.884Z</time></trkpt><trkpt lat="43.1941717" lon="10.8921057"><ele>815.0</ele><time>2026-04-03T09:53:13.876Z</time></trkpt><trkpt lat="43.1941019" lon="10.8922233"><ele>815.0</ele><time>2026-04-03T09:53:14.878Z</time></trkpt><trkpt lat="43.1940384" lon="10.8923626"><ele>815.0</ele><time>2026-04-03T09:53:15.877Z</time></trkpt><trkpt lat="43.1939878" lon="10.8925098"><ele>815.0</ele><time>2026-04-03T09:53:16.875Z</time></trkpt><trkpt lat="43.1939396" lon="10.8926609"><ele>815.0</ele><time>2026-04-03T09:53:17.882Z</time></trkpt><trkpt lat="43.1939101" lon="10.8928046"><ele>815.0</ele><time>2026-04-03T09:53:18.876Z</time></trkpt><trkpt lat="43.1938919" lon="10.8929305"><ele>815.0</ele><time>2026-04-03T09:53:19.88Z</time></trkpt><trkpt lat="43.1938687" lon="10.8930694"><ele>815.0</ele><time>2026-04-03T09:53:20.886Z</time></trkpt><trkpt lat="43.1938478" lon="10.8931945"><ele>815.0</ele><time>2026-04-03T09:53:21.883Z</time></trkpt><trkpt lat="43.1938235" lon="10.8932972"><ele>815.0000000000001</ele><time>2026-04-03T09:53:22.882Z</time></trkpt><trkpt lat="43.1937772" lon="10.8933833"><ele>815.0</ele><time>2026-04-03T09:53:23.881Z</time></trkpt><trkpt lat="43.1937329" lon="10.8934577"><ele>815.0</ele><time>2026-04-03T09:53:24.89Z</time></trkpt><trkpt lat="43.1936942" lon="10.8935295"><ele>815.0</ele><time>2026-04-03T09:53:25.882Z</time></trkpt><trkpt lat="43.1936646" lon="10.8936133"><ele>815.0000000000001</ele><time>2026-04-03T09:53:26.879Z</time></trkpt><trkpt lat="43.1936482" lon="10.8937191"><ele>815.0</ele><time>2026-04-03T09:53:27.883Z</time></trkpt><trkpt lat="43.1936556" lon="10.8938521"><ele>816.3333333333334</ele><time>2026-04-03T09:53:28.882Z</time></trkpt><trkpt lat="43.19366" lon="10.8939778"><ele>817.6666666666667</ele><time>2026-04-03T09:53:29.882Z</time></trkpt><trkpt lat="43.1936642" lon="10.8940825"><ele>819.0</ele><time>2026-04-03T09:53:30.883Z</time></trkpt><trkpt lat="43.1936481" lon="10.8941681"><ele>820.3333333333333</ele><time>2026-04-03T09:53:31.881Z</time></trkpt><trkpt lat="43.1935745" lon="10.8942876"><ele>821.6666666666666</ele><time>2026-04-03T09:53:33.883Z</time></trkpt><trkpt lat="43.1935161" lon="10.8943338"><ele>823.0</ele><time>2026-04-03T09:53:34.882Z</time></trkpt><trkpt lat="43.1934236" lon="10.8944015"><ele>823.5999999999999</ele><time>2026-04-03T09:53:35.88Z</time></trkpt><trkpt lat="43.1933249" lon="10.8944528"><ele>824.1999999999999</ele><time>2026-04-03T09:53:36.888Z</time></trkpt><trkpt lat="43.1932158" lon="10.8944839"><ele>824.8</ele><time>2026-04-03T09:53:37.882Z</time></trkpt><trkpt lat="43.1931113" lon="10.8945039"><ele>825.4</ele><time>2026-04-03T09:53:38.882Z</time></trkpt><trkpt lat="43.1930204" lon="10.8945096"><ele>826.0</ele><time>2026-04-03T09:53:39.88Z</time></trkpt><trkpt lat="43.1929384" lon="10.894543"><ele>827.1999999999999</ele><time>2026-04-03T09:53:40.878Z</time></trkpt><trkpt lat="43.1928627" lon="10.8946068"><ele>828.4</ele><time>2026-04-03T09:53:41.882Z</time></trkpt><trkpt lat="43.1927755" lon="10.8946736"><ele>829.6</ele><time>2026-04-03T09:53:42.882Z</time></trkpt><trkpt lat="43.192688" lon="10.8947624"><ele>830.8</ele><time>2026-04-03T09:53:43.875Z</time></trkpt><trkpt lat="43.1925996" lon="10.8948576"><ele>832.0</ele><time>2026-04-03T09:53:44.881Z</time></trkpt><trkpt lat="43.1925208" lon="10.8949602"><ele>832.0</ele><time>2026-04-03T09:53:45.878Z</time></trkpt><trkpt lat="43.1924653" lon="10.8950709"><ele>832.0</ele><time>2026-04-03T09:53:46.882Z</time></trkpt><trkpt lat="43.1924187" lon="10.8951901"><ele>832.0</ele><time>2026-04-03T09:53:47.878Z</time></trkpt><trkpt lat="43.1923773" lon="10.8952981"><ele>832.0</ele><time>2026-04-03T09:53:48.882Z</time></trkpt><trkpt lat="43.1923495" lon="10.8953787"><ele>832.0</ele><time>2026-04-03T09:53:49.877Z</time></trkpt><trkpt lat="43.1922582" lon="10.8954979"><ele>832.4999999999999</ele><time>2026-04-03T09:53:51.878Z</time></trkpt><trkpt lat="43.192173" lon="10.8955349"><ele>833.0</ele><time>2026-04-03T09:53:52.885Z</time></trkpt><trkpt lat="43.1920847" lon="10.8955735"><ele>833.5</ele><time>2026-04-03T09:53:53.877Z</time></trkpt><trkpt lat="43.1919992" lon="10.8956197"><ele>834.0</ele><time>2026-04-03T09:53:54.875Z</time></trkpt><trkpt lat="43.1919199" lon="10.8956722"><ele>834.4999999999999</ele><time>2026-04-03T09:53:55.881Z</time></trkpt><trkpt lat="43.1918712" lon="10.8957422"><ele>835.0</ele><time>2026-04-03T09:53:56.881Z</time></trkpt><trkpt lat="43.1918328" lon="10.8958114"><ele>834.9999999999999</ele><time>2026-04-03T09:53:57.878Z</time></trkpt><trkpt lat="43.1917796" lon="10.8958721"><ele>835.0</ele><time>2026-04-03T09:53:58.883Z</time></trkpt><trkpt lat="43.1917287" lon="10.8959415"><ele>835.0</ele><time>2026-04-03T09:53:59.888Z</time></trkpt><trkpt lat="43.1916812" lon="10.8960104"><ele>835.0</ele><time>2026-04-03T09:54:00.883Z</time></trkpt><trkpt lat="43.1916373" lon="10.8960735"><ele>834.9999999999999</ele><time>2026-04-03T09:54:01.888Z</time></trkpt><trkpt lat="43.191594" lon="10.8961373"><ele>835.0</ele><time>2026-04-03T09:54:02.883Z</time></trkpt><trkpt lat="43.1915174" lon="10.8962532"><ele>833.9999999999999</ele><time>2026-04-03T09:54:04.884Z</time></trkpt><trkpt lat="43.191462" lon="10.8962998"><ele>833.0</ele><time>2026-04-03T09:54:05.881Z</time></trkpt><trkpt lat="43.1913493" lon="10.8963326"><ele>832.0</ele><time>2026-04-03T09:54:07.888Z</time></trkpt><trkpt lat="43.1912616" lon="10.8963263"><ele>831.0</ele><time>2026-04-03T09:54:08.884Z</time></trkpt><trkpt lat="43.1911705" lon="10.8963186"><ele>829.9999999999999</ele><time>2026-04-03T09:54:09.88Z</time></trkpt><trkpt lat="43.1910856" lon="10.8962957"><ele>829.0</ele><time>2026-04-03T09:54:10.887Z</time></trkpt><trkpt lat="43.1910067" lon="10.8962678"><ele>828.9999999999999</ele><time>2026-04-03T09:54:11.881Z</time></trkpt><trkpt lat="43.1909308" lon="10.8962413"><ele>829.0</ele><time>2026-04-03T09:54:12.882Z</time></trkpt><trkpt lat="43.1908603" lon="10.896217"><ele>829.0</ele><time>2026-04-03T09:54:13.881Z</time></trkpt><trkpt lat="43.19078" lon="10.8962061"><ele>829.0</ele><time>2026-04-03T09:54:14.878Z</time></trkpt><trkpt lat="43.1906971" lon="10.8962059"><ele>828.9999999999999</ele><time>2026-04-03T09:54:15.883Z</time></trkpt><trkpt lat="43.1906164" lon="10.8962013"><ele>829.0</ele><time>2026-04-03T09:54:16.881Z</time></trkpt><trkpt lat="43.1905382" lon="10.8961922"><ele>827.6666666666666</ele><time>2026-04-03T09:54:17.885Z</time></trkpt><trkpt lat="43.1904615" lon="10.8961687"><ele>826.3333333333333</ele><time>2026-04-03T09:54:18.884Z</time></trkpt><trkpt lat="43.1903861" lon="10.8961472"><ele>825.0</ele><time>2026-04-03T09:54:19.875Z</time></trkpt><trkpt lat="43.1903113" lon="10.8961282"><ele>823.6666666666667</ele><time>2026-04-03T09:54:20.883Z</time></trkpt><trkpt lat="43.190239" lon="10.8961108"><ele>822.3333333333334</ele><time>2026-04-03T09:54:21.883Z</time></trkpt><trkpt lat="43.1901642" lon="10.8960946"><ele>821.0</ele><time>2026-04-03T09:54:22.882Z</time></trkpt><trkpt lat="43.190094" lon="10.8960658"><ele>821.0</ele><time>2026-04-03T09:54:23.887Z</time></trkpt><trkpt lat="43.1900238" lon="10.8960491"><ele>821.0</ele><time>2026-04-03T09:54:24.889Z</time></trkpt><trkpt lat="43.1899581" lon="10.8960296"><ele>821.0</ele><time>2026-04-03T09:54:25.879Z</time></trkpt><trkpt lat="43.1898915" lon="10.8960038"><ele>821.0</ele><time>2026-04-03T09:54:26.88Z</time></trkpt><trkpt lat="43.189776" lon="10.8959485"><ele>821.0</ele><time>2026-04-03T09:54:28.886Z</time></trkpt><trkpt lat="43.1896788" lon="10.8958395"><ele>820.1999999999999</ele><time>2026-04-03T09:54:30.878Z</time></trkpt><trkpt lat="43.1895746" lon="10.8957504"><ele>819.4</ele><time>2026-04-03T09:54:32.885Z</time></trkpt><trkpt lat="43.1894611" lon="10.8956916"><ele>818.6</ele><time>2026-04-03T09:54:34.871Z</time></trkpt><trkpt lat="43.1893532" lon="10.8956756"><ele>817.8</ele><time>2026-04-03T09:54:36.878Z</time></trkpt><trkpt lat="43.1892892" lon="10.8957054"><ele>817.0</ele><time>2026-04-03T09:54:37.879Z</time></trkpt><trkpt lat="43.1892195" lon="10.8957349"><ele>817.0</ele><time>2026-04-03T09:54:38.881Z</time></trkpt><trkpt lat="43.189132" lon="10.8957823"><ele>817.0</ele><time>2026-04-03T09:54:39.879Z</time></trkpt><trkpt lat="43.1890401" lon="10.8958327"><ele>817.0</ele><time>2026-04-03T09:54:40.877Z</time></trkpt><trkpt lat="43.1889407" lon="10.8958865"><ele>817.0</ele><time>2026-04-03T09:54:41.882Z</time></trkpt><trkpt lat="43.1888391" lon="10.8959454"><ele>817.0</ele><time>2026-04-03T09:54:42.885Z</time></trkpt><trkpt lat="43.1887419" lon="10.8960005"><ele>815.8333333333333</ele><time>2026-04-03T09:54:43.885Z</time></trkpt><trkpt lat="43.1886532" lon="10.8960575"><ele>814.6666666666666</ele><time>2026-04-03T09:54:44.878Z</time></trkpt><trkpt lat="43.1885781" lon="10.8961084"><ele>813.5</ele><time>2026-04-03T09:54:45.88Z</time></trkpt><trkpt lat="43.1885131" lon="10.8961589"><ele>812.3333333333333</ele><time>2026-04-03T09:54:46.883Z</time></trkpt><trkpt lat="43.188446" lon="10.8961988"><ele>811.1666666666666</ele><time>2026-04-03T09:54:47.884Z</time></trkpt><trkpt lat="43.1883768" lon="10.8962136"><ele>810.0</ele><time>2026-04-03T09:54:48.879Z</time></trkpt><trkpt lat="43.1882981" lon="10.8962086"><ele>810.0</ele><time>2026-04-03T09:54:49.878Z</time></trkpt><trkpt lat="43.188221" lon="10.8962008"><ele>810.0</ele><time>2026-04-03T09:54:50.886Z</time></trkpt><trkpt lat="43.1881423" lon="10.8961701"><ele>810.0</ele><time>2026-04-03T09:54:51.875Z</time></trkpt><trkpt lat="43.1880671" lon="10.8961383"><ele>810.0</ele><time>2026-04-03T09:54:52.883Z</time></trkpt><trkpt lat="43.1879862" lon="10.8961149"><ele>810.0</ele><time>2026-04-03T09:54:53.878Z</time></trkpt><trkpt lat="43.1878978" lon="10.8961101"><ele>810.0</ele><time>2026-04-03T09:54:54.879Z</time></trkpt><trkpt lat="43.1878162" lon="10.896114"><ele>811.1666666666666</ele><time>2026-04-03T09:54:55.881Z</time></trkpt><trkpt lat="43.1877309" lon="10.8961153"><ele>812.3333333333333</ele><time>2026-04-03T09:54:56.886Z</time></trkpt><trkpt lat="43.1876416" lon="10.8961068"><ele>813.5</ele><time>2026-04-03T09:54:57.878Z</time></trkpt><trkpt lat="43.1875607" lon="10.8960952"><ele>814.6666666666666</ele><time>2026-04-03T09:54:58.886Z</time></trkpt><trkpt lat="43.1874896" lon="10.8960728"><ele>815.8333333333333</ele><time>2026-04-03T09:54:59.88Z</time></trkpt><trkpt lat="43.1874227" lon="10.896032"><ele>817.0</ele><time>2026-04-03T09:55:00.881Z</time></trkpt><trkpt lat="43.1873161" lon="10.8959575"><ele>819.5</ele><time>2026-04-03T09:55:02.875Z</time></trkpt><trkpt lat="43.1872067" lon="10.8958602"><ele>822.0</ele><time>2026-04-03T09:55:04.878Z</time></trkpt><trkpt lat="43.1871061" lon="10.8958008"><ele>824.5</ele><time>2026-04-03T09:55:06.878Z</time></trkpt><trkpt lat="43.1870133" lon="10.8957132"><ele>827.0</ele><time>2026-04-03T09:55:08.889Z</time></trkpt><trkpt lat="43.1869335" lon="10.89558"><ele>827.0</ele><time>2026-04-03T09:55:10.881Z</time></trkpt><trkpt lat="43.1868853" lon="10.895509"><ele>827.0</ele><time>2026-04-03T09:55:11.878Z</time></trkpt><trkpt lat="43.1868412" lon="10.8954401"><ele>827.0</ele><time>2026-04-03T09:55:12.878Z</time></trkpt><trkpt lat="43.1867933" lon="10.8953732"><ele>827.0</ele><time>2026-04-03T09:55:13.882Z</time></trkpt><trkpt lat="43.1867419" lon="10.8953065"><ele>827.0</ele><time>2026-04-03T09:55:14.88Z</time></trkpt><trkpt lat="43.1866911" lon="10.8952495"><ele>827.0</ele><time>2026-04-03T09:55:15.886Z</time></trkpt><trkpt lat="43.1866373" lon="10.895197"><ele>827.0</ele><time>2026-04-03T09:55:16.882Z</time></trkpt><trkpt lat="43.1865802" lon="10.8951518"><ele>826.0</ele><time>2026-04-03T09:55:17.885Z</time></trkpt><trkpt lat="43.1864666" lon="10.8951189"><ele>825.0</ele><time>2026-04-03T09:55:19.886Z</time></trkpt><trkpt lat="43.1863407" lon="10.8951174"><ele>824.0</ele><time>2026-04-03T09:55:21.885Z</time></trkpt><trkpt lat="43.1862728" lon="10.8951143"><ele>823.0</ele><time>2026-04-03T09:55:22.879Z</time></trkpt><trkpt lat="43.1862029" lon="10.8951215"><ele>822.0</ele><time>2026-04-03T09:55:23.88Z</time></trkpt><trkpt lat="43.1861212" lon="10.8951513"><ele>822.0</ele><time>2026-04-03T09:55:24.89Z</time></trkpt><trkpt lat="43.1860315" lon="10.8952024"><ele>822.0</ele><time>2026-04-03T09:55:25.889Z</time></trkpt><trkpt lat="43.1859375" lon="10.8952523"><ele>822.0</ele><time>2026-04-03T09:55:26.878Z</time></trkpt><trkpt lat="43.1858546" lon="10.8953086"><ele>822.0</ele><time>2026-04-03T09:55:27.881Z</time></trkpt><trkpt lat="43.1857784" lon="10.8953594"><ele>822.0</ele><time>2026-04-03T09:55:28.888Z</time></trkpt><trkpt lat="43.1857047" lon="10.8954037"><ele>823.6</ele><time>2026-04-03T09:55:29.885Z</time></trkpt><trkpt lat="43.1856321" lon="10.8954473"><ele>825.2</ele><time>2026-04-03T09:55:30.881Z</time></trkpt><trkpt lat="43.1855736" lon="10.8954917"><ele>826.8</ele><time>2026-04-03T09:55:31.884Z</time></trkpt><trkpt lat="43.1855155" lon="10.8955287"><ele>828.4</ele><time>2026-04-03T09:55:32.883Z</time></trkpt><trkpt lat="43.1853872" lon="10.8955632"><ele>830.0</ele><time>2026-04-03T09:55:34.881Z</time></trkpt><trkpt lat="43.1852575" lon="10.8955412"><ele>830.0000000000001</ele><time>2026-04-03T09:55:36.883Z</time></trkpt><trkpt lat="43.1851816" lon="10.8954906"><ele>830.0</ele><time>2026-04-03T09:55:37.882Z</time></trkpt><trkpt lat="43.1851009" lon="10.8954411"><ele>830.0</ele><time>2026-04-03T09:55:38.878Z</time></trkpt><trkpt lat="43.1850231" lon="10.8954033"><ele>830.0</ele><time>2026-04-03T09:55:39.881Z</time></trkpt><trkpt lat="43.1849471" lon="10.8953689"><ele>830.0000000000001</ele><time>2026-04-03T09:55:40.874Z</time></trkpt><trkpt lat="43.1848745" lon="10.8953286"><ele>830.0</ele><time>2026-04-03T09:55:41.872Z</time></trkpt><trkpt lat="43.1848062" lon="10.8952686"><ele>831.0000000000001</ele><time>2026-04-03T09:55:42.88Z</time></trkpt><trkpt lat="43.1847411" lon="10.8952031"><ele>832.0</ele><time>2026-04-03T09:55:43.878Z</time></trkpt><trkpt lat="43.1846728" lon="10.8951342"><ele>833.0</ele><time>2026-04-03T09:55:44.878Z</time></trkpt><trkpt lat="43.1846086" lon="10.895061"><ele>834.0</ele><time>2026-04-03T09:55:45.877Z</time></trkpt><trkpt lat="43.1845476" lon="10.8949908"><ele>835.0000000000001</ele><time>2026-04-03T09:55:46.88Z</time></trkpt><trkpt lat="43.1844803" lon="10.8949282"><ele>836.0</ele><time>2026-04-03T09:55:47.879Z</time></trkpt><trkpt lat="43.1844165" lon="10.8948644"><ele>836.0000000000001</ele><time>2026-04-03T09:55:48.883Z</time></trkpt><trkpt lat="43.1843539" lon="10.8948078"><ele>836.0</ele><time>2026-04-03T09:55:49.878Z</time></trkpt><trkpt lat="43.1842911" lon="10.8947538"><ele>836.0</ele><time>2026-04-03T09:55:50.878Z</time></trkpt><trkpt lat="43.1842123" lon="10.8946925"><ele>836.0</ele><time>2026-04-03T09:55:51.883Z</time></trkpt><trkpt lat="43.1841369" lon="10.894642"><ele>836.0000000000001</ele><time>2026-04-03T09:55:52.876Z</time></trkpt><trkpt lat="43.1840641" lon="10.8945927"><ele>836.0</ele><time>2026-04-03T09:55:53.883Z</time></trkpt><trkpt lat="43.1839938" lon="10.8945488"><ele>835.5000000000001</ele><time>2026-04-03T09:55:54.878Z</time></trkpt><trkpt lat="43.1839256" lon="10.8945171"><ele>835.0</ele><time>2026-04-03T09:55:55.879Z</time></trkpt><trkpt lat="43.1838567" lon="10.8945033"><ele>834.5</ele><time>2026-04-03T09:55:56.88Z</time></trkpt><trkpt lat="43.1837922" lon="10.8944911"><ele>834.0</ele><time>2026-04-03T09:55:57.879Z</time></trkpt><trkpt lat="43.1836681" lon="10.8944767"><ele>833.5000000000001</ele><time>2026-04-03T09:55:59.882Z</time></trkpt><trkpt lat="43.1836" lon="10.8944436"><ele>833.0</ele><time>2026-04-03T09:56:00.879Z</time></trkpt><trkpt lat="43.1834883" lon="10.8943752"><ele>833.0</ele><time>2026-04-03T09:56:02.884Z</time></trkpt><trkpt lat="43.1834315" lon="10.8943322"><ele>833.0</ele><time>2026-04-03T09:56:03.888Z</time></trkpt><trkpt lat="43.1833277" lon="10.8942561"><ele>833.0</ele><time>2026-04-03T09:56:05.888Z</time></trkpt><trkpt lat="43.183225" lon="10.8941865"><ele>833.0</ele><time>2026-04-03T09:56:07.885Z</time></trkpt><trkpt lat="43.1831313" lon="10.8941432"><ele>833.0</ele><time>2026-04-03T09:56:09.883Z</time></trkpt><trkpt lat="43.1830404" lon="10.8940481"><ele>828.4</ele><time>2026-04-03T09:56:11.883Z</time></trkpt><trkpt lat="43.1829923" lon="10.8939916"><ele>823.8</ele><time>2026-04-03T09:56:12.882Z</time></trkpt><trkpt lat="43.1829432" lon="10.8939361"><ele>819.2</ele><time>2026-04-03T09:56:13.885Z</time></trkpt><trkpt lat="43.1828492" lon="10.8938227"><ele>814.6</ele><time>2026-04-03T09:56:15.875Z</time></trkpt><trkpt lat="43.182761" lon="10.8937267"><ele>810.0</ele><time>2026-04-03T09:56:17.878Z</time></trkpt><trkpt lat="43.182683" lon="10.8936484"><ele>809.9999999999999</ele><time>2026-04-03T09:56:19.887Z</time></trkpt><trkpt lat="43.1826156" lon="10.8935586"><ele>810.0</ele><time>2026-04-03T09:56:21.883Z</time></trkpt><trkpt lat="43.1825618" lon="10.8934893"><ele>810.0</ele><time>2026-04-03T09:56:23.882Z</time></trkpt><trkpt lat="43.1825208" lon="10.8934218"><ele>810.0</ele><time>2026-04-03T09:56:25.887Z</time></trkpt><trkpt lat="43.1824801" lon="10.8933426"><ele>810.0</ele><time>2026-04-03T09:56:27.88Z</time></trkpt><trkpt lat="43.1824702" lon="10.8932423"><ele>809.9999999999999</ele><time>2026-04-03T09:56:29.881Z</time></trkpt><trkpt lat="43.1824893" lon="10.8931462"><ele>810.0</ele><time>2026-04-03T09:56:31.883Z</time></trkpt><trkpt lat="43.1825176" lon="10.8930555"><ele>808.8</ele><time>2026-04-03T09:56:33.882Z</time></trkpt><trkpt lat="43.1825691" lon="10.8929573"><ele>807.6</ele><time>2026-04-03T09:56:36.914Z</time></trkpt><trkpt lat="43.1826045" lon="10.8928697"><ele>806.4000000000001</ele><time>2026-04-03T09:56:38.885Z</time></trkpt><trkpt lat="43.182588" lon="10.8927572"><ele>805.2</ele><time>2026-04-03T09:56:40.888Z</time></trkpt><trkpt lat="43.1825142" lon="10.8926761"><ele>804.0</ele><time>2026-04-03T09:56:42.884Z</time></trkpt><trkpt lat="43.1823987" lon="10.8926144"><ele>802.0</ele><time>2026-04-03T09:56:44.885Z</time></trkpt><trkpt lat="43.1823335" lon="10.8925928"><ele>800.0</ele><time>2026-04-03T09:56:45.884Z</time></trkpt><trkpt lat="43.1822035" lon="10.8926166"><ele>798.0</ele><time>2026-04-03T09:56:47.879Z</time></trkpt><trkpt lat="43.1821222" lon="10.8926357"><ele>796.0</ele><time>2026-04-03T09:56:48.881Z</time></trkpt><trkpt lat="43.1820452" lon="10.8926675"><ele>794.0</ele><time>2026-04-03T09:56:49.878Z</time></trkpt><trkpt lat="43.1819725" lon="10.8926961"><ele>792.0</ele><time>2026-04-03T09:56:50.88Z</time></trkpt><trkpt lat="43.1818973" lon="10.8927212"><ele>792.0</ele><time>2026-04-03T09:56:51.884Z</time></trkpt><trkpt lat="43.1818314" lon="10.8927381"><ele>792.0</ele><time>2026-04-03T09:56:52.882Z</time></trkpt><trkpt lat="43.181715" lon="10.892719"><ele>792.0</ele><time>2026-04-03T09:56:54.882Z</time></trkpt><trkpt lat="43.1816145" lon="10.8926523"><ele>792.0</ele><time>2026-04-03T09:56:56.88Z</time></trkpt><trkpt lat="43.181524" lon="10.8925558"><ele>792.0</ele><time>2026-04-03T09:56:58.887Z</time></trkpt><trkpt lat="43.1814723" lon="10.8924737"><ele>788.3333333333334</ele><time>2026-04-03T09:56:59.882Z</time></trkpt><trkpt lat="43.1814233" lon="10.8923996"><ele>784.6666666666667</ele><time>2026-04-03T09:57:00.884Z</time></trkpt><trkpt lat="43.1813616" lon="10.8923283"><ele>781.0</ele><time>2026-04-03T09:57:01.88Z</time></trkpt><trkpt lat="43.1813059" lon="10.8922528"><ele>777.3333333333334</ele><time>2026-04-03T09:57:02.876Z</time></trkpt><trkpt lat="43.1812512" lon="10.8921737"><ele>773.6666666666667</ele><time>2026-04-03T09:57:03.882Z</time></trkpt><trkpt lat="43.1811963" lon="10.8920938"><ele>770.0</ele><time>2026-04-03T09:57:04.882Z</time></trkpt><trkpt lat="43.1811433" lon="10.8920218"><ele>770.0000000000001</ele><time>2026-04-03T09:57:05.878Z</time></trkpt><trkpt lat="43.1810951" lon="10.8919589"><ele>770.0</ele><time>2026-04-03T09:57:06.881Z</time></trkpt><trkpt lat="43.1809958" lon="10.8918497"><ele>770.0</ele><time>2026-04-03T09:57:08.885Z</time></trkpt><trkpt lat="43.1809343" lon="10.8917999"><ele>770.0</ele><time>2026-04-03T09:57:09.879Z</time></trkpt><trkpt lat="43.1808718" lon="10.8917557"><ele>770.0000000000001</ele><time>2026-04-03T09:57:10.884Z</time></trkpt><trkpt lat="43.1808131" lon="10.8917124"><ele>770.0</ele><time>2026-04-03T09:57:11.883Z</time></trkpt><trkpt lat="43.1807091" lon="10.8916306"><ele>766.8</ele><time>2026-04-03T09:57:13.875Z</time></trkpt><trkpt lat="43.1806136" lon="10.8915465"><ele>763.6</ele><time>2026-04-03T09:57:15.878Z</time></trkpt><trkpt lat="43.1805221" lon="10.8914612"><ele>760.4000000000001</ele><time>2026-04-03T09:57:17.88Z</time></trkpt><trkpt lat="43.1804413" lon="10.8913318"><ele>757.2</ele><time>2026-04-03T09:57:19.883Z</time></trkpt><trkpt lat="43.1804013" lon="10.8912599"><ele>754.0</ele><time>2026-04-03T09:57:20.885Z</time></trkpt><trkpt lat="43.18036" lon="10.8911938"><ele>754.0</ele><time>2026-04-03T09:57:21.88Z</time></trkpt><trkpt lat="43.1802721" lon="10.891085"><ele>754.0</ele><time>2026-04-03T09:57:23.882Z</time></trkpt><trkpt lat="43.1801553" lon="10.891011"><ele>754.0</ele><time>2026-04-03T09:57:25.886Z</time></trkpt><trkpt lat="43.1800928" lon="10.8909631"><ele>754.0</ele><time>2026-04-03T09:57:26.888Z</time></trkpt><trkpt lat="43.1799935" lon="10.8908533"><ele>754.0</ele><time>2026-04-03T09:57:28.881Z</time></trkpt><trkpt lat="43.1799553" lon="10.8907762"><ele>754.1666666666667</ele><time>2026-04-03T09:57:29.88Z</time></trkpt><trkpt lat="43.1799097" lon="10.8906953"><ele>754.3333333333334</ele><time>2026-04-03T09:57:30.881Z</time></trkpt><trkpt lat="43.1798643" lon="10.8906245"><ele>754.5</ele><time>2026-04-03T09:57:31.884Z</time></trkpt><trkpt lat="43.1798165" lon="10.8905494"><ele>754.6666666666666</ele><time>2026-04-03T09:57:32.888Z</time></trkpt><trkpt lat="43.1797682" lon="10.8904861"><ele>754.8333333333333</ele><time>2026-04-03T09:57:33.89Z</time></trkpt><trkpt lat="43.1796709" lon="10.8903763"><ele>755.0</ele><time>2026-04-03T09:57:35.885Z</time></trkpt><trkpt lat="43.1796179" lon="10.890328"><ele>753.6</ele><time>2026-04-03T09:57:36.891Z</time></trkpt><trkpt lat="43.1795107" lon="10.8902543"><ele>752.2</ele><time>2026-04-03T09:57:38.885Z</time></trkpt><trkpt lat="43.1794072" lon="10.8901663"><ele>750.8</ele><time>2026-04-03T09:57:40.885Z</time></trkpt><trkpt lat="43.179352" lon="10.8900909"><ele>749.4</ele><time>2026-04-03T09:57:41.882Z</time></trkpt><trkpt lat="43.1792938" lon="10.8900213"><ele>748.0</ele><time>2026-04-03T09:57:42.882Z</time></trkpt><trkpt lat="43.1792408" lon="10.8899558"><ele>748.0</ele><time>2026-04-03T09:57:43.88Z</time></trkpt><trkpt lat="43.1791799" lon="10.8898887"><ele>748.0</ele><time>2026-04-03T09:57:44.877Z</time></trkpt><trkpt lat="43.1791197" lon="10.8898233"><ele>748.0</ele><time>2026-04-03T09:57:45.873Z</time></trkpt><trkpt lat="43.1790591" lon="10.889758"><ele>748.0</ele><time>2026-04-03T09:57:46.88Z</time></trkpt><trkpt lat="43.1789983" lon="10.889691"><ele>748.0</ele><time>2026-04-03T09:57:47.886Z</time></trkpt><trkpt lat="43.1789389" lon="10.8896175"><ele>748.0</ele><time>2026-04-03T09:57:48.884Z</time></trkpt><trkpt lat="43.1788801" lon="10.8895484"><ele>745.5</ele><time>2026-04-03T09:57:49.875Z</time></trkpt><trkpt lat="43.1788001" lon="10.8894953"><ele>743.0</ele><time>2026-04-03T09:57:50.877Z</time></trkpt><trkpt lat="43.1787273" lon="10.8894562"><ele>740.5</ele><time>2026-04-03T09:57:51.879Z</time></trkpt><trkpt lat="43.1786483" lon="10.8894481"><ele>738.0</ele><time>2026-04-03T09:57:52.877Z</time></trkpt><trkpt lat="43.1785697" lon="10.8894407"><ele>735.5</ele><time>2026-04-03T09:57:53.876Z</time></trkpt><trkpt lat="43.1784903" lon="10.8894065"><ele>733.0</ele><time>2026-04-03T09:57:54.879Z</time></trkpt><trkpt lat="43.1784134" lon="10.8893711"><ele>732.9999999999999</ele><time>2026-04-03T09:57:55.874Z</time></trkpt><trkpt lat="43.1783459" lon="10.8893298"><ele>733.0</ele><time>2026-04-03T09:57:56.889Z</time></trkpt><trkpt lat="43.1782895" lon="10.8892752"><ele>733.0</ele><time>2026-04-03T09:57:57.882Z</time></trkpt><trkpt lat="43.1782336" lon="10.889221"><ele>733.0</ele><time>2026-04-03T09:57:58.874Z</time></trkpt><trkpt lat="43.1781806" lon="10.8891569"><ele>733.0</ele><time>2026-04-03T09:57:59.884Z</time></trkpt><trkpt lat="43.1781241" lon="10.8890939"><ele>732.9999999999999</ele><time>2026-04-03T09:58:00.883Z</time></trkpt><trkpt lat="43.17807" lon="10.889024"><ele>733.0</ele><time>2026-04-03T09:58:01.884Z</time></trkpt><trkpt lat="43.1780126" lon="10.8889493"><ele>732.5</ele><time>2026-04-03T09:58:02.88Z</time></trkpt><trkpt lat="43.1779599" lon="10.8888761"><ele>732.0</ele><time>2026-04-03T09:58:03.878Z</time></trkpt><trkpt lat="43.1778943" lon="10.8887877"><ele>731.5</ele><time>2026-04-03T09:58:04.875Z</time></trkpt><trkpt lat="43.1778303" lon="10.8887153"><ele>731.0</ele><time>2026-04-03T09:58:05.883Z</time></trkpt><trkpt lat="43.1777751" lon="10.8886507"><ele>730.5</ele><time>2026-04-03T09:58:06.886Z</time></trkpt><trkpt lat="43.1777237" lon="10.8885857"><ele>730.0</ele><time>2026-04-03T09:58:07.878Z</time></trkpt><trkpt lat="43.177675" lon="10.888525"><ele>730.8</ele><time>2026-04-03T09:58:08.879Z</time></trkpt><trkpt lat="43.1775924" lon="10.8884083"><ele>731.6</ele><time>2026-04-03T09:58:10.874Z</time></trkpt><trkpt lat="43.1775164" lon="10.8883371"><ele>732.4000000000001</ele><time>2026-04-03T09:58:12.876Z</time></trkpt><trkpt lat="43.1774284" lon="10.8882713"><ele>733.2</ele><time>2026-04-03T09:58:14.88Z</time></trkpt><trkpt lat="43.1773422" lon="10.8882185"><ele>734.0</ele><time>2026-04-03T09:58:16.882Z</time></trkpt><trkpt lat="43.1772634" lon="10.888158"><ele>731.2</ele><time>2026-04-03T09:58:18.89Z</time></trkpt><trkpt lat="43.1771793" lon="10.8880836"><ele>728.4000000000001</ele><time>2026-04-03T09:58:20.892Z</time></trkpt><trkpt lat="43.1770706" lon="10.8881438"><ele>725.6</ele><time>2026-04-03T09:58:22.886Z</time></trkpt><trkpt lat="43.1770038" lon="10.8882814"><ele>722.8</ele><time>2026-04-03T09:58:24.878Z</time></trkpt><trkpt lat="43.1769768" lon="10.8883612"><ele>720.0</ele><time>2026-04-03T09:58:25.886Z</time></trkpt><trkpt lat="43.1769705" lon="10.8884569"><ele>717.4</ele><time>2026-04-03T09:58:26.884Z</time></trkpt><trkpt lat="43.1769963" lon="10.8886251"><ele>714.8</ele><time>2026-04-03T09:58:28.878Z</time></trkpt><trkpt lat="43.1770541" lon="10.8887683"><ele>712.2</ele><time>2026-04-03T09:58:30.882Z</time></trkpt><trkpt lat="43.1770914" lon="10.8888382"><ele>709.6</ele><time>2026-04-03T09:58:31.874Z</time></trkpt><trkpt lat="43.1771278" lon="10.8889196"><ele>707.0</ele><time>2026-04-03T09:58:32.876Z</time></trkpt><trkpt lat="43.1771592" lon="10.8890101"><ele>707.0</ele><time>2026-04-03T09:58:33.876Z</time></trkpt><trkpt lat="43.1771885" lon="10.8891021"><ele>707.0</ele><time>2026-04-03T09:58:34.88Z</time></trkpt><trkpt lat="43.1772138" lon="10.8891895"><ele>707.0</ele><time>2026-04-03T09:58:35.879Z</time></trkpt><trkpt lat="43.17724" lon="10.8892734"><ele>707.0</ele><time>2026-04-03T09:58:36.881Z</time></trkpt><trkpt lat="43.1772705" lon="10.889363"><ele>707.0</ele><time>2026-04-03T09:58:37.871Z</time></trkpt><trkpt lat="43.1773059" lon="10.8894782"><ele>707.0</ele><time>2026-04-03T09:58:38.874Z</time></trkpt><trkpt lat="43.1773397" lon="10.8895848"><ele>706.1666666666666</ele><time>2026-04-03T09:58:39.879Z</time></trkpt><trkpt lat="43.1773674" lon="10.8896851"><ele>705.3333333333333</ele><time>2026-04-03T09:58:40.871Z</time></trkpt><trkpt lat="43.1773941" lon="10.8897869"><ele>704.5</ele><time>2026-04-03T09:58:41.879Z</time></trkpt><trkpt lat="43.1774217" lon="10.8898904"><ele>703.6666666666666</ele><time>2026-04-03T09:58:42.87Z</time></trkpt><trkpt lat="43.1774453" lon="10.8899878"><ele>702.8333333333334</ele><time>2026-04-03T09:58:43.874Z</time></trkpt><trkpt lat="43.1774664" lon="10.8900829"><ele>702.0</ele><time>2026-04-03T09:58:44.87Z</time></trkpt><trkpt lat="43.1774818" lon="10.8901773"><ele>702.0</ele><time>2026-04-03T09:58:45.879Z</time></trkpt><trkpt lat="43.1774939" lon="10.8902659"><ele>702.0</ele><time>2026-04-03T09:58:46.875Z</time></trkpt><trkpt lat="43.1775137" lon="10.8904093"><ele>702.0</ele><time>2026-04-03T09:58:48.874Z</time></trkpt><trkpt lat="43.1775674" lon="10.8905304"><ele>702.0</ele><time>2026-04-03T09:58:50.88Z</time></trkpt><trkpt lat="43.1776482" lon="10.8905966"><ele>702.0</ele><time>2026-04-03T09:58:52.878Z</time></trkpt><trkpt lat="43.1777269" lon="10.8906701"><ele>702.0</ele><time>2026-04-03T09:58:54.876Z</time></trkpt><trkpt lat="43.1778131" lon="10.8907518"><ele>702.0</ele><time>2026-04-03T09:58:56.875Z</time></trkpt><trkpt lat="43.1778903" lon="10.8908576"><ele>702.0</ele><time>2026-04-03T09:58:58.881Z</time></trkpt><trkpt lat="43.1778983" lon="10.8910341"><ele>702.0</ele><time>2026-04-03T09:59:00.874Z</time></trkpt><trkpt lat="43.1778947" lon="10.8911343"><ele>702.0</ele><time>2026-04-03T09:59:01.878Z</time></trkpt><trkpt lat="43.1778898" lon="10.891225"><ele>699.0</ele><time>2026-04-03T09:59:02.885Z</time></trkpt><trkpt lat="43.1778766" lon="10.8913923"><ele>696.0</ele><time>2026-04-03T09:59:04.874Z</time></trkpt><trkpt lat="43.1778641" lon="10.8915465"><ele>693.0</ele><time>2026-04-03T09:59:06.876Z</time></trkpt><trkpt lat="43.1778602" lon="10.8916901"><ele>690.0</ele><time>2026-04-03T09:59:08.88Z</time></trkpt><trkpt lat="43.1778608" lon="10.8917805"><ele>687.0</ele><time>2026-04-03T09:59:09.879Z</time></trkpt><trkpt lat="43.1778771" lon="10.8919453"><ele>685.75</ele><time>2026-04-03T09:59:11.879Z</time></trkpt><trkpt lat="43.1778919" lon="10.8920995"><ele>684.5</ele><time>2026-04-03T09:59:13.88Z</time></trkpt><trkpt lat="43.1779126" lon="10.8922522"><ele>683.25</ele><time>2026-04-03T09:59:15.872Z</time></trkpt><trkpt lat="43.177941" lon="10.892398"><ele>682.0</ele><time>2026-04-03T09:59:17.878Z</time></trkpt><trkpt lat="43.1779854" lon="10.8925481"><ele>683.5</ele><time>2026-04-03T09:59:19.881Z</time></trkpt><trkpt lat="43.1780042" lon="10.8926786"><ele>685.0</ele><time>2026-04-03T09:59:21.873Z</time></trkpt><trkpt lat="43.1779528" lon="10.8927726"><ele>686.5</ele><time>2026-04-03T09:59:23.884Z</time></trkpt><trkpt lat="43.1778549" lon="10.8928013"><ele>688.0</ele><time>2026-04-03T09:59:25.877Z</time></trkpt><trkpt lat="43.1777953" lon="10.8928491"><ele>689.5</ele><time>2026-04-03T09:59:26.882Z</time></trkpt><trkpt lat="43.1777403" lon="10.8929141"><ele>691.0</ele><time>2026-04-03T09:59:27.875Z</time></trkpt><trkpt lat="43.1776883" lon="10.8929922"><ele>691.0</ele><time>2026-04-03T09:59:28.877Z</time></trkpt><trkpt lat="43.1776332" lon="10.8930769"><ele>691.0</ele><time>2026-04-03T09:59:29.88Z</time></trkpt><trkpt lat="43.1775732" lon="10.8931628"><ele>691.0</ele><time>2026-04-03T09:59:30.881Z</time></trkpt><trkpt lat="43.1775131" lon="10.8932612"><ele>691.0</ele><time>2026-04-03T09:59:31.876Z</time></trkpt><trkpt lat="43.1774558" lon="10.8933661"><ele>691.0</ele><time>2026-04-03T09:59:32.874Z</time></trkpt><trkpt lat="43.1774029" lon="10.8934669"><ele>691.0</ele><time>2026-04-03T09:59:33.872Z</time></trkpt><trkpt lat="43.1773617" lon="10.8935518"><ele>691.5999999999999</ele><time>2026-04-03T09:59:34.876Z</time></trkpt><trkpt lat="43.1773267" lon="10.8936243"><ele>692.2</ele><time>2026-04-03T09:59:35.876Z</time></trkpt><trkpt lat="43.1772714" lon="10.8937343"><ele>692.8</ele><time>2026-04-03T09:59:37.876Z</time></trkpt><trkpt lat="43.1771837" lon="10.8938304"><ele>693.4000000000001</ele><time>2026-04-03T09:59:39.88Z</time></trkpt><trkpt lat="43.1770661" lon="10.8938732"><ele>694.0</ele><time>2026-04-03T09:59:41.879Z</time></trkpt><trkpt lat="43.176982" lon="10.8938759"><ele>694.0</ele><time>2026-04-03T09:59:42.883Z</time></trkpt><trkpt lat="43.1768865" lon="10.8938789"><ele>694.0</ele><time>2026-04-03T09:59:43.876Z</time></trkpt><trkpt lat="43.1767842" lon="10.8938885"><ele>694.0</ele><time>2026-04-03T09:59:44.873Z</time></trkpt><trkpt lat="43.1766733" lon="10.8939004"><ele>694.0</ele><time>2026-04-03T09:59:45.874Z</time></trkpt><trkpt lat="43.1765742" lon="10.893911"><ele>694.0</ele><time>2026-04-03T09:59:46.873Z</time></trkpt><trkpt lat="43.1764811" lon="10.8939188"><ele>692.5</ele><time>2026-04-03T09:59:47.878Z</time></trkpt><trkpt lat="43.1764026" lon="10.8939239"><ele>691.0</ele><time>2026-04-03T09:59:48.873Z</time></trkpt><trkpt lat="43.1763373" lon="10.8939237"><ele>689.5</ele><time>2026-04-03T09:59:49.88Z</time></trkpt><trkpt lat="43.1762553" lon="10.8939144"><ele>688.0</ele><time>2026-04-03T09:59:51.881Z</time></trkpt><trkpt lat="43.1761735" lon="10.893891"><ele>686.5</ele><time>2026-04-03T10:02:48.884Z</time></trkpt><trkpt lat="43.1760735" lon="10.893801"><ele>685.0</ele><time>2026-04-03T10:02:50.874Z</time></trkpt><trkpt lat="43.1760113" lon="10.893771"><ele>685.0</ele><time>2026-04-03T10:02:51.88Z</time></trkpt><trkpt lat="43.1759481" lon="10.8937393"><ele>685.0</ele><time>2026-04-03T10:02:52.874Z</time></trkpt><trkpt lat="43.1758784" lon="10.8937247"><ele>685.0</ele><time>2026-04-03T10:02:53.87Z</time></trkpt><trkpt lat="43.1757983" lon="10.8937188"><ele>685.0</ele><time>2026-04-03T10:02:54.878Z</time></trkpt><trkpt lat="43.1757084" lon="10.8937112"><ele>685.0</ele><time>2026-04-03T10:02:55.873Z</time></trkpt><trkpt lat="43.1756159" lon="10.8937008"><ele>685.0</ele><time>2026-04-03T10:02:56.877Z</time></trkpt><trkpt lat="43.1755347" lon="10.8936895"><ele>681.0</ele><time>2026-04-03T10:02:57.877Z</time></trkpt><trkpt lat="43.1754624" lon="10.8936817"><ele>677.0</ele><time>2026-04-03T10:02:58.872Z</time></trkpt><trkpt lat="43.1753951" lon="10.8936741"><ele>673.0</ele><time>2026-04-03T10:02:59.881Z</time></trkpt><trkpt lat="43.1752745" lon="10.8936727"><ele>669.0</ele><time>2026-04-03T10:03:01.88Z</time></trkpt><trkpt lat="43.1751791" lon="10.8937455"><ele>665.0</ele><time>2026-04-03T10:03:03.877Z</time></trkpt><trkpt lat="43.1750996" lon="10.893848"><ele>665.0</ele><time>2026-04-03T10:03:05.881Z</time></trkpt><trkpt lat="43.1750085" lon="10.8938504"><ele>665.0</ele><time>2026-04-03T10:03:07.875Z</time></trkpt><trkpt lat="43.1749988" lon="10.8937288"><ele>665.0</ele><time>2026-04-03T10:03:09.879Z</time></trkpt><trkpt lat="43.1750312" lon="10.8936492"><ele>665.0</ele><time>2026-04-03T10:03:10.874Z</time></trkpt><trkpt lat="43.1750845" lon="10.893578"><ele>665.0</ele><time>2026-04-03T10:03:11.877Z</time></trkpt><trkpt lat="43.1751511" lon="10.89352"><ele>665.0</ele><time>2026-04-03T10:03:12.877Z</time></trkpt><trkpt lat="43.175225" lon="10.8934773"><ele>665.0</ele><time>2026-04-03T10:03:13.874Z</time></trkpt><trkpt lat="43.1752951" lon="10.8934334"><ele>665.0</ele><time>2026-04-03T10:03:14.876Z</time></trkpt><trkpt lat="43.1753703" lon="10.8933881"><ele>665.0</ele><time>2026-04-03T10:03:15.881Z</time></trkpt><trkpt lat="43.1754507" lon="10.893345"><ele>665.0</ele><time>2026-04-03T10:03:16.87Z</time></trkpt><trkpt lat="43.1755318" lon="10.8933006"><ele>665.0</ele><time>2026-04-03T10:03:17.872Z</time></trkpt><trkpt lat="43.1756112" lon="10.8932653"><ele>665.0</ele><time>2026-04-03T10:03:18.875Z</time></trkpt><trkpt lat="43.1756782" lon="10.8932361"><ele>664.3333333333333</ele><time>2026-04-03T10:03:19.873Z</time></trkpt><trkpt lat="43.1757406" lon="10.893208"><ele>663.6666666666666</ele><time>2026-04-03T10:03:20.874Z</time></trkpt><trkpt lat="43.1758057" lon="10.893163"><ele>663.0</ele><time>2026-04-03T10:03:22.879Z</time></trkpt><trkpt lat="43.1758058" lon="10.8930752"><ele>662.3333333333334</ele><time>2026-04-03T10:03:24.876Z</time></trkpt><trkpt lat="43.1756991" lon="10.8929786"><ele>661.6666666666667</ele><time>2026-04-03T10:03:26.875Z</time></trkpt><trkpt lat="43.1756269" lon="10.8929326"><ele>661.0</ele><time>2026-04-03T10:03:27.877Z</time></trkpt><trkpt lat="43.1755368" lon="10.8929009"><ele>661.0</ele><time>2026-04-03T10:03:28.874Z</time></trkpt><trkpt lat="43.1754481" lon="10.8928503"><ele>661.0</ele><time>2026-04-03T10:03:29.874Z</time></trkpt><trkpt lat="43.1753652" lon="10.8927872"><ele>661.0</ele><time>2026-04-03T10:03:30.874Z</time></trkpt><trkpt lat="43.1752825" lon="10.8927397"><ele>661.0</ele><time>2026-04-03T10:03:31.881Z</time></trkpt><trkpt lat="43.1752029" lon="10.8926948"><ele>661.0</ele><time>2026-04-03T10:03:32.877Z</time></trkpt><trkpt lat="43.1751178" lon="10.8926523"><ele>661.0</ele><time>2026-04-03T10:03:33.877Z</time></trkpt><trkpt lat="43.1750317" lon="10.8926278"><ele>661.0</ele><time>2026-04-03T10:03:34.876Z</time></trkpt><trkpt lat="43.1749372" lon="10.8926074"><ele>661.0</ele><time>2026-04-03T10:03:35.876Z</time></trkpt><trkpt lat="43.174836" lon="10.8925873"><ele>661.0</ele><time>2026-04-03T10:03:36.874Z</time></trkpt><trkpt lat="43.1747381" lon="10.8925557"><ele>661.0</ele><time>2026-04-03T10:03:37.877Z</time></trkpt><trkpt lat="43.1746414" lon="10.8925275"><ele>657.5</ele><time>2026-04-03T10:03:38.88Z</time></trkpt><trkpt lat="43.174548" lon="10.892505"><ele>654.0</ele><time>2026-04-03T10:03:39.878Z</time></trkpt><trkpt lat="43.1744622" lon="10.8924891"><ele>650.5</ele><time>2026-04-03T10:03:40.878Z</time></trkpt><trkpt lat="43.1743826" lon="10.8924717"><ele>647.0</ele><time>2026-04-03T10:03:41.875Z</time></trkpt><trkpt lat="43.1743138" lon="10.8924617"><ele>643.5</ele><time>2026-04-03T10:03:42.882Z</time></trkpt><trkpt lat="43.1742478" lon="10.8924417"><ele>640.0</ele><time>2026-04-03T10:03:43.876Z</time></trkpt><trkpt lat="43.1741806" lon="10.8924218"><ele>640.0</ele><time>2026-04-03T10:03:44.878Z</time></trkpt><trkpt lat="43.1741081" lon="10.8924407"><ele>640.0</ele><time>2026-04-03T10:03:45.875Z</time></trkpt><trkpt lat="43.1740384" lon="10.8924882"><ele>640.0</ele><time>2026-04-03T10:03:46.88Z</time></trkpt><trkpt lat="43.1739743" lon="10.8925406"><ele>640.0</ele><time>2026-04-03T10:03:47.877Z</time></trkpt><trkpt lat="43.1739168" lon="10.8925887"><ele>640.0</ele><time>2026-04-03T10:03:48.876Z</time></trkpt><trkpt lat="43.1737967" lon="10.8926048"><ele>640.0</ele><time>2026-04-03T10:03:50.88Z</time></trkpt><trkpt lat="43.1737356" lon="10.8925771"><ele>638.0</ele><time>2026-04-03T10:03:51.878Z</time></trkpt><trkpt lat="43.1736963" lon="10.8924924"><ele>636.0</ele><time>2026-04-03T10:03:52.874Z</time></trkpt><trkpt lat="43.1736647" lon="10.8924089"><ele>634.0</ele><time>2026-04-03T10:03:53.871Z</time></trkpt><trkpt lat="43.1736323" lon="10.8923203"><ele>632.0</ele><time>2026-04-03T10:03:54.88Z</time></trkpt><trkpt lat="43.1735936" lon="10.8922397"><ele>630.0</ele><time>2026-04-03T10:03:55.881Z</time></trkpt><trkpt lat="43.1735353" lon="10.8921928"><ele>628.0</ele><time>2026-04-03T10:03:56.88Z</time></trkpt><trkpt lat="43.1734752" lon="10.892158"><ele>626.0</ele><time>2026-04-03T10:03:57.874Z</time></trkpt><trkpt lat="43.1734147" lon="10.8921251"><ele>626.0</ele><time>2026-04-03T10:03:58.891Z</time></trkpt><trkpt lat="43.1733212" lon="10.8921814"><ele>626.0</ele><time>2026-04-03T10:04:00.876Z</time></trkpt><trkpt lat="43.1733133" lon="10.892275"><ele>626.0</ele><time>2026-04-03T10:04:01.883Z</time></trkpt><trkpt lat="43.1733209" lon="10.8923827"><ele>626.0</ele><time>2026-04-03T10:04:02.873Z</time></trkpt><trkpt lat="43.1733538" lon="10.8924911"><ele>626.0</ele><time>2026-04-03T10:04:03.881Z</time></trkpt><trkpt lat="43.1733803" lon="10.8926092"><ele>626.0</ele><time>2026-04-03T10:04:04.876Z</time></trkpt><trkpt lat="43.1734014" lon="10.8927231"><ele>625.0</ele><time>2026-04-03T10:04:05.877Z</time></trkpt><trkpt lat="43.1734198" lon="10.8928389"><ele>624.0</ele><time>2026-04-03T10:04:06.878Z</time></trkpt><trkpt lat="43.173437" lon="10.8929495"><ele>623.0</ele><time>2026-04-03T10:04:07.882Z</time></trkpt><trkpt lat="43.1734596" lon="10.8930615"><ele>622.0</ele><time>2026-04-03T10:04:08.879Z</time></trkpt><trkpt lat="43.173497" lon="10.8931753"><ele>621.0</ele><time>2026-04-03T10:04:09.874Z</time></trkpt><trkpt lat="43.1735323" lon="10.893282"><ele>620.0</ele><time>2026-04-03T10:04:10.884Z</time></trkpt><trkpt lat="43.1735446" lon="10.8933934"><ele>618.7142857142858</ele><time>2026-04-03T10:04:11.878Z</time></trkpt><trkpt lat="43.1735471" lon="10.8934948"><ele>617.4285714285714</ele><time>2026-04-03T10:04:12.871Z</time></trkpt><trkpt lat="43.1735546" lon="10.8935878"><ele>616.1428571428571</ele><time>2026-04-03T10:04:13.882Z</time></trkpt><trkpt lat="43.1735797" lon="10.8936783"><ele>614.8571428571429</ele><time>2026-04-03T10:04:14.883Z</time></trkpt><trkpt lat="43.1735988" lon="10.8937687"><ele>613.5714285714286</ele><time>2026-04-03T10:04:15.881Z</time></trkpt><trkpt lat="43.1735995" lon="10.8938792"><ele>612.2857142857143</ele><time>2026-04-03T10:04:16.88Z</time></trkpt><trkpt lat="43.1735836" lon="10.8939887"><ele>611.0</ele><time>2026-04-03T10:04:17.873Z</time></trkpt><trkpt lat="43.1735428" lon="10.8941033"><ele>611.0</ele><time>2026-04-03T10:04:18.88Z</time></trkpt><trkpt lat="43.1735062" lon="10.8942188"><ele>611.0</ele><time>2026-04-03T10:04:19.875Z</time></trkpt><trkpt lat="43.1734788" lon="10.8943353"><ele>611.0</ele><time>2026-04-03T10:04:20.88Z</time></trkpt><trkpt lat="43.1734637" lon="10.8944326"><ele>611.0</ele><time>2026-04-03T10:04:21.87Z</time></trkpt><trkpt lat="43.1734586" lon="10.8945216"><ele>611.0</ele><time>2026-04-03T10:04:22.874Z</time></trkpt><trkpt lat="43.1734751" lon="10.8946076"><ele>611.0</ele><time>2026-04-03T10:04:23.874Z</time></trkpt><trkpt lat="43.1735159" lon="10.8946998"><ele>610.1428571428572</ele><time>2026-04-03T10:04:24.873Z</time></trkpt><trkpt lat="43.1735567" lon="10.8947955"><ele>609.2857142857143</ele><time>2026-04-03T10:04:25.874Z</time></trkpt><trkpt lat="43.1735965" lon="10.8948862"><ele>608.4285714285714</ele><time>2026-04-03T10:04:26.878Z</time></trkpt><trkpt lat="43.1736299" lon="10.8949819"><ele>607.5714285714287</ele><time>2026-04-03T10:04:27.876Z</time></trkpt><trkpt lat="43.1736626" lon="10.8950733"><ele>606.7142857142858</ele><time>2026-04-03T10:04:28.878Z</time></trkpt><trkpt lat="43.1736832" lon="10.8951613"><ele>605.8571428571429</ele><time>2026-04-03T10:04:29.872Z</time></trkpt><trkpt lat="43.173689" lon="10.8952516"><ele>605.0</ele><time>2026-04-03T10:04:30.878Z</time></trkpt><trkpt lat="43.1736853" lon="10.8953496"><ele>604.8333333333333</ele><time>2026-04-03T10:04:31.882Z</time></trkpt><trkpt lat="43.1736825" lon="10.8954372"><ele>604.6666666666666</ele><time>2026-04-03T10:04:32.882Z</time></trkpt><trkpt lat="43.1736059" lon="10.8955637"><ele>604.5</ele><time>2026-04-03T10:04:34.874Z</time></trkpt><trkpt lat="43.1735504" lon="10.8956065"><ele>604.3333333333334</ele><time>2026-04-03T10:04:35.881Z</time></trkpt><trkpt lat="43.1734869" lon="10.8956139"><ele>604.1666666666667</ele><time>2026-04-03T10:04:36.874Z</time></trkpt><trkpt lat="43.1733949" lon="10.8956467"><ele>604.0</ele><time>2026-04-03T10:04:38.878Z</time></trkpt><trkpt lat="43.1733243" lon="10.8957552"><ele>604.0</ele><time>2026-04-03T10:05:51.874Z</time></trkpt><trkpt lat="43.1732766" lon="10.8958609"><ele>604.0</ele><time>2026-04-03T10:05:52.875Z</time></trkpt><trkpt lat="43.1732321" lon="10.8959702"><ele>604.0</ele><time>2026-04-03T10:05:54.874Z</time></trkpt><trkpt lat="43.1732186" lon="10.8960891"><ele>604.0</ele><time>2026-04-03T10:06:19.882Z</time></trkpt><trkpt lat="43.1732149" lon="10.8962537"><ele>604.0</ele><time>2026-04-03T10:06:21.874Z</time></trkpt><trkpt lat="43.1732339" lon="10.8963534"><ele>604.5</ele><time>2026-04-03T10:06:22.874Z</time></trkpt><trkpt lat="43.1732705" lon="10.8964426"><ele>605.0</ele><time>2026-04-03T10:06:23.878Z</time></trkpt><trkpt lat="43.1733081" lon="10.8965321"><ele>605.5</ele><time>2026-04-03T10:06:24.877Z</time></trkpt><trkpt lat="43.1733385" lon="10.896624"><ele>606.0</ele><time>2026-04-03T10:06:25.879Z</time></trkpt><trkpt lat="43.1733644" lon="10.8967222"><ele>606.5</ele><time>2026-04-03T10:06:26.877Z</time></trkpt><trkpt lat="43.1733823" lon="10.8968089"><ele>607.0</ele><time>2026-04-03T10:06:27.878Z</time></trkpt><trkpt lat="43.1733719" lon="10.8969523"><ele>606.4</ele><time>2026-04-03T10:06:29.88Z</time></trkpt><trkpt lat="43.1732981" lon="10.8970694"><ele>605.8000000000001</ele><time>2026-04-03T10:06:31.877Z</time></trkpt><trkpt lat="43.1731832" lon="10.8971349"><ele>605.2</ele><time>2026-04-03T10:06:33.877Z</time></trkpt><trkpt lat="43.1730607" lon="10.8972069"><ele>604.6</ele><time>2026-04-03T10:06:35.882Z</time></trkpt><trkpt lat="43.1730011" lon="10.8972435"><ele>604.0</ele><time>2026-04-03T10:06:36.874Z</time></trkpt><trkpt lat="43.1729236" lon="10.8972977"><ele>604.0</ele><time>2026-04-03T10:06:38.875Z</time></trkpt><trkpt lat="43.1728691" lon="10.8973659"><ele>604.0</ele><time>2026-04-03T10:06:40.873Z</time></trkpt><trkpt lat="43.1728024" lon="10.8975146"><ele>604.0</ele><time>2026-04-03T10:06:42.879Z</time></trkpt><trkpt lat="43.1727681" lon="10.897622"><ele>604.0</ele><time>2026-04-03T10:06:43.874Z</time></trkpt><trkpt lat="43.172737" lon="10.8977323"><ele>604.0</ele><time>2026-04-03T10:06:44.878Z</time></trkpt><trkpt lat="43.1727053" lon="10.8978532"><ele>605.6</ele><time>2026-04-03T10:06:45.876Z</time></trkpt><trkpt lat="43.1726719" lon="10.8979836"><ele>607.2</ele><time>2026-04-03T10:06:46.879Z</time></trkpt><trkpt lat="43.1726346" lon="10.8981109"><ele>608.8000000000001</ele><time>2026-04-03T10:06:47.875Z</time></trkpt><trkpt lat="43.1726017" lon="10.8982385"><ele>610.4</ele><time>2026-04-03T10:06:48.876Z</time></trkpt><trkpt lat="43.1725826" lon="10.8983763"><ele>612.0</ele><time>2026-04-03T10:06:49.872Z</time></trkpt><trkpt lat="43.172584" lon="10.8985218"><ele>613.2</ele><time>2026-04-03T10:06:50.876Z</time></trkpt><trkpt lat="43.1726036" lon="10.8986717"><ele>614.4000000000001</ele><time>2026-04-03T10:06:51.88Z</time></trkpt><trkpt lat="43.1726257" lon="10.8988229"><ele>615.5999999999999</ele><time>2026-04-03T10:06:52.879Z</time></trkpt><trkpt lat="43.1726373" lon="10.8989739"><ele>616.8</ele><time>2026-04-03T10:06:53.879Z</time></trkpt><trkpt lat="43.1726274" lon="10.8991202"><ele>618.0</ele><time>2026-04-03T10:06:54.877Z</time></trkpt><trkpt lat="43.1725887" lon="10.8992522"><ele>617.1999999999999</ele><time>2026-04-03T10:06:55.883Z</time></trkpt><trkpt lat="43.172529" lon="10.8993672"><ele>616.4</ele><time>2026-04-03T10:06:56.878Z</time></trkpt><trkpt lat="43.1724616" lon="10.899478"><ele>615.5999999999999</ele><time>2026-04-03T10:06:57.877Z</time></trkpt><trkpt lat="43.1723945" lon="10.8995953"><ele>614.8</ele><time>2026-04-03T10:06:58.878Z</time></trkpt><trkpt lat="43.172329" lon="10.8997192"><ele>614.0</ele><time>2026-04-03T10:06:59.879Z</time></trkpt><trkpt lat="43.1722644" lon="10.8998448"><ele>614.0</ele><time>2026-04-03T10:07:00.882Z</time></trkpt><trkpt lat="43.1722134" lon="10.8999791"><ele>614.0</ele><time>2026-04-03T10:07:01.877Z</time></trkpt><trkpt lat="43.1721776" lon="10.9001286"><ele>614.0</ele><time>2026-04-03T10:07:02.879Z</time></trkpt><trkpt lat="43.1721423" lon="10.9002795"><ele>614.0</ele><time>2026-04-03T10:07:03.879Z</time></trkpt><trkpt lat="43.1721271" lon="10.9004406"><ele>614.0</ele><time>2026-04-03T10:07:04.878Z</time></trkpt><trkpt lat="43.1721268" lon="10.9006051"><ele>614.0</ele><time>2026-04-03T10:07:05.88Z</time></trkpt><trkpt lat="43.1721331" lon="10.9007752"><ele>614.0</ele><time>2026-04-03T10:07:06.884Z</time></trkpt><trkpt lat="43.1721468" lon="10.9009486"><ele>614.0</ele><time>2026-04-03T10:07:07.882Z</time></trkpt><trkpt lat="43.1721702" lon="10.9011261"><ele>614.0</ele><time>2026-04-03T10:07:08.878Z</time></trkpt><trkpt lat="43.172203" lon="10.9013072"><ele>614.0</ele><time>2026-04-03T10:07:09.87Z</time></trkpt><trkpt lat="43.1722351" lon="10.9014868"><ele>614.0</ele><time>2026-04-03T10:07:10.878Z</time></trkpt><trkpt lat="43.1722645" lon="10.9016677"><ele>614.0</ele><time>2026-04-03T10:07:11.882Z</time></trkpt><trkpt lat="43.1722957" lon="10.901848"><ele>614.75</ele><time>2026-04-03T10:07:12.882Z</time></trkpt><trkpt lat="43.1723271" lon="10.9020261"><ele>615.5</ele><time>2026-04-03T10:07:13.877Z</time></trkpt><trkpt lat="43.1723586" lon="10.9021988"><ele>616.25</ele><time>2026-04-03T10:07:14.895Z</time></trkpt><trkpt lat="43.1723895" lon="10.9023681"><ele>617.0</ele><time>2026-04-03T10:07:15.881Z</time></trkpt><trkpt lat="43.1724184" lon="10.9025362"><ele>624.0</ele><time>2026-04-03T10:07:16.876Z</time></trkpt><trkpt lat="43.1724481" lon="10.9027027"><ele>631.0</ele><time>2026-04-03T10:07:17.885Z</time></trkpt><trkpt lat="43.1724822" lon="10.9028688"><ele>638.0</ele><time>2026-04-03T10:07:18.881Z</time></trkpt><trkpt lat="43.17252" lon="10.9030348"><ele>645.0</ele><time>2026-04-03T10:07:19.878Z</time></trkpt><trkpt lat="43.1725576" lon="10.9031994"><ele>645.0</ele><time>2026-04-03T10:07:20.874Z</time></trkpt><trkpt lat="43.1726041" lon="10.9033572"><ele>645.0</ele><time>2026-04-03T10:07:21.873Z</time></trkpt><trkpt lat="43.1726571" lon="10.9035082"><ele>645.0</ele><time>2026-04-03T10:07:22.878Z</time></trkpt><trkpt lat="43.1727163" lon="10.9036554"><ele>645.0</ele><time>2026-04-03T10:07:23.881Z</time></trkpt><trkpt lat="43.1727837" lon="10.9037981"><ele>644.75</ele><time>2026-04-03T10:07:24.875Z</time></trkpt><trkpt lat="43.1728585" lon="10.9039353"><ele>644.5</ele><time>2026-04-03T10:07:25.877Z</time></trkpt><trkpt lat="43.1729386" lon="10.9040685"><ele>644.25</ele><time>2026-04-03T10:07:26.886Z</time></trkpt><trkpt lat="43.173023" lon="10.9041992"><ele>644.0</ele><time>2026-04-03T10:07:27.877Z</time></trkpt><trkpt lat="43.173113" lon="10.9043253"><ele>647.25</ele><time>2026-04-03T10:07:28.882Z</time></trkpt><trkpt lat="43.173206" lon="10.9044464"><ele>650.5</ele><time>2026-04-03T10:07:29.873Z</time></trkpt><trkpt lat="43.1732949" lon="10.9045629"><ele>653.75</ele><time>2026-04-03T10:07:30.874Z</time></trkpt><trkpt lat="43.1733781" lon="10.9046744"><ele>657.0</ele><time>2026-04-03T10:07:31.877Z</time></trkpt><trkpt lat="43.1734549" lon="10.9047778"><ele>657.0</ele><time>2026-04-03T10:07:32.874Z</time></trkpt><trkpt lat="43.1735266" lon="10.9048732"><ele>657.0</ele><time>2026-04-03T10:07:33.879Z</time></trkpt><trkpt lat="43.1735913" lon="10.9049579"><ele>657.0</ele><time>2026-04-03T10:07:34.876Z</time></trkpt><trkpt lat="43.1736474" lon="10.9050305"><ele>657.0</ele><time>2026-04-03T10:07:35.878Z</time></trkpt><trkpt lat="43.173696" lon="10.9050955"><ele>657.0</ele><time>2026-04-03T10:07:36.876Z</time></trkpt><trkpt lat="43.1737428" lon="10.9051607"><ele>657.0</ele><time>2026-04-03T10:07:37.885Z</time></trkpt><trkpt lat="43.1737962" lon="10.9052292"><ele>655.1666666666666</ele><time>2026-04-03T10:07:38.877Z</time></trkpt><trkpt lat="43.1738607" lon="10.9053015"><ele>653.3333333333334</ele><time>2026-04-03T10:07:39.88Z</time></trkpt><trkpt lat="43.1739319" lon="10.9053823"><ele>651.5</ele><time>2026-04-03T10:07:40.881Z</time></trkpt><trkpt lat="43.1739928" lon="10.905457"><ele>649.6666666666667</ele><time>2026-04-03T10:07:41.876Z</time></trkpt><trkpt lat="43.1740417" lon="10.9055234"><ele>647.8333333333334</ele><time>2026-04-03T10:07:42.878Z</time></trkpt><trkpt lat="43.1741088" lon="10.9055815"><ele>646.0</ele><time>2026-04-03T10:07:44.88Z</time></trkpt><trkpt lat="43.1741419" lon="10.9054954"><ele>646.0</ele><time>2026-04-03T10:07:47.874Z</time></trkpt><trkpt lat="43.1741081" lon="10.9053905"><ele>646.0</ele><time>2026-04-03T10:07:57.883Z</time></trkpt><trkpt lat="43.1740789" lon="10.9053007"><ele>646.0</ele><time>2026-04-03T10:07:59.887Z</time></trkpt><trkpt lat="43.1740411" lon="10.9052109"><ele>646.0</ele><time>2026-04-03T10:08:01.882Z</time></trkpt><trkpt lat="43.1740036" lon="10.9051289"><ele>646.0</ele><time>2026-04-03T10:08:03.874Z</time></trkpt><trkpt lat="43.173959" lon="10.9050341"><ele>646.0</ele><time>2026-04-03T10:08:05.885Z</time></trkpt><trkpt lat="43.1739209" lon="10.9049397"><ele>647.8333333333334</ele><time>2026-04-03T10:08:07.876Z</time></trkpt><trkpt lat="43.1738943" lon="10.9048568"><ele>649.6666666666667</ele><time>2026-04-03T10:08:09.88Z</time></trkpt><trkpt lat="43.1739176" lon="10.9047594"><ele>651.5</ele><time>2026-04-03T10:08:21.885Z</time></trkpt><trkpt lat="43.1739973" lon="10.9047355"><ele>653.3333333333334</ele><time>2026-04-03T10:08:24.884Z</time></trkpt><trkpt lat="43.1740714" lon="10.9047195"><ele>655.1666666666666</ele><time>2026-04-03T10:08:26.882Z</time></trkpt><trkpt lat="43.1741535" lon="10.9047212"><ele>657.0</ele><time>2026-04-03T10:08:28.876Z</time></trkpt><trkpt lat="43.1742444" lon="10.9047264"><ele>659.1666666666666</ele><time>2026-04-03T10:08:30.885Z</time></trkpt><trkpt lat="43.1743394" lon="10.9047294"><ele>661.3333333333334</ele><time>2026-04-03T10:08:32.884Z</time></trkpt><trkpt lat="43.1744358" lon="10.9047351"><ele>663.5</ele><time>2026-04-03T10:08:34.878Z</time></trkpt><trkpt lat="43.1745114" lon="10.9047086"><ele>665.6666666666667</ele><time>2026-04-03T10:08:36.881Z</time></trkpt><trkpt lat="43.174586" lon="10.9046473"><ele>667.8333333333334</ele><time>2026-04-03T10:09:15.884Z</time></trkpt><trkpt lat="43.1745693" lon="10.9045477"><ele>670.0</ele><time>2026-04-03T10:11:43.884Z</time></trkpt><trkpt lat="43.1745229" lon="10.9044773"><ele>670.0</ele><time>2026-04-03T10:11:51.899Z</time></trkpt><trkpt lat="43.174476" lon="10.9044192"><ele>670.0</ele><time>2026-04-03T10:11:53.875Z</time></trkpt><trkpt lat="43.1744147" lon="10.9043564"><ele>670.0</ele><time>2026-04-03T10:11:56.873Z</time></trkpt><trkpt lat="43.1743501" lon="10.9042873"><ele>670.0</ele><time>2026-04-03T10:12:01.887Z</time></trkpt><trkpt lat="43.1742942" lon="10.9042174"><ele>670.0</ele><time>2026-04-03T10:12:03.871Z</time></trkpt><trkpt lat="43.1742209" lon="10.9041388"><ele>670.0</ele><time>2026-04-03T10:12:05.884Z</time></trkpt><trkpt lat="43.1741333" lon="10.9040673"><ele>670.0</ele><time>2026-04-03T10:12:07.88Z</time></trkpt><trkpt lat="43.1740405" lon="10.9039874"><ele>670.0</ele><time>2026-04-03T10:12:09.876Z</time></trkpt><trkpt lat="43.1739751" lon="10.9039074"><ele>670.0</ele><time>2026-04-03T10:12:11.883Z</time></trkpt><trkpt lat="43.1739887" lon="10.9038142"><ele>670.0</ele><time>2026-04-03T10:12:14.882Z</time></trkpt><trkpt lat="43.1740318" lon="10.9037462"><ele>670.0</ele><time>2026-04-03T10:12:21.882Z</time></trkpt><trkpt lat="43.1740813" lon="10.9036825"><ele>670.0</ele><time>2026-04-03T10:12:24.894Z</time></trkpt><trkpt lat="43.1741615" lon="10.9035919"><ele>673.0</ele><time>2026-04-03T10:12:27.884Z</time></trkpt><trkpt lat="43.1742354" lon="10.9035219"><ele>676.0</ele><time>2026-04-03T10:12:29.877Z</time></trkpt><trkpt lat="43.174316" lon="10.9034743"><ele>679.0</ele><time>2026-04-03T10:12:31.896Z</time></trkpt><trkpt lat="43.1743987" lon="10.9034864"><ele>682.0</ele><time>2026-04-03T10:12:33.886Z</time></trkpt><trkpt lat="43.1744882" lon="10.9035412"><ele>685.0</ele><time>2026-04-03T10:12:35.879Z</time></trkpt><trkpt lat="43.1745661" lon="10.9036224"><ele>685.0</ele><time>2026-04-03T10:12:37.894Z</time></trkpt><trkpt lat="43.174638" lon="10.9036988"><ele>685.0</ele><time>2026-04-03T10:12:39.873Z</time></trkpt><trkpt lat="43.1747049" lon="10.9037271"><ele>685.0</ele><time>2026-04-03T10:12:41.887Z</time></trkpt><trkpt lat="43.1747856" lon="10.9037181"><ele>685.0</ele><time>2026-04-03T10:12:43.886Z</time></trkpt><trkpt lat="43.1748663" lon="10.9036499"><ele>685.0</ele><time>2026-04-03T10:12:45.879Z</time></trkpt><trkpt lat="43.1749487" lon="10.9035853"><ele>685.0</ele><time>2026-04-03T10:12:47.89Z</time></trkpt><trkpt lat="43.1750351" lon="10.9035187"><ele>687.4285714285714</ele><time>2026-04-03T10:12:49.891Z</time></trkpt><trkpt lat="43.1750983" lon="10.9034685"><ele>689.8571428571429</ele><time>2026-04-03T10:12:51.884Z</time></trkpt><trkpt lat="43.1751613" lon="10.9034519"><ele>692.2857142857143</ele><time>2026-04-03T10:12:53.878Z</time></trkpt><trkpt lat="43.1752337" lon="10.903471"><ele>694.7142857142858</ele><time>2026-04-03T10:12:56.879Z</time></trkpt><trkpt lat="43.1752933" lon="10.9035042"><ele>697.1428571428571</ele><time>2026-04-03T10:12:58.888Z</time></trkpt><trkpt lat="43.1753607" lon="10.9035185"><ele>699.5714285714287</ele><time>2026-04-03T10:13:00.881Z</time></trkpt><trkpt lat="43.1754449" lon="10.9035377"><ele>702.0</ele><time>2026-04-03T10:13:02.887Z</time></trkpt><trkpt lat="43.175521" lon="10.9035399"><ele>702.0</ele><time>2026-04-03T10:13:05.879Z</time></trkpt><trkpt lat="43.1755756" lon="10.9034874"><ele>702.0</ele><time>2026-04-03T10:13:07.886Z</time></trkpt><trkpt lat="43.1756119" lon="10.9033737"><ele>702.0</ele><time>2026-04-03T10:13:10.887Z</time></trkpt><trkpt lat="43.1756566" lon="10.9032985"><ele>702.0</ele><time>2026-04-03T10:13:12.897Z</time></trkpt><trkpt lat="43.1756904" lon="10.9031978"><ele>702.0</ele><time>2026-04-03T10:13:15.879Z</time></trkpt><trkpt lat="43.1757196" lon="10.9031069"><ele>702.0</ele><time>2026-04-03T10:13:18.881Z</time></trkpt><trkpt lat="43.1757623" lon="10.9030329"><ele>706.4285714285714</ele><time>2026-04-03T10:16:17.879Z</time></trkpt><trkpt lat="43.175804" lon="10.9029506"><ele>710.8571428571429</ele><time>2026-04-03T10:16:23.895Z</time></trkpt><trkpt lat="43.1758573" lon="10.9028801"><ele>715.2857142857142</ele><time>2026-04-03T10:16:26.9Z</time></trkpt><trkpt lat="43.1758926" lon="10.9028075"><ele>719.7142857142858</ele><time>2026-04-03T10:16:29.891Z</time></trkpt><trkpt lat="43.1759155" lon="10.9027248"><ele>724.1428571428571</ele><time>2026-04-03T10:16:31.896Z</time></trkpt><trkpt lat="43.1759364" lon="10.90263"><ele>728.5714285714286</ele><time>2026-04-03T10:16:33.908Z</time></trkpt><trkpt lat="43.1759591" lon="10.9025451"><ele>733.0</ele><time>2026-04-03T10:16:35.907Z</time></trkpt><trkpt lat="43.1759762" lon="10.9024527"><ele>733.1666666666667</ele><time>2026-04-03T10:16:42.874Z</time></trkpt><trkpt lat="43.1759652" lon="10.9023499"><ele>733.3333333333334</ele><time>2026-04-03T10:16:48.881Z</time></trkpt><trkpt lat="43.1759544" lon="10.9022381"><ele>733.5</ele><time>2026-04-03T10:17:40.884Z</time></trkpt><trkpt lat="43.1759785" lon="10.9021259"><ele>733.6666666666666</ele><time>2026-04-03T10:21:52.886Z</time></trkpt><trkpt lat="43.1760309" lon="10.9020423"><ele>733.8333333333333</ele><time>2026-04-03T10:21:55.875Z</time></trkpt><trkpt lat="43.1761018" lon="10.9019553"><ele>734.0</ele><time>2026-04-03T10:21:58.884Z</time></trkpt><trkpt lat="43.1761459" lon="10.9018789"><ele>734.0</ele><time>2026-04-03T10:22:01.896Z</time></trkpt><trkpt lat="43.1761936" lon="10.9017857"><ele>734.0</ele><time>2026-04-03T10:22:04.891Z</time></trkpt><trkpt lat="43.1762603" lon="10.9016956"><ele>734.0</ele><time>2026-04-03T10:22:07.88Z</time></trkpt><trkpt lat="43.1762209" lon="10.9018015"><ele>734.0</ele><time>2026-04-03T10:26:35.886Z</time></trkpt><trkpt lat="43.1761706" lon="10.9018997"><ele>734.0</ele><time>2026-04-03T10:26:38.902Z</time></trkpt><trkpt lat="43.1761157" lon="10.9019786"><ele>734.0</ele><time>2026-04-03T10:26:42.885Z</time></trkpt><trkpt lat="43.1760738" lon="10.9020561"><ele>734.0</ele><time>2026-04-03T10:27:06.9Z</time></trkpt><trkpt lat="43.1760426" lon="10.9021411"><ele>734.0</ele><time>2026-04-03T10:27:17.883Z</time></trkpt><trkpt lat="43.1760031" lon="10.902214"><ele>734.0</ele><time>2026-04-03T10:27:25.89Z</time></trkpt><trkpt lat="43.1759697" lon="10.9023025"><ele>734.0</ele><time>2026-04-03T10:27:30.878Z</time></trkpt><trkpt lat="43.1759938" lon="10.9023843"><ele>734.0</ele><time>2026-04-03T10:33:57.886Z</time></trkpt><trkpt lat="43.1759861" lon="10.9024811"><ele>734.0</ele><time>2026-04-03T10:34:01.883Z</time></trkpt><trkpt lat="43.1759578" lon="10.9025716"><ele>734.0</ele><time>2026-04-03T10:34:09.88Z</time></trkpt><trkpt lat="43.1759296" lon="10.9026562"><ele>733.8571428571428</ele><time>2026-04-03T10:34:15.886Z</time></trkpt><trkpt lat="43.1759034" lon="10.9027402"><ele>733.7142857142858</ele><time>2026-04-03T10:34:29.888Z</time></trkpt><trkpt lat="43.1758733" lon="10.9028248"><ele>733.5714285714286</ele><time>2026-04-03T10:34:33.879Z</time></trkpt><trkpt lat="43.17583" lon="10.902902"><ele>733.4285714285713</ele><time>2026-04-03T10:34:41.885Z</time></trkpt><trkpt lat="43.1757918" lon="10.9029756"><ele>733.2857142857142</ele><time>2026-04-03T10:34:45.882Z</time></trkpt><trkpt lat="43.1757504" lon="10.9030518"><ele>733.1428571428571</ele><time>2026-04-03T10:34:48.878Z</time></trkpt><trkpt lat="43.1757099" lon="10.9031277"><ele>733.0</ele><time>2026-04-03T10:34:52.872Z</time></trkpt><trkpt lat="43.1756982" lon="10.9032156"><ele>729.0</ele><time>2026-04-03T10:35:19.893Z</time></trkpt><trkpt lat="43.1756702" lon="10.9033046"><ele>725.0</ele><time>2026-04-03T10:35:24.878Z</time></trkpt><trkpt lat="43.1756234" lon="10.9033842"><ele>721.0</ele><time>2026-04-03T10:35:30.88Z</time></trkpt><trkpt lat="43.175598" lon="10.9034677"><ele>717.0</ele><time>2026-04-03T10:35:34.899Z</time></trkpt><trkpt lat="43.1755487" lon="10.9035575"><ele>713.0</ele><time>2026-04-03T10:35:38.884Z</time></trkpt><trkpt lat="43.1754684" lon="10.9035699"><ele>709.0</ele><time>2026-04-03T10:35:42.885Z</time></trkpt><trkpt lat="43.1753928" lon="10.9035565"><ele>708.0000000000001</ele><time>2026-04-03T10:35:49.88Z</time></trkpt><trkpt lat="43.1753293" lon="10.9035308"><ele>707.0</ele><time>2026-04-03T10:35:54.875Z</time></trkpt><trkpt lat="43.1752673" lon="10.9035031"><ele>706.0</ele><time>2026-04-03T10:36:00.875Z</time></trkpt><trkpt lat="43.1752028" lon="10.9034633"><ele>705.0</ele><time>2026-04-03T10:36:09.892Z</time></trkpt><trkpt lat="43.1751299" lon="10.9034641"><ele>704.0</ele><time>2026-04-03T10:36:15.898Z</time></trkpt><trkpt lat="43.1750494" lon="10.9035153"><ele>703.0000000000001</ele><time>2026-04-03T10:36:19.882Z</time></trkpt><trkpt lat="43.1749842" lon="10.9035703"><ele>702.0</ele><time>2026-04-03T10:36:22.874Z</time></trkpt><trkpt lat="43.1749251" lon="10.9036191"><ele>702.0000000000001</ele><time>2026-04-03T10:36:25.876Z</time></trkpt><trkpt lat="43.1748634" lon="10.9036616"><ele>702.0</ele><time>2026-04-03T10:36:28.875Z</time></trkpt><trkpt lat="43.174801" lon="10.9037054"><ele>702.0</ele><time>2026-04-03T10:36:31.879Z</time></trkpt><trkpt lat="43.1747436" lon="10.9037413"><ele>702.0</ele><time>2026-04-03T10:36:37.883Z</time></trkpt><trkpt lat="43.1746673" lon="10.9037627"><ele>702.0</ele><time>2026-04-03T10:36:41.987Z</time></trkpt><trkpt lat="43.174604" lon="10.9036981"><ele>702.0000000000001</ele><time>2026-04-03T10:36:48.918Z</time></trkpt><trkpt lat="43.1745542" lon="10.9036161"><ele>702.0</ele><time>2026-04-03T10:36:52.919Z</time></trkpt><trkpt lat="43.1744935" lon="10.9035375"><ele>699.5714285714287</ele><time>2026-04-03T10:36:55.94Z</time></trkpt><trkpt lat="43.174422" lon="10.9034826"><ele>697.1428571428571</ele><time>2026-04-03T10:36:58.9Z</time></trkpt><trkpt lat="43.1743519" lon="10.9034555"><ele>694.7142857142858</ele><time>2026-04-03T10:37:01.899Z</time></trkpt><trkpt lat="43.1742885" lon="10.9034832"><ele>692.2857142857143</ele><time>2026-04-03T10:37:06.1Z</time></trkpt><trkpt lat="43.1743524" lon="10.9034708"><ele>689.8571428571429</ele><time>2026-04-03T10:37:14.891Z</time></trkpt><trkpt lat="43.1743008" lon="10.9035227"><ele>687.4285714285714</ele><time>2026-04-03T10:43:47.894Z</time></trkpt><trkpt lat="43.1742365" lon="10.9035592"><ele>685.0</ele><time>2026-04-03T10:43:49.882Z</time></trkpt><trkpt lat="43.1741773" lon="10.9035993"><ele>685.0</ele><time>2026-04-03T10:43:51.892Z</time></trkpt><trkpt lat="43.1741252" lon="10.9036497"><ele>685.0</ele><time>2026-04-03T10:43:53.887Z</time></trkpt><trkpt lat="43.1740749" lon="10.9037084"><ele>685.0</ele><time>2026-04-03T10:43:56.891Z</time></trkpt><trkpt lat="43.1740233" lon="10.9037915"><ele>685.0</ele><time>2026-04-03T10:43:59.886Z</time></trkpt><trkpt lat="43.1739939" lon="10.9038693"><ele>685.0</ele><time>2026-04-03T10:44:02.889Z</time></trkpt><trkpt lat="43.1740254" lon="10.9039526"><ele>685.0</ele><time>2026-04-03T10:44:05.907Z</time></trkpt><trkpt lat="43.1740916" lon="10.9040234"><ele>685.0</ele><time>2026-04-03T10:44:08.894Z</time></trkpt><trkpt lat="43.1741439" lon="10.9040741"><ele>685.0</ele><time>2026-04-03T10:44:10.886Z</time></trkpt><trkpt lat="43.1741999" lon="10.9041285"><ele>685.0</ele><time>2026-04-03T10:44:12.887Z</time></trkpt><trkpt lat="43.1742605" lon="10.9041884"><ele>685.0</ele><time>2026-04-03T10:44:14.884Z</time></trkpt><trkpt lat="43.1743202" lon="10.9042545"><ele>685.0</ele><time>2026-04-03T10:44:16.884Z</time></trkpt><trkpt lat="43.174375" lon="10.9043121"><ele>685.0</ele><time>2026-04-03T10:44:18.886Z</time></trkpt><trkpt lat="43.1744327" lon="10.904373"><ele>685.0</ele><time>2026-04-03T10:44:20.884Z</time></trkpt><trkpt lat="43.1744973" lon="10.9044455"><ele>685.0</ele><time>2026-04-03T10:44:23.884Z</time></trkpt><trkpt lat="43.1745471" lon="10.9045059"><ele>682.8571428571428</ele><time>2026-04-03T10:44:31.901Z</time></trkpt><trkpt lat="43.1745826" lon="10.9045864"><ele>680.7142857142858</ele><time>2026-04-03T10:44:39.882Z</time></trkpt><trkpt lat="43.1745746" lon="10.9046743"><ele>678.5714285714286</ele><time>2026-04-03T10:44:45.885Z</time></trkpt><trkpt lat="43.174531" lon="10.9047404"><ele>676.4285714285713</ele><time>2026-04-03T10:44:59.873Z</time></trkpt><trkpt lat="43.1744661" lon="10.9047704"><ele>674.2857142857142</ele><time>2026-04-03T10:45:04.885Z</time></trkpt><trkpt lat="43.174391" lon="10.9047722"><ele>672.1428571428571</ele><time>2026-04-03T10:45:08.892Z</time></trkpt><trkpt lat="43.1743232" lon="10.9047448"><ele>670.0</ele><time>2026-04-03T10:45:53.881Z</time></trkpt><trkpt lat="43.1742574" lon="10.9047396"><ele>670.0</ele><time>2026-04-03T10:45:57.876Z</time></trkpt><trkpt lat="43.1741764" lon="10.9047409"><ele>670.0</ele><time>2026-04-03T10:46:01.882Z</time></trkpt><trkpt lat="43.1740896" lon="10.9047382"><ele>670.0</ele><time>2026-04-03T10:46:05.889Z</time></trkpt><trkpt lat="43.1740154" lon="10.9047489"><ele>670.0</ele><time>2026-04-03T10:46:08.891Z</time></trkpt><trkpt lat="43.1739394" lon="10.9047588"><ele>670.0</ele><time>2026-04-03T10:46:11.881Z</time></trkpt><trkpt lat="43.1739034" lon="10.9048323"><ele>670.0</ele><time>2026-04-03T10:46:15.885Z</time></trkpt><trkpt lat="43.1739492" lon="10.9049109"><ele>669.7142857142857</ele><time>2026-04-03T10:46:18.885Z</time></trkpt><trkpt lat="43.1739781" lon="10.9050332"><ele>669.4285714285714</ele><time>2026-04-03T10:46:28.883Z</time></trkpt><trkpt lat="43.1740092" lon="10.9051221"><ele>669.1428571428571</ele><time>2026-04-03T10:46:30.885Z</time></trkpt><trkpt lat="43.1740428" lon="10.9052234"><ele>668.8571428571429</ele><time>2026-04-03T10:46:32.886Z</time></trkpt><trkpt lat="43.1740652" lon="10.9053047"><ele>668.5714285714286</ele><time>2026-04-03T10:46:33.884Z</time></trkpt><trkpt lat="43.1740894" lon="10.9053938"><ele>668.2857142857142</ele><time>2026-04-03T10:46:34.882Z</time></trkpt><trkpt lat="43.1741116" lon="10.9054806"><ele>668.0</ele><time>2026-04-03T10:46:35.882Z</time></trkpt><trkpt lat="43.1741368" lon="10.9056159"><ele>668.0</ele><time>2026-04-03T10:46:37.875Z</time></trkpt><trkpt lat="43.1741769" lon="10.9057737"><ele>668.0</ele><time>2026-04-03T10:46:39.886Z</time></trkpt><trkpt lat="43.1742057" lon="10.9058616"><ele>668.0</ele><time>2026-04-03T10:46:40.885Z</time></trkpt><trkpt lat="43.1742373" lon="10.905958"><ele>668.0</ele><time>2026-04-03T10:46:41.888Z</time></trkpt><trkpt lat="43.1742668" lon="10.9060557"><ele>668.0</ele><time>2026-04-03T10:46:42.877Z</time></trkpt><trkpt lat="43.1742967" lon="10.906156"><ele>668.0</ele><time>2026-04-03T10:46:43.888Z</time></trkpt><trkpt lat="43.1743291" lon="10.9062614"><ele>668.0</ele><time>2026-04-03T10:46:44.889Z</time></trkpt><trkpt lat="43.1743641" lon="10.9063718"><ele>668.0</ele><time>2026-04-03T10:46:45.89Z</time></trkpt><trkpt lat="43.1744012" lon="10.906487"><ele>668.0</ele><time>2026-04-03T10:46:46.886Z</time></trkpt><trkpt lat="43.1744381" lon="10.9066067"><ele>668.0</ele><time>2026-04-03T10:46:47.884Z</time></trkpt><trkpt lat="43.1744732" lon="10.9067266"><ele>668.0</ele><time>2026-04-03T10:46:48.881Z</time></trkpt><trkpt lat="43.1745051" lon="10.9068457"><ele>666.5999999999999</ele><time>2026-04-03T10:46:49.876Z</time></trkpt><trkpt lat="43.1745331" lon="10.9069655"><ele>665.1999999999999</ele><time>2026-04-03T10:46:50.889Z</time></trkpt><trkpt lat="43.1745581" lon="10.9070881"><ele>663.8</ele><time>2026-04-03T10:46:51.884Z</time></trkpt><trkpt lat="43.1745843" lon="10.9072112"><ele>662.4</ele><time>2026-04-03T10:46:52.886Z</time></trkpt><trkpt lat="43.174605" lon="10.9073347"><ele>661.0</ele><time>2026-04-03T10:46:53.893Z</time></trkpt><trkpt lat="43.1746161" lon="10.9074627"><ele>662.1999999999999</ele><time>2026-04-03T10:46:54.885Z</time></trkpt><trkpt lat="43.1746262" lon="10.9075918"><ele>663.4</ele><time>2026-04-03T10:46:55.883Z</time></trkpt><trkpt lat="43.1746114" lon="10.9077321"><ele>664.6</ele><time>2026-04-03T10:46:56.892Z</time></trkpt><trkpt lat="43.1745835" lon="10.9078736"><ele>665.8</ele><time>2026-04-03T10:46:57.892Z</time></trkpt><trkpt lat="43.1745571" lon="10.9080236"><ele>667.0</ele><time>2026-04-03T10:46:58.88Z</time></trkpt><trkpt lat="43.1745435" lon="10.908178"><ele>667.0</ele><time>2026-04-03T10:46:59.887Z</time></trkpt><trkpt lat="43.17455" lon="10.9083399"><ele>667.0</ele><time>2026-04-03T10:47:00.885Z</time></trkpt><trkpt lat="43.1745729" lon="10.9085042"><ele>667.0</ele><time>2026-04-03T10:47:01.879Z</time></trkpt><trkpt lat="43.174609" lon="10.9086757"><ele>667.0</ele><time>2026-04-03T10:47:02.881Z</time></trkpt><trkpt lat="43.1746538" lon="10.9088531"><ele>667.0</ele><time>2026-04-03T10:47:03.891Z</time></trkpt><trkpt lat="43.1747064" lon="10.9090254"><ele>667.0</ele><time>2026-04-03T10:47:04.891Z</time></trkpt><trkpt lat="43.1747715" lon="10.9091922"><ele>667.0</ele><time>2026-04-03T10:47:05.88Z</time></trkpt><trkpt lat="43.1748491" lon="10.9093544"><ele>667.0</ele><time>2026-04-03T10:47:06.886Z</time></trkpt><trkpt lat="43.1749379" lon="10.9095093"><ele>667.25</ele><time>2026-04-03T10:47:07.882Z</time></trkpt><trkpt lat="43.1750381" lon="10.9096555"><ele>667.5</ele><time>2026-04-03T10:47:08.89Z</time></trkpt><trkpt lat="43.1751474" lon="10.9097877"><ele>667.75</ele><time>2026-04-03T10:47:09.893Z</time></trkpt><trkpt lat="43.1752632" lon="10.9099058"><ele>668.0</ele><time>2026-04-03T10:47:10.882Z</time></trkpt><trkpt lat="43.1753834" lon="10.9100101"><ele>666.75</ele><time>2026-04-03T10:47:11.889Z</time></trkpt><trkpt lat="43.1755072" lon="10.9101023"><ele>665.5</ele><time>2026-04-03T10:47:12.902Z</time></trkpt><trkpt lat="43.1756355" lon="10.9101801"><ele>664.25</ele><time>2026-04-03T10:47:13.885Z</time></trkpt><trkpt lat="43.1757673" lon="10.9102485"><ele>663.0</ele><time>2026-04-03T10:47:14.885Z</time></trkpt><trkpt lat="43.1759031" lon="10.9103078"><ele>663.0</ele><time>2026-04-03T10:47:15.883Z</time></trkpt><trkpt lat="43.176044" lon="10.910359"><ele>663.0</ele><time>2026-04-03T10:47:16.884Z</time></trkpt><trkpt lat="43.1761896" lon="10.9103985"><ele>663.0</ele><time>2026-04-03T10:47:17.878Z</time></trkpt><trkpt lat="43.1763377" lon="10.9104292"><ele>663.0</ele><time>2026-04-03T10:47:18.883Z</time></trkpt><trkpt lat="43.1764855" lon="10.9104584"><ele>664.75</ele><time>2026-04-03T10:47:19.879Z</time></trkpt><trkpt lat="43.1766318" lon="10.9104878"><ele>666.5</ele><time>2026-04-03T10:47:20.876Z</time></trkpt><trkpt lat="43.1767709" lon="10.910517"><ele>668.25</ele><time>2026-04-03T10:47:21.875Z</time></trkpt><trkpt lat="43.1768983" lon="10.9105445"><ele>670.0</ele><time>2026-04-03T10:47:22.872Z</time></trkpt><trkpt lat="43.1770144" lon="10.910572"><ele>670.0</ele><time>2026-04-03T10:47:23.874Z</time></trkpt><trkpt lat="43.1771216" lon="10.9105965"><ele>670.0</ele><time>2026-04-03T10:47:24.877Z</time></trkpt><trkpt lat="43.1772271" lon="10.9106181"><ele>670.0</ele><time>2026-04-03T10:47:25.882Z</time></trkpt><trkpt lat="43.1773328" lon="10.9106418"><ele>670.0</ele><time>2026-04-03T10:47:26.876Z</time></trkpt><trkpt lat="43.1774406" lon="10.9106668"><ele>670.0</ele><time>2026-04-03T10:47:27.874Z</time></trkpt><trkpt lat="43.177549" lon="10.910695"><ele>671.25</ele><time>2026-04-03T10:47:28.89Z</time></trkpt><trkpt lat="43.1776584" lon="10.9107221"><ele>672.5</ele><time>2026-04-03T10:47:29.878Z</time></trkpt><trkpt lat="43.1777686" lon="10.9107499"><ele>673.75</ele><time>2026-04-03T10:47:30.883Z</time></trkpt><trkpt lat="43.1778795" lon="10.91078"><ele>675.0</ele><time>2026-04-03T10:47:31.879Z</time></trkpt><trkpt lat="43.1779909" lon="10.9108126"><ele>675.0</ele><time>2026-04-03T10:47:32.881Z</time></trkpt><trkpt lat="43.1781031" lon="10.9108429"><ele>675.0</ele><time>2026-04-03T10:47:33.873Z</time></trkpt><trkpt lat="43.1782171" lon="10.9108636"><ele>675.0</ele><time>2026-04-03T10:47:34.879Z</time></trkpt><trkpt lat="43.178333" lon="10.9108695"><ele>675.0</ele><time>2026-04-03T10:47:35.885Z</time></trkpt><trkpt lat="43.1784485" lon="10.9108643"><ele>675.0</ele><time>2026-04-03T10:47:36.885Z</time></trkpt><trkpt lat="43.1785624" lon="10.9108458"><ele>675.0</ele><time>2026-04-03T10:47:37.879Z</time></trkpt><trkpt lat="43.1786739" lon="10.9108082"><ele>675.0</ele><time>2026-04-03T10:47:38.874Z</time></trkpt><trkpt lat="43.1787777" lon="10.9107632"><ele>675.0</ele><time>2026-04-03T10:47:39.88Z</time></trkpt><trkpt lat="43.178876" lon="10.9107185"><ele>675.0</ele><time>2026-04-03T10:47:40.873Z</time></trkpt><trkpt lat="43.1789721" lon="10.9106644"><ele>675.0</ele><time>2026-04-03T10:47:41.892Z</time></trkpt><trkpt lat="43.1790653" lon="10.9105982"><ele>675.0</ele><time>2026-04-03T10:47:42.881Z</time></trkpt><trkpt lat="43.1791552" lon="10.910519"><ele>675.0</ele><time>2026-04-03T10:47:43.882Z</time></trkpt><trkpt lat="43.179244" lon="10.9104345"><ele>675.0</ele><time>2026-04-03T10:47:44.879Z</time></trkpt><trkpt lat="43.1793335" lon="10.9103494"><ele>675.0</ele><time>2026-04-03T10:47:45.879Z</time></trkpt><trkpt lat="43.1794229" lon="10.9102635"><ele>675.0</ele><time>2026-04-03T10:47:46.88Z</time></trkpt><trkpt lat="43.1795124" lon="10.910176"><ele>675.0</ele><time>2026-04-03T10:47:47.886Z</time></trkpt><trkpt lat="43.1796014" lon="10.9100862"><ele>675.0</ele><time>2026-04-03T10:47:48.877Z</time></trkpt><trkpt lat="43.1796909" lon="10.9099956"><ele>675.0</ele><time>2026-04-03T10:47:49.882Z</time></trkpt><trkpt lat="43.179767" lon="10.909886"><ele>675.0</ele><time>2026-04-03T10:47:50.886Z</time></trkpt><trkpt lat="43.1798293" lon="10.9097584"><ele>675.75</ele><time>2026-04-03T10:47:51.871Z</time></trkpt><trkpt lat="43.1798802" lon="10.9096154"><ele>676.5</ele><time>2026-04-03T10:47:52.878Z</time></trkpt><trkpt lat="43.1799198" lon="10.9094602"><ele>677.25</ele><time>2026-04-03T10:47:53.878Z</time></trkpt><trkpt lat="43.179942" lon="10.9092945"><ele>678.0</ele><time>2026-04-03T10:47:54.877Z</time></trkpt><trkpt lat="43.1799455" lon="10.9091269"><ele>678.0</ele><time>2026-04-03T10:47:55.882Z</time></trkpt><trkpt lat="43.1799328" lon="10.9089571"><ele>678.0</ele><time>2026-04-03T10:47:56.88Z</time></trkpt><trkpt lat="43.1799076" lon="10.9087874"><ele>678.0</ele><time>2026-04-03T10:47:57.877Z</time></trkpt><trkpt lat="43.1798825" lon="10.908616"><ele>678.0</ele><time>2026-04-03T10:47:58.883Z</time></trkpt><trkpt lat="43.1798743" lon="10.908452"><ele>677.4</ele><time>2026-04-03T10:47:59.881Z</time></trkpt><trkpt lat="43.1798833" lon="10.9083005"><ele>676.8</ele><time>2026-04-03T10:48:00.886Z</time></trkpt><trkpt lat="43.179906" lon="10.9081621"><ele>676.2</ele><time>2026-04-03T10:48:01.883Z</time></trkpt><trkpt lat="43.1799464" lon="10.908037"><ele>675.6</ele><time>2026-04-03T10:48:02.88Z</time></trkpt><trkpt lat="43.1800029" lon="10.9079273"><ele>675.0</ele><time>2026-04-03T10:48:03.884Z</time></trkpt><trkpt lat="43.180075" lon="10.9078314"><ele>675.0</ele><time>2026-04-03T10:48:04.88Z</time></trkpt><trkpt lat="43.180161" lon="10.9077475"><ele>675.0</ele><time>2026-04-03T10:48:05.881Z</time></trkpt><trkpt lat="43.1802604" lon="10.9076824"><ele>675.0</ele><time>2026-04-03T10:48:06.886Z</time></trkpt><trkpt lat="43.180371" lon="10.907641"><ele>675.0</ele><time>2026-04-03T10:48:07.877Z</time></trkpt><trkpt lat="43.180489" lon="10.9076192"><ele>675.0</ele><time>2026-04-03T10:48:08.878Z</time></trkpt><trkpt lat="43.1806168" lon="10.9076004"><ele>675.75</ele><time>2026-04-03T10:48:09.89Z</time></trkpt><trkpt lat="43.1807554" lon="10.9075767"><ele>676.5</ele><time>2026-04-03T10:48:10.878Z</time></trkpt><trkpt lat="43.1809008" lon="10.9075512"><ele>677.25</ele><time>2026-04-03T10:48:11.886Z</time></trkpt><trkpt lat="43.1810514" lon="10.9075243"><ele>678.0</ele><time>2026-04-03T10:48:12.881Z</time></trkpt><trkpt lat="43.1812094" lon="10.9074954"><ele>678.0</ele><time>2026-04-03T10:48:13.878Z</time></trkpt><trkpt lat="43.1813741" lon="10.9074649"><ele>678.0</ele><time>2026-04-03T10:48:14.882Z</time></trkpt><trkpt lat="43.1815435" lon="10.907433"><ele>678.0</ele><time>2026-04-03T10:48:15.881Z</time></trkpt><trkpt lat="43.1817178" lon="10.9074005"><ele>676.0</ele><time>2026-04-03T10:48:16.876Z</time></trkpt><trkpt lat="43.1818968" lon="10.907366"><ele>674.0</ele><time>2026-04-03T10:48:17.878Z</time></trkpt><trkpt lat="43.1820755" lon="10.9073325"><ele>672.0</ele><time>2026-04-03T10:48:18.885Z</time></trkpt><trkpt lat="43.1822434" lon="10.9073122"><ele>668.6666666666666</ele><time>2026-04-03T10:48:19.889Z</time></trkpt><trkpt lat="43.1824007" lon="10.9073161"><ele>665.3333333333333</ele><time>2026-04-03T10:48:20.878Z</time></trkpt><trkpt lat="43.1825518" lon="10.9073436"><ele>662.0</ele><time>2026-04-03T10:48:21.876Z</time></trkpt><trkpt lat="43.1826972" lon="10.9073869"><ele>662.0</ele><time>2026-04-03T10:48:22.873Z</time></trkpt><trkpt lat="43.1828331" lon="10.9074351"><ele>662.0</ele><time>2026-04-03T10:48:23.885Z</time></trkpt><trkpt lat="43.1829611" lon="10.9074848"><ele>662.0</ele><time>2026-04-03T10:48:24.892Z</time></trkpt><trkpt lat="43.1830833" lon="10.9075389"><ele>662.0</ele><time>2026-04-03T10:48:25.878Z</time></trkpt><trkpt lat="43.1832156" lon="10.9075928"><ele>661.25</ele><time>2026-04-03T10:48:26.887Z</time></trkpt><trkpt lat="43.1833489" lon="10.9076416"><ele>660.5</ele><time>2026-04-03T10:48:27.907Z</time></trkpt><trkpt lat="43.1834829" lon="10.907695"><ele>659.75</ele><time>2026-04-03T10:48:28.882Z</time></trkpt><trkpt lat="43.1836168" lon="10.9077451"><ele>659.0</ele><time>2026-04-03T10:48:29.883Z</time></trkpt><trkpt lat="43.1837551" lon="10.9077838"><ele>659.0</ele><time>2026-04-03T10:48:30.891Z</time></trkpt><trkpt lat="43.183899" lon="10.9078085"><ele>659.0</ele><time>2026-04-03T10:48:31.896Z</time></trkpt><trkpt lat="43.1840487" lon="10.9078269"><ele>659.0</ele><time>2026-04-03T10:48:32.885Z</time></trkpt><trkpt lat="43.1842037" lon="10.9078349"><ele>661.3333333333333</ele><time>2026-04-03T10:48:33.882Z</time></trkpt><trkpt lat="43.1843635" lon="10.9078352"><ele>663.6666666666666</ele><time>2026-04-03T10:48:34.88Z</time></trkpt><trkpt lat="43.1845286" lon="10.9078281"><ele>666.0</ele><time>2026-04-03T10:48:35.883Z</time></trkpt><trkpt lat="43.184692" lon="10.9078203"><ele>661.6666666666666</ele><time>2026-04-03T10:48:36.886Z</time></trkpt><trkpt lat="43.1848494" lon="10.9078129"><ele>657.3333333333333</ele><time>2026-04-03T10:48:37.876Z</time></trkpt><trkpt lat="43.1850007" lon="10.9078087"><ele>653.0</ele><time>2026-04-03T10:48:38.875Z</time></trkpt><trkpt lat="43.1851478" lon="10.907808"><ele>653.0</ele><time>2026-04-03T10:48:39.878Z</time></trkpt><trkpt lat="43.1852896" lon="10.9078062"><ele>653.0</ele><time>2026-04-03T10:48:40.884Z</time></trkpt><trkpt lat="43.1854269" lon="10.9078019"><ele>653.0</ele><time>2026-04-03T10:48:41.886Z</time></trkpt><trkpt lat="43.1855586" lon="10.9077927"><ele>653.0</ele><time>2026-04-03T10:48:42.884Z</time></trkpt><trkpt lat="43.1856857" lon="10.9077793"><ele>654.0</ele><time>2026-04-03T10:48:43.875Z</time></trkpt><trkpt lat="43.185811" lon="10.9077548"><ele>655.0</ele><time>2026-04-03T10:48:44.888Z</time></trkpt><trkpt lat="43.1859299" lon="10.9077086"><ele>656.0</ele><time>2026-04-03T10:48:45.874Z</time></trkpt><trkpt lat="43.1860492" lon="10.9076387"><ele>657.0</ele><time>2026-04-03T10:48:46.872Z</time></trkpt><trkpt lat="43.1861698" lon="10.9075483"><ele>657.0</ele><time>2026-04-03T10:48:47.877Z</time></trkpt><trkpt lat="43.1862784" lon="10.9074362"><ele>657.0</ele><time>2026-04-03T10:48:48.896Z</time></trkpt><trkpt lat="43.1863687" lon="10.9072999"><ele>657.0</ele><time>2026-04-03T10:48:49.877Z</time></trkpt><trkpt lat="43.1864428" lon="10.9071519"><ele>657.0</ele><time>2026-04-03T10:48:50.881Z</time></trkpt><trkpt lat="43.1865045" lon="10.9069989"><ele>653.0</ele><time>2026-04-03T10:48:51.878Z</time></trkpt><trkpt lat="43.1865562" lon="10.9068419"><ele>649.0</ele><time>2026-04-03T10:48:52.883Z</time></trkpt><trkpt lat="43.1866073" lon="10.906671"><ele>645.0</ele><time>2026-04-03T10:48:53.879Z</time></trkpt><trkpt lat="43.1866618" lon="10.9065058"><ele>641.0</ele><time>2026-04-03T10:48:54.888Z</time></trkpt><trkpt lat="43.1867247" lon="10.9063382"><ele>641.0</ele><time>2026-04-03T10:48:55.877Z</time></trkpt><trkpt lat="43.1867821" lon="10.9061703"><ele>641.0</ele><time>2026-04-03T10:48:56.892Z</time></trkpt><trkpt lat="43.1868391" lon="10.9060049"><ele>641.0</ele><time>2026-04-03T10:48:57.882Z</time></trkpt><trkpt lat="43.1868933" lon="10.9058482"><ele>641.0</ele><time>2026-04-03T10:48:58.882Z</time></trkpt><trkpt lat="43.186958" lon="10.9057067"><ele>641.25</ele><time>2026-04-03T10:48:59.871Z</time></trkpt><trkpt lat="43.1870358" lon="10.905591"><ele>641.5</ele><time>2026-04-03T10:49:00.877Z</time></trkpt><trkpt lat="43.1871257" lon="10.9054965"><ele>641.75</ele><time>2026-04-03T10:49:01.88Z</time></trkpt><trkpt lat="43.1872278" lon="10.9054241"><ele>642.0</ele><time>2026-04-03T10:49:02.883Z</time></trkpt><trkpt lat="43.1873484" lon="10.9053823"><ele>635.25</ele><time>2026-04-03T10:49:03.879Z</time></trkpt><trkpt lat="43.1874757" lon="10.9053791"><ele>628.5</ele><time>2026-04-03T10:49:04.879Z</time></trkpt><trkpt lat="43.1876068" lon="10.9054085"><ele>621.75</ele><time>2026-04-03T10:49:05.877Z</time></trkpt><trkpt lat="43.1877456" lon="10.9054567"><ele>615.0</ele><time>2026-04-03T10:49:06.881Z</time></trkpt><trkpt lat="43.187894" lon="10.9055144"><ele>615.0</ele><time>2026-04-03T10:49:07.881Z</time></trkpt><trkpt lat="43.1880504" lon="10.9055773"><ele>615.0</ele><time>2026-04-03T10:49:08.892Z</time></trkpt><trkpt lat="43.1882171" lon="10.9056402"><ele>615.0</ele><time>2026-04-03T10:49:09.884Z</time></trkpt><trkpt lat="43.1883902" lon="10.9057029"><ele>615.0</ele><time>2026-04-03T10:49:10.891Z</time></trkpt><trkpt lat="43.1885643" lon="10.9057652"><ele>615.0</ele><time>2026-04-03T10:49:11.887Z</time></trkpt><trkpt lat="43.1887299" lon="10.9058269"><ele>615.0</ele><time>2026-04-03T10:49:12.886Z</time></trkpt><trkpt lat="43.1888868" lon="10.9058799"><ele>610.5</ele><time>2026-04-03T10:49:13.876Z</time></trkpt><trkpt lat="43.1890368" lon="10.9059356"><ele>606.0</ele><time>2026-04-03T10:49:14.875Z</time></trkpt><trkpt lat="43.1891816" lon="10.9059899"><ele>601.5</ele><time>2026-04-03T10:49:15.887Z</time></trkpt><trkpt lat="43.1893165" lon="10.9060452"><ele>597.0</ele><time>2026-04-03T10:49:16.883Z</time></trkpt><trkpt lat="43.1894466" lon="10.906096"><ele>597.0</ele><time>2026-04-03T10:49:17.88Z</time></trkpt><trkpt lat="43.1895746" lon="10.906145"><ele>597.0</ele><time>2026-04-03T10:49:18.878Z</time></trkpt><trkpt lat="43.1897058" lon="10.9061935"><ele>597.0</ele><time>2026-04-03T10:49:19.877Z</time></trkpt><trkpt lat="43.1898416" lon="10.9062436"><ele>597.0</ele><time>2026-04-03T10:49:20.878Z</time></trkpt><trkpt lat="43.1899746" lon="10.9062964"><ele>596.75</ele><time>2026-04-03T10:49:21.876Z</time></trkpt><trkpt lat="43.1900919" lon="10.9063639"><ele>596.5</ele><time>2026-04-03T10:49:22.893Z</time></trkpt><trkpt lat="43.1901944" lon="10.9064415"><ele>596.25</ele><time>2026-04-03T10:49:23.879Z</time></trkpt><trkpt lat="43.1902856" lon="10.9065255"><ele>596.0</ele><time>2026-04-03T10:49:24.882Z</time></trkpt><trkpt lat="43.1903686" lon="10.9066223"><ele>596.0</ele><time>2026-04-03T10:49:25.878Z</time></trkpt><trkpt lat="43.1904427" lon="10.9067379"><ele>596.0</ele><time>2026-04-03T10:49:26.874Z</time></trkpt><trkpt lat="43.1905195" lon="10.9068624"><ele>596.0</ele><time>2026-04-03T10:49:27.881Z</time></trkpt><trkpt lat="43.1906004" lon="10.9069984"><ele>596.0</ele><time>2026-04-03T10:49:28.879Z</time></trkpt><trkpt lat="43.1906847" lon="10.9071432"><ele>593.25</ele><time>2026-04-03T10:49:29.883Z</time></trkpt><trkpt lat="43.1907756" lon="10.9072894"><ele>590.5</ele><time>2026-04-03T10:49:30.877Z</time></trkpt><trkpt lat="43.1908669" lon="10.9074394"><ele>587.75</ele><time>2026-04-03T10:49:31.881Z</time></trkpt><trkpt lat="43.1909745" lon="10.9075755"><ele>585.0</ele><time>2026-04-03T10:49:32.876Z</time></trkpt><trkpt lat="43.1910966" lon="10.9077081"><ele>585.0</ele><time>2026-04-03T10:49:33.882Z</time></trkpt><trkpt lat="43.1912183" lon="10.9078334"><ele>585.0</ele><time>2026-04-03T10:49:34.88Z</time></trkpt><trkpt lat="43.191353" lon="10.9079403"><ele>585.0</ele><time>2026-04-03T10:49:35.876Z</time></trkpt><trkpt lat="43.1915002" lon="10.9080259"><ele>595.3333333333334</ele><time>2026-04-03T10:49:36.884Z</time></trkpt><trkpt lat="43.191652" lon="10.9080994"><ele>605.6666666666667</ele><time>2026-04-03T10:49:37.882Z</time></trkpt><trkpt lat="43.1918033" lon="10.9081534"><ele>616.0</ele><time>2026-04-03T10:49:38.885Z</time></trkpt><trkpt lat="43.1919582" lon="10.9081958"><ele>616.0</ele><time>2026-04-03T10:49:39.88Z</time></trkpt><trkpt lat="43.1921157" lon="10.9082342"><ele>616.0</ele><time>2026-04-03T10:49:40.878Z</time></trkpt><trkpt lat="43.1922742" lon="10.9082699"><ele>616.0</ele><time>2026-04-03T10:49:41.878Z</time></trkpt><trkpt lat="43.1924347" lon="10.9083051"><ele>622.0</ele><time>2026-04-03T10:49:42.876Z</time></trkpt><trkpt lat="43.1925951" lon="10.9083398"><ele>628.0</ele><time>2026-04-03T10:49:43.883Z</time></trkpt><trkpt lat="43.1927556" lon="10.9083715"><ele>634.0</ele><time>2026-04-03T10:49:44.879Z</time></trkpt><trkpt lat="43.1929179" lon="10.9084015"><ele>627.3333333333334</ele><time>2026-04-03T10:49:45.878Z</time></trkpt><trkpt lat="43.193081" lon="10.9084299"><ele>620.6666666666666</ele><time>2026-04-03T10:49:46.875Z</time></trkpt><trkpt lat="43.1932346" lon="10.9084542"><ele>614.0</ele><time>2026-04-03T10:49:47.877Z</time></trkpt><trkpt lat="43.1933751" lon="10.9084772"><ele>614.0</ele><time>2026-04-03T10:49:48.88Z</time></trkpt><trkpt lat="43.1935093" lon="10.9084933"><ele>614.0</ele><time>2026-04-03T10:49:49.878Z</time></trkpt><trkpt lat="43.1936468" lon="10.9085037"><ele>614.0</ele><time>2026-04-03T10:49:50.886Z</time></trkpt><trkpt lat="43.1937893" lon="10.908497"><ele>614.0</ele><time>2026-04-03T10:49:51.878Z</time></trkpt><trkpt lat="43.1939361" lon="10.9084684"><ele>615.6666666666666</ele><time>2026-04-03T10:49:52.885Z</time></trkpt><trkpt lat="43.1940831" lon="10.9084176"><ele>617.3333333333334</ele><time>2026-04-03T10:49:53.872Z</time></trkpt><trkpt lat="43.1942293" lon="10.9083345"><ele>619.0</ele><time>2026-04-03T10:49:54.88Z</time></trkpt><trkpt lat="43.1943748" lon="10.9082214"><ele>627.6666666666667</ele><time>2026-04-03T10:49:55.881Z</time></trkpt><trkpt lat="43.1945014" lon="10.9080763"><ele>636.3333333333334</ele><time>2026-04-03T10:49:56.881Z</time></trkpt><trkpt lat="43.1946189" lon="10.9079065"><ele>645.0</ele><time>2026-04-03T10:49:57.877Z</time></trkpt><trkpt lat="43.1947225" lon="10.9077223"><ele>645.5</ele><time>2026-04-03T10:49:58.877Z</time></trkpt><trkpt lat="43.1948187" lon="10.9075529"><ele>646.0</ele><time>2026-04-03T10:49:59.877Z</time></trkpt><trkpt lat="43.1949136" lon="10.9074009"><ele>646.5</ele><time>2026-04-03T10:50:00.877Z</time></trkpt><trkpt lat="43.1950136" lon="10.9072732"><ele>647.0</ele><time>2026-04-03T10:50:01.872Z</time></trkpt><trkpt lat="43.1951265" lon="10.9071693"><ele>647.0</ele><time>2026-04-03T10:50:02.871Z</time></trkpt><trkpt lat="43.1952558" lon="10.9070962"><ele>647.0</ele><time>2026-04-03T10:50:03.871Z</time></trkpt><trkpt lat="43.1953986" lon="10.9070573"><ele>647.0</ele><time>2026-04-03T10:50:04.877Z</time></trkpt><trkpt lat="43.1955491" lon="10.9070438"><ele>647.0</ele><time>2026-04-03T10:50:05.877Z</time></trkpt><trkpt lat="43.1957068" lon="10.9070357"><ele>643.6666666666666</ele><time>2026-04-03T10:50:06.877Z</time></trkpt><trkpt lat="43.1958692" lon="10.9070268"><ele>640.3333333333334</ele><time>2026-04-03T10:50:07.877Z</time></trkpt><trkpt lat="43.1960371" lon="10.9070215"><ele>637.0</ele><time>2026-04-03T10:50:08.873Z</time></trkpt><trkpt lat="43.1962083" lon="10.9070336"><ele>637.0</ele><time>2026-04-03T10:50:09.877Z</time></trkpt><trkpt lat="43.1963749" lon="10.9070795"><ele>637.0</ele><time>2026-04-03T10:50:10.88Z</time></trkpt><trkpt lat="43.196525" lon="10.9071582"><ele>637.0</ele><time>2026-04-03T10:50:11.874Z</time></trkpt><trkpt lat="43.1966591" lon="10.9072589"><ele>638.5</ele><time>2026-04-03T10:50:12.879Z</time></trkpt><trkpt lat="43.196791" lon="10.9073552"><ele>640.0</ele><time>2026-04-03T10:50:13.886Z</time></trkpt><trkpt lat="43.1969308" lon="10.9074237"><ele>641.5</ele><time>2026-04-03T10:50:14.881Z</time></trkpt><trkpt lat="43.1970768" lon="10.9074551"><ele>643.0</ele><time>2026-04-03T10:50:15.882Z</time></trkpt><trkpt lat="43.1972218" lon="10.9074452"><ele>643.75</ele><time>2026-04-03T10:50:16.878Z</time></trkpt><trkpt lat="43.1973601" lon="10.9073943"><ele>644.5</ele><time>2026-04-03T10:50:17.878Z</time></trkpt><trkpt lat="43.1974858" lon="10.9073009"><ele>645.25</ele><time>2026-04-03T10:50:18.876Z</time></trkpt><trkpt lat="43.1975999" lon="10.9071757"><ele>646.0</ele><time>2026-04-03T10:50:19.877Z</time></trkpt><trkpt lat="43.1977103" lon="10.9070341"><ele>646.0</ele><time>2026-04-03T10:50:20.875Z</time></trkpt><trkpt lat="43.1978248" lon="10.906895"><ele>646.0</ele><time>2026-04-03T10:50:21.88Z</time></trkpt><trkpt lat="43.197948" lon="10.9067631"><ele>646.0</ele><time>2026-04-03T10:50:22.876Z</time></trkpt><trkpt lat="43.1980753" lon="10.9066454"><ele>646.0</ele><time>2026-04-03T10:50:23.878Z</time></trkpt><trkpt lat="43.198197" lon="10.9065555"><ele>646.0</ele><time>2026-04-03T10:50:24.873Z</time></trkpt><trkpt lat="43.1983106" lon="10.906505"><ele>646.0</ele><time>2026-04-03T10:50:25.879Z</time></trkpt><trkpt lat="43.1984221" lon="10.9064993"><ele>646.0</ele><time>2026-04-03T10:50:26.875Z</time></trkpt><trkpt lat="43.1985337" lon="10.9065253"><ele>646.0</ele><time>2026-04-03T10:50:27.88Z</time></trkpt><trkpt lat="43.1986524" lon="10.9065592"><ele>646.0</ele><time>2026-04-03T10:50:28.877Z</time></trkpt><trkpt lat="43.1987803" lon="10.9065741"><ele>646.0</ele><time>2026-04-03T10:50:29.877Z</time></trkpt><trkpt lat="43.1989106" lon="10.9065468"><ele>646.0</ele><time>2026-04-03T10:50:30.876Z</time></trkpt><trkpt lat="43.1990327" lon="10.9064727"><ele>643.5</ele><time>2026-04-03T10:50:31.879Z</time></trkpt><trkpt lat="43.1991398" lon="10.9063628"><ele>641.0</ele><time>2026-04-03T10:50:32.88Z</time></trkpt><trkpt lat="43.1992328" lon="10.9062275"><ele>638.5</ele><time>2026-04-03T10:50:33.88Z</time></trkpt><trkpt lat="43.1993192" lon="10.9060804"><ele>636.0</ele><time>2026-04-03T10:50:34.878Z</time></trkpt><trkpt lat="43.1994056" lon="10.9059285"><ele>641.75</ele><time>2026-04-03T10:50:35.886Z</time></trkpt><trkpt lat="43.1994951" lon="10.9057718"><ele>647.5</ele><time>2026-04-03T10:50:36.874Z</time></trkpt><trkpt lat="43.1995903" lon="10.9056149"><ele>653.25</ele><time>2026-04-03T10:50:37.883Z</time></trkpt><trkpt lat="43.1996909" lon="10.9054679"><ele>659.0</ele><time>2026-04-03T10:50:38.878Z</time></trkpt><trkpt lat="43.1997951" lon="10.9053376"><ele>655.25</ele><time>2026-04-03T10:50:39.872Z</time></trkpt><trkpt lat="43.1998973" lon="10.905219"><ele>651.5</ele><time>2026-04-03T10:50:40.881Z</time></trkpt><trkpt lat="43.1999961" lon="10.9051099"><ele>647.75</ele><time>2026-04-03T10:50:41.882Z</time></trkpt><trkpt lat="43.2000922" lon="10.905013"><ele>644.0</ele><time>2026-04-03T10:50:42.879Z</time></trkpt><trkpt lat="43.2001833" lon="10.9049337"><ele>644.0</ele><time>2026-04-03T10:50:43.878Z</time></trkpt><trkpt lat="43.2002731" lon="10.9048676"><ele>644.0</ele><time>2026-04-03T10:50:44.874Z</time></trkpt><trkpt lat="43.2003672" lon="10.9048303"><ele>644.0</ele><time>2026-04-03T10:50:45.874Z</time></trkpt><trkpt lat="43.2004658" lon="10.9048214"><ele>644.0</ele><time>2026-04-03T10:50:46.872Z</time></trkpt></trkseg></trk></gpx>